# Wetter Temperatur Luftdruck Luftfeuchtigkeit Sichtweite Windgeschwindigkeit Windrichtung Zeit
1 Clear 30 1014 62 10000 3.6 150 15:34 04.07.2022
2 Clear 31 1014 62 10000 3.09 130 13:41 04.07.2022
3 Clear 30 1015 66 10000 2.06 150 12:38 04.07.2022
4 Clouds 29 1015 65 10000 2.57 110 10:39 04.07.2022
5 Clouds 29 1015 64 10000 2.57 110 10:18 04.07.2022
6 Clouds 25 1014 71 10000 2.06 80 08:31 04.07.2022
7 Clear 24 1014 67 10000 4.12 310 05:34 04.07.2022
8 Clear 25 1015 67 10000 2.06 250 00:43 04.07.2022
9 Clear 26 1015 70 10000 2.57 210 23:27 03.07.2022
10 Clear 26 1015 69 10000 2.06 210 22:23 03.07.2022
11 Clear 28 1015 62 10000 2.06 200 20:42 03.07.2022
12 Clear 29 1015 56 10000 1.54 170 19:42 03.07.2022
13 Clear 29 1015 56 10000 2.06 170 19:23 03.07.2022
14 Clear 30 1016 53 10000 2.06 160 17:45 03.07.2022
15 Clear 31 1016 52 10000 2.57 160 16:58 03.07.2022
16 Clear 31 1016 54 10000 2.57 110 15:26 03.07.2022
17 Clear 31 1016 57 10000 4.63 140 14:37 03.07.2022
18 Clear 31 1016 53 10000 3.09 100 13:49 03.07.2022
19 Clear 31 1016 53 10000 2.57 110 12:42 03.07.2022
20 Clear 31 1016 54 10000 3.6 130 11:40 03.07.2022
21 Clear 30 1015 51 10000 3.09 100 10:40 03.07.2022
22 Clear 30 1016 50 10000 2.06 100 10:20 03.07.2022
23 Clear 25 1016 56 10000 2.57 330 07:37 03.07.2022
24 Clear 23 1016 58 10000 2.57 350 05:26 03.07.2022
25 Clear 24 1017 56 10000 4.12 320 00:25 03.07.2022
26 Clear 25 1017 69 10000 2.06 250 22:36 02.07.2022
27 Clear 25 1016 69 10000 2.06 240 21:43 02.07.2022
28 Clear 27 1017 63 10000 1.54 180 20:21 02.07.2022
29 Clear 28 1017 62 10000 2.06 200 19:49 02.07.2022
30 Clear 29 1017 58 10000 2.57 140 17:59 02.07.2022
31 Clear 29 1017 59 10000 2.57 150 17:37 02.07.2022
32 Clear 29 1017 63 10000 3.6 130 15:46 02.07.2022
33 Clear 29 1018 69 10000 3.09 130 12:56 02.07.2022
34 Clear 28 1017 71 10000 4.12 110 11:48 02.07.2022
35 Clear 28 1017 68 10000 4.12 100 10:50 02.07.2022
36 Clear 25 1017 71 10000 2.06 60 09:49 02.07.2022
37 Clear 24 1017 69 10000 3.6 330 08:37 02.07.2022
38 Clear 24 1017 69 10000 3.6 330 08:19 02.07.2022
39 Clear 22 1015 78 10000 3.6 340 02:53 02.07.2022
40 Clear 22 1015 82 10000 2.99 26 00:27 02.07.2022
41 Clear 24 1014 77 10000 5.14 80 22:59 01.07.2022
42 Clear 24 1013 79 10000 5.14 90 22:29 01.07.2022
43 Clear 24 1013 80 10000 5.14 90 21:37 01.07.2022
44 Clear 26 1013 75 10000 5.14 100 20:58 01.07.2022
45 Clear 27 1012 71 10000 5.66 90 20:20 01.07.2022
46 Clouds 27 1012 67 10000 6.69 90 19:36 01.07.2022
47 Clouds 29 1012 61 10000 6.17 100 16:41 01.07.2022
48 Clouds 27 1012 66 10000 3.09 170 14:31 01.07.2022
49 Clouds 27 1012 70 10000 3.6 170 13:39 01.07.2022
50 Clouds 26 1012 72 10000 2.57 120 10:54 01.07.2022
51 Clouds 26 1012 71 10000 2.06 140 10:19 01.07.2022
52 Clear 22 1011 80 10000 2.57 330 07:32 01.07.2022
53 Clear 22 1011 74 10000 2.06 340 02:43 01.07.2022
54 Clouds 22 1011 87 10000 1.01 313 23:52 30.06.2022
55 Clouds 23 1011 86 10000 1.19 312 22:51 30.06.2022
56 Clouds 23 1011 84 10000 1.54 110 22:32 30.06.2022
57 Clouds 23 1011 84 10000 1.54 110 22:32 30.06.2022
58 Clouds 23 1011 84 10000 1.54 110 22:32 30.06.2022
59 Clouds 23 1011 84 10000 2.06 100 21:54 30.06.2022
60 Clouds 24 1011 80 10000 1.03 0 20:49 30.06.2022
61 Clouds 25 1012 79 10000 1.54 150 20:21 30.06.2022
62 Clouds 25 1011 76 10000 2.06 140 19:48 30.06.2022
63 Clouds 26 1011 73 10000 3.09 110 18:56 30.06.2022
64 Clouds 27 1011 70 10000 3.09 130 18:22 30.06.2022
65 Clouds 27 1013 67 10000 2.57 120 17:36 30.06.2022
66 Clouds 27 1013 67 10000 4.63 120 16:22 30.06.2022
67 Clouds 27 1012 69 10000 5.14 100 14:20 30.06.2022
68 Clouds 26 1012 71 10000 4.63 120 13:29 30.06.2022
69 Clouds 26 1012 71 10000 5.14 110 12:34 30.06.2022
70 Clouds 26 1012 73 10000 5.14 100 11:23 30.06.2022
71 Clouds 25 1011 73 10000 4.12 90 09:53 30.06.2022
72 Clouds 24 1011 75 10000 2.06 60 09:29 30.06.2022
73 Clouds 22 1011 82 10000 2.57 340 07:41 30.06.2022
74 Clouds 20 1011 84 10000 3.6 320 05:47 30.06.2022
75 Clouds 22 1011 83 10000 4.63 90 00:31 30.06.2022
76 Clouds 22 1011 83 10000 4.63 90 23:19 29.06.2022
77 Clouds 23 1010 84 10000 3.6 80 22:38 29.06.2022
78 Clouds 24 1010 83 10000 4.12 110 21:34 29.06.2022
79 Clear 25 1010 80 10000 6.69 110 20:33 29.06.2022
80 Clear 27 1010 71 10000 6.17 90 19:37 29.06.2022
81 Clear 27 1010 71 10000 6.17 90 17:43 29.06.2022
82 Clear 28 1012 67 10000 4.63 110 16:36 29.06.2022
83 Clear 27 1011 69 10000 3.09 140 14:56 29.06.2022
84 Clear 26 1011 69 10000 6.17 190 12:40 29.06.2022
85 Clear 26 1011 65 10000 3.09 200 10:56 29.06.2022
86 Clear 24 1012 58 10000 3.6 330 09:32 29.06.2022
87 Clear 21 1011 76 10000 5.66 330 07:39 29.06.2022
88 Clear 20 1011 76 10000 5.14 330 04:54 29.06.2022
89 Clear 20 1012 79 10000 3.6 300 00:58 29.06.2022
90 Clear 21 1012 76 10000 3.09 300 00:36 29.06.2022
91 Clear 20 1012 79 10000 3.09 330 22:54 28.06.2022
92 Clear 20 1012 81 10000 2.57 320 22:30 28.06.2022
93 Clear 20 1011 79 10000 5.14 320 21:55 28.06.2022
94 Clear 21 1012 82 10000 5.14 330 21:33 28.06.2022
95 Clear 21 1012 80 10000 4.63 340 20:44 28.06.2022
96 Thunderstorm 21 1011 80 8000 14.4 360 19:34 28.06.2022
97 Thunderstorm 21 1011 76 10000 14.4 10 18:53 28.06.2022
98 Thunderstorm 21 1010 81 10000 8.23 20 17:42 28.06.2022
99 Thunderstorm 26 1008 71 10000 10.8 110 16:21 28.06.2022
100 Thunderstorm 26 1008 72 10000 10.8 120 15:42 28.06.2022
101 Clouds 28 1008 70 10000 6.69 100 14:21 28.06.2022
102 Clouds 28 1008 69 10000 7.2 100 13:54 28.06.2022
103 Clear 30 1009 64 10000 8.23 80 13:20 28.06.2022
104 Clear 29 1010 63 10000 2.06 160 11:21 28.06.2022
105 Clear 27 1010 59 10000 2.06 320 09:36 28.06.2022
106 Clear 27 1010 62 10000 2.57 320 08:44 28.06.2022
107 Clouds 26 1010 64 10000 3.09 320 07:58 28.06.2022
108 Clouds 25 1011 62 10000 2.57 330 07:19 28.06.2022
109 Clear 24 1012 81 10000 0 0 01:33 28.06.2022
110 Clear 25 1012 75 10000 5.14 80 23:44 27.06.2022
111 Clear 26 1012 66 10000 3.09 90 22:55 27.06.2022
112 Clear 27 1012 60 10000 1.54 50 21:38 27.06.2022
113 Clear 27 1012 60 10000 1.54 50 21:38 27.06.2022
114 Clear 28 1012 58 10000 3.09 30 20:54 27.06.2022
115 Clear 29 1012 55 10000 0.51 0 19:44 27.06.2022
116 Clear 30 1012 51 10000 1.54 150 18:40 27.06.2022
117 Clear 31 1013 41 10000 1.03 0 16:44 27.06.2022
118 Clear 31 1013 43 10000 1.54 180 15:43 27.06.2022
119 Clear 31 1012 47 10000 4.12 110 13:44 27.06.2022
120 Clear 31 1012 49 10000 6.17 100 12:57 27.06.2022
121 Clear 29 1011 52 10000 6.17 80 10:43 27.06.2022
122 Clear 28 1011 51 10000 2.06 80 09:37 27.06.2022
123 Clear 27 1010 51 10000 3.09 330 08:38 27.06.2022
124 Clear 25 1010 56 10000 3.09 330 07:39 27.06.2022
125 Clear 25 1010 53 10000 3.09 330 04:40 27.06.2022
126 Clear 26 1010 53 10000 3.6 310 01:20 27.06.2022
127 Clear 26 1010 58 10000 7.72 70 22:47 26.06.2022
128 Clear 28 1009 54 10000 8.23 80 21:23 26.06.2022
129 Clear 30 1009 46 10000 8.23 80 19:59 26.06.2022
130 Clouds 30 1010 48 10000 10.8 90 18:33 26.06.2022
131 Clouds 30 1010 49 10000 11.32 90 17:37 26.06.2022
132 Clouds 30 1011 56 10000 9.26 90 15:35 26.06.2022
133 Clouds 29 1012 60 10000 11.32 90 13:59 26.06.2022
134 Clouds 29 1011 61 10000 11.83 90 13:23 26.06.2022
135 Clouds 29 1012 61 10000 7.2 90 11:39 26.06.2022
136 Clouds 28 1012 56 10000 7.2 80 10:30 26.06.2022
137 Clouds 27 1012 58 10000 5.66 80 09:55 26.06.2022
138 Clouds 23 1013 62 10000 2.06 40 07:47 26.06.2022
139 Clear 21 1012 72 10000 2.57 10 05:26 26.06.2022
140 Clouds 23 1013 83 10000 2.06 90 00:36 26.06.2022
141 Clouds 23 1013 83 10000 2.06 90 00:18 26.06.2022
142 Clouds 23 1013 84 10000 2.57 100 23:29 25.06.2022
143 Clouds 23 1012 85 10000 3.09 100 22:42 25.06.2022
144 Clouds 23 1012 84 10000 3.09 100 22:24 25.06.2022
145 Clouds 24 1012 80 10000 3.6 90 21:21 25.06.2022
146 Clouds 26 1011 71 10000 2.06 120 20:36 25.06.2022
147 Clear 27 1011 69 10000 2.57 140 19:56 25.06.2022
148 Clear 28 1012 65 10000 3.09 190 18:22 25.06.2022
149 Clear 28 1012 60 10000 2.57 180 17:26 25.06.2022
150 Clouds 27 1012 60 10000 5.14 190 16:26 25.06.2022
151 Clouds 28 1012 64 10000 3.6 180 14:29 25.06.2022
152 Clouds 28 1012 57 10000 4.63 180 12:45 25.06.2022
153 Clear 28 1012 59 10000 3.09 130 11:55 25.06.2022
154 Clear 25 1012 60 10000 2.57 90 09:24 25.06.2022
155 Clear 24 1012 56 10000 2.57 360 08:49 25.06.2022
156 Clear 23 1012 58 10000 3.6 340 08:20 25.06.2022
157 Clear 21 1011 60 10000 3.09 330 06:34 25.06.2022
158 Clear 23 1011 79 10000 4.12 320 00:44 25.06.2022
159 Clear 23 1011 79 10000 4.12 320 00:44 25.06.2022
160 Clear 23 1011 70 10000 2.57 360 23:46 24.06.2022
161 Clear 24 1010 68 10000 6.17 230 22:22 24.06.2022
162 Clouds 25 1009 75 10000 9.26 220 21:22 24.06.2022
163 Clouds 26 1009 75 10000 8.23 210 20:23 24.06.2022
164 Clouds 27 1009 74 10000 6.69 210 19:24 24.06.2022
165 Clouds 27 1009 74 10000 8.75 210 18:51 24.06.2022
166 Clouds 27 1010 74 10000 7.2 210 18:31 24.06.2022
167 Clouds 27 1010 74 10000 5.14 200 17:49 24.06.2022
168 Clouds 27 1010 73 10000 5.66 210 16:45 24.06.2022
169 Clouds 27 1010 73 10000 6.17 210 16:45 24.06.2022
170 Clouds 27 1010 71 10000 9.77 200 14:30 24.06.2022
171 Clouds 27 1010 73 10000 8.75 200 13:58 24.06.2022
172 Clouds 27 1010 72 10000 7.2 190 12:49 24.06.2022
173 Clouds 27 1011 66 10000 5.66 190 11:40 24.06.2022
174 Clouds 26 1011 69 10000 3.09 190 10:36 24.06.2022
175 Clouds 25 1011 67 10000 1.54 0 09:41 24.06.2022
176 Clouds 24 1012 69 10000 4.63 330 08:53 24.06.2022
177 Clouds 22 1011 72 10000 5.66 330 07:56 24.06.2022
178 Clouds 21 1011 76 10000 5.14 330 06:43 24.06.2022
179 Clouds 20 1011 78 10000 4.63 330 06:20 24.06.2022
180 Clear 21 1011 79 10000 3.6 310 04:41 24.06.2022
181 Clouds 23 1012 80 10000 3.09 250 23:24 23.06.2022
182 Clouds 24 1012 78 10000 5.14 250 22:42 23.06.2022
183 Clouds 25 1012 76 10000 5.14 200 20:59 23.06.2022
184 Clouds 26 1012 72 10000 5.66 190 20:36 23.06.2022
185 Clouds 27 1012 70 10000 4.63 180 19:48 23.06.2022
186 Clouds 28 1012 63 10000 2.57 170 18:26 23.06.2022
187 Clouds 27 1013 64 10000 3.09 160 17:33 23.06.2022
188 Clouds 27 1013 70 10000 2.57 190 16:26 23.06.2022
189 Clouds 26 1013 72 10000 1.54 340 15:26 23.06.2022
190 Rain 24 1014 83 10000 2.06 250 14:18 23.06.2022
191 Rain 24 1013 83 9000 1.54 90 11:33 23.06.2022
192 Rain 25 1013 79 10000 3.09 130 10:40 23.06.2022
193 Clouds 25 1012 73 10000 1.54 90 09:19 23.06.2022
194 Clear 22 1011 72 10000 3.09 330 04:43 23.06.2022
195 Clear 24 1012 74 10000 2.57 30 00:27 23.06.2022
196 Clear 24 1012 75 10000 1.54 250 23:49 22.06.2022
197 Clear 25 1011 76 10000 4.12 230 22:53 22.06.2022
198 Clouds 25 1009 77 10000 2.06 220 21:28 22.06.2022
199 Clouds 26 1010 71 10000 2.57 170 20:48 22.06.2022
200 Clear 27 1010 67 10000 2.06 360 20:18 22.06.2022
201 Clear 28 1011 67 10000 1.03 0 18:57 22.06.2022
202 Clouds 27 1011 76 10000 4.63 150 17:31 22.06.2022
203 Clear 27 1011 69 10000 3.6 110 16:40 22.06.2022
204 Rain 25 1011 79 10000 2.57 50 15:28 22.06.2022
205 Rain 24 1012 79 10000 3.6 320 14:41 22.06.2022
206 Rain 24 1013 85 10000 3.09 120 13:46 22.06.2022
207 Rain 25 1013 84 10000 3.09 120 13:24 22.06.2022
208 Clouds 26 1011 68 10000 4.63 20 11:50 22.06.2022
209 Clouds 26 1011 68 10000 4.63 20 11:50 22.06.2022
210 Clouds 24 1012 80 10000 2.06 340 10:58 22.06.2022
211 Rain 24 1012 81 10000 4.63 290 10:36 22.06.2022
212 Rain 25 1010 67 10000 6.69 40 08:57 22.06.2022
213 Rain 23 1011 82 10000 1.03 0 06:55 22.06.2022
214 Clear 24 1011 81 10000 1.54 0 01:59 22.06.2022
215 Clouds 23 1011 84 10000 2.03 51 00:56 22.06.2022
216 Clouds 24 1012 83 10000 2.44 31 22:49 21.06.2022
217 Clear 26 1011 75 10000 3.09 110 20:47 21.06.2022
218 Clouds 26 1011 74 10000 2.57 180 19:23 21.06.2022
219 Rain 27 1012 69 10000 1.54 160 17:54 21.06.2022
220 Clouds 28 1012 67 10000 3.6 120 16:38 21.06.2022
221 Clouds 29 1013 66 10000 3.09 110 11:57 21.06.2022
222 Clouds 28 1012 64 10000 2.57 170 10:46 21.06.2022
223 Clear 26 1012 59 10000 3.09 250 09:24 21.06.2022
224 Clear 25 1011 54 10000 1.54 310 07:49 21.06.2022
225 Clear 23 1012 58 10000 4.12 330 04:57 21.06.2022
226 Clear 25 1012 61 10000 2.06 330 00:23 21.06.2022
227 Clear 26 1012 67 10000 2.57 240 22:21 20.06.2022
228 Clear 27 1012 68 10000 6.69 230 21:40 20.06.2022
229 Clear 28 1012 67 10000 6.69 210 20:29 20.06.2022
230 Clouds 28 1012 71 10000 3.6 170 19:37 20.06.2022
231 Clouds 29 1012 67 10000 3.6 190 18:34 20.06.2022
232 Clouds 29 1012 68 10000 2.57 170 17:49 20.06.2022
233 Clouds 29 1013 66 10000 3.6 160 16:36 20.06.2022
234 Clouds 29 1013 63 10000 3.09 150 15:52 20.06.2022
235 Clear 29 1014 61 10000 3.6 140 12:37 20.06.2022
236 Clear 28 1014 53 10000 1.54 180 10:22 20.06.2022
237 Clear 26 1013 53 10000 2.06 320 08:56 20.06.2022
238 Clear 24 1013 57 10000 2.57 340 07:53 20.06.2022
239 Clear 23 1013 56 10000 3.6 330 05:26 20.06.2022
240 Clear 24 1013 52 10000 2.06 330 01:33 20.06.2022
241 Clear 24 1013 51 10000 2.06 320 00:19 20.06.2022
242 Clear 25 1013 61 10000 1.54 80 22:46 19.06.2022
243 Clear 25 1013 59 10000 1.54 110 21:48 19.06.2022
244 Clear 25 1013 59 10000 1.54 110 21:48 19.06.2022
245 Clear 26 1014 50 10000 2.06 110 21:29 19.06.2022
246 Clear 28 1013 50 10000 2.06 120 20:38 19.06.2022
247 Clear 29 1013 41 10000 2.57 120 19:47 19.06.2022
248 Clear 30 1013 44 10000 2.57 110 18:43 19.06.2022
249 Clear 30 1015 33 10000 3.09 100 17:48 19.06.2022
250 Clear 31 1014 39 10000 3.6 100 17:22 19.06.2022
251 Clear 31 1014 41 10000 3.09 90 16:34 19.06.2022
252 Clear 31 1014 45 10000 3.6 100 15:41 19.06.2022
253 Clear 31 1014 48 10000 3.09 100 14:56 19.06.2022
254 Clear 31 1015 47 10000 3.6 100 14:19 19.06.2022
255 Clear 31 1015 41 10000 4.63 100 12:56 19.06.2022
256 Clear 30 1015 52 10000 3.6 90 10:55 19.06.2022
257 Clear 29 1015 56 10000 2.06 110 09:46 19.06.2022
258 Clear 27 1015 63 10000 2.06 60 08:47 19.06.2022
259 Clear 26 1015 70 10000 1.54 40 07:59 19.06.2022
260 Clear 25 1014 72 10000 3.09 90 05:37 19.06.2022
261 Clear 27 1015 61 10000 2.06 350 01:29 19.06.2022
262 Clear 26 1015 65 10000 1.03 260 00:24 19.06.2022
263 Clear 27 1016 64 10000 1.54 240 23:36 18.06.2022
264 Clouds 27 1015 63 10000 2.06 120 22:39 18.06.2022
265 Clouds 29 1016 54 10000 1.54 140 20:57 18.06.2022
266 Clouds 29 1016 53 10000 2.06 120 20:38 18.06.2022
267 Clouds 31 1016 49 10000 2.06 90 19:40 18.06.2022
268 Clouds 31 1016 46 10000 1.03 110 18:53 18.06.2022
269 Clear 31 1018 51 10000 2.06 90 17:35 18.06.2022
270 Clear 33 1019 45 10000 1.61 69 16:56 18.06.2022
271 Clear 31 1018 55 10000 4.12 110 15:37 18.06.2022
272 Clear 31 1018 57 10000 4.63 100 14:46 18.06.2022
273 Clear 30 1018 56 10000 2.06 100 13:30 18.06.2022
274 Clear 31 1018 58 10000 3.6 100 11:56 18.06.2022
275 Clear 30 1018 58 10000 3.6 100 10:56 18.06.2022
276 Clear 28 1018 63 10000 1.54 0 09:28 18.06.2022
277 Clear 27 1019 61 10000 1.54 0 08:30 18.06.2022
278 Clear 25 1018 73 10000 1.54 0 07:20 18.06.2022
279 Clear 25 1018 73 10000 5.14 80 03:58 18.06.2022
280 Clear 26 1017 78 10000 1.54 70 01:26 18.06.2022
281 Clear 26 1017 68 10000 2.06 340 00:49 18.06.2022
282 Clear 25 1017 71 10000 2.06 290 23:59 17.06.2022
283 Clear 26 1017 66 10000 1.54 280 23:29 17.06.2022
284 Clear 27 1016 67 10000 1.54 170 21:33 17.06.2022
285 Clear 29 1016 61 10000 1.54 190 20:26 17.06.2022
286 Clouds 29 1016 62 10000 3.6 200 18:52 17.06.2022
287 Clouds 29 1016 60 10000 3.09 190 17:46 17.06.2022
288 Clouds 30 1017 58 10000 2.06 170 16:43 17.06.2022
289 Clouds 30 1017 57 10000 2.57 170 16:19 17.06.2022
290 Clouds 30 1017 58 10000 2.06 170 15:37 17.06.2022
291 Clouds 30 1018 60 10000 2.06 120 14:22 17.06.2022
292 Clouds 29 1018 60 10000 1.54 160 13:51 17.06.2022
293 Clouds 30 1018 62 10000 2.06 130 13:31 17.06.2022
294 Clear 29 1017 65 10000 2.06 140 11:59 17.06.2022
295 Clear 29 1017 66 10000 2.57 130 11:39 17.06.2022
296 Clear 29 1017 67 10000 2.57 130 11:21 17.06.2022
297 Clouds 25 1017 72 10000 1.03 0 08:39 17.06.2022
298 Clouds 24 1017 73 10000 1.03 0 07:53 17.06.2022
299 Clouds 22 1017 75 10000 2.57 320 06:35 17.06.2022
300 Clear 22 1016 75 10000 2.06 20 03:24 17.06.2022
301 Clouds 23 1017 79 10000 1.03 90 01:27 17.06.2022
302 Clear 23 1016 83 10000 1.54 130 23:30 16.06.2022
303 Clear 24 1016 83 10000 1.03 0 22:38 16.06.2022
304 Clear 25 1015 76 10000 1.54 140 21:21 16.06.2022
305 Clear 25 1015 75 10000 1.54 140 20:50 16.06.2022
306 Clear 26 1015 72 10000 1.03 0 20:21 16.06.2022
307 Clear 28 1015 67 10000 1.54 140 18:51 16.06.2022
308 Clear 28 1016 65 10000 2.06 150 17:50 16.06.2022
309 Clouds 28 1016 65 10000 2.06 150 17:27 16.06.2022
310 Clouds 29 1017 62 10000 3.09 140 16:20 16.06.2022
311 Clear 29 1017 59 10000 2.57 120 15:21 16.06.2022
312 Clouds 29 1018 66 10000 2.06 150 14:27 16.06.2022
313 Clouds 28 1018 68 10000 3.09 160 12:56 16.06.2022
314 Clouds 28 1018 67 10000 3.09 160 12:34 16.06.2022
315 Clouds 28 1018 69 10000 2.57 150 11:48 16.06.2022
316 Clear 28 1018 65 10000 2.57 120 10:42 16.06.2022
317 Clear 27 1018 68 10000 2.06 170 09:43 16.06.2022
318 Clear 26 1018 71 10000 1.54 260 09:19 16.06.2022
319 Clouds 23 1017 79 10000 3.09 330 07:57 16.06.2022
320 Clouds 22 1017 81 10000 3.09 350 06:49 16.06.2022
321 Clear 22 1017 87 10000 0.84 43 04:28 16.06.2022
322 Clouds 23 1018 86 10000 5.14 90 01:53 16.06.2022
323 Clear 23 1018 87 10000 4.12 90 01:32 16.06.2022
324 Clear 24 1018 79 10000 1.54 100 00:36 16.06.2022
325 Clear 24 1017 76 10000 1.54 210 23:23 15.06.2022
326 Clear 24 1016 77 10000 3.09 230 21:59 15.06.2022
327 Clear 25 1016 74 10000 2.57 220 21:20 15.06.2022
328 Clear 26 1016 70 10000 3.09 190 20:38 15.06.2022
329 Clear 27 1016 67 10000 3.09 190 20:18 15.06.2022
330 Clouds 25 1017 73 10000 2.57 220 18:51 15.06.2022
331 Clear 27 1018 71 10000 2.57 140 17:55 15.06.2022
332 Clear 27 1018 67 10000 1.54 150 16:38 15.06.2022
333 Clear 28 1018 66 10000 2.06 150 15:26 15.06.2022
334 Clear 28 1018 65 10000 3.09 170 13:43 15.06.2022
335 Clear 29 1018 64 10000 2.57 140 12:53 15.06.2022
336 Clear 28 1017 67 10000 2.57 150 11:48 15.06.2022
337 Clear 27 1017 65 10000 2.57 120 10:23 15.06.2022
338 Clear 26 1017 64 10000 1.54 140 09:38 15.06.2022
339 Clear 25 1016 61 10000 0 0 08:27 15.06.2022
340 Clear 23 1016 70 10000 2.57 50 06:33 15.06.2022
341 Clear 23 1016 71 10000 0.51 300 03:45 15.06.2022
342 Clear 24 1016 68 10000 2.57 290 01:53 15.06.2022
343 Clear 24 1015 70 10000 1.54 270 00:50 15.06.2022
344 Clear 24 1015 71 10000 1.54 210 23:39 14.06.2022
345 Clear 24 1015 70 10000 1.03 200 22:56 14.06.2022
346 Clouds 25 1015 72 10000 2.57 200 22:18 14.06.2022
347 Clouds 25 1014 81 10000 3.09 200 21:33 14.06.2022
348 Clouds 27 1015 68 10000 3.6 200 20:48 14.06.2022
349 Clouds 27 1015 66 10000 3.09 200 20:28 14.06.2022
350 Clouds 29 1014 57 10000 2.57 190 18:54 14.06.2022
351 Clouds 29 1015 61 10000 2.57 180 17:39 14.06.2022
352 Clouds 28 1015 63 10000 2.57 180 16:43 14.06.2022
353 Clouds 28 1015 62 10000 2.57 150 15:50 14.06.2022
354 Clouds 28 1015 63 10000 3.09 140 15:22 14.06.2022
355 Clouds 28 1016 63 10000 3.6 110 14:30 14.06.2022
356 Clouds 29 1016 64 10000 2.57 120 13:41 14.06.2022
357 Clouds 28 1016 64 10000 2.06 120 12:42 14.06.2022
358 Clear 28 1015 62 10000 2.57 130 11:31 14.06.2022
359 Clear 27 1015 67 10000 2.06 110 10:47 14.06.2022
360 Clear 26 1015 69 10000 2.06 120 09:48 14.06.2022
361 Clear 26 1015 65 10000 1.03 0 08:46 14.06.2022
362 Clear 22 1014 68 10000 2.06 320 07:33 14.06.2022
363 Clouds 21 1014 75 10000 2.57 330 05:19 14.06.2022
364 Clouds 22 1014 73 10000 2.06 310 02:57 14.06.2022
365 Clear 22 1013 72 10000 2.57 100 00:32 14.06.2022
366 Clear 23 1013 73 10000 2.57 90 23:27 13.06.2022
367 Clear 23 1013 72 10000 3.6 80 22:26 13.06.2022
368 Clear 23 1013 72 10000 3.6 80 22:26 13.06.2022
369 Clear 23 1013 69 10000 3.6 70 21:50 13.06.2022
370 Clear 25 1013 69 10000 3.6 90 20:42 13.06.2022
371 Clear 27 1013 66 10000 1.54 100 19:34 13.06.2022
372 Clear 27 1013 66 10000 2.06 120 18:28 13.06.2022
373 Clear 27 1013 66 10000 3.09 120 17:47 13.06.2022
374 Clouds 27 1013 65 10000 3.6 100 16:52 13.06.2022
375 Clouds 28 1014 66 10000 4.63 110 15:39 13.06.2022
376 Clear 28 1014 66 10000 5.14 110 14:47 13.06.2022
377 Clouds 27 1014 69 10000 6.17 110 13:55 13.06.2022
378 Clouds 27 1015 71 10000 5.14 110 12:49 13.06.2022
379 Clouds 27 1015 72 10000 4.12 110 11:34 13.06.2022
380 Clouds 26 1015 72 10000 3.6 100 10:27 13.06.2022
381 Clouds 25 1015 73 10000 4.12 90 09:42 13.06.2022
382 Clouds 23 1015 75 10000 1.03 0 08:24 13.06.2022
383 Clouds 21 1015 79 10000 2.57 60 06:34 13.06.2022
384 Clouds 22 1015 74 10000 4.63 80 03:45 13.06.2022
385 Clear 22 1016 71 10000 1.54 110 01:38 13.06.2022
386 Clear 23 1016 69 10000 1.54 160 00:48 13.06.2022
387 Clear 24 1017 65 10000 2.06 210 23:31 12.06.2022
388 Clear 24 1016 62 10000 1.54 190 22:23 12.06.2022
389 Clear 24 1016 68 10000 1.54 0 21:40 12.06.2022
390 Clear 26 1017 65 10000 1.54 160 20:40 12.06.2022
391 Clear 27 1017 58 10000 2.57 180 19:41 12.06.2022
392 Clear 28 1017 51 10000 2.06 160 18:44 12.06.2022
393 Clear 28 1018 51 10000 3.09 160 16:44 12.06.2022
394 Clear 28 1019 53 10000 2.06 170 15:33 12.06.2022
395 Clear 29 1019 49 10000 2.06 150 14:41 12.06.2022
396 Clear 29 1019 49 10000 2.06 120 14:18 12.06.2022
397 Clear 28 1019 57 10000 2.06 170 13:43 12.06.2022
398 Clear 28 1020 55 10000 3.6 110 11:58 12.06.2022
399 Clear 28 1020 54 10000 3.6 100 10:46 12.06.2022
400 Clear 26 1020 51 10000 1.54 120 09:36 12.06.2022
401 Clear 26 1020 41 10000 1.54 60 08:49 12.06.2022
402 Clear 24 1019 54 10000 2.06 330 07:49 12.06.2022
403 Clear 21 1018 56 10000 1.54 10 06:21 12.06.2022
404 Clear 22 1017 57 10000 1.54 0 03:38 12.06.2022
405 Clear 23 1018 53 10000 3.6 300 01:49 12.06.2022
406 Clear 22 1018 59 10000 3.09 310 01:29 12.06.2022
407 Clear 24 1018 54 10000 3.09 330 00:43 12.06.2022
408 Clear 24 1018 54 10000 2.57 340 00:18 12.06.2022
409 Clear 24 1018 55 10000 2.57 130 23:18 11.06.2022
410 Clear 25 1018 53 10000 2.06 130 22:35 11.06.2022
411 Clear 26 1018 49 10000 1.03 0 21:18 11.06.2022
412 Clear 26 1018 49 10000 1.03 0 21:18 11.06.2022
413 Clear 27 1018 46 10000 1.54 120 20:26 11.06.2022
414 Clear 27 1017 51 10000 1.54 140 19:33 11.06.2022
415 Clear 28 1017 50 10000 2.06 140 18:43 11.06.2022
416 Clear 28 1017 50 10000 2.06 140 18:25 11.06.2022
417 Clear 27 1019 52 10000 2.57 140 17:47 11.06.2022
418 Clear 28 1019 45 10000 3.09 140 17:25 11.06.2022
419 Clear 29 1019 43 10000 3.09 130 16:42 11.06.2022
420 Clear 29 1019 41 10000 2.57 110 15:57 11.06.2022
421 Clear 29 1019 39 10000 2.57 120 14:43 11.06.2022
422 Clear 29 1019 37 10000 2.06 110 13:50 11.06.2022
423 Clear 28 1018 47 10000 2.57 170 11:55 11.06.2022
424 Clear 29 1018 37 10000 2.57 130 10:30 11.06.2022
425 Clear 27 1017 41 10000 2.06 100 09:41 11.06.2022
426 Clear 25 1017 38 10000 3.6 340 08:38 11.06.2022
427 Clear 21 1016 42 10000 5.14 350 06:33 11.06.2022
428 Clear 22 1016 39 10000 4.12 350 05:33 11.06.2022
429 Clear 22 1016 43 10000 2.57 340 02:55 11.06.2022
430 Clear 23 1017 39 10000 4.12 340 01:41 11.06.2022
431 Clear 23 1017 38 10000 4.12 340 00:55 11.06.2022
432 Clear 23 1016 36 10000 2.06 330 23:26 10.06.2022
433 Clear 24 1016 48 10000 1.54 260 22:20 10.06.2022
434 Clear 24 1016 43 10000 3.6 230 21:27 10.06.2022
435 Clear 26 1015 47 10000 4.12 210 20:38 10.06.2022
436 Clear 26 1015 45 10000 3.6 200 20:19 10.06.2022
437 Clear 26 1015 45 10000 3.6 200 20:19 10.06.2022
438 Clear 27 1015 42 10000 3.6 210 19:19 10.06.2022
439 Clear 27 1015 43 10000 3.09 190 18:32 10.06.2022
440 Clear 27 1015 44 10000 3.6 190 17:50 10.06.2022
441 Clear 27 1015 44 10000 3.6 190 17:21 10.06.2022
442 Clear 28 1015 41 10000 4.12 200 16:26 10.06.2022
443 Clear 27 1015 40 10000 3.09 190 15:38 10.06.2022
444 Clear 28 1015 42 10000 4.63 180 14:24 10.06.2022
445 Clear 28 1015 42 10000 4.12 190 12:57 10.06.2022
446 Clear 27 1014 44 10000 4.12 200 11:59 10.06.2022
447 Clear 26 1014 43 10000 3.6 210 10:46 10.06.2022
448 Clear 26 1014 43 10000 2.06 190 09:56 10.06.2022
449 Clear 25 1015 37 10000 3.09 300 08:47 10.06.2022
450 Clear 21 1013 45 10000 3.6 330 07:31 10.06.2022
451 Clear 21 1013 45 10000 4.12 330 06:45 10.06.2022
452 Clear 20 1012 41 10000 5.66 330 06:26 10.06.2022
453 Clear 21 1011 45 10000 6.17 320 04:37 10.06.2022
454 Clouds 22 1011 44 10000 3.09 330 01:59 10.06.2022
455 Clouds 22 1011 43 10000 4.12 330 01:36 10.06.2022
456 Clouds 22 1011 43 10000 4.12 330 01:36 10.06.2022
457 Clouds 23 1010 41 10000 3.6 330 23:57 09.06.2022
458 Clouds 23 1009 44 10000 3.09 40 22:22 09.06.2022
459 Clouds 24 1008 47 10000 4.12 70 21:37 09.06.2022
460 Clouds 25 1008 44 10000 3.6 70 20:58 09.06.2022
461 Clouds 26 1007 44 10000 3.09 60 20:27 09.06.2022
462 Clouds 26 1008 46 10000 3.6 70 19:31 09.06.2022
463 Clouds 27 1007 48 10000 3.6 70 19:31 09.06.2022
464 Clouds 27 1006 57 10000 5.14 80 18:35 09.06.2022
465 Clouds 27 1007 55 10000 4.12 110 17:25 09.06.2022
466 Clouds 27 1007 57 10000 3.6 110 16:21 09.06.2022
467 Clouds 27 1006 59 10000 4.12 160 14:42 09.06.2022
468 Clouds 27 1006 58 10000 4.12 160 14:23 09.06.2022
469 Clouds 26 1006 60 10000 3.6 170 13:29 09.06.2022
470 Clouds 26 1007 63 10000 4.12 180 12:46 09.06.2022
471 Clouds 26 1007 67 10000 4.12 190 11:19 09.06.2022
472 Clouds 25 1006 61 10000 2.57 200 09:50 09.06.2022
473 Clouds 24 1006 61 10000 2.57 330 09:31 09.06.2022
474 Clouds 22 1006 62 10000 2.57 320 08:21 09.06.2022
475 Clouds 21 1005 66 10000 4.12 320 07:23 09.06.2022
476 Clear 21 1004 73 10000 5.66 70 03:28 09.06.2022
477 Clear 21 1005 78 10000 1.03 0 00:32 09.06.2022
478 Clear 22 1005 66 10000 4.63 80 22:59 08.06.2022
479 Clear 22 1005 72 10000 4.63 80 22:30 08.06.2022
480 Clear 22 1005 72 10000 5.66 80 21:59 08.06.2022
481 Clear 23 1005 73 10000 7.72 80 21:31 08.06.2022
482 Clear 25 1005 63 10000 7.72 80 20:24 08.06.2022
483 Clear 26 1005 57 10000 6.17 70 19:40 08.06.2022
484 Clear 26 1006 57 10000 4.12 110 18:48 08.06.2022
485 Clear 27 1006 58 10000 3.09 100 17:38 08.06.2022
486 Clear 26 1007 57 10000 2.57 100 15:53 08.06.2022
487 Clear 25 1008 68 10000 1.54 0 14:31 08.06.2022
488 Clear 26 1008 64 10000 3.09 150 12:55 08.06.2022
489 Clear 26 1008 59 10000 2.06 170 11:36 08.06.2022
490 Clear 26 1009 55 10000 2.06 200 10:46 08.06.2022
491 Clear 24 1009 55 10000 4.12 310 09:28 08.06.2022
492 Clear 24 1008 59 10000 4.63 320 08:52 08.06.2022
493 Clear 21 1009 62 10000 4.63 320 06:56 08.06.2022
494 Clear 21 1008 64 10000 4.12 330 04:41 08.06.2022
495 Clear 22 1009 76 10000 1.03 0 00:58 08.06.2022
496 Clear 22 1009 81 10000 1.54 0 23:32 07.06.2022
497 Clear 23 1009 79 10000 4.12 70 22:54 07.06.2022
498 Clear 23 1009 79 10000 4.63 80 22:34 07.06.2022
499 Clear 23 1008 77 10000 6.69 90 21:39 07.06.2022
500 Clear 24 1008 64 10000 6.69 90 21:20 07.06.2022
501 Clear 25 1007 73 10000 6.69 100 20:40 07.06.2022
502 Clouds 26 1007 67 10000 8.23 90 19:51 07.06.2022
503 Clouds 27 1007 71 10000 7.72 90 18:26 07.06.2022
504 Clouds 28 1008 68 10000 6.69 100 17:33 07.06.2022
505 Clouds 28 1008 69 10000 7.2 90 16:44 07.06.2022
506 Clouds 28 1009 72 10000 7.2 100 15:58 07.06.2022
507 Clouds 28 1009 71 10000 7.72 100 15:37 07.06.2022
508 Clouds 28 1009 70 10000 7.72 100 15:18 07.06.2022
509 Clouds 28 1009 69 10000 7.2 110 14:43 07.06.2022
510 Clouds 28 1010 64 10000 7.72 100 13:38 07.06.2022
511 Clouds 28 1010 66 10000 7.72 100 13:20 07.06.2022
512 Clouds 28 1010 68 10000 5.14 110 11:55 07.06.2022
513 Clouds 27 1010 69 10000 3.6 110 10:48 07.06.2022
514 Clouds 23 1011 81 10000 1.54 290 08:58 07.06.2022
515 Clouds 23 1011 81 10000 2.06 340 08:22 07.06.2022
516 Clouds 20 1011 82 10000 3.09 320 06:42 07.06.2022
517 Clouds 21 1011 81 10000 1.54 360 04:47 07.06.2022
518 Clouds 22 1013 86 10000 1.03 0 01:28 07.06.2022
519 Clouds 22 1013 88 10000 1.54 130 23:59 06.06.2022
520 Clouds 23 1013 87 10000 2.57 100 22:56 06.06.2022
521 Clouds 22 1013 86 10000 3.09 110 22:30 06.06.2022
522 Clouds 23 1012 85 10000 2.57 100 21:18 06.06.2022
523 Clouds 25 1012 77 10000 3.6 110 19:29 06.06.2022
524 Clouds 25 1014 74 10000 4.12 110 18:59 06.06.2022
525 Clouds 25 1014 75 10000 3.6 110 18:32 06.06.2022
526 Clouds 26 1014 71 10000 4.12 100 17:27 06.06.2022
527 Clouds 27 1015 69 10000 3.09 130 16:21 06.06.2022
528 Clouds 27 1015 71 10000 3.09 130 15:33 06.06.2022
529 Clouds 26 1015 75 10000 3.09 130 14:36 06.06.2022
530 Clouds 25 1015 76 10000 3.09 140 13:27 06.06.2022
531 Clouds 25 1015 75 10000 3.09 130 12:37 06.06.2022
532 Clouds 26 1015 75 10000 3.6 140 11:54 06.06.2022
533 Clouds 25 1015 76 10000 3.09 150 10:46 06.06.2022
534 Clouds 24 1015 75 10000 3.09 190 09:40 06.06.2022
535 Clouds 22 1014 72 10000 3.6 330 08:33 06.06.2022
536 Clouds 21 1014 79 10000 4.63 320 07:28 06.06.2022
537 Clouds 21 1014 85 10000 1.03 0 05:29 06.06.2022
538 Clouds 21 1014 85 10000 1.03 0 05:29 06.06.2022
539 Clouds 21 1014 85 10000 1.03 0 05:29 06.06.2022
540 Clouds 22 1014 85 10000 5.14 90 03:44 06.06.2022
541 Clouds 23 1013 76 10000 8.75 90 01:29 06.06.2022
542 Clouds 22 1013 85 9000 6.17 80 00:42 06.06.2022
543 Clear 23 1013 84 9000 1.54 60 23:49 05.06.2022
544 Clear 23 1013 81 9000 1.54 90 22:52 05.06.2022
545 Clouds 25 1012 79 10000 2.06 90 20:59 05.06.2022
546 Clouds 26 1012 74 10000 1.03 0 19:50 05.06.2022
547 Clouds 27 1012 73 10000 8.23 220 18:31 05.06.2022
548 Clouds 27 1012 72 10000 8.23 220 18:31 05.06.2022
549 Clouds 27 1012 73 10000 7.72 210 17:55 05.06.2022
550 Clouds 27 1013 73 10000 7.72 210 17:27 05.06.2022
551 Clouds 26 1013 78 10000 5.14 220 16:57 05.06.2022
552 Clouds 26 1013 79 10000 6.69 220 16:37 05.06.2022
553 Clouds 26 1013 79 10000 6.69 220 16:37 05.06.2022
554 Clouds 27 1014 72 10000 2.57 180 14:34 05.06.2022
555 Clouds 26 1015 78 10000 3.6 190 12:59 05.06.2022
556 Clear 26 1015 79 10000 2.06 110 11:51 05.06.2022
557 Clouds 25 1014 78 10000 4.12 100 10:43 05.06.2022
558 Clouds 25 1014 75 10000 4.12 100 10:23 05.06.2022
559 Clouds 24 1014 74 10000 3.09 50 08:41 05.06.2022
560 Clouds 24 1014 74 10000 3.09 50 08:20 05.06.2022
561 Clear 22 1013 71 10000 2.57 320 05:23 05.06.2022
562 Clear 22 1014 75 10000 4.12 270 04:30 05.06.2022
563 Clear 23 1014 74 10000 2.57 120 01:45 05.06.2022
564 Clear 23 1014 74 10000 2.57 120 01:45 05.06.2022
565 Clear 23 1014 73 10000 4.63 120 01:45 05.06.2022
566 Clear 23 1014 73 10000 2.57 120 01:45 05.06.2022
567 Clear 23 1014 74 10000 2.57 120 01:45 05.06.2022
568 Clear 23 1014 71 10000 4.63 120 01:23 05.06.2022
569 Clear 23 1014 71 10000 4.63 120 01:23 05.06.2022
570 Clouds 24 1015 67 10000 3.6 80 22:44 04.06.2022
571 Clouds 25 1014 65 10000 5.14 100 20:55 04.06.2022
572 Clear 28 1015 60 10000 4.12 90 18:54 04.06.2022
573 Clear 28 1015 64 10000 5.14 100 16:48 04.06.2022
574 Clear 28 1015 60 10000 6.17 90 16:19 04.06.2022
575 Clear 29 1016 58 10000 7.2 90 15:27 04.06.2022
576 Clear 28 1016 58 10000 6.17 90 13:54 04.06.2022
577 Clear 27 1016 60 10000 4.63 110 11:23 04.06.2022
578 Clear 28 1016 58 10000 3.6 90 10:52 04.06.2022
579 Clear 27 1016 60 10000 3.09 120 09:46 04.06.2022
580 Clear 26 1015 58 10000 2.06 330 08:50 04.06.2022
581 Clear 24 1015 64 10000 4.12 340 08:31 04.06.2022
582 Clear 22 1015 70 10000 4.12 330 06:20 04.06.2022
583 Clear 23 1015 66 10000 4.12 330 03:37 04.06.2022
584 Clear 23 1015 64 10000 2.57 330 00:21 04.06.2022
585 Clear 23 1015 66 10000 2.06 70 22:56 03.06.2022
586 Clear 23 1015 65 10000 4.63 70 21:52 03.06.2022
587 Clear 25 1015 65 10000 6.69 90 20:40 03.06.2022
588 Clear 26 1014 65 10000 6.69 90 19:33 03.06.2022
589 Clear 28 1014 59 10000 4.63 90 16:56 03.06.2022
590 Clouds 27 1015 66 10000 3.6 90 15:55 03.06.2022
591 Clouds 22 1016 81 10000 6.69 10 14:25 03.06.2022
592 Rain 22 1018 75 10000 5.14 320 12:21 03.06.2022
593 Rain 24 1015 61 10000 1.54 330 09:57 03.06.2022
594 Clouds 24 1015 62 10000 1.54 0 09:29 03.06.2022
595 Rain 23 1015 55 10000 3.09 20 07:47 03.06.2022
596 Clear 22 1014 59 10000 1.03 0 06:59 03.06.2022
597 Clear 22 1014 61 10000 1.54 0 06:28 03.06.2022
598 Clear 22 1014 67 10000 1.54 40 03:52 03.06.2022
599 Clear 22 1015 76 10000 0 0 23:53 02.06.2022
600 Clear 23 1015 69 10000 2.06 100 22:33 02.06.2022
601 Clear 24 1014 69 10000 2.06 120 20:57 02.06.2022
602 Clear 25 1014 67 10000 1.54 110 19:58 02.06.2022
603 Clear 25 1014 67 10000 1.54 90 19:39 02.06.2022
604 Clear 25 1014 67 10000 1.54 100 18:51 02.06.2022
605 Clear 27 1016 50 10000 4.12 110 16:30 02.06.2022
606 Clear 27 1016 56 10000 3.6 70 15:47 02.06.2022
607 Clouds 25 1016 68 10000 4.12 120 13:32 02.06.2022
608 Clouds 25 1015 70 10000 5.14 120 12:51 02.06.2022
609 Clouds 24 1015 70 10000 4.12 100 10:48 02.06.2022
610 Clouds 23 1015 73 10000 3.6 100 09:45 02.06.2022
611 Clouds 23 1016 75 10000 2.06 80 09:26 02.06.2022
612 Clouds 21 1016 79 10000 3.09 330 08:23 02.06.2022
613 Clouds 19 1015 81 10000 2.06 340 06:21 02.06.2022
614 Clear 19 1015 78 10000 1.54 0 03:53 02.06.2022
615 Clear 20 1015 81 10000 1.54 360 01:36 02.06.2022
616 Clear 20 1015 84 10000 0.86 32 23:36 01.06.2022
617 Clear 20 1014 86 10000 0.44 35 22:18 01.06.2022
618 Clouds 22 1014 80 10000 1.54 150 21:25 01.06.2022
619 Clouds 23 1014 78 10000 2.57 140 20:39 01.06.2022
620 Clouds 24 1014 76 10000 3.09 150 19:52 01.06.2022
621 Clouds 24 1015 70 10000 2.57 150 18:52 01.06.2022
622 Clear 26 1015 65 10000 3.6 140 17:40 01.06.2022
623 Clear 26 1015 67 10000 4.12 120 16:22 01.06.2022
624 Clouds 26 1014 71 10000 3.6 120 14:51 01.06.2022
625 Clear 26 1014 71 10000 3.25 127 13:44 01.06.2022
626 Clouds 25 1014 72 10000 4.12 110 11:41 01.06.2022
627 Clear 23 1014 73 10000 2.57 90 09:34 01.06.2022
628 Clouds 21 1014 76 10000 2.57 330 08:28 01.06.2022
629 Clouds 19 1013 79 10000 3.09 330 07:21 01.06.2022
630 Clear 18 1013 81 10000 3.6 340 04:59 01.06.2022
631 Clouds 20 1013 86 10000 1.54 280 23:57 31.05.2022
632 Clouds 20 1013 85 10000 2.06 230 22:59 31.05.2022
633 Clouds 21 1013 84 10000 2.06 210 22:33 31.05.2022
634 Clouds 21 1013 82 10000 2.57 210 21:45 31.05.2022
635 Clouds 22 1013 77 10000 3.6 200 20:45 31.05.2022
636 Clouds 23 1012 74 10000 4.12 200 19:53 31.05.2022
637 Clouds 23 1012 70 10000 3.09 190 18:45 31.05.2022
638 Clouds 23 1012 65 10000 3.09 170 17:49 31.05.2022
639 Clouds 23 1012 65 10000 3.09 170 17:49 31.05.2022
640 Clouds 24 1013 64 10000 3.09 160 16:48 31.05.2022
641 Clouds 24 1013 61 10000 3.09 170 15:40 31.05.2022
642 Clouds 23 1014 64 10000 3.6 170 13:45 31.05.2022
643 Clouds 24 1013 62 10000 2.06 150 12:20 31.05.2022
644 Clouds 23 1013 64 10000 1.54 110 10:52 31.05.2022
645 Clouds 20 1012 75 10000 2.57 330 08:41 31.05.2022
646 Clouds 18 1012 78 10000 3.09 340 06:57 31.05.2022
647 Clouds 18 1012 81 10000 3.09 330 04:46 31.05.2022
648 Clouds 19 1011 84 10000 1.69 41 00:26 31.05.2022
649 Clouds 20 1011 79 10000 5.66 90 23:26 30.05.2022
650 Clouds 19 1010 84 10000 1.74 40 22:48 30.05.2022
651 Clouds 20 1010 81 10000 5.14 80 21:51 30.05.2022
652 Clouds 20 1009 81 10000 4.12 80 21:32 30.05.2022
653 Clouds 22 1008 76 10000 4.63 110 19:51 30.05.2022
654 Clouds 22 1008 78 10000 2.57 100 18:34 30.05.2022
655 Rain 22 1008 76 10000 3.09 140 17:24 30.05.2022
656 Clouds 23 1008 71 10000 4.12 160 16:39 30.05.2022
657 Clouds 23 1008 72 10000 4.12 130 14:23 30.05.2022
658 Clouds 22 1007 76 10000 4.12 180 12:21 30.05.2022
659 Clouds 22 1007 73 10000 3.6 170 10:40 30.05.2022
660 Clouds 21 1007 76 10000 2.01 154 09:19 30.05.2022
661 Clouds 18 1005 82 10000 3.09 320 06:30 30.05.2022
662 Clouds 18 1005 82 10000 2.06 330 05:48 30.05.2022
663 Clouds 20 1005 81 10000 4.12 180 01:33 30.05.2022
664 Clouds 20 1004 80 10000 4.63 140 22:54 29.05.2022
665 Clouds 20 1004 81 10000 3.6 140 22:36 29.05.2022
666 Clouds 20 1003 81 10000 4.12 140 20:54 29.05.2022
667 Clouds 21 1003 81 10000 4.63 160 19:32 29.05.2022
668 Clouds 21 1003 80 10000 5.66 170 18:44 29.05.2022
669 Clouds 21 1002 81 10000 6.69 190 17:31 29.05.2022
670 Clouds 22 1002 82 10000 8.23 190 15:48 29.05.2022
671 Clouds 23 1002 77 10000 7.72 200 14:57 29.05.2022
672 Clouds 24 1002 73 10000 7.72 200 13:53 29.05.2022
673 Clouds 24 1002 72 10000 3.6 180 11:41 29.05.2022
674 Clouds 24 1002 73 10000 2.06 180 10:38 29.05.2022
675 Clouds 23 1002 73 10000 1.54 0 08:51 29.05.2022
676 Clouds 21 1002 75 10000 7.2 90 06:18 29.05.2022
677 Clouds 21 1002 70 10000 3.6 0 04:45 29.05.2022
678 Clear 21 1002 72 10000 4.63 320 03:47 29.05.2022
679 Clear 23 1001 65 10000 2.57 40 23:50 28.05.2022
680 Clear 23 1001 65 10000 2.57 40 23:50 28.05.2022
681 Clear 23 1001 59 10000 2.06 310 23:26 28.05.2022
682 Clear 23 1001 67 10000 2.06 260 22:39 28.05.2022
683 Clear 24 1001 78 10000 1.54 0 21:38 28.05.2022
684 Rain 25 1002 67 10000 2.06 160 19:51 28.05.2022
685 Clear 27 1002 57 10000 2.57 150 18:54 28.05.2022
686 Clear 26 1003 67 10000 1.54 140 17:37 28.05.2022
687 Clear 28 1003 50 10000 1.54 0 16:50 28.05.2022
688 Clear 29 1004 50 10000 2.06 150 15:43 28.05.2022
689 Clear 29 1005 49 10000 2.06 120 14:28 28.05.2022
690 Clear 29 1005 49 10000 3.6 110 12:57 28.05.2022
691 Clear 29 1005 46 10000 4.12 100 12:35 28.05.2022
692 Clear 29 1006 45 10000 3.09 100 11:23 28.05.2022
693 Clear 28 1006 45 10000 2.06 110 10:21 28.05.2022
694 Clear 26 1006 46 10000 1.54 0 09:22 28.05.2022
695 Clear 23 1008 48 10000 2.06 30 07:23 28.05.2022
696 Clear 22 1007 53 10000 1.54 110 06:26 28.05.2022
697 Clear 24 1008 45 10000 3.6 350 03:48 28.05.2022
698 Clear 25 1010 49 10000 2.57 310 00:33 28.05.2022
699 Clear 26 1011 39 10000 2.06 340 23:32 27.05.2022
700 Clear 27 1011 44 10000 1.03 230 21:50 27.05.2022
701 Clear 27 1011 47 10000 0 0 20:57 27.05.2022
702 Clear 28 1011 49 10000 0 0 20:26 27.05.2022
703 Clear 28 1012 43 10000 1.03 0 19:51 27.05.2022
704 Clear 30 1012 43 10000 1.03 0 19:32 27.05.2022
705 Clouds 30 1013 41 10000 1.03 0 18:29 27.05.2022
706 Clouds 31 1014 36 10000 2.06 190 16:42 27.05.2022
707 Clouds 32 1013 39 10000 2.08 197 15:34 27.05.2022
708 Clouds 32 1014 40 10000 2.23 161 14:45 27.05.2022
709 Clouds 32 1015 39 10000 2.57 138 13:30 27.05.2022
710 Clear 31 1015 41 10000 2.06 130 11:41 27.05.2022
711 Clear 29 1015 43 10000 3.09 130 11:23 27.05.2022
712 Clear 31 1016 30 10000 1.54 0 10:32 27.05.2022
713 Clear 27 1016 39 10000 4.12 350 09:37 27.05.2022
714 Clear 25 1015 44 10000 5.14 350 08:19 27.05.2022
715 Clear 23 1015 50 10000 5.14 350 06:45 27.05.2022
716 Clear 24 1016 47 10000 3.6 360 02:53 27.05.2022
717 Clear 24 1016 59 10000 4.63 350 00:53 27.05.2022
718 Clear 23 1017 70 10000 1.03 70 22:50 26.05.2022
719 Clear 24 1016 66 10000 2.57 60 21:43 26.05.2022
720 Clear 25 1016 64 10000 1.54 110 20:59 26.05.2022
721 Clear 26 1016 62 10000 2.06 180 19:27 26.05.2022
722 Clear 27 1017 60 10000 2.57 190 18:21 26.05.2022
723 Clear 26 1018 61 10000 1.03 0 16:58 26.05.2022
724 Clear 25 1018 65 10000 1.54 130 15:49 26.05.2022
725 Clear 26 1018 58 10000 2.57 120 14:48 26.05.2022
726 Clouds 26 1018 66 10000 2.57 130 13:45 26.05.2022
727 Clouds 26 1017 60 10000 1.54 110 11:38 26.05.2022
728 Clouds 24 1017 61 10000 2.57 330 10:37 26.05.2022
729 Clouds 23 1017 66 10000 3.6 330 09:37 26.05.2022
730 Clouds 21 1017 70 10000 4.12 330 08:38 26.05.2022
731 Clear 20 1015 74 10000 3.09 330 05:25 26.05.2022
732 Clear 20 1015 73 10000 3.6 350 01:26 26.05.2022
733 Clear 20 1015 81 10000 3.6 330 23:41 25.05.2022
734 Clear 21 1015 79 10000 1.54 40 22:48 25.05.2022
735 Clouds 21 1014 81 10000 0.51 50 21:37 25.05.2022
736 Clouds 22 1014 84 10000 1.03 0 20:43 25.05.2022
737 Clouds 24 1013 77 10000 2.06 110 19:32 25.05.2022
738 Clouds 24 1013 75 10000 2.57 120 18:23 25.05.2022
739 Clouds 25 1012 72 10000 5.14 110 16:42 25.05.2022
740 Clouds 25 1012 71 10000 5.66 110 16:21 25.05.2022
741 Clouds 26 1012 67 10000 4.63 110 15:24 25.05.2022
742 Clouds 26 1012 68 10000 3.09 110 14:38 25.05.2022
743 Clouds 25 1012 68 10000 3.09 110 14:19 25.05.2022
744 Clouds 24 1012 72 10000 2.57 100 12:52 25.05.2022
745 Clouds 23 1011 77 10000 4.63 120 11:32 25.05.2022
746 Clouds 22 1011 75 10000 3.6 130 10:23 25.05.2022
747 Clouds 21 1009 76 10000 1.74 91 08:53 25.05.2022
748 Clouds 19 1009 81 10000 2.52 9 07:26 25.05.2022
749 Clouds 19 1008 79 10000 3.6 330 05:27 25.05.2022
750 Rain 20 1007 71 10000 2.57 310 00:38 25.05.2022
751 Rain 20 1007 72 10000 2.06 310 23:48 24.05.2022
752 Rain 20 1007 75 10000 2.57 290 22:58 24.05.2022
753 Clouds 20 1006 76 10000 3.09 350 21:47 24.05.2022
754 Rain 20 1006 76 10000 2.57 40 21:23 24.05.2022
755 Rain 20 1006 78 10000 3.6 340 20:59 24.05.2022
756 Clouds 22 1005 78 10000 8.23 90 19:23 24.05.2022
757 Clouds 24 1005 69 10000 6.69 80 18:29 24.05.2022
758 Clouds 25 1006 66 10000 4.12 90 16:39 24.05.2022
759 Clouds 25 1006 66 10000 4.12 90 16:39 24.05.2022
760 Clouds 25 1005 67 10000 3.09 110 15:45 24.05.2022
761 Clouds 25 1005 71 10000 4.63 110 14:38 24.05.2022
762 Clouds 25 1006 70 10000 4.63 110 13:46 24.05.2022
763 Clouds 25 1006 69 10000 3.09 110 12:24 24.05.2022
764 Clear 22 1005 68 10000 2.06 90 09:52 24.05.2022
765 Clouds 21 1005 71 10000 2.57 340 08:52 24.05.2022
766 Clouds 19 1005 73 10000 3.6 340 07:56 24.05.2022
767 Clouds 18 1005 74 10000 4.63 330 06:41 24.05.2022
768 Clear 18 1005 76 10000 3.6 340 03:41 24.05.2022
769 Clouds 19 1005 79 10000 3.09 320 01:47 24.05.2022
770 Clouds 19 1005 82 10000 2.06 320 00:34 24.05.2022
771 Clouds 20 1006 84 10000 4.12 100 22:24 23.05.2022
772 Clouds 20 1005 86 10000 5.14 110 21:53 23.05.2022
773 Clear 21 1005 84 10000 5.66 80 20:53 23.05.2022
774 Clear 23 1005 78 10000 4.63 90 19:56 23.05.2022
775 Clear 24 1006 76 10000 3.6 90 19:27 23.05.2022
776 Clear 24 1006 76 10000 3.6 100 18:41 23.05.2022
777 Clouds 24 1006 73 10000 3.6 110 18:22 23.05.2022
778 Clouds 25 1006 74 10000 5.14 60 16:46 23.05.2022
779 Clouds 23 1008 80 10000 2.57 130 14:44 23.05.2022
780 Clouds 24 1009 75 10000 3.6 110 11:58 23.05.2022
781 Clouds 24 1009 75 10000 4.12 120 11:20 23.05.2022
782 Clouds 22 1009 79 10000 3.09 90 09:48 23.05.2022
783 Clouds 20 1009 84 10000 1.03 0 08:51 23.05.2022
784 Clouds 19 1009 81 10000 1.54 330 07:46 23.05.2022
785 Clouds 18 1009 82 10000 1.03 320 06:43 23.05.2022
786 Clouds 19 1010 83 10000 1.03 280 04:43 23.05.2022
787 Clouds 20 1011 88 10000 1.95 65 02:19 23.05.2022
788 Clouds 20 1011 88 10000 2.57 90 01:34 23.05.2022
789 Clouds 20 1011 88 10000 1.54 90 23:42 22.05.2022
790 Clouds 20 1011 87 10000 0.51 110 22:35 22.05.2022
791 Clouds 21 1011 87 10000 0 0 21:54 22.05.2022
792 Clouds 21 1011 87 10000 1.54 100 20:53 22.05.2022
793 Clouds 21 1011 86 10000 2.57 120 20:27 22.05.2022
794 Clouds 22 1011 84 10000 2.57 120 19:56 22.05.2022
795 Clouds 22 1011 83 10000 2.57 120 18:55 22.05.2022
796 Clouds 22 1011 82 10000 2.57 110 18:25 22.05.2022
797 Clouds 22 1011 84 10000 1.54 110 17:33 22.05.2022
798 Clouds 22 1012 83 10000 1.54 150 16:31 22.05.2022
799 Clouds 22 1013 83 10000 2.57 140 14:48 22.05.2022
800 Clouds 23 1013 79 10000 3.09 140 13:48 22.05.2022
801 Clouds 23 1013 76 10000 3.6 140 12:52 22.05.2022
802 Clouds 23 1013 78 10000 3.6 130 11:44 22.05.2022
803 Clouds 22 1014 79 10000 1.54 0 09:45 22.05.2022
804 Clouds 21 1014 82 10000 1.03 0 08:37 22.05.2022
805 Clouds 20 1014 85 10000 1.54 310 07:22 22.05.2022
806 Clouds 20 1014 85 10000 1.54 310 07:22 22.05.2022
807 Clouds 20 1013 86 10000 1.54 320 06:23 22.05.2022
808 Clouds 20 1015 85 10000 1.03 320 02:23 22.05.2022
809 Clouds 21 1016 85 10000 2.06 360 00:44 22.05.2022
810 Clouds 21 1016 88 10000 3.6 80 23:55 21.05.2022
811 Clouds 21 1016 87 10000 4.63 80 23:21 21.05.2022
812 Clouds 21 1016 86 10000 4.63 80 21:45 21.05.2022
813 Clouds 21 1015 86 10000 4.63 80 21:26 21.05.2022
814 Clouds 22 1015 83 10000 5.66 90 20:25 21.05.2022
815 Clouds 22 1016 83 10000 4.63 100 19:37 21.05.2022
816 Clouds 24 1017 74 10000 5.14 110 17:57 21.05.2022
817 Clouds 23 1018 78 10000 4.12 110 16:55 21.05.2022
818 Clouds 25 1019 71 10000 4.63 120 14:38 21.05.2022
819 Clouds 24 1020 72 10000 4.63 120 13:53 21.05.2022
820 Clouds 25 1019 71 10000 3.6 120 12:57 21.05.2022
821 Clouds 24 1019 73 10000 3.09 120 12:37 21.05.2022
822 Clouds 23 1020 75 10000 2.06 150 10:45 21.05.2022
823 Clouds 22 1020 77 10000 1.03 0 09:49 21.05.2022
824 Clouds 21 1020 77 10000 1.54 0 08:58 21.05.2022
825 Clouds 20 1020 79 10000 1.03 0 08:35 21.05.2022
826 Clouds 18 1020 85 10000 0.82 56 05:29 21.05.2022
827 Clouds 19 1022 85 10000 1.54 70 01:24 21.05.2022
828 Clouds 20 1022 86 10000 2.06 90 23:30 20.05.2022
829 Clouds 20 1023 86 10000 2.06 110 22:26 20.05.2022
830 Clouds 21 1023 86 10000 2.06 110 21:55 20.05.2022
831 Clouds 21 1023 86 10000 2.06 110 21:55 20.05.2022
832 Clouds 21 1023 85 10000 2.06 140 21:18 20.05.2022
833 Clouds 22 1023 84 10000 2.06 140 20:44 20.05.2022
834 Clouds 23 1023 78 10000 3.09 130 19:45 20.05.2022
835 Clouds 24 1023 76 10000 2.06 130 18:48 20.05.2022
836 Clouds 24 1024 74 10000 2.57 140 17:48 20.05.2022
837 Clouds 25 1024 72 10000 2.57 140 16:22 20.05.2022
838 Clouds 25 1025 69 10000 3.09 140 15:53 20.05.2022
839 Clouds 25 1026 70 10000 3.09 130 14:32 20.05.2022
840 Clouds 25 1026 69 10000 3.09 130 13:56 20.05.2022
841 Clear 25 1026 66 10000 4.63 110 11:51 20.05.2022
842 Clear 25 1026 53 10000 1.54 150 10:34 20.05.2022
843 Clear 23 1026 55 10000 2.57 340 08:59 20.05.2022
844 Clear 21 1027 56 10000 3.6 330 07:43 20.05.2022
845 Clear 20 1025 59 10000 3.6 330 06:40 20.05.2022
846 Clear 20 1025 61 10000 2.06 340 05:39 20.05.2022
847 Clear 21 1025 60 10000 2.57 340 01:29 20.05.2022
848 Clear 21 1025 59 10000 1.54 310 23:46 19.05.2022
849 Clear 21 1024 64 10000 0 0 22:35 19.05.2022
850 Clear 22 1024 65 10000 0 0 21:50 19.05.2022
851 Clear 22 1024 69 10000 1.03 60 21:23 19.05.2022
852 Clear 23 1024 69 10000 1.03 180 20:43 19.05.2022
853 Clear 24 1023 64 10000 1.03 0 19:54 19.05.2022
854 Clear 24 1023 64 10000 2.06 190 19:00 19.05.2022
855 Clear 25 1023 62 10000 2.57 180 17:36 19.05.2022
856 Clear 26 1024 48 10000 2.57 160 15:43 19.05.2022
857 Clear 26 1024 44 10000 2.57 160 14:47 19.05.2022
858 Clear 26 1024 43 10000 2.06 170 14:20 19.05.2022
859 Clear 26 1025 39 10000 2.06 100 11:54 19.05.2022
860 Clear 25 1024 49 10000 5.14 70 10:30 19.05.2022
861 Clear 23 1024 58 10000 7.2 80 08:44 19.05.2022
862 Clear 21 1024 60 10000 1.54 350 07:18 19.05.2022
863 Clouds 20 1021 80 10000 1.54 0 03:41 19.05.2022
864 Clear 22 1021 68 10000 1.54 40 00:58 19.05.2022
865 Clear 21 1021 75 10000 0 0 23:40 18.05.2022
866 Clear 21 1020 77 10000 0 0 22:43 18.05.2022
867 Clear 22 1021 72 10000 0 0 21:43 18.05.2022
868 Clear 22 1020 77 10000 1.03 0 21:23 18.05.2022
869 Clear 22 1019 77 10000 2.57 100 20:21 18.05.2022
870 Clear 22 1019 73 10000 1.54 80 18:56 18.05.2022
871 Rain 23 1019 74 10000 1.03 0 17:57 18.05.2022
872 Rain 23 1019 71 10000 2.06 110 17:36 18.05.2022
873 Clear 24 1019 71 10000 2.06 110 17:18 18.05.2022
874 Clear 25 1019 64 10000 2.06 160 15:58 18.05.2022
875 Clear 25 1019 65 10000 2.06 160 15:35 18.05.2022
876 Clear 25 1019 67 10000 2.06 160 14:21 18.05.2022
877 Clear 24 1019 68 10000 3.6 110 12:55 18.05.2022
878 Clear 24 1019 70 10000 3.6 110 12:25 18.05.2022
879 Clear 24 1019 71 10000 2.06 120 11:33 18.05.2022
880 Clear 23 1019 74 10000 1.54 110 10:48 18.05.2022
881 Clear 20 1018 74 10000 1.03 0 08:25 18.05.2022
882 Clouds 18 1018 78 10000 3.09 330 07:28 18.05.2022
883 Clouds 18 1017 83 10000 3.6 80 04:26 18.05.2022
884 Clear 18 1017 85 10000 1.03 150 00:52 18.05.2022
885 Clear 19 1017 83 10000 1.54 200 23:41 17.05.2022
886 Clear 20 1016 83 10000 1.03 200 21:23 17.05.2022
887 Clear 21 1016 82 10000 0.51 160 20:44 17.05.2022
888 Clouds 22 1016 75 10000 1.54 170 19:45 17.05.2022
889 Clouds 23 1016 75 10000 1.54 170 19:24 17.05.2022
890 Clouds 23 1016 73 10000 2.06 180 17:49 17.05.2022
891 Clouds 24 1017 74 10000 2.06 140 16:58 17.05.2022
892 Clouds 24 1017 72 10000 2.57 130 16:24 17.05.2022
893 Clouds 24 1018 73 10000 3.09 110 14:56 17.05.2022
894 Clouds 24 1018 74 10000 3.09 110 14:29 17.05.2022
895 Clouds 23 1018 74 10000 3.6 110 13:30 17.05.2022
896 Clear 22 1018 73 10000 2.57 130 10:43 17.05.2022
897 Clear 20 1018 78 10000 1.54 320 08:53 17.05.2022
898 Clear 18 1018 83 10000 2.57 350 07:57 17.05.2022
899 Clear 17 1018 86 10000 3.09 330 06:27 17.05.2022
900 Clouds 18 1019 84 10000 4.12 60 01:59 17.05.2022
901 Clouds 18 1018 86 10000 7.2 80 23:59 16.05.2022
902 Clear 19 1018 84 10000 2.57 70 22:40 16.05.2022
903 Clear 20 1018 85 10000 1.54 80 21:33 16.05.2022
904 Clear 21 1017 82 10000 1.54 70 20:44 16.05.2022
905 Clouds 22 1018 77 10000 2.57 90 19:19 16.05.2022
906 Clouds 23 1018 75 10000 2.57 120 17:58 16.05.2022
907 Clouds 23 1019 72 10000 3.09 130 15:42 16.05.2022
908 Clouds 23 1020 73 10000 2.57 140 13:48 16.05.2022
909 Clouds 22 1020 75 10000 2.57 140 12:46 16.05.2022
910 Clouds 21 1019 75 10000 2.06 160 10:52 16.05.2022
911 Clouds 19 1019 77 10000 1.03 0 08:55 16.05.2022
912 Clear 16 1018 82 10000 1.54 330 06:33 16.05.2022
913 Clear 17 1019 83 10000 2.57 310 02:33 16.05.2022
914 Clear 18 1018 86 10000 0 0 23:19 15.05.2022
915 Clear 18 1018 85 10000 0 0 22:29 15.05.2022
916 Clear 18 1018 84 10000 1.54 140 21:39 15.05.2022
917 Clear 19 1018 82 10000 1.54 180 20:53 15.05.2022
918 Clouds 21 1018 76 10000 2.06 180 19:24 15.05.2022
919 Clouds 23 1018 69 10000 3.09 190 17:48 15.05.2022
920 Clouds 23 1018 68 10000 2.57 140 15:56 15.05.2022
921 Clouds 23 1019 70 10000 2.06 140 13:50 15.05.2022
922 Clouds 22 1019 69 10000 2.57 150 12:23 15.05.2022
923 Clouds 22 1019 71 10000 2.06 160 11:38 15.05.2022
924 Clouds 20 1018 76 10000 1.54 130 10:23 15.05.2022
925 Clouds 17 1018 81 10000 2.06 320 07:46 15.05.2022
926 Clouds 16 1019 85 10000 1.54 0 06:57 15.05.2022
927 Clear 16 1017 81 10000 2.06 340 05:33 15.05.2022
928 Clouds 17 1019 80 10000 1.54 40 00:49 15.05.2022
929 Clouds 17 1019 83 10000 0.51 90 23:38 14.05.2022
930 Clear 17 1019 83 10000 0.51 100 22:45 14.05.2022
931 Clear 18 1018 85 10000 1.54 160 21:28 14.05.2022
932 Clear 18 1017 84 10000 1.03 0 20:51 14.05.2022
933 Clear 20 1017 79 10000 1.54 120 19:38 14.05.2022
934 Clear 20 1017 79 10000 1.54 120 19:19 14.05.2022
935 Clouds 19 1018 80 10000 1.03 0 18:41 14.05.2022
936 Clouds 20 1018 76 10000 2.57 140 16:38 14.05.2022
937 Clouds 22 1019 71 10000 2.57 130 15:23 14.05.2022
938 Clouds 22 1019 72 10000 2.06 130 14:33 14.05.2022
939 Clouds 21 1019 75 10000 1.54 140 12:24 14.05.2022
940 Clouds 20 1019 79 10000 3.6 120 10:58 14.05.2022
941 Clouds 19 1019 82 10000 4.12 90 10:21 14.05.2022
942 Clouds 19 1019 81 10000 5.14 90 09:53 14.05.2022
943 Clouds 19 1018 79 10000 4.63 70 08:49 14.05.2022
944 Clouds 16 1018 83 10000 2.06 340 06:41 14.05.2022
945 Clouds 16 1018 82 10000 2.06 320 02:39 14.05.2022
946 Clear 17 1018 84 10000 3.6 70 23:36 13.05.2022
947 Clear 17 1018 84 10000 3.09 70 22:58 13.05.2022
948 Clear 17 1018 84 10000 3.09 70 22:27 13.05.2022
949 Clear 18 1018 82 10000 3.6 80 21:52 13.05.2022
950 Clear 19 1018 79 10000 4.63 90 20:45 13.05.2022
951 Clear 19 1018 77 10000 4.12 90 20:27 13.05.2022
952 Clear 20 1018 75 10000 3.6 100 19:28 13.05.2022
953 Clear 21 1018 71 10000 3.09 130 17:51 13.05.2022
954 Clear 21 1018 71 10000 3.6 140 17:28 13.05.2022
955 Clouds 22 1019 71 10000 2.57 120 16:20 13.05.2022
956 Clouds 22 1019 75 10000 3.09 140 15:28 13.05.2022
957 Clouds 21 1020 75 10000 3.09 130 13:48 13.05.2022
958 Clouds 21 1020 79 10000 3.09 120 12:32 13.05.2022
959 Clouds 20 1020 77 10000 2.06 130 11:22 13.05.2022
960 Clouds 18 1020 82 10000 1.03 0 09:34 13.05.2022
961 Clouds 17 1020 81 10000 0.51 0 08:44 13.05.2022
962 Clouds 16 1021 85 10000 2.06 330 07:48 13.05.2022
963 Clouds 15 1019 83 10000 2.06 330 06:33 13.05.2022
964 Clouds 15 1019 83 10000 2.06 330 06:33 13.05.2022
965 Clouds 15 1019 83 10000 2.06 330 06:33 13.05.2022
966 Clouds 15 1019 83 10000 2.06 330 06:33 13.05.2022
967 Clear 16 1020 83 10000 2.06 320 03:29 13.05.2022
968 Clear 17 1020 82 10000 1.54 60 00:39 13.05.2022
969 Clear 17 1020 83 10000 3.09 70 22:45 12.05.2022
970 Clear 18 1020 85 10000 2.57 80 21:56 12.05.2022
971 Clear 19 1020 82 10000 4.12 100 20:29 12.05.2022
972 Clouds 21 1020 73 10000 3.6 110 18:59 12.05.2022
973 Clouds 22 1021 69 10000 4.63 110 17:24 12.05.2022
974 Clouds 22 1021 69 10000 4.63 120 16:23 12.05.2022
975 Clouds 23 1022 70 10000 3.09 120 14:42 12.05.2022
976 Clouds 22 1022 75 10000 3.09 130 13:47 12.05.2022
977 Clouds 21 1022 73 10000 2.06 150 10:52 12.05.2022
978 Clouds 19 1021 76 10000 1.03 0 09:31 12.05.2022
979 Clouds 18 1021 75 10000 1.54 320 08:51 12.05.2022
980 Clouds 16 1022 83 10000 2.06 320 07:40 12.05.2022
981 Clouds 15 1020 78 10000 2.57 320 06:34 12.05.2022
982 Clear 17 1020 76 10000 2.06 300 02:59 12.05.2022
983 Clear 17 1021 81 10000 1.03 0 00:39 12.05.2022
984 Clear 18 1020 83 10000 1.03 70 22:39 11.05.2022
985 Clear 18 1020 86 10000 2.06 80 21:52 11.05.2022
986 Clouds 18 1020 84 10000 2.06 90 21:24 11.05.2022
987 Clouds 21 1020 77 10000 3.6 110 19:36 11.05.2022
988 Clouds 22 1021 70 10000 3.6 120 16:59 11.05.2022
989 Clear 22 1021 72 10000 2.57 120 15:50 11.05.2022
990 Clouds 22 1021 73 10000 2.57 140 14:39 11.05.2022
991 Clouds 22 1021 73 10000 2.57 140 14:39 11.05.2022
992 Clouds 22 1021 72 10000 2.57 140 14:19 11.05.2022
993 Clear 21 1021 73 10000 2.57 150 11:55 11.05.2022
994 Clear 21 1021 73 10000 2.06 150 11:30 11.05.2022
995 Clear 20 1021 72 10000 3.09 250 08:55 11.05.2022
996 Clear 16 1019 76 10000 2.06 320 06:24 11.05.2022
997 Clear 18 1019 72 10000 3.6 330 01:28 11.05.2022
998 Clear 19 1019 74 10000 0.51 210 22:53 10.05.2022
999 Clear 19 1019 74 10000 0.51 200 22:19 10.05.2022
1000 Clear 20 1019 68 10000 1.03 110 21:21 10.05.2022
1001 Clouds 21 1019 65 10000 2.06 100 20:21 10.05.2022
1002 Clear 24 1019 51 10000 2.37 194 18:36 10.05.2022
1003 Clouds 22 1020 60 10000 2.57 170 17:37 10.05.2022
1004 Clouds 23 1020 54 10000 2.57 140 15:56 10.05.2022
1005 Clouds 22 1021 62 10000 1.54 140 12:51 10.05.2022
1006 Clouds 22 1021 58 10000 3.09 170 11:53 10.05.2022
1007 Clouds 23 1021 52 10000 3.09 160 11:28 10.05.2022
1008 Clear 23 1021 55 10000 2.57 130 10:56 10.05.2022
1009 Clear 21 1021 54 10000 5.14 330 09:28 10.05.2022
1010 Clear 19 1021 59 10000 4.12 340 07:51 10.05.2022
1011 Clear 17 1020 63 10000 4.12 360 05:43 10.05.2022
1012 Clear 18 1021 64 10000 4.12 350 01:53 10.05.2022
1013 Clear 19 1021 61 10000 3.6 330 23:43 09.05.2022
1014 Clear 19 1021 64 10000 1.54 90 22:33 09.05.2022
1015 Clear 20 1020 61 10000 1.03 250 21:36 09.05.2022
1016 Clouds 22 1020 60 10000 3.09 200 19:52 09.05.2022
1017 Clouds 22 1020 60 10000 3.09 200 18:25 09.05.2022
1018 Clouds 23 1020 54 10000 3.09 200 17:25 09.05.2022
1019 Clouds 23 1020 51 10000 2.06 200 16:18 09.05.2022
1020 Clouds 23 1021 51 10000 2.06 190 15:47 09.05.2022
1021 Clouds 23 1021 49 10000 2.57 80 14:33 09.05.2022
1022 Rain 24 1022 46 10000 3.31 153 13:56 09.05.2022
1023 Clouds 23 1021 56 10000 2.57 90 12:55 09.05.2022
1024 Clouds 23 1021 58 10000 3.6 160 11:52 09.05.2022
1025 Clouds 21 1021 62 10000 3.09 150 10:47 09.05.2022
1026 Clouds 21 1021 62 10000 1.54 0 10:20 09.05.2022
1027 Clear 18 1020 67 10000 5.66 330 07:56 09.05.2022
1028 Clear 16 1019 72 10000 3.09 330 04:35 09.05.2022
1029 Clear 17 1019 67 10000 4.12 340 00:30 09.05.2022
1030 Clear 18 1018 66 10000 3.6 340 23:28 08.05.2022
1031 Clouds 18 1018 67 10000 3.6 340 22:29 08.05.2022
1032 Clouds 19 1017 67 10000 3.6 330 20:54 08.05.2022
1033 Clouds 20 1017 64 10000 3.6 330 20:22 08.05.2022
1034 Clouds 21 1016 58 10000 2.06 260 19:32 08.05.2022
1035 Clouds 21 1016 54 10000 1.54 310 18:35 08.05.2022
1036 Rain 21 1017 54 10000 1.54 240 17:36 08.05.2022
1037 Clouds 21 1017 63 10000 3.6 200 15:46 08.05.2022
1038 Clouds 21 1017 61 10000 3.09 240 15:21 08.05.2022
1039 Rain 19 1018 75 10000 2.06 70 12:46 08.05.2022
1040 Rain 19 1017 72 10000 3.6 90 10:59 08.05.2022
1041 Rain 19 1017 68 10000 2.06 10 10:22 08.05.2022
1042 Clouds 19 1016 70 10000 3.09 330 09:51 08.05.2022
1043 Clouds 16 1016 75 10000 5.66 330 07:43 08.05.2022
1044 Clouds 16 1015 74 10000 3.6 330 05:22 08.05.2022
1045 Clouds 16 1015 72 10000 3.09 330 03:21 08.05.2022
1046 Clouds 17 1015 70 10000 5.14 330 00:42 08.05.2022
1047 Clouds 17 1016 70 10000 2.06 350 23:55 07.05.2022
1048 Clouds 17 1016 70 10000 2.06 330 22:59 07.05.2022
1049 Clouds 18 1016 69 10000 2.57 330 22:35 07.05.2022
1050 Clouds 18 1015 71 10000 3.09 300 21:55 07.05.2022
1051 Clouds 18 1015 70 10000 3.6 270 21:20 07.05.2022
1052 Clouds 19 1015 67 10000 4.63 240 19:59 07.05.2022
1053 Clouds 20 1015 65 10000 5.14 210 18:41 07.05.2022
1054 Clouds 21 1015 61 10000 2.57 200 16:24 07.05.2022
1055 Clouds 21 1015 65 10000 4.12 200 14:51 07.05.2022
1056 Clouds 20 1016 63 10000 1.54 170 11:21 07.05.2022
1057 Clouds 18 1015 68 10000 3.09 340 09:39 07.05.2022
1058 Clouds 16 1015 72 10000 4.63 330 08:30 07.05.2022
1059 Clouds 15 1014 74 10000 2.06 330 06:44 07.05.2022
1060 Clouds 15 1014 73 10000 4.12 320 06:24 07.05.2022
1061 Clouds 16 1015 69 10000 3.09 330 03:54 07.05.2022
1062 Clouds 16 1016 77 10000 0 0 23:41 06.05.2022
1063 Clear 16 1016 80 10000 0 0 22:35 06.05.2022
1064 Clear 17 1016 78 10000 1.03 100 21:52 06.05.2022
1065 Clear 17 1016 77 10000 2.06 260 21:24 06.05.2022
1066 Clouds 18 1014 73 10000 3.6 210 19:43 06.05.2022
1067 Clouds 19 1014 69 10000 3.6 210 19:19 06.05.2022
1068 Clouds 19 1014 69 10000 5.14 210 18:29 06.05.2022
1069 Clouds 19 1014 70 10000 5.14 210 17:34 06.05.2022
1070 Clouds 19 1013 69 10000 4.12 200 15:51 06.05.2022
1071 Clouds 19 1013 65 10000 2.57 240 14:58 06.05.2022
1072 Rain 19 1015 63 10000 2.06 260 13:38 06.05.2022
1073 Rain 18 1015 69 10000 1.03 0 12:42 06.05.2022
1074 Clouds 18 1015 72 10000 1.54 190 11:58 06.05.2022
1075 Clouds 17 1014 70 10000 2.06 320 10:41 06.05.2022
1076 Clear 16 1014 74 10000 3.09 330 09:47 06.05.2022
1077 Clouds 15 1013 82 10000 2.57 330 08:59 06.05.2022
1078 Rain 14 1014 84 10000 2.57 320 07:27 06.05.2022
1079 Rain 14 1013 87 10000 2.06 320 06:24 06.05.2022
1080 Rain 14 1014 86 10000 3.09 320 02:54 06.05.2022
1081 Rain 14 1015 86 10000 3.6 300 01:57 06.05.2022
1082 Clouds 15 1016 85 10000 6.69 100 22:48 05.05.2022
1083 Clouds 15 1016 84 10000 3.6 60 21:45 05.05.2022
1084 Clouds 15 1016 84 10000 4.12 60 20:34 05.05.2022
1085 Rain 15 1016 88 10000 8.75 90 18:43 05.05.2022
1086 Rain 17 1016 76 10000 9.26 90 16:40 05.05.2022
1087 Clouds 18 1016 72 10000 8.23 90 14:55 05.05.2022
1088 Clouds 19 1016 64 10000 5.14 70 13:27 05.05.2022
1089 Clouds 18 1017 65 10000 1.54 60 12:55 05.05.2022
1090 Clouds 17 1017 72 10000 1.54 330 10:59 05.05.2022
1091 Rain 16 1017 75 10000 2.57 340 09:40 05.05.2022
1092 Rain 15 1017 77 10000 3.09 330 08:30 05.05.2022
1093 Clouds 14 1016 80 10000 3.6 320 05:44 05.05.2022
1094 Clear 16 1017 78 10000 2.06 350 02:20 05.05.2022
1095 Clear 15 1017 82 10000 2.06 330 01:35 05.05.2022
1096 Clear 16 1017 84 10000 0 0 23:57 04.05.2022
1097 Clouds 16 1017 84 10000 1.03 110 22:54 04.05.2022
1098 Clouds 16 1017 84 10000 1.03 0 21:59 04.05.2022
1099 Clouds 17 1017 83 10000 1.54 70 21:30 04.05.2022
1100 Clouds 17 1016 81 10000 1.54 70 20:42 04.05.2022
1101 Clouds 18 1016 77 10000 3.09 140 19:56 04.05.2022
1102 Clouds 18 1016 76 10000 3.6 140 19:35 04.05.2022
1103 Clouds 20 1015 69 10000 2.57 90 18:22 04.05.2022
1104 Clouds 21 1016 69 10000 2.57 90 17:59 04.05.2022
1105 Clouds 21 1015 68 10000 3.6 80 16:29 04.05.2022
1106 Clouds 21 1016 67 10000 4.12 100 15:32 04.05.2022
1107 Clouds 21 1016 66 10000 3.6 130 14:38 04.05.2022
1108 Clouds 21 1016 63 10000 3.6 130 14:18 04.05.2022
1109 Clouds 21 1017 61 10000 2.57 120 12:34 04.05.2022
1110 Clouds 20 1017 63 10000 2.06 120 11:25 04.05.2022
1111 Clear 19 1018 56 10000 1.03 0 09:50 04.05.2022
1112 Clear 18 1017 56 10000 4.63 340 08:56 04.05.2022
1113 Clear 15 1016 65 10000 3.6 350 07:33 04.05.2022
1114 Clear 14 1015 69 10000 4.12 340 04:34 04.05.2022
1115 Clear 14 1015 70 10000 4.12 340 02:33 04.05.2022
1116 Clear 16 1014 69 10000 1.54 0 22:59 03.05.2022
1117 Clear 16 1014 79 10000 0.51 270 21:50 03.05.2022
1118 Clouds 16 1014 79 10000 1.54 230 21:23 03.05.2022
1119 Clouds 17 1014 80 10000 2.57 210 20:46 03.05.2022
1120 Clouds 18 1013 78 10000 3.6 210 19:32 03.05.2022
1121 Clouds 18 1013 75 10000 3.6 210 18:43 03.05.2022
1122 Clouds 19 1014 71 10000 1.54 170 17:21 03.05.2022
1123 Clouds 19 1014 73 10000 1.54 180 15:57 03.05.2022
1124 Clouds 20 1014 71 10000 2.06 160 14:23 03.05.2022
1125 Clouds 20 1014 73 10000 3.09 130 12:35 03.05.2022
1126 Clouds 17 1014 86 10000 3.6 120 11:35 03.05.2022
1127 Clouds 19 1013 73 10000 3.09 110 10:44 03.05.2022
1128 Clear 16 1013 75 10000 2.06 50 08:19 03.05.2022
1129 Clouds 15 1012 75 10000 1.03 70 06:45 03.05.2022
1130 Clouds 16 1013 75 10000 3.09 260 02:39 03.05.2022
1131 Clear 16 1013 77 10000 2.57 250 23:32 02.05.2022
1132 Clear 16 1013 78 10000 1.54 220 22:29 02.05.2022
1133 Clear 16 1013 78 10000 1.54 220 22:29 02.05.2022
1134 Clear 16 1012 79 10000 1.54 220 21:47 02.05.2022
1135 Clear 18 1012 72 10000 3.09 190 19:30 02.05.2022
1136 Clear 19 1012 64 10000 1.54 160 18:26 02.05.2022
1137 Clear 20 1012 67 10000 2.06 170 17:41 02.05.2022
1138 Clear 20 1012 67 10000 2.06 170 17:41 02.05.2022
1139 Clouds 20 1012 66 10000 2.57 180 16:43 02.05.2022
1140 Clouds 20 1013 61 10000 3.09 160 15:41 02.05.2022
1141 Clouds 21 1013 58 10000 3.09 160 14:51 02.05.2022
1142 Clouds 20 1013 61 10000 3.09 140 13:42 02.05.2022
1143 Clear 19 1013 66 10000 2.57 140 11:41 02.05.2022
1144 Clear 18 1013 65 10000 3.09 340 09:59 02.05.2022
1145 Clear 15 1013 74 10000 3.6 340 08:31 02.05.2022
1146 Clear 13 1013 79 10000 3.6 340 06:56 02.05.2022
1147 Clear 15 1014 79 10000 3.6 310 00:47 02.05.2022
1148 Clear 15 1014 82 10000 4.12 320 00:47 02.05.2022
1149 Clear 15 1014 81 10000 4.12 320 00:22 02.05.2022
1150 Clear 15 1014 81 10000 2.57 290 23:40 01.05.2022
1151 Rain 16 1014 81 10000 2.06 240 21:45 01.05.2022
1152 Clouds 16 1014 78 10000 1.03 0 20:50 01.05.2022
1153 Clouds 16 1014 78 10000 3.6 290 19:27 01.05.2022
1154 Clouds 16 1014 75 10000 3.09 290 18:53 01.05.2022
1155 Clouds 17 1014 78 10000 3.09 70 17:51 01.05.2022
1156 Rain 18 1014 67 10000 4.63 80 16:42 01.05.2022
1157 Rain 18 1014 66 10000 6.17 90 16:18 01.05.2022
1158 Clouds 21 1015 53 10000 4.63 100 14:54 01.05.2022
1159 Clouds 20 1015 55 10000 4.63 90 13:23 01.05.2022
1160 Clouds 19 1015 61 10000 2.57 130 10:45 01.05.2022
1161 Clear 17 1014 62 10000 3.09 340 08:50 01.05.2022
1162 Clear 14 1015 67 10000 3.6 330 06:51 01.05.2022
1163 Clear 15 1015 68 10000 3.6 330 02:51 01.05.2022
1164 Clouds 15 1016 71 10000 3.6 10 22:52 30.04.2022
1165 Clouds 15 1016 72 10000 2.06 280 21:34 30.04.2022
1166 Rain 15 1016 74 10000 2.06 230 20:24 30.04.2022
1167 Rain 16 1016 66 10000 1.54 0 19:33 30.04.2022
1168 Clouds 20 1016 48 10000 3.09 120 17:38 30.04.2022
1169 Clouds 20 1017 47 10000 2.57 100 16:30 30.04.2022
1170 Clouds 20 1018 47 10000 2.06 100 15:19 30.04.2022
1171 Clouds 20 1018 51 10000 3.09 90 14:31 30.04.2022
1172 Clouds 19 1019 57 10000 5.66 100 12:36 30.04.2022
1173 Clouds 20 1019 55 10000 5.14 90 11:32 30.04.2022
1174 Clouds 19 1019 59 10000 4.63 90 10:31 30.04.2022
1175 Clouds 17 1019 62 10000 1.54 0 08:34 30.04.2022
1176 Clear 15 1019 56 10000 3.6 340 05:38 30.04.2022
1177 Clear 17 1020 52 10000 3.6 330 00:35 30.04.2022
1178 Clear 16 1020 53 10000 4.12 320 23:36 29.04.2022
1179 Clear 17 1020 54 10000 1.03 0 22:30 29.04.2022
1180 Clear 17 1019 61 10000 2.06 230 21:27 29.04.2022
1181 Clear 18 1019 57 10000 3.09 220 20:38 29.04.2022
1182 Clear 19 1019 51 10000 3.6 200 19:38 29.04.2022
1183 Clear 20 1020 55 10000 2.57 200 17:50 29.04.2022
1184 Clear 20 1020 57 10000 2.57 190 16:56 29.04.2022
1185 Clear 21 1021 53 10000 3.09 180 14:50 29.04.2022
1186 Clear 21 1022 51 10000 3.6 180 14:20 29.04.2022
1187 Clear 21 1022 47 10000 2.57 190 12:43 29.04.2022
1188 Clear 20 1023 46 10000 1.54 190 10:58 29.04.2022
1189 Clear 16 1023 52 10000 4.63 330 08:33 29.04.2022
1190 Clear 15 1022 61 10000 4.63 330 07:27 29.04.2022
1191 Clear 15 1022 62 10000 4.12 330 06:37 29.04.2022
1192 Clear 16 1022 57 10000 4.12 340 03:34 29.04.2022
1193 Clear 17 1022 54 10000 4.12 330 00:19 29.04.2022
1194 Clear 17 1021 49 10000 3.09 340 23:27 28.04.2022
1195 Clouds 17 1021 48 10000 2.57 320 22:41 28.04.2022
1196 Clouds 17 1021 50 10000 0.51 270 21:46 28.04.2022
1197 Clouds 18 1020 52 10000 0 0 20:57 28.04.2022
1198 Clouds 19 1020 49 10000 1.54 190 20:24 28.04.2022
1199 Clouds 20 1019 46 10000 1.54 190 19:41 28.04.2022
1200 Clear 21 1019 40 10000 1.54 190 19:21 28.04.2022
1201 Clear 20 1020 45 10000 1.54 160 18:35 28.04.2022
1202 Clouds 21 1019 40 10000 1.54 0 16:59 28.04.2022
1203 Clouds 21 1020 41 10000 1.54 0 16:40 28.04.2022
1204 Clouds 21 1021 39 10000 1.54 0 16:18 28.04.2022
1205 Clouds 21 1021 43 10000 1.54 110 15:27 28.04.2022
1206 Clouds 21 1021 43 10000 1.54 110 15:27 28.04.2022
1207 Clouds 22 1022 41 10000 2.57 100 13:44 28.04.2022
1208 Clouds 21 1021 49 10000 4.63 90 12:44 28.04.2022
1209 Clouds 21 1021 54 10000 3.6 100 11:56 28.04.2022
1210 Clear 20 1020 62 10000 1.54 0 10:46 28.04.2022
1211 Clear 19 1020 66 10000 1.54 80 09:54 28.04.2022
1212 Clear 17 1019 68 10000 3.09 340 08:31 28.04.2022
1213 Clear 15 1018 72 10000 2.57 340 07:19 28.04.2022
1214 Clear 15 1018 72 10000 2.06 360 05:56 28.04.2022
1215 Clear 15 1018 75 10000 2.06 350 05:38 28.04.2022
1216 Clear 15 1018 73 10000 1.03 10 04:39 28.04.2022
1217 Clouds 15 1018 76 10000 0.51 120 00:30 28.04.2022
1218 Clouds 16 1018 73 10000 0.51 110 22:40 27.04.2022
1219 Clouds 16 1018 75 10000 1.03 90 21:55 27.04.2022
1220 Clouds 16 1017 76 10000 1.03 120 21:18 27.04.2022
1221 Clouds 16 1017 78 10000 1.03 140 20:37 27.04.2022
1222 Clouds 18 1016 74 10000 1.54 120 19:38 27.04.2022
1223 Clouds 18 1016 73 10000 1.54 120 19:18 27.04.2022
1224 Clouds 18 1017 74 10000 2.06 140 18:22 27.04.2022
1225 Clouds 18 1017 74 10000 2.06 140 18:22 27.04.2022
1226 Clouds 18 1017 75 10000 2.06 140 18:22 27.04.2022
1227 Clouds 19 1017 73 10000 2.06 140 17:23 27.04.2022
1228 Clouds 19 1017 75 10000 3.09 110 15:21 27.04.2022
1229 Clouds 18 1017 76 10000 5.14 110 12:25 27.04.2022
1230 Clouds 18 1017 74 10000 5.14 100 11:21 27.04.2022
1231 Clouds 16 1016 79 10000 2.06 110 09:45 27.04.2022
1232 Clouds 14 1015 85 10000 4.12 70 07:19 27.04.2022
1233 Clouds 14 1015 88 10000 2.06 60 05:37 27.04.2022
1234 Clouds 14 1014 84 10000 6.17 80 01:35 27.04.2022
1235 Clouds 14 1014 85 10000 6.17 80 00:38 27.04.2022
1236 Clouds 15 1014 87 10000 4.63 90 23:57 26.04.2022
1237 Clouds 15 1014 88 10000 4.12 90 23:23 26.04.2022
1238 Clouds 15 1014 88 10000 4.12 90 22:41 26.04.2022
1239 Clouds 15 1013 88 10000 4.12 100 21:48 26.04.2022
1240 Clouds 15 1013 88 10000 4.12 100 20:54 26.04.2022
1241 Clouds 15 1013 87 10000 4.63 100 20:34 26.04.2022
1242 Clouds 16 1012 85 10000 5.14 110 19:33 26.04.2022
1243 Clouds 16 1012 84 10000 5.66 110 18:51 26.04.2022
1244 Clouds 17 1012 81 10000 5.14 110 18:18 26.04.2022
1245 Clouds 17 1012 81 10000 5.14 110 18:18 26.04.2022
1246 Clouds 18 1012 81 10000 4.12 90 17:32 26.04.2022
1247 Clouds 18 1013 79 10000 4.63 190 14:46 26.04.2022
1248 Clouds 17 1013 78 10000 3.6 180 13:34 26.04.2022
1249 Clouds 17 1013 76 10000 3.6 180 12:25 26.04.2022
1250 Clouds 16 1013 77 10000 1.54 170 10:46 26.04.2022
1251 Clouds 15 1013 77 10000 1.03 0 09:41 26.04.2022
1252 Clouds 13 1012 83 10000 3.09 330 07:59 26.04.2022
1253 Clouds 13 1012 84 10000 2.57 320 04:37 26.04.2022
1254 Clouds 13 1012 85 10000 2.57 320 02:20 26.04.2022
1255 Clouds 13 1011 86 10000 1.03 0 00:28 26.04.2022
1256 Clouds 14 1011 85 10000 4.63 80 22:50 25.04.2022
1257 Clear 14 1010 87 10000 5.66 90 21:44 25.04.2022
1258 Clear 15 1009 86 10000 6.17 90 20:46 25.04.2022
1259 Clouds 17 1009 78 10000 7.2 90 19:39 25.04.2022
1260 Clouds 18 1009 71 10000 7.72 90 18:25 25.04.2022
1261 Clouds 18 1009 68 10000 7.2 90 17:32 25.04.2022
1262 Clouds 18 1009 68 10000 4.12 90 15:38 25.04.2022
1263 Clouds 18 1010 68 10000 4.12 90 15:18 25.04.2022
1264 Clouds 18 1010 71 10000 3.6 110 13:43 25.04.2022
1265 Clouds 17 1009 75 10000 2.06 130 11:53 25.04.2022
1266 Clouds 15 1008 79 10000 1.54 0 10:27 25.04.2022
1267 Clouds 13 1007 83 10000 3.09 340 09:20 25.04.2022
1268 Clouds 10 1007 91 10000 3.09 330 07:19 25.04.2022
1269 Clouds 10 1006 89 10000 2.57 330 05:32 25.04.2022
1270 Clear 11 1007 87 10000 2.57 320 01:24 25.04.2022
1271 Clear 12 1007 88 10000 2.57 330 23:53 24.04.2022
1272 Clouds 12 1007 87 10000 5.14 80 22:53 24.04.2022
1273 Clouds 13 1007 85 10000 5.66 80 22:32 24.04.2022
1274 Clouds 13 1006 86 10000 5.14 70 21:54 24.04.2022
1275 Clouds 13 1006 86 10000 5.66 90 21:20 24.04.2022
1276 Clouds 14 1005 82 10000 6.69 100 20:38 24.04.2022
1277 Clouds 15 1005 81 10000 6.69 80 19:50 24.04.2022
1278 Clouds 15 1004 82 10000 6.69 80 18:28 24.04.2022
1279 Rain 16 1005 83 10000 3.6 100 17:40 24.04.2022
1280 Clouds 16 1005 83 10000 3.6 100 17:19 24.04.2022
1281 Clouds 16 1004 83 10000 3.6 170 16:49 24.04.2022
1282 Clouds 16 1004 79 10000 2.57 140 16:20 24.04.2022
1283 Clouds 15 1004 80 10000 3.09 200 15:32 24.04.2022
1284 Clouds 15 1004 77 10000 4.12 200 14:30 24.04.2022
1285 Clouds 15 1003 79 10000 3.09 190 13:26 24.04.2022
1286 Rain 15 1003 79 10000 3.6 130 12:38 24.04.2022
1287 Clouds 15 1002 77 10000 3.6 120 11:44 24.04.2022
1288 Clouds 13 1002 76 10000 1.54 350 10:32 24.04.2022
1289 Clouds 12 1002 82 10000 3.09 340 09:41 24.04.2022
1290 Rain 11 1002 88 10000 4.63 340 07:39 24.04.2022
1291 Rain 10 1002 85 10000 4.63 330 04:56 24.04.2022
1292 Clouds 11 1002 89 10000 5.14 330 01:50 24.04.2022
1293 Clouds 11 1002 89 10000 2.57 310 00:33 24.04.2022
1294 Clouds 11 1002 88 10000 2.06 330 23:45 23.04.2022
1295 Clouds 11 1002 87 10000 2.06 330 23:22 23.04.2022
1296 Clouds 12 1002 86 10000 7.2 200 21:55 23.04.2022
1297 Rain 12 1002 83 10000 8.23 190 21:35 23.04.2022
1298 Rain 12 1002 88 10000 3.59 233 20:57 23.04.2022
1299 Rain 12 1002 86 10000 8.23 200 19:54 23.04.2022
1300 Rain 13 1001 86 8000 8.75 120 19:19 23.04.2022
1301 Rain 12 1001 87 3000 10.29 100 18:53 23.04.2022
1302 Mist 13 1001 86 4000 6.17 80 18:28 23.04.2022
1303 Rain 13 1000 85 6000 5.66 60 17:43 23.04.2022
1304 Rain 13 1002 85 10000 4.63 50 16:43 23.04.2022
1305 Rain 13 1003 85 10000 3.09 50 15:32 23.04.2022
1306 Rain 15 1005 88 6000 5.14 80 12:50 23.04.2022
1307 Clouds 15 1005 89 10000 3.6 110 10:50 23.04.2022
1308 Clouds 14 1004 88 10000 5.66 130 09:38 23.04.2022
1309 Clouds 14 1005 92 10000 4.63 130 07:38 23.04.2022
1310 Clouds 13 1004 88 10000 0.51 30 03:54 23.04.2022
1311 Clouds 14 1004 88 10000 1.54 230 01:32 23.04.2022
1312 Clouds 14 1003 88 10000 2.06 220 23:32 22.04.2022
1313 Clouds 14 1003 88 7322 1.62 209 22:22 22.04.2022
1314 Clouds 14 1003 89 10000 3.09 220 21:44 22.04.2022
1315 Clouds 14 1003 88 10000 4.12 200 20:55 22.04.2022
1316 Clouds 15 1003 88 10000 4.63 200 20:28 22.04.2022
1317 Clouds 15 1002 86 10000 4.63 200 19:22 22.04.2022
1318 Clouds 15 1002 85 10000 6.17 200 18:46 22.04.2022
1319 Clouds 15 1002 83 10000 6.17 210 17:50 22.04.2022
1320 Clouds 16 1002 76 10000 7.72 200 16:46 22.04.2022
1321 Clouds 16 1001 76 10000 8.75 210 15:47 22.04.2022
1322 Clouds 16 1001 77 10000 8.23 210 15:21 22.04.2022
1323 Clouds 16 1000 77 10000 7.72 210 13:54 22.04.2022
1324 Clouds 16 1000 82 10000 7.2 220 13:27 22.04.2022
1325 Clouds 16 1000 81 10000 7.2 220 12:29 22.04.2022
1326 Clouds 16 999 77 10000 1.03 0 11:22 22.04.2022
1327 Clouds 16 999 77 10000 1.03 0 10:52 22.04.2022
1328 Clouds 16 999 77 10000 1.03 0 10:31 22.04.2022
1329 Clouds 15 999 76 10000 1.03 0 09:53 22.04.2022
1330 Clouds 15 998 78 10000 1.54 330 08:56 22.04.2022
1331 Clouds 14 998 76 10000 1.54 330 08:24 22.04.2022
1332 Rain 14 997 74 10000 1.54 0 05:20 22.04.2022
1333 Rain 14 998 74 10000 5.66 80 00:53 22.04.2022
1334 Rain 15 998 69 10000 8.75 110 23:28 21.04.2022
1335 Rain 16 998 60 10000 5.14 90 22:29 21.04.2022
1336 Rain 16 998 60 10000 5.14 90 22:29 21.04.2022
1337 Clouds 17 998 61 10000 6.17 80 20:55 21.04.2022
1338 Clouds 17 998 63 10000 7.72 90 20:27 21.04.2022
1339 Clouds 18 998 63 10000 9.26 90 18:48 21.04.2022
1340 Clouds 18 998 65 10000 9.26 70 18:19 21.04.2022
1341 Clouds 17 999 61 10000 10.29 90 16:53 21.04.2022
1342 Clouds 19 1000 56 10000 12.86 90 15:23 21.04.2022
1343 Clouds 19 1000 60 10000 11.32 80 14:51 21.04.2022
1344 Clouds 19 1001 57 10000 11.32 90 13:56 21.04.2022
1345 Clouds 19 1001 60 10000 10.8 90 13:20 21.04.2022
1346 Clouds 17 1003 68 10000 12.35 80 11:37 21.04.2022
1347 Clouds 15 1003 77 10000 2.57 70 09:23 21.04.2022
1348 Clouds 13 1003 82 10000 4.63 60 08:29 21.04.2022
1349 Clouds 13 1006 84 10000 5.66 60 06:26 21.04.2022
1350 Clouds 13 1006 81 10000 2.06 20 03:37 21.04.2022
1351 Clouds 13 1006 82 10000 2.06 20 03:18 21.04.2022
1352 Rain 13 1007 83 10000 2.57 50 02:43 21.04.2022
1353 Rain 14 1008 86 8000 8.75 110 00:27 21.04.2022
1354 Rain 15 1007 75 10000 5.66 90 23:24 20.04.2022
1355 Rain 16 1008 72 10000 6.69 100 22:58 20.04.2022
1356 Rain 16 1008 72 10000 7.72 80 22:32 20.04.2022
1357 Rain 15 1008 79 10000 5.66 70 21:35 20.04.2022
1358 Rain 15 1008 80 10000 6.69 80 20:43 20.04.2022
1359 Rain 15 1008 81 10000 5.66 70 20:20 20.04.2022
1360 Rain 15 1008 79 10000 6.69 90 19:38 20.04.2022
1361 Clouds 16 1008 75 10000 6.69 80 18:45 20.04.2022
1362 Clouds 16 1008 76 10000 8.75 70 17:18 20.04.2022
1363 Clouds 16 1009 79 10000 8.23 80 16:39 20.04.2022
1364 Clouds 15 1009 83 10000 7.2 90 14:55 20.04.2022
1365 Clouds 16 1010 82 10000 7.72 80 12:18 20.04.2022
1366 Clouds 16 1010 82 10000 7.72 80 11:40 20.04.2022
1367 Clouds 16 1009 83 10000 7.2 90 10:39 20.04.2022
1368 Clouds 16 1009 79 10000 5.66 90 09:28 20.04.2022
1369 Clouds 15 1009 84 10000 5.14 70 08:27 20.04.2022
1370 Clouds 14 1010 87 10000 4.12 70 07:44 20.04.2022
1371 Clouds 13 1008 83 10000 5.14 80 05:29 20.04.2022
1372 Clouds 14 1009 84 10000 1.03 100 01:35 20.04.2022
1373 Clouds 14 1009 85 10000 1.03 90 00:21 20.04.2022
1374 Clouds 15 1008 85 10000 1.54 90 22:53 19.04.2022
1375 Clouds 15 1008 86 10000 1.03 100 22:23 19.04.2022
1376 Clouds 14 1008 86 10000 1.54 80 21:48 19.04.2022
1377 Clouds 15 1007 85 10000 1.54 110 20:57 19.04.2022
1378 Clouds 15 1007 85 10000 2.06 100 20:37 19.04.2022
1379 Clouds 16 1007 81 10000 3.09 110 19:32 19.04.2022
1380 Clouds 16 1008 78 10000 3.09 110 18:30 19.04.2022
1381 Clouds 17 1008 77 10000 4.63 100 16:50 19.04.2022
1382 Clouds 17 1008 74 10000 4.63 90 16:25 19.04.2022
1383 Clouds 17 1008 75 10000 4.12 100 15:59 19.04.2022
1384 Clouds 17 1009 73 10000 4.63 120 14:46 19.04.2022
1385 Clouds 17 1010 71 10000 4.12 120 12:53 19.04.2022
1386 Clouds 17 1010 72 10000 4.12 110 12:34 19.04.2022
1387 Clouds 16 1011 72 10000 4.12 90 11:35 19.04.2022
1388 Clouds 15 1011 70 10000 1.03 0 09:51 19.04.2022
1389 Clouds 12 1011 74 10000 4.12 340 07:49 19.04.2022
1390 Clear 11 1011 76 10000 3.09 330 04:26 19.04.2022
1391 Clear 11 1012 76 10000 2.57 20 02:39 19.04.2022
1392 Clear 12 1012 76 10000 3.09 30 23:51 18.04.2022
1393 Clear 13 1012 72 10000 1.03 0 22:54 18.04.2022
1394 Clear 14 1012 71 10000 3.6 220 21:28 18.04.2022
1395 Clear 14 1012 69 10000 3.6 210 20:40 18.04.2022
1396 Clouds 15 1012 66 10000 3.6 220 20:22 18.04.2022
1397 Clouds 16 1012 63 10000 4.12 200 19:40 18.04.2022
1398 Clouds 17 1012 58 10000 4.63 200 18:52 18.04.2022
1399 Clear 18 1012 54 10000 4.63 200 17:49 18.04.2022
1400 Clear 18 1012 54 10000 4.63 200 17:49 18.04.2022
1401 Clear 18 1012 53 10000 4.63 200 17:20 18.04.2022
1402 Clear 18 1013 53 10000 4.63 200 16:40 18.04.2022
1403 Clear 18 1013 55 10000 4.63 190 15:43 18.04.2022
1404 Clouds 18 1014 55 10000 4.63 180 14:28 18.04.2022
1405 Clouds 17 1014 58 10000 4.12 170 13:25 18.04.2022
1406 Clouds 17 1015 57 10000 4.12 170 12:27 18.04.2022
1407 Clouds 17 1015 60 10000 3.6 170 11:20 18.04.2022
1408 Clouds 16 1015 61 10000 3.09 170 10:28 18.04.2022
1409 Clouds 15 1015 63 10000 2.57 170 09:30 18.04.2022
1410 Clouds 14 1016 68 10000 3.09 160 07:34 18.04.2022
1411 Clouds 14 1015 83 10000 3.6 130 04:40 18.04.2022
1412 Clouds 15 1015 64 10000 0 0 23:42 17.04.2022
1413 Clouds 16 1014 63 10000 2.57 240 22:40 17.04.2022
1414 Clouds 16 1014 64 10000 3.6 220 21:42 17.04.2022
1415 Clouds 16 1014 63 10000 4.12 200 21:21 17.04.2022
1416 Clouds 16 1014 62 10000 3.09 220 20:32 17.04.2022
1417 Clouds 16 1014 58 10000 2.57 240 19:21 17.04.2022
1418 Clouds 17 1015 55 10000 2.06 200 17:38 17.04.2022
1419 Clouds 18 1016 57 10000 2.57 190 15:38 17.04.2022
1420 Clouds 17 1016 63 10000 3.09 200 14:54 17.04.2022
1421 Clouds 17 1018 59 10000 2.57 160 13:47 17.04.2022
1422 Clouds 18 1017 59 10000 3.09 160 12:58 17.04.2022
1423 Clouds 18 1017 58 10000 4.12 110 11:53 17.04.2022
1424 Clouds 17 1017 65 10000 1.54 190 10:46 17.04.2022
1425 Clouds 16 1017 65 10000 3.09 200 10:27 17.04.2022
1426 Clouds 16 1017 67 10000 3.6 110 09:28 17.04.2022
1427 Clouds 15 1017 69 10000 4.12 90 08:42 17.04.2022
1428 Clouds 14 1017 69 10000 5.66 80 07:00 17.04.2022
1429 Clouds 16 1016 61 10000 9.77 80 03:53 17.04.2022
1430 Clouds 17 1015 59 10000 5.66 90 00:55 17.04.2022
1431 Clouds 18 1015 56 10000 9.77 80 23:50 16.04.2022
1432 Clouds 20 1014 40 10000 1.54 0 22:27 16.04.2022
1433 Clouds 20 1013 46 10000 1.54 280 21:31 16.04.2022
1434 Clouds 20 1012 45 10000 2.57 250 20:18 16.04.2022
1435 Clouds 21 1011 46 10000 0 0 18:55 16.04.2022
1436 Clouds 24 1013 40 10000 1.53 49 17:41 16.04.2022
1437 Clouds 22 1012 51 10000 1.54 0 16:38 16.04.2022
1438 Clouds 22 1013 49 10000 2.06 120 15:43 16.04.2022
1439 Clouds 22 1013 49 10000 2.06 100 14:55 16.04.2022
1440 Clouds 23 1014 43 10000 2.06 70 13:58 16.04.2022
1441 Clouds 21 1015 51 10000 2.06 80 13:32 16.04.2022
1442 Clouds 22 1014 47 10000 2.57 140 12:22 16.04.2022
1443 Clear 22 1014 39 10000 1.03 0 10:49 16.04.2022
1444 Clear 21 1014 41 10000 1.03 0 09:56 16.04.2022
1445 Clear 19 1014 52 10000 2.06 350 08:57 16.04.2022
1446 Clear 16 1014 65 10000 1.54 200 07:52 16.04.2022
1447 Clear 16 1013 57 10000 2.57 200 06:58 16.04.2022
1448 Clear 17 1014 54 10000 1.03 0 02:46 16.04.2022
1449 Clear 18 1015 36 10000 4.12 330 00:30 16.04.2022
1450 Clear 19 1016 40 10000 2.06 350 23:21 15.04.2022
1451 Clear 18 1016 55 10000 1.03 190 22:32 15.04.2022
1452 Clear 18 1016 52 10000 1.54 170 21:50 15.04.2022
1453 Clear 19 1015 43 10000 0.51 140 21:18 15.04.2022
1454 Clear 20 1015 45 10000 1.03 80 20:22 15.04.2022
1455 Clear 20 1015 43 10000 1.54 110 19:40 15.04.2022
1456 Clear 20 1016 48 10000 1.54 110 18:54 15.04.2022
1457 Clear 21 1015 41 10000 1.54 0 18:25 15.04.2022
1458 Clear 21 1015 41 10000 1.54 0 17:34 15.04.2022
1459 Clear 21 1016 42 10000 2.06 90 16:53 15.04.2022
1460 Clear 21 1016 41 10000 2.06 110 16:19 15.04.2022
1461 Clear 19 1017 55 10000 2.57 120 15:24 15.04.2022
1462 Clear 20 1017 48 10000 2.57 190 13:41 15.04.2022
1463 Clear 21 1017 53 10000 2.57 200 12:42 15.04.2022
1464 Clear 20 1018 49 10000 2.06 170 11:57 15.04.2022
1465 Clear 20 1018 49 10000 2.06 170 11:57 15.04.2022
1466 Clear 21 1018 47 10000 2.06 120 11:34 15.04.2022
1467 Clear 21 1018 37 10000 3.09 40 10:43 15.04.2022
1468 Clear 20 1018 39 10000 1.54 10 09:47 15.04.2022
1469 Clear 19 1017 40 10000 3.6 340 09:21 15.04.2022
1470 Clear 17 1018 39 10000 6.69 330 07:44 15.04.2022
1471 Clear 17 1017 40 10000 6.17 330 06:37 15.04.2022
1472 Clear 17 1017 41 10000 4.12 340 03:21 15.04.2022
1473 Clear 18 1017 39 10000 4.12 330 23:32 14.04.2022
1474 Clear 18 1017 38 10000 2.57 340 22:49 14.04.2022
1475 Clear 18 1017 39 10000 2.57 330 22:31 14.04.2022
1476 Clear 18 1017 41 10000 1.54 0 21:59 14.04.2022
1477 Clear 18 1017 41 10000 2.57 270 21:30 14.04.2022
1478 Clear 21 1016 40 10000 0 0 19:24 14.04.2022
1479 Clear 21 1016 41 10000 0 0 18:30 14.04.2022
1480 Clear 22 1016 37 10000 0 0 17:44 14.04.2022
1481 Clear 22 1017 35 10000 1.03 0 16:46 14.04.2022
1482 Clear 23 1017 34 10000 1.54 180 15:29 14.04.2022
1483 Clear 22 1016 39 10000 3.09 200 13:49 14.04.2022
1484 Clear 22 1017 41 10000 3.09 200 13:18 14.04.2022
1485 Clear 20 1016 48 10000 3.6 190 12:32 14.04.2022
1486 Clear 19 1016 50 10000 2.06 180 11:36 14.04.2022
1487 Clear 19 1015 42 10000 1.54 170 10:56 14.04.2022
1488 Clear 19 1015 43 10000 0.51 0 10:27 14.04.2022
1489 Clear 16 1015 49 10000 3.6 340 09:26 14.04.2022
1490 Clear 14 1016 44 10000 3.09 340 07:52 14.04.2022
1491 Clear 14 1015 49 10000 3.6 320 05:23 14.04.2022
1492 Clear 17 1015 42 10000 3.09 340 23:50 13.04.2022
1493 Clear 16 1015 48 10000 0.51 240 22:29 13.04.2022
1494 Clear 17 1015 51 10000 1.54 0 21:42 13.04.2022
1495 Clear 17 1015 47 10000 1.03 0 20:35 13.04.2022
1496 Clear 18 1015 46 10000 3.09 100 19:46 13.04.2022
1497 Clear 20 1015 41 10000 1.54 0 18:36 13.04.2022
1498 Clear 20 1016 42 10000 3.09 90 17:24 13.04.2022
1499 Clear 20 1016 41 10000 2.57 80 16:49 13.04.2022
1500 Clear 20 1016 41 10000 7.72 110 15:44 13.04.2022
1501 Clear 20 1015 45 10000 8.23 100 15:21 13.04.2022
1502 Clear 20 1015 47 10000 10.29 100 14:34 13.04.2022
1503 Clear 19 1015 51 10000 8.23 90 13:37 13.04.2022
1504 Clear 19 1015 53 10000 7.2 90 12:45 13.04.2022
1505 Clear 18 1016 57 10000 6.69 70 11:32 13.04.2022
1506 Clear 16 1015 61 10000 7.72 70 10:27 13.04.2022
1507 Clear 13 1015 63 10000 2.06 340 08:45 13.04.2022
1508 Clear 13 1016 66 10000 8.23 70 07:44 13.04.2022
1509 Clear 12 1014 71 10000 10.29 80 06:47 13.04.2022
1510 Clear 13 1014 71 10000 10.29 80 06:23 13.04.2022
1511 Clear 14 1015 60 10000 6.17 70 01:51 13.04.2022
1512 Clear 14 1016 55 10000 5.14 60 00:19 13.04.2022
1513 Clear 14 1016 59 10000 7.72 70 22:33 12.04.2022
1514 Clear 14 1015 61 10000 9.77 80 21:51 12.04.2022
1515 Clear 14 1015 60 10000 10.8 80 20:48 12.04.2022
1516 Clear 15 1015 60 10000 10.29 80 20:20 12.04.2022
1517 Clear 15 1015 64 10000 9.77 80 19:40 12.04.2022
1518 Clouds 15 1015 67 10000 8.75 80 18:56 12.04.2022
1519 Clouds 16 1016 65 10000 10.8 80 17:39 12.04.2022
1520 Clouds 16 1016 65 10000 11.32 90 16:47 12.04.2022
1521 Clouds 17 1017 67 10000 12.35 80 15:35 12.04.2022
1522 Clouds 16 1017 66 10000 12.35 80 14:53 12.04.2022
1523 Clouds 16 1017 66 10000 11.32 80 13:50 12.04.2022
1524 Clouds 16 1017 66 10000 11.32 80 13:25 12.04.2022
1525 Clouds 16 1018 66 10000 11.83 90 12:21 12.04.2022
1526 Clouds 16 1018 66 10000 11.83 90 11:39 12.04.2022
1527 Clouds 14 1018 62 10000 6.17 60 09:52 12.04.2022
1528 Clouds 11 1018 66 10000 3.6 330 08:51 12.04.2022
1529 Clouds 10 1018 67 10000 3.6 330 07:20 12.04.2022
1530 Clouds 10 1017 71 10000 3.09 330 05:41 12.04.2022
1531 Clouds 10 1019 75 10000 2.57 330 02:37 12.04.2022
1532 Clouds 11 1020 81 10000 6.69 80 23:25 11.04.2022
1533 Clouds 12 1020 83 10000 7.2 90 22:33 11.04.2022
1534 Clouds 12 1019 84 10000 7.72 90 21:23 11.04.2022
1535 Clouds 13 1019 82 10000 6.69 90 20:37 11.04.2022
1536 Clouds 13 1019 82 10000 6.69 90 20:19 11.04.2022
1537 Clouds 14 1019 80 10000 5.66 90 19:27 11.04.2022
1538 Clouds 15 1019 77 10000 6.17 90 18:56 11.04.2022
1539 Clouds 15 1019 72 10000 6.69 80 17:58 11.04.2022
1540 Clouds 15 1020 71 10000 6.17 80 17:39 11.04.2022
1541 Clouds 16 1020 66 10000 5.66 90 16:36 11.04.2022
1542 Clouds 17 1021 60 10000 6.17 100 15:21 11.04.2022
1543 Clouds 16 1021 56 10000 6.17 100 13:37 11.04.2022
1544 Clouds 16 1021 61 10000 5.66 100 12:40 11.04.2022
1545 Clouds 16 1021 62 10000 5.66 100 12:21 11.04.2022
1546 Clear 14 1021 61 10000 4.12 90 10:41 11.04.2022
1547 Clouds 12 1021 56 10000 2.06 20 09:58 11.04.2022
1548 Clouds 10 1020 55 10000 4.12 340 08:22 11.04.2022
1549 Clear 9 1019 57 10000 3.09 330 04:56 11.04.2022
1550 Clear 10 1019 65 10000 2.57 10 23:55 10.04.2022
1551 Clear 11 1018 65 10000 1.54 200 22:27 10.04.2022
1552 Clear 11 1018 59 10000 2.06 220 21:53 10.04.2022
1553 Clear 12 1018 54 10000 2.57 200 20:55 10.04.2022
1554 Clouds 13 1018 49 10000 2.09 164 20:18 10.04.2022
1555 Clear 14 1017 45 10000 2.57 190 19:36 10.04.2022
1556 Clear 15 1017 46 10000 2.06 180 18:50 10.04.2022
1557 Clear 15 1017 45 10000 2.57 200 18:26 10.04.2022
1558 Clear 15 1017 42 10000 2.57 190 17:44 10.04.2022
1559 Clear 15 1017 42 10000 4.63 210 16:59 10.04.2022
1560 Clear 16 1018 44 10000 4.63 190 15:40 10.04.2022
1561 Clear 16 1018 43 10000 5.66 200 14:42 10.04.2022
1562 Clouds 16 1018 46 10000 6.69 200 13:44 10.04.2022
1563 Clouds 15 1018 47 10000 5.66 200 12:32 10.04.2022
1564 Clouds 15 1018 44 10000 6.17 220 11:44 10.04.2022
1565 Clouds 15 1018 46 10000 6.17 220 11:18 10.04.2022
1566 Clear 14 1017 41 10000 3.09 320 10:31 10.04.2022
1567 Clear 13 1017 38 10000 5.14 330 09:41 10.04.2022
1568 Clear 11 1017 43 10000 7.2 330 08:28 10.04.2022
1569 Clear 10 1017 44 10000 7.2 330 07:57 10.04.2022
1570 Clear 10 1016 40 10000 6.17 330 06:59 10.04.2022
1571 Clear 11 1014 28 10000 4.12 340 03:37 10.04.2022
1572 Clear 12 1013 25 10000 1.54 330 02:19 10.04.2022
1573 Clear 14 1010 21 10000 3.09 50 23:53 09.04.2022
1574 Clear 14 1009 18 10000 2.57 330 22:56 09.04.2022
1575 Clear 14 1009 18 10000 6.17 340 22:33 09.04.2022
1576 Clouds 16 1007 19 10000 5.66 330 21:19 09.04.2022
1577 Clouds 17 1005 18 10000 6.17 330 20:30 09.04.2022
1578 Clouds 18 1005 17 10000 3.6 340 19:56 09.04.2022
1579 Clouds 18 1003 28 10000 2.06 300 19:38 09.04.2022
1580 Clouds 19 1002 26 10000 3.6 220 18:23 09.04.2022
1581 Clouds 19 1002 31 10000 3.09 100 17:49 09.04.2022
1582 Clouds 19 1001 37 10000 7.72 110 16:56 09.04.2022
1583 Clouds 19 1000 45 10000 8.23 110 16:38 09.04.2022
1584 Clouds 21 999 26 10000 2.57 0 15:49 09.04.2022
1585 Clouds 21 999 26 10000 2.57 0 15:49 09.04.2022
1586 Clouds 21 999 26 10000 2.57 0 15:49 09.04.2022
1587 Clouds 21 999 26 10000 2.57 0 15:49 09.04.2022
1588 Clouds 21 998 26 10000 9.26 310 15:25 09.04.2022
1589 Clouds 21 998 28 10000 13.38 270 14:25 09.04.2022
1590 Clear 21 999 26 10000 7.72 280 13:26 09.04.2022
1591 Clear 21 999 23 10000 4.12 250 12:54 09.04.2022
1592 Clear 18 999 40 10000 8.23 220 11:45 09.04.2022
1593 Clear 17 999 44 10000 7.72 230 10:52 09.04.2022
1594 Clear 17 999 37 10000 7.72 220 10:18 09.04.2022
1595 Clear 16 1000 48 10000 7.2 210 09:22 09.04.2022
1596 Clear 14 999 52 10000 9.26 230 08:18 09.04.2022
1597 Clear 18 1001 33 10000 10.29 290 04:37 09.04.2022
1598 Clear 19 1002 42 10000 8.75 280 00:35 09.04.2022
1599 Clear 19 1003 52 10000 8.23 260 23:23 08.04.2022
1600 Clear 18 1004 61 10000 8.23 220 21:49 08.04.2022
1601 Clouds 18 1004 62 10000 9.26 220 20:43 08.04.2022
1602 Clouds 19 1003 60 10000 11.32 220 19:50 08.04.2022
1603 Clouds 20 1003 56 10000 11.32 220 18:56 08.04.2022
1604 Clouds 20 1002 59 10000 11.83 220 18:22 08.04.2022
1605 Clouds 22 1003 48 10000 14.4 220 17:29 08.04.2022
1606 Clouds 22 1003 47 10000 14.4 210 16:58 08.04.2022
1607 Clouds 24 1003 38 10000 12.86 230 16:31 08.04.2022
1608 Clouds 23 1003 43 10000 13.38 250 15:37 08.04.2022
1609 Clouds 24 1003 37 10000 13.89 260 14:52 08.04.2022
1610 Clouds 24 1003 38 10000 14.92 250 14:20 08.04.2022
1611 Clouds 23 1004 43 10000 9.77 260 13:36 08.04.2022
1612 Clouds 23 1004 43 10000 9.77 260 13:18 08.04.2022
1613 Clear 22 1004 46 10000 9.77 270 11:41 08.04.2022
1614 Clear 19 1004 56 10000 3.09 40 10:20 08.04.2022
1615 Clear 16 1004 72 10000 2.57 0 09:20 08.04.2022
1616 Clear 14 1004 72 10000 2.57 70 07:58 08.04.2022
1617 Clear 14 1004 74 10000 3.09 0 06:46 08.04.2022
1618 Clear 16 1004 63 10000 9.77 220 03:48 08.04.2022
1619 Clear 16 1005 65 10000 10.8 220 00:31 08.04.2022
1620 Clear 16 1005 64 10000 12.35 220 23:53 07.04.2022
1621 Clouds 17 1006 61 10000 10.29 260 22:57 07.04.2022
1622 Clouds 17 1006 59 10000 9.77 260 22:37 07.04.2022
1623 Clouds 17 1006 59 10000 9.77 260 22:19 07.04.2022
1624 Clouds 18 1005 53 10000 6.69 290 21:33 07.04.2022
1625 Clouds 18 1005 51 10000 7.72 280 20:56 07.04.2022
1626 Clouds 18 1004 53 10000 7.72 250 20:28 07.04.2022
1627 Clear 19 1003 58 10000 8.23 80 17:51 07.04.2022
1628 Clear 19 1003 61 10000 8.23 80 17:24 07.04.2022
1629 Clear 18 1003 62 10000 9.26 80 16:42 07.04.2022
1630 Clear 18 1004 66 10000 9.77 80 15:58 07.04.2022
1631 Clear 18 1005 65 10000 7.72 80 14:31 07.04.2022
1632 Clear 18 1006 68 10000 6.69 90 13:41 07.04.2022
1633 Clear 16 1007 68 10000 2.06 120 12:28 07.04.2022
1634 Clear 13 1007 73 10000 0 0 10:57 07.04.2022
1635 Clear 11 1006 78 10000 2.06 340 09:36 07.04.2022
1636 Clear 10 1006 80 10000 3.6 330 08:35 07.04.2022
1637 Clear 9 1005 81 10000 2.57 330 06:42 07.04.2022
1638 Clear 9 1006 82 10000 2.57 330 02:43 07.04.2022
1639 Clear 9 1006 81 10000 2.57 340 01:52 07.04.2022
1640 Clear 10 1007 82 10000 2.06 330 23:57 06.04.2022
1641 Clear 11 1008 81 10000 1.03 0 22:46 06.04.2022
1642 Clear 11 1008 81 10000 1.03 280 22:25 06.04.2022
1643 Clouds 11 1007 78 10000 3.09 240 21:32 06.04.2022
1644 Clouds 12 1007 77 10000 2.57 230 20:28 06.04.2022
1645 Clouds 12 1007 77 10000 2.57 220 19:53 06.04.2022
1646 Clouds 13 1007 76 10000 1.54 210 18:51 06.04.2022
1647 Clouds 13 1007 74 10000 1.54 190 18:22 06.04.2022
1648 Clouds 13 1008 75 10000 2.06 170 17:35 06.04.2022
1649 Clouds 13 1008 75 10000 1.54 140 16:38 06.04.2022
1650 Clouds 13 1008 75 10000 2.06 120 15:48 06.04.2022
1651 Clouds 14 1009 73 10000 2.06 140 14:57 06.04.2022
1652 Clouds 15 1010 71 10000 3.09 140 13:23 06.04.2022
1653 Clouds 14 1010 71 10000 2.57 130 12:22 06.04.2022
1654 Clouds 14 1010 70 10000 2.18 74 10:47 06.04.2022
1655 Clouds 12 1011 72 10000 3.6 320 10:25 06.04.2022
1656 Clouds 11 1010 74 10000 3.6 330 09:40 06.04.2022
1657 Clouds 9 1010 78 10000 4.12 330 08:32 06.04.2022
1658 Clouds 8 1011 75 10000 4.63 330 07:49 06.04.2022
1659 Clear 8 1011 72 10000 3.6 330 03:54 06.04.2022
1660 Clear 10 1012 73 10000 2.57 330 23:53 05.04.2022
1661 Clear 10 1012 74 10000 3.09 320 22:57 05.04.2022
1662 Clear 11 1012 77 10000 1.14 208 21:23 05.04.2022
1663 Clear 12 1011 72 10000 2.57 210 20:26 05.04.2022
1664 Clear 13 1011 66 10000 2.06 200 19:47 05.04.2022
1665 Clear 15 1011 66 10000 2.57 180 18:18 05.04.2022
1666 Clear 15 1012 67 10000 3.6 190 16:54 05.04.2022
1667 Clear 15 1012 65 10000 3.6 180 15:57 05.04.2022
1668 Clear 15 1013 68 10000 4.12 180 15:35 05.04.2022
1669 Clear 15 1013 66 10000 4.12 180 14:37 05.04.2022
1670 Clear 14 1013 62 10000 3.6 190 13:37 05.04.2022
1671 Clear 14 1013 54 10000 2.06 180 11:51 05.04.2022
1672 Clear 14 1013 54 10000 2.06 180 11:51 05.04.2022
1673 Clear 14 1013 58 10000 1.54 150 11:33 05.04.2022
1674 Clear 13 1013 58 10000 1.54 110 10:52 05.04.2022
1675 Clear 9 1013 69 10000 3.6 340 08:55 05.04.2022
1676 Clear 6 1014 70 10000 3.09 330 07:24 05.04.2022
1677 Clear 8 1015 70 10000 4.63 330 02:39 05.04.2022
1678 Clear 9 1015 71 10000 3.09 320 23:18 04.04.2022
1679 Clear 9 1016 71 10000 2.57 320 22:29 04.04.2022
1680 Clear 10 1015 68 10000 2.06 260 21:22 04.04.2022
1681 Clouds 10 1015 69 10000 1.54 230 20:53 04.04.2022
1682 Clear 10 1015 72 10000 1.1 246 20:35 04.04.2022
1683 Clouds 11 1016 62 10000 1.54 210 19:26 04.04.2022
1684 Clouds 13 1015 58 10000 1.54 180 18:39 04.04.2022
1685 Clouds 13 1015 60 10000 2.06 150 17:19 04.04.2022
1686 Clouds 13 1016 61 10000 2.06 150 16:26 04.04.2022
1687 Clouds 13 1017 65 10000 2.57 130 15:33 04.04.2022
1688 Clouds 13 1017 61 10000 3.09 130 14:46 04.04.2022
1689 Clouds 13 1017 62 10000 4.63 120 13:58 04.04.2022
1690 Clouds 12 1018 67 10000 4.12 80 12:41 04.04.2022
1691 Clouds 12 1018 67 10000 5.14 80 11:29 04.04.2022
1692 Clouds 10 1017 69 10000 4.63 330 09:53 04.04.2022
1693 Clouds 6 1016 83 10000 4.63 330 05:34 04.04.2022
1694 Clouds 7 1016 82 10000 3.6 330 02:51 04.04.2022
1695 Rain 8 1015 81 10000 6.17 360 22:54 03.04.2022
1696 Rain 8 1014 82 10000 5.66 330 21:59 03.04.2022
1697 Rain 8 1014 80 10000 7.2 340 21:27 03.04.2022
1698 Clouds 10 1013 73 10000 4.12 120 20:30 03.04.2022
1699 Clouds 11 1013 67 10000 3.09 100 18:46 03.04.2022
1700 Clouds 12 1013 67 10000 3.6 120 17:56 03.04.2022
1701 Clouds 12 1012 67 10000 3.09 130 17:36 03.04.2022
1702 Clouds 12 1012 67 10000 3.09 160 16:50 03.04.2022
1703 Clouds 12 1013 65 10000 1.54 0 15:56 03.04.2022
1704 Rain 12 1013 68 10000 0 0 14:25 03.04.2022
1705 Rain 11 1013 74 10000 2.06 160 13:28 03.04.2022
1706 Clouds 12 1012 61 10000 3.09 120 11:50 03.04.2022
1707 Clouds 10 1011 63 10000 3.6 340 09:59 03.04.2022
1708 Clear 9 1010 68 10000 5.14 330 09:18 03.04.2022
1709 Clear 6 1009 77 10000 3.09 330 06:28 03.04.2022
1710 Clear 7 1008 77 10000 3.09 300 02:56 03.04.2022
1711 Clouds 8 1006 78 10000 1.54 250 23:50 02.04.2022
1712 Clouds 9 1006 72 10000 0 0 22:51 02.04.2022
1713 Clouds 9 1005 72 10000 1.54 290 21:56 02.04.2022
1714 Clouds 9 1005 72 10000 1.54 290 21:56 02.04.2022
1715 Clouds 9 1004 73 10000 3.6 270 21:26 02.04.2022
1716 Clouds 9 1003 72 10000 2.06 160 20:39 02.04.2022
1717 Clouds 10 1001 70 10000 3.6 130 18:51 02.04.2022
1718 Clouds 10 1001 71 10000 4.63 120 18:20 02.04.2022
1719 Clouds 11 1000 67 10000 5.66 110 17:43 02.04.2022
1720 Rain 10 999 63 10000 4.63 80 15:59 02.04.2022
1721 Rain 10 999 68 10000 4.12 110 15:20 02.04.2022
1722 Rain 11 999 63 10000 5.14 130 14:42 02.04.2022
1723 Rain 12 998 54 10000 5.14 190 13:34 02.04.2022
1724 Clouds 12 997 51 10000 5.66 220 12:34 02.04.2022
1725 Clouds 10 995 60 10000 2.06 240 10:50 02.04.2022
1726 Clouds 6 994 66 10000 3.09 310 08:44 02.04.2022
1727 Clouds 4 993 87 10000 2.06 270 06:43 02.04.2022
1728 Rain 5 993 80 10000 5.14 340 03:31 02.04.2022
1729 Clouds 8 990 46 10000 3.6 270 23:55 01.04.2022
1730 Clouds 8 990 45 10000 5.66 250 23:18 01.04.2022
1731 Clouds 9 989 46 10000 6.17 260 21:32 01.04.2022
1732 Clouds 9 988 42 10000 7.2 260 20:50 01.04.2022
1733 Clouds 11 988 41 10000 7.72 270 19:51 01.04.2022
1734 Clouds 12 987 39 10000 3.6 0 19:30 01.04.2022
1735 Clouds 14 987 38 10000 5.14 280 18:45 01.04.2022
1736 Clouds 14 987 38 10000 11.32 240 17:46 01.04.2022
1737 Clouds 15 988 40 10000 8.75 230 16:48 01.04.2022
1738 Clouds 16 989 43 10000 10.8 210 15:36 01.04.2022
1739 Clouds 16 989 44 10000 9.26 210 14:20 01.04.2022
1740 Clouds 16 990 47 10000 6.69 200 14:20 01.04.2022
1741 Clouds 16 990 52 10000 5.66 200 13:33 01.04.2022
1742 Clouds 15 990 53 10000 4.63 200 12:32 01.04.2022
1743 Clouds 15 990 53 10000 4.63 200 12:32 01.04.2022
1744 Clouds 14 990 54 10000 3.6 220 11:37 01.04.2022
1745 Clear 14 992 48 10000 2.57 270 10:18 01.04.2022
1746 Clear 10 991 59 10000 3.6 310 08:30 01.04.2022
1747 Clouds 10 990 70 10000 5.14 330 06:39 01.04.2022
1748 Clouds 10 990 79 10000 4.63 330 04:47 01.04.2022
1749 Clouds 10 990 78 10000 4.63 330 04:28 01.04.2022
1750 Clouds 11 990 80 10000 3.6 330 01:55 01.04.2022
1751 Clouds 12 990 81 10000 3.6 90 22:58 31.03.2022
1752 Clear 12 990 81 10000 3.09 110 21:50 31.03.2022
1753 Clear 12 990 82 10000 2.06 110 21:31 31.03.2022
1754 Clouds 13 989 80 10000 3.6 70 20:29 31.03.2022
1755 Clouds 14 989 78 10000 2.57 60 19:48 31.03.2022
1756 Clouds 16 989 74 10000 3.6 60 18:43 31.03.2022
1757 Clouds 16 989 74 10000 3.09 110 17:49 31.03.2022
1758 Clouds 16 990 72 10000 3.09 120 16:37 31.03.2022
1759 Clouds 16 990 72 10000 2.57 170 15:43 31.03.2022
1760 Clouds 16 990 73 10000 3.6 180 15:19 31.03.2022
1761 Clouds 16 991 71 10000 2.06 180 14:35 31.03.2022
1762 Clouds 15 992 73 10000 2.57 170 11:57 31.03.2022
1763 Clouds 15 992 74 10000 2.57 190 11:20 31.03.2022
1764 Clouds 13 992 74 10000 2.57 340 09:44 31.03.2022
1765 Clouds 10 993 86 10000 2.06 330 07:59 31.03.2022
1766 Clouds 11 993 86 10000 2.57 310 05:23 31.03.2022
1767 Rain 11 996 86 7000 2.06 290 23:43 30.03.2022
1768 Rain 12 997 89 8000 2.57 310 22:43 30.03.2022
1769 Rain 12 997 86 8000 6.17 80 21:39 30.03.2022
1770 Rain 12 997 86 8000 7.2 90 20:54 30.03.2022
1771 Rain 12 997 86 8000 8.75 90 20:20 30.03.2022
1772 Rain 12 997 86 8000 8.75 90 20:20 30.03.2022
1773 Rain 12 997 88 10000 8.23 80 19:28 30.03.2022
1774 Rain 13 998 88 10000 9.26 90 18:19 30.03.2022
1775 Rain 13 998 85 10000 6.69 80 17:45 30.03.2022
1776 Clouds 14 998 82 10000 10.29 80 16:57 30.03.2022
1777 Clouds 14 999 82 10000 10.29 90 16:33 30.03.2022
1778 Clouds 14 1000 78 10000 10.8 100 15:24 30.03.2022
1779 Clouds 16 1000 69 10000 4.63 80 13:42 30.03.2022
1780 Clouds 16 1001 60 10000 4.12 10 12:57 30.03.2022
1781 Clouds 14 1002 71 10000 2.06 10 11:27 30.03.2022
1782 Clouds 14 1002 71 10000 2.06 10 11:27 30.03.2022
1783 Rain 13 1003 77 10000 2.06 20 10:23 30.03.2022
1784 Clouds 13 1004 75 10000 2.57 330 09:24 30.03.2022
1785 Rain 12 1005 70 10000 2.57 320 07:33 30.03.2022
1786 Clouds 12 1004 69 10000 2.06 310 05:41 30.03.2022
1787 Rain 12 1005 66 10000 1.54 0 03:52 30.03.2022
1788 Clouds 12 1008 81 10000 1.03 300 00:41 30.03.2022
1789 Clouds 12 1009 81 10000 3.6 60 22:28 29.03.2022
1790 Clouds 13 1010 80 10000 3.09 80 21:45 29.03.2022
1791 Clouds 13 1010 79 10000 1.4 87 20:53 29.03.2022
1792 Clear 13 1009 77 10000 3.6 100 20:18 29.03.2022
1793 Clear 14 1010 77 10000 3.09 110 18:55 29.03.2022
1794 Clear 15 1010 75 10000 3.6 110 18:21 29.03.2022
1795 Clear 16 1011 72 10000 4.63 110 17:35 29.03.2022
1796 Clear 16 1011 70 10000 4.63 110 16:57 29.03.2022
1797 Clear 17 1012 65 10000 4.12 120 15:57 29.03.2022
1798 Clear 17 1013 68 10000 5.14 110 14:53 29.03.2022
1799 Clear 17 1014 67 10000 4.12 110 13:58 29.03.2022
1800 Clear 17 1015 60 10000 3.09 110 12:53 29.03.2022
1801 Clear 16 1015 51 10000 4.63 90 11:43 29.03.2022
1802 Clear 16 1015 51 10000 4.63 90 11:43 29.03.2022
1803 Clear 15 1015 53 10000 2.57 70 10:51 29.03.2022
1804 Clear 14 1016 46 10000 2.06 330 09:49 29.03.2022
1805 Clear 12 1016 38 10000 2.57 330 07:35 29.03.2022
1806 Clear 13 1016 38 10000 2.06 360 04:41 29.03.2022
1807 Clear 14 1019 34 10000 4.12 320 00:35 29.03.2022
1808 Clear 14 1019 35 10000 3.09 310 23:23 28.03.2022
1809 Clear 15 1019 33 10000 4.12 320 22:52 28.03.2022
1810 Clear 15 1019 34 10000 3.09 320 22:26 28.03.2022
1811 Clear 15 1019 45 10000 2.57 230 20:56 28.03.2022
1812 Clear 16 1019 37 10000 1.54 220 20:21 28.03.2022
1813 Clear 17 1019 43 10000 1.03 220 19:41 28.03.2022
1814 Clear 18 1020 42 10000 1.54 230 18:56 28.03.2022
1815 Clear 19 1020 45 10000 1.54 200 18:37 28.03.2022
1816 Clear 20 1022 33 10000 1.03 0 17:39 28.03.2022
1817 Clear 20 1022 33 10000 2.57 190 16:20 28.03.2022
1818 Clear 21 1024 35 10000 1.54 160 14:29 28.03.2022
1819 Clear 23 1024 19 10000 3.02 163 13:58 28.03.2022
1820 Clear 20 1024 36 10000 3.09 110 12:20 28.03.2022
1821 Clear 19 1024 26 10000 3.09 330 11:24 28.03.2022
1822 Clear 17 1024 28 10000 4.63 340 09:43 28.03.2022
1823 Clear 15 1024 25 10000 4.12 340 09:19 28.03.2022
1824 Clear 12 1025 27 10000 5.66 340 08:22 28.03.2022
1825 Clear 12 1025 25 10000 5.14 320 07:28 28.03.2022
1826 Clear 14 1025 23 10000 3.09 350 03:44 28.03.2022
1827 Clear 16 1025 24 10000 5.14 330 23:29 27.03.2022
1828 Clear 17 1024 26 10000 4.12 330 22:24 27.03.2022
1829 Clear 17 1024 28 10000 2.57 330 21:41 27.03.2022
1830 Clear 17 1023 38 10000 1.03 40 20:54 27.03.2022
1831 Clear 17 1023 38 10000 1.03 40 20:54 27.03.2022
1832 Clear 17 1023 38 10000 1.03 40 20:54 27.03.2022
1833 Clear 18 1023 41 10000 1.03 0 19:48 27.03.2022
1834 Clear 19 1023 38 10000 1.54 0 19:20 27.03.2022
1835 Clear 20 1023 34 10000 1.54 130 18:27 27.03.2022
1836 Clear 20 1023 40 10000 2.06 100 17:39 27.03.2022
1837 Clear 19 1023 46 10000 4.12 150 16:28 27.03.2022
1838 Clouds 22 1023 27 10000 2.29 101 15:18 27.03.2022
1839 Clouds 20 1024 32 10000 1.54 0 13:55 27.03.2022
1840 Clear 19 1024 42 10000 1.03 110 12:24 27.03.2022
1841 Clear 18 1024 36 10000 3.09 330 10:57 27.03.2022
1842 Clear 15 1024 40 10000 4.12 350 08:51 27.03.2022
1843 Clouds 14 1024 48 10000 4.12 330 05:54 27.03.2022
1844 Clear 15 1024 43 10000 7.72 90 00:48 27.03.2022
1845 Clear 15 1024 41 10000 4.12 50 23:42 26.03.2022
1846 Clear 15 1023 46 10000 8.23 80 22:36 26.03.2022
1847 Clouds 15 1023 50 10000 3.38 38 21:34 26.03.2022
1848 Clouds 15 1023 50 10000 3.37 38 20:52 26.03.2022
1849 Clear 16 1022 43 10000 8.75 90 19:21 26.03.2022
1850 Clear 18 1022 40 10000 8.75 70 17:53 26.03.2022
1851 Clear 18 1022 41 10000 10.29 90 17:32 26.03.2022
1852 Clear 19 1022 39 10000 9.77 90 16:27 26.03.2022
1853 Clear 19 1022 35 10000 12.35 100 14:57 26.03.2022
1854 Clear 19 1023 37 10000 12.35 100 13:53 26.03.2022
1855 Clear 19 1023 46 10000 11.83 120 12:51 26.03.2022
1856 Clear 16 1023 57 10000 10.8 100 11:41 26.03.2022
1857 Clear 16 1023 48 10000 9.26 70 10:22 26.03.2022
1858 Clear 15 1023 46 10000 7.72 70 08:35 26.03.2022
1859 Clear 10 1023 40 10000 5.14 330 05:54 26.03.2022
1860 Clear 11 1023 41 10000 5.14 330 04:23 26.03.2022
1861 Clear 11 1023 45 10000 3.6 340 00:22 26.03.2022
1862 Clear 12 1023 52 10000 1.54 350 21:49 25.03.2022
1863 Clear 12 1023 54 10000 2.57 60 20:46 25.03.2022
1864 Clear 13 1023 58 10000 3.09 80 19:38 25.03.2022
1865 Clear 15 1023 53 10000 2.57 110 18:47 25.03.2022
1866 Clear 16 1023 50 10000 3.09 110 17:47 25.03.2022
1867 Clear 16 1024 49 10000 4.63 110 17:26 25.03.2022
1868 Clear 17 1024 45 10000 6.17 110 16:18 25.03.2022
1869 Clear 18 1024 49 10000 6.69 90 14:26 25.03.2022
1870 Clear 18 1025 56 10000 6.17 90 12:48 25.03.2022
1871 Clear 16 1025 41 10000 1.03 0 10:22 25.03.2022
1872 Clear 14 1025 41 10000 1.03 0 09:27 25.03.2022
1873 Clear 12 1024 45 10000 3.6 340 07:54 25.03.2022
1874 Clear 11 1025 41 10000 3.6 340 07:27 25.03.2022
1875 Clear 10 1025 42 10000 3.6 340 05:55 25.03.2022
1876 Clear 11 1025 47 10000 4.12 330 00:46 25.03.2022
1877 Clear 12 1025 56 10000 3.09 330 22:39 24.03.2022
1878 Clear 12 1025 62 10000 3.09 320 21:45 24.03.2022
1879 Clear 12 1025 66 10000 0 0 20:26 24.03.2022
1880 Clear 13 1025 70 10000 1.54 170 19:47 24.03.2022
1881 Clear 17 1025 64 10000 2.57 100 17:47 24.03.2022
1882 Clear 18 1025 56 10000 1.94 121 17:19 24.03.2022
1883 Clear 18 1025 46 10000 3.09 120 15:45 24.03.2022
1884 Clear 17 1027 37 10000 1.54 0 14:48 24.03.2022
1885 Clear 18 1026 35 10000 1.54 0 14:18 24.03.2022
1886 Clear 18 1027 38 10000 1.54 0 12:52 24.03.2022
1887 Clear 17 1027 42 10000 3.09 130 11:47 24.03.2022
1888 Clear 16 1026 30 10000 5.14 330 09:55 24.03.2022
1889 Clear 14 1026 33 10000 5.66 330 08:42 24.03.2022
1890 Clear 10 1027 33 10000 6.17 340 06:49 24.03.2022
1891 Clear 11 1025 35 10000 5.66 340 03:57 24.03.2022
1892 Clear 12 1027 35 10000 5.14 330 23:20 23.03.2022
1893 Clear 13 1027 33 10000 3.6 330 21:40 23.03.2022
1894 Clear 12 1027 32 10000 3.6 330 21:18 23.03.2022
1895 Clear 13 1027 41 10000 2.06 270 19:46 23.03.2022
1896 Clear 14 1026 38 10000 0 0 18:45 23.03.2022
1897 Clear 16 1027 32 10000 1.54 180 17:37 23.03.2022
1898 Clear 17 1027 29 10000 1.03 0 16:39 23.03.2022
1899 Clear 18 1029 26 10000 1.03 0 14:51 23.03.2022
1900 Clear 17 1028 33 10000 0.51 0 14:26 23.03.2022
1901 Clear 17 1029 34 10000 1.03 0 12:54 23.03.2022
1902 Clear 14 1030 34 10000 5.66 330 09:45 23.03.2022
1903 Clear 7 1030 44 10000 5.66 330 06:48 23.03.2022
1904 Clear 9 1029 44 10000 4.63 340 05:23 23.03.2022
1905 Clear 9 1030 53 10000 3.6 340 00:35 23.03.2022
1906 Clear 9 1030 51 10000 3.6 340 23:41 22.03.2022
1907 Clear 10 1031 57 10000 3.09 330 21:30 22.03.2022
1908 Clear 10 1031 55 10000 1.03 0 20:49 22.03.2022
1909 Clear 11 1030 55 10000 1.54 90 19:51 22.03.2022
1910 Clear 11 1030 54 10000 1.54 100 19:23 22.03.2022
1911 Clear 12 1030 50 10000 1.54 110 18:45 22.03.2022
1912 Clear 14 1031 43 10000 2.06 120 17:38 22.03.2022
1913 Clear 15 1032 43 10000 2.06 120 16:28 22.03.2022
1914 Clear 16 1031 43 10000 2.06 170 15:23 22.03.2022
1915 Clear 15 1031 45 10000 2.06 150 14:59 22.03.2022
1916 Clear 15 1031 46 10000 2.06 150 14:41 22.03.2022
1917 Clear 15 1032 42 10000 3.6 140 13:36 22.03.2022
1918 Clouds 15 1032 41 10000 10.29 120 11:52 22.03.2022
1919 Clear 14 1032 45 10000 3.6 0 10:46 22.03.2022
1920 Clear 10 1032 46 10000 5.66 330 08:38 22.03.2022
1921 Clear 6 1033 49 10000 5.66 340 06:58 22.03.2022
1922 Clear 8 1031 46 10000 4.63 340 03:54 22.03.2022
1923 Clear 8 1032 50 10000 3.6 350 00:34 22.03.2022
1924 Clear 8 1032 56 10000 3.09 360 22:42 21.03.2022
1925 Clear 9 1032 52 10000 3.09 330 21:18 21.03.2022
1926 Clear 10 1032 52 10000 2.06 10 20:42 21.03.2022
1927 Clear 11 1031 53 10000 5.14 70 19:59 21.03.2022
1928 Clear 11 1031 50 10000 7.2 90 19:35 21.03.2022
1929 Clear 12 1031 49 10000 7.2 90 18:46 21.03.2022
1930 Clear 14 1031 44 10000 7.72 100 17:32 21.03.2022
1931 Clear 14 1032 40 10000 8.75 100 16:58 21.03.2022
1932 Clear 15 1031 42 10000 9.26 100 16:24 21.03.2022
1933 Clear 14 1032 41 10000 10.29 100 15:21 21.03.2022
1934 Clear 15 1032 41 10000 11.32 100 14:28 21.03.2022
1935 Clear 14 1032 47 10000 11.83 100 12:58 21.03.2022
1936 Clear 14 1033 47 10000 11.83 100 11:57 21.03.2022
1937 Clear 13 1033 45 10000 11.83 100 10:59 21.03.2022
1938 Clear 12 1033 46 10000 12.35 100 09:42 21.03.2022
1939 Clear 8 1033 52 10000 3.6 0 07:22 21.03.2022
1940 Clear 7 1032 56 10000 5.14 330 05:42 21.03.2022
1941 Clouds 11 1032 46 10000 4.12 330 00:46 21.03.2022
1942 Clouds 11 1032 51 10000 3.09 330 22:56 20.03.2022
1943 Clouds 10 1032 57 10000 4.12 330 22:22 20.03.2022
1944 Clear 12 1031 66 10000 6.17 80 21:31 20.03.2022
1945 Clouds 12 1031 63 10000 7.2 100 20:54 20.03.2022
1946 Clouds 12 1031 60 10000 7.72 110 20:27 20.03.2022
1947 Clouds 13 1031 58 10000 7.72 110 19:48 20.03.2022
1948 Rain 13 1030 56 10000 7.72 110 19:19 20.03.2022
1949 Rain 14 1030 54 10000 6.69 100 17:44 20.03.2022
1950 Clouds 14 1030 52 10000 7.2 100 17:24 20.03.2022
1951 Clouds 14 1030 49 10000 10.29 100 15:58 20.03.2022
1952 Clouds 14 1030 46 10000 10.29 100 14:38 20.03.2022
1953 Rain 15 1031 47 10000 12.35 100 13:38 20.03.2022
1954 Clouds 15 1031 46 10000 9.77 100 12:19 20.03.2022
1955 Clouds 13 1030 47 10000 4.63 100 09:59 20.03.2022
1956 Rain 11 1030 58 10000 4.12 330 08:20 20.03.2022
1957 Clear 11 1029 55 10000 7.72 70 06:37 20.03.2022
1958 Rain 11 1028 57 10000 3.6 330 03:18 20.03.2022
1959 Clouds 11 1028 56 10000 3.6 330 00:53 20.03.2022
1960 Clouds 11 1028 54 10000 3.6 330 00:34 20.03.2022
1961 Clouds 12 1028 69 10000 5.14 70 22:31 19.03.2022
1962 Clouds 12 1027 68 10000 6.17 90 21:26 19.03.2022
1963 Clouds 13 1026 57 10000 6.17 90 19:29 19.03.2022
1964 Clear 14 1026 51 10000 5.66 90 18:44 19.03.2022
1965 Clear 15 1026 52 10000 3.09 80 17:52 19.03.2022
1966 Clear 15 1025 51 10000 5.14 80 17:33 19.03.2022
1967 Clear 16 1026 46 10000 6.17 90 15:40 19.03.2022
1968 Clear 16 1026 43 10000 5.66 70 14:19 19.03.2022
1969 Clouds 16 1027 45 10000 5.14 70 12:56 19.03.2022
1970 Clouds 16 1027 46 10000 6.17 70 12:37 19.03.2022
1971 Clouds 15 1028 51 10000 6.17 80 11:46 19.03.2022
1972 Clouds 13 1028 59 10000 10.29 90 09:31 19.03.2022
1973 Clouds 11 1029 54 10000 1.54 360 05:44 19.03.2022
1974 Clear 13 1028 58 10000 8.75 80 02:34 19.03.2022
1975 Clear 13 1028 59 10000 10.8 80 00:32 19.03.2022
1976 Clear 13 1028 70 10000 9.26 80 23:19 18.03.2022
1977 Clear 13 1027 63 10000 9.26 80 22:22 18.03.2022
1978 Clear 14 1027 62 10000 10.29 90 20:40 18.03.2022
1979 Clear 14 1026 61 10000 4.63 50 19:45 18.03.2022
1980 Clear 14 1026 64 10000 4.63 60 19:18 18.03.2022
1981 Rain 16 1024 62 10000 7.2 80 17:27 18.03.2022
1982 Clear 16 1024 62 10000 5.66 70 16:42 18.03.2022
1983 Clear 17 1024 61 10000 2.06 210 14:29 18.03.2022
1984 Clear 17 1025 59 10000 5.66 80 13:41 18.03.2022
1985 Clear 16 1025 59 10000 5.66 70 12:18 18.03.2022
1986 Clear 14 1025 74 10000 3.09 290 10:27 18.03.2022
1987 Clear 14 1025 76 10000 2.06 330 09:20 18.03.2022
1988 Clear 13 1024 74 10000 2.57 340 07:43 18.03.2022
1989 Rain 13 1024 79 10000 3.6 330 05:39 18.03.2022
1990 Clear 13 1023 81 10000 1.54 0 01:55 18.03.2022
1991 Clear 13 1023 82 10000 2.57 330 00:21 18.03.2022
1992 Clear 13 1022 82 10000 0 0 22:54 17.03.2022
1993 Clear 13 1022 80 10000 2.06 320 22:21 17.03.2022
1994 Rain 13 1022 82 10000 1.54 10 21:46 17.03.2022
1995 Rain 13 1022 82 10000 2.57 100 21:18 17.03.2022
1996 Rain 14 1022 82 10000 2.06 100 20:30 17.03.2022
1997 Clear 14 1021 78 10000 3.09 290 19:39 17.03.2022
1998 Clear 14 1021 76 10000 1.03 0 18:55 17.03.2022
1999 Clear 15 1020 78 10000 3.09 70 17:47 17.03.2022
2000 Clear 15 1020 78 10000 5.66 100 16:34 17.03.2022
2001 Clear 16 1020 75 10000 5.66 100 15:44 17.03.2022
2002 Clear 16 1020 78 10000 6.69 90 15:21 17.03.2022
2003 Clear 16 1021 74 10000 6.69 80 13:48 17.03.2022
2004 Clear 16 1021 68 10000 1.54 110 12:49 17.03.2022
2005 Clear 16 1021 67 10000 1.03 0 11:53 17.03.2022
2006 Clear 16 1021 69 10000 2.06 330 11:22 17.03.2022
2007 Clear 14 1021 75 10000 2.06 340 09:48 17.03.2022
2008 Clear 13 1021 83 10000 2.06 330 08:31 17.03.2022
2009 Clouds 12 1022 83 10000 2.06 330 07:32 17.03.2022
2010 Clear 12 1021 79 10000 2.57 330 05:47 17.03.2022
2011 Clouds 13 1021 82 10000 4.63 50 00:45 17.03.2022
2012 Clouds 13 1021 83 10000 8.23 80 23:39 16.03.2022
2013 Clouds 13 1021 82 10000 8.75 80 22:44 16.03.2022
2014 Clouds 13 1021 83 10000 9.77 80 22:21 16.03.2022
2015 Clouds 13 1020 83 10000 9.77 80 21:34 16.03.2022
2016 Clouds 13 1019 83 10000 10.8 80 19:40 16.03.2022
2017 Clouds 14 1019 82 10000 10.8 80 19:19 16.03.2022
2018 Clouds 14 1019 81 10000 9.77 90 18:35 16.03.2022
2019 Clouds 14 1020 80 10000 9.26 80 17:41 16.03.2022
2020 Clouds 15 1020 77 10000 9.26 90 16:51 16.03.2022
2021 Clouds 15 1021 79 10000 10.29 90 15:55 16.03.2022
2022 Clouds 16 1021 78 10000 9.26 90 14:25 16.03.2022
2023 Clouds 17 1022 75 10000 10.29 90 13:24 16.03.2022
2024 Clear 16 1023 76 10000 9.26 90 11:53 16.03.2022
2025 Clear 16 1023 74 10000 8.23 80 11:20 16.03.2022
2026 Clear 15 1024 70 10000 2.06 330 10:22 16.03.2022
2027 Clear 12 1024 75 10000 3.6 330 08:51 16.03.2022
2028 Clear 10 1024 80 10000 3.6 340 04:45 16.03.2022
2029 Clear 10 1026 80 10000 3.6 320 00:48 16.03.2022
2030 Clear 11 1027 77 10000 2.57 330 22:38 15.03.2022
2031 Clear 12 1027 74 10000 3.09 330 21:52 15.03.2022
2032 Clear 13 1027 72 10000 3.09 50 20:18 15.03.2022
2033 Clear 13 1027 72 10000 8.23 80 18:54 15.03.2022
2034 Clear 15 1028 69 10000 9.77 90 16:55 15.03.2022
2035 Clear 15 1028 67 10000 8.75 90 16:20 15.03.2022
2036 Clear 16 1029 64 10000 9.77 80 14:57 15.03.2022
2037 Clear 16 1029 64 10000 9.77 80 14:39 15.03.2022
2038 Clear 16 1030 64 10000 9.77 90 13:28 15.03.2022
2039 Clear 15 1030 64 10000 9.77 80 12:21 15.03.2022
2040 Clear 15 1031 63 10000 10.29 80 11:31 15.03.2022
2041 Clear 14 1030 64 10000 7.2 70 09:40 15.03.2022
2042 Clear 13 1030 66 10000 6.69 70 08:42 15.03.2022
2043 Clear 13 1030 68 10000 7.2 60 07:50 15.03.2022
2044 Clear 13 1031 67 10000 7.2 70 07:28 15.03.2022
2045 Clear 14 1029 67 10000 8.75 90 03:30 15.03.2022
2046 Rain 14 1030 66 10000 6.17 60 23:40 14.03.2022
2047 Rain 14 1030 68 10000 6.17 70 23:21 14.03.2022
2048 Rain 14 1030 74 10000 6.17 80 22:26 14.03.2022
2049 Clouds 14 1029 75 10000 6.69 80 21:30 14.03.2022
2050 Rain 14 1029 74 10000 8.23 80 20:41 14.03.2022
2051 Clouds 14 1029 76 10000 6.69 80 20:19 14.03.2022
2052 Rain 13 1028 80 10000 7.2 80 18:42 14.03.2022
2053 Clouds 13 1028 79 10000 8.23 70 17:54 14.03.2022
2054 Clouds 13 1028 81 10000 10.29 80 16:58 14.03.2022
2055 Clouds 13 1028 78 10000 10.8 90 15:42 14.03.2022
2056 Clouds 14 1028 75 10000 9.26 80 14:40 14.03.2022
2057 Clouds 14 1028 76 10000 8.23 80 12:22 14.03.2022
2058 Clouds 13 1028 77 10000 2.06 40 10:51 14.03.2022
2059 Clouds 12 1027 83 10000 3.6 330 09:44 14.03.2022
2060 Clouds 11 1027 84 10000 3.6 330 09:21 14.03.2022
2061 Clouds 11 1027 87 10000 4.12 330 08:55 14.03.2022
2062 Clouds 10 1027 88 10000 3.09 320 07:28 14.03.2022
2063 Clouds 9 1026 92 10000 3.6 330 05:45 14.03.2022
2064 Rain 9 1025 87 10000 3.6 350 01:55 14.03.2022
2065 Rain 9 1024 87 10000 4.12 340 01:24 14.03.2022
2066 Clouds 9 1024 83 10000 5.14 360 22:43 13.03.2022
2067 Rain 8 1023 87 10000 4.12 340 21:29 13.03.2022
2068 Rain 9 1023 83 10000 4.12 360 20:55 13.03.2022
2069 Rain 9 1022 79 10000 4.12 20 20:30 13.03.2022
2070 Rain 10 1022 71 10000 8.23 70 19:49 13.03.2022
2071 Rain 10 1021 69 10000 8.75 70 19:28 13.03.2022
2072 Rain 10 1021 67 10000 9.77 70 18:59 13.03.2022
2073 Rain 10 1021 66 10000 10.8 70 18:31 13.03.2022
2074 Rain 10 1020 66 10000 9.26 60 17:41 13.03.2022
2075 Rain 10 1020 66 10000 9.26 60 17:19 13.03.2022
2076 Rain 10 1021 67 10000 9.26 70 16:30 13.03.2022
2077 Rain 10 1021 73 10000 10.29 70 15:47 13.03.2022
2078 Rain 10 1021 76 10000 9.77 70 14:56 13.03.2022
2079 Rain 10 1021 76 10000 10.8 70 13:45 13.03.2022
2080 Rain 10 1021 75 9000 13.89 80 12:55 13.03.2022
2081 Rain 11 1021 65 9000 12.35 80 11:52 13.03.2022
2082 Rain 11 1021 63 9000 12.86 90 11:32 13.03.2022
2083 Rain 12 1021 54 10000 12.35 80 10:47 13.03.2022
2084 Rain 12 1021 55 10000 12.35 80 10:24 13.03.2022
2085 Rain 12 1021 57 10000 12.35 80 09:41 13.03.2022
2086 Clouds 11 1020 60 10000 13.38 90 08:46 13.03.2022
2087 Clouds 11 1021 58 10000 12.35 90 07:42 13.03.2022
2088 Clouds 11 1021 59 10000 13.38 80 05:42 13.03.2022
2089 Clouds 12 1020 55 10000 13.38 90 02:43 13.03.2022
2090 Clouds 12 1021 55 10000 10.29 80 23:59 12.03.2022
2091 Clouds 12 1021 56 10000 10.29 90 22:31 12.03.2022
2092 Clouds 12 1021 53 10000 10.8 90 20:54 12.03.2022
2093 Clouds 12 1021 55 10000 11.32 80 19:50 12.03.2022
2094 Clouds 12 1020 56 10000 11.83 80 19:32 12.03.2022
2095 Clouds 12 1020 57 10000 12.35 90 18:27 12.03.2022
2096 Clouds 13 1020 56 10000 12.35 80 17:34 12.03.2022
2097 Clouds 13 1020 57 10000 12.86 90 16:24 12.03.2022
2098 Clouds 12 1020 56 10000 12.86 90 15:24 12.03.2022
2099 Clouds 12 1020 56 10000 14.4 90 14:50 12.03.2022
2100 Clouds 14 1020 53 10000 14.4 90 13:32 12.03.2022
2101 Clouds 13 1020 57 10000 15.43 100 11:56 12.03.2022
2102 Clouds 13 1021 56 10000 13.38 100 11:38 12.03.2022
2103 Clouds 13 1021 55 10000 13.89 90 10:58 12.03.2022
2104 Clouds 13 1021 56 10000 12.86 90 09:46 12.03.2022
2105 Clouds 12 1021 55 10000 10.29 80 08:56 12.03.2022
2106 Clouds 11 1021 54 10000 12.35 90 07:27 12.03.2022
2107 Clear 11 1020 54 10000 7.2 70 03:36 12.03.2022
2108 Clear 10 1021 51 10000 3.09 330 23:56 11.03.2022
2109 Clear 10 1021 51 10000 3.09 330 23:56 11.03.2022
2110 Clear 10 1021 51 10000 3.09 330 23:56 11.03.2022
2111 Clear 10 1021 51 10000 3.09 330 23:56 11.03.2022
2112 Clear 10 1021 51 10000 3.09 330 23:56 11.03.2022
2113 Clear 10 1021 51 10000 3.09 320 23:18 11.03.2022
2114 Clear 12 1021 52 10000 6.69 90 21:41 11.03.2022
2115 Clear 12 1021 55 10000 8.75 100 20:56 11.03.2022
2116 Clear 12 1020 54 10000 8.75 100 20:35 11.03.2022
2117 Clear 12 1020 56 10000 9.26 100 19:52 11.03.2022
2118 Clear 12 1020 54 10000 9.26 100 19:22 11.03.2022
2119 Clear 14 1019 57 10000 10.29 100 17:30 11.03.2022
2120 Clear 14 1022 54 10000 9.77 100 16:38 11.03.2022
2121 Clear 14 1022 52 10000 10.29 100 15:55 11.03.2022
2122 Clear 14 1022 52 10000 9.26 110 14:20 11.03.2022
2123 Clear 14 1024 57 10000 5.66 100 12:45 11.03.2022
2124 Clouds 14 1024 57 10000 3.6 90 12:21 11.03.2022
2125 Clouds 14 1023 60 10000 3.09 80 11:53 11.03.2022
2126 Clouds 12 1023 69 10000 5.14 80 09:59 11.03.2022
2127 Clouds 11 1022 79 10000 2.06 40 08:56 11.03.2022
2128 Clouds 10 1022 81 10000 3.09 20 08:24 11.03.2022
2129 Clouds 10 1022 81 10000 3.09 40 07:45 11.03.2022
2130 Clouds 10 1022 80 10000 2.57 50 05:44 11.03.2022
2131 Clouds 11 1021 82 10000 7.2 80 03:48 11.03.2022
2132 Clouds 11 1022 81 10000 0 0 23:38 10.03.2022
2133 Clouds 11 1022 83 10000 0 0 22:30 10.03.2022
2134 Clouds 12 1022 87 10000 1.03 0 21:40 10.03.2022
2135 Clouds 12 1022 81 10000 1.54 220 21:18 10.03.2022
2136 Clouds 12 1022 84 10000 0.52 244 19:45 10.03.2022
2137 Clouds 13 1022 81 10000 3.6 220 18:53 10.03.2022
2138 Clouds 13 1022 78 10000 5.14 210 17:28 10.03.2022
2139 Clouds 14 1022 68 10000 4.12 200 15:55 10.03.2022
2140 Clouds 14 1023 69 10000 3.6 180 14:48 10.03.2022
2141 Clouds 14 1023 66 10000 3.09 180 13:21 10.03.2022
2142 Clouds 13 1024 68 10000 1.54 0 11:58 10.03.2022
2143 Clouds 13 1024 65 10000 3.09 320 10:53 10.03.2022
2144 Clouds 10 1024 71 10000 5.66 330 09:21 10.03.2022
2145 Clouds 6 1025 70 10000 5.14 340 07:38 10.03.2022
2146 Clear 7 1023 80 10000 5.14 330 04:36 10.03.2022
2147 Clear 7 1023 81 10000 3.6 330 01:46 10.03.2022
2148 Clear 8 1023 79 10000 4.12 330 23:26 09.03.2022
2149 Clear 9 1023 75 10000 3.09 330 21:51 09.03.2022
2150 Clouds 9 1022 75 10000 3.09 340 21:31 09.03.2022
2151 Clear 11 1022 75 10000 5.66 220 19:44 09.03.2022
2152 Clear 11 1022 69 10000 6.17 220 18:33 09.03.2022
2153 Clear 13 1022 64 10000 5.66 210 17:27 09.03.2022
2154 Clouds 13 1022 59 10000 5.14 200 16:31 09.03.2022
2155 Clouds 13 1022 58 10000 4.12 200 15:19 09.03.2022
2156 Clouds 13 1023 56 10000 3.6 170 13:53 09.03.2022
2157 Clouds 12 1023 60 10000 4.12 140 12:47 09.03.2022
2158 Clouds 12 1024 63 10000 2.57 140 11:53 09.03.2022
2159 Clouds 12 1024 62 10000 1.54 130 11:35 09.03.2022
2160 Clouds 9 1024 69 10000 3.09 330 09:54 09.03.2022
2161 Clouds 7 1023 75 10000 3.6 340 08:51 09.03.2022
2162 Clouds 5 1023 75 10000 4.12 340 07:38 09.03.2022
2163 Clouds 8 1022 72 10000 2.57 320 02:46 09.03.2022
2164 Clouds 8 1022 71 10000 2.06 330 00:41 09.03.2022
2165 Clouds 8 1021 70 10000 1.03 0 22:47 08.03.2022
2166 Clouds 8 1021 67 10000 2.57 320 21:59 08.03.2022
2167 Clouds 8 1021 65 10000 2.57 320 21:23 08.03.2022
2168 Clouds 9 1021 58 10000 1.03 0 20:35 08.03.2022
2169 Clouds 9 1021 61 10000 2.06 110 19:35 08.03.2022
2170 Clouds 9 1020 61 10000 2.06 120 18:44 08.03.2022
2171 Clouds 9 1020 62 10000 3.6 130 17:30 08.03.2022
2172 Clouds 10 1020 60 10000 4.63 120 15:45 08.03.2022
2173 Clouds 10 1020 50 10000 5.14 100 14:19 08.03.2022
2174 Clouds 11 1020 63 10000 8.23 110 12:43 08.03.2022
2175 Clouds 10 1020 61 10000 2.57 0 11:45 08.03.2022
2176 Clouds 9 1020 65 10000 4.12 330 10:44 08.03.2022
2177 Clouds 8 1019 62 10000 5.14 330 09:43 08.03.2022
2178 Clouds 6 1018 72 10000 5.14 330 06:59 08.03.2022
2179 Clear 6 1017 74 10000 4.63 330 04:52 08.03.2022
2180 Clear 7 1016 68 10000 3.6 330 23:50 07.03.2022
2181 Clear 7 1016 73 10000 3.6 330 21:57 07.03.2022
2182 Clear 8 1016 68 10000 2.57 330 21:32 07.03.2022
2183 Clear 7 1016 71 10000 3.09 320 20:46 07.03.2022
2184 Clear 8 1016 72 10000 1.62 240 19:55 07.03.2022
2185 Clouds 9 1016 71 10000 2.2 212 19:31 07.03.2022
2186 Clouds 10 1016 61 10000 3.09 210 18:42 07.03.2022
2187 Clouds 11 1016 59 10000 3.09 200 17:48 07.03.2022
2188 Clouds 12 1015 54 10000 3.09 190 16:55 07.03.2022
2189 Clouds 12 1016 57 10000 3.43 183 15:35 07.03.2022
2190 Clouds 12 1016 51 10000 3.6 150 13:51 07.03.2022
2191 Clouds 11 1017 50 10000 2.57 140 12:27 07.03.2022
2192 Clouds 10 1017 59 10000 2.06 340 10:38 07.03.2022
2193 Clear 7 1017 63 10000 4.12 340 08:57 07.03.2022
2194 Clouds 5 1016 73 10000 4.12 340 04:43 07.03.2022
2195 Clouds 7 1016 71 10000 2.57 330 00:22 07.03.2022
2196 Clouds 8 1015 65 10000 2.06 340 23:35 06.03.2022
2197 Clouds 8 1015 66 10000 2.06 320 22:42 06.03.2022
2198 Clouds 8 1015 65 10000 1.54 0 21:58 06.03.2022
2199 Clouds 8 1015 65 10000 1.54 330 20:49 06.03.2022
2200 Clouds 8 1015 64 10000 2.06 330 20:22 06.03.2022
2201 Clouds 8 1014 70 10000 0.25 83 18:56 06.03.2022
2202 Clouds 9 1014 63 10000 2.06 190 18:23 06.03.2022
2203 Clouds 9 1014 61 10000 2.57 200 17:21 06.03.2022
2204 Clouds 10 1014 58 10000 3.09 190 16:42 06.03.2022
2205 Clouds 10 1014 58 10000 2.06 190 15:52 06.03.2022
2206 Clouds 10 1014 59 10000 3.09 230 14:49 06.03.2022
2207 Clouds 10 1015 62 10000 2.57 250 14:31 06.03.2022
2208 Clouds 9 1015 63 10000 1.03 0 13:29 06.03.2022
2209 Rain 9 1016 66 10000 3.09 20 12:35 06.03.2022
2210 Rain 8 1016 77 10000 2.57 10 10:59 06.03.2022
2211 Rain 7 1016 78 10000 3.09 340 10:27 06.03.2022
2212 Rain 6 1016 87 10000 2.57 330 08:30 06.03.2022
2213 Rain 6 1015 88 10000 3.6 320 07:35 06.03.2022
2214 Rain 7 1015 84 10000 4.63 310 05:40 06.03.2022
2215 Clouds 8 1015 80 10000 4.12 330 00:53 06.03.2022
2216 Clouds 8 1015 80 10000 3.09 330 00:31 06.03.2022
2217 Clouds 8 1015 80 10000 2.57 330 23:23 05.03.2022
2218 Clouds 8 1015 86 10000 1.54 330 22:53 05.03.2022
2219 Clouds 9 1014 77 10000 1.54 350 21:56 05.03.2022
2220 Clouds 8 1014 67 10000 2.57 20 21:23 05.03.2022
2221 Clouds 9 1014 75 10000 3.09 30 19:49 05.03.2022
2222 Clouds 9 1013 76 10000 3.09 30 18:56 05.03.2022
2223 Clouds 9 1013 75 10000 3.6 30 18:27 05.03.2022
2224 Clouds 9 1013 75 10000 1.03 0 16:49 05.03.2022
2225 Rain 9 1014 81 10000 2.57 310 15:31 05.03.2022
2226 Clouds 9 1014 78 10000 2.57 300 14:52 05.03.2022
2227 Clouds 9 1014 79 10000 3.6 280 14:33 05.03.2022
2228 Clouds 9 1015 76 10000 2.57 270 13:22 05.03.2022
2229 Rain 9 1015 78 10000 2.06 70 11:48 05.03.2022
2230 Rain 9 1015 78 10000 2.57 80 11:19 05.03.2022
2231 Rain 9 1015 81 10000 3.09 50 10:20 05.03.2022
2232 Clouds 8 1015 80 10000 3.6 60 09:26 05.03.2022
2233 Clouds 8 1015 76 10000 5.66 70 07:51 05.03.2022
2234 Clouds 8 1014 82 10000 2.06 360 05:43 05.03.2022
2235 Rain 8 1014 81 10000 2.06 20 03:49 05.03.2022
2236 Clouds 9 1013 85 8000 4.63 330 23:38 04.03.2022
2237 Rain 9 1013 88 8000 2.57 350 22:42 04.03.2022
2238 Rain 9 1014 91 8000 3.6 30 22:19 04.03.2022
2239 Rain 10 1013 85 10000 4.12 20 20:57 04.03.2022
2240 Rain 10 1012 81 10000 4.12 60 20:27 04.03.2022
2241 Rain 11 1012 80 10000 1.03 60 19:36 04.03.2022
2242 Clouds 11 1011 81 10000 1.54 0 18:45 04.03.2022
2243 Rain 11 1011 79 10000 0 0 18:20 04.03.2022
2244 Clouds 12 1011 79 10000 1.54 160 17:28 04.03.2022
2245 Clouds 13 1011 74 10000 2.06 140 15:31 04.03.2022
2246 Clouds 14 1011 72 10000 2.57 150 14:33 04.03.2022
2247 Clouds 14 1012 72 10000 3.6 110 13:27 04.03.2022
2248 Clouds 13 1012 75 10000 5.66 100 11:54 04.03.2022
2249 Clouds 13 1012 77 10000 6.69 80 10:57 04.03.2022
2250 Clouds 12 1011 73 10000 6.17 80 10:18 04.03.2022
2251 Clouds 10 1011 76 10000 2.57 340 08:40 04.03.2022
2252 Clouds 9 1011 77 10000 2.06 330 07:41 04.03.2022
2253 Clouds 9 1011 80 10000 3.09 330 04:59 04.03.2022
2254 Clouds 8 1011 87 10000 3.09 320 00:41 04.03.2022
2255 Clouds 9 1012 86 10000 4.12 320 22:53 03.03.2022
2256 Clouds 9 1012 87 10000 3.6 320 21:57 03.03.2022
2257 Clouds 9 1012 87 10000 2.57 320 21:34 03.03.2022
2258 Clouds 10 1013 86 10000 1.03 0 20:21 03.03.2022
2259 Clouds 11 1013 82 10000 1.54 0 18:57 03.03.2022
2260 Clouds 11 1013 82 10000 1.03 0 18:25 03.03.2022
2261 Clouds 11 1013 83 10000 1.54 30 17:31 03.03.2022
2262 Clouds 11 1014 84 10000 2.57 60 16:28 03.03.2022
2263 Clouds 12 1014 84 10000 4.63 120 15:41 03.03.2022
2264 Clouds 12 1014 80 10000 6.69 120 14:44 03.03.2022
2265 Clouds 13 1015 78 10000 6.17 120 14:25 03.03.2022
2266 Clouds 13 1016 66 10000 4.12 90 12:32 03.03.2022
2267 Clouds 13 1016 67 10000 2.57 20 10:58 03.03.2022
2268 Clouds 11 1016 70 10000 3.09 330 09:58 03.03.2022
2269 Clouds 9 1016 80 10000 3.6 330 08:42 03.03.2022
2270 Clouds 8 1017 76 10000 1.54 340 06:55 03.03.2022
2271 Clouds 8 1017 75 10000 3.6 340 05:22 03.03.2022
2272 Clouds 9 1018 76 10000 2.57 330 23:48 02.03.2022
2273 Clear 9 1018 76 10000 1.54 350 22:54 02.03.2022
2274 Clear 9 1018 74 10000 1.54 340 22:33 02.03.2022
2275 Clear 9 1018 77 10000 3.6 10 20:59 02.03.2022
2276 Clear 9 1018 76 10000 1.54 0 20:25 02.03.2022
2277 Clouds 10 1018 74 10000 3.09 240 19:38 02.03.2022
2278 Clouds 11 1018 74 10000 3.09 240 19:18 02.03.2022
2279 Clouds 11 1019 74 10000 6.17 210 18:35 02.03.2022
2280 Clouds 12 1019 71 10000 6.17 200 17:42 02.03.2022
2281 Clouds 12 1019 66 10000 5.66 210 16:53 02.03.2022
2282 Clouds 12 1020 65 10000 5.66 200 15:59 02.03.2022
2283 Rain 12 1021 62 10000 5.14 200 14:29 02.03.2022
2284 Clouds 12 1022 59 10000 5.66 200 12:58 02.03.2022
2285 Clouds 12 1023 56 10000 4.63 200 12:35 02.03.2022
2286 Clouds 11 1023 50 10000 2.06 210 11:28 02.03.2022
2287 Clouds 11 1024 53 10000 2.06 330 10:50 02.03.2022
2288 Clouds 8 1024 57 10000 4.63 330 09:37 02.03.2022
2289 Clouds 7 1025 60 10000 3.6 340 08:44 02.03.2022
2290 Clouds 5 1025 68 10000 4.12 340 07:24 02.03.2022
2291 Clouds 5 1026 65 10000 4.63 340 05:42 02.03.2022
2292 Clouds 7 1026 62 10000 4.12 340 00:42 02.03.2022
2293 Clouds 7 1027 63 10000 3.6 330 23:40 01.03.2022
2294 Clouds 7 1027 63 10000 3.09 330 22:42 01.03.2022
2295 Clouds 6 1027 63 10000 3.09 330 21:55 01.03.2022
2296 Clouds 7 1026 64 10000 0.75 64 20:44 01.03.2022
2297 Clear 7 1026 64 10000 1.09 130 20:23 01.03.2022
2298 Clear 8 1025 62 10000 1.43 152 19:21 01.03.2022
2299 Clear 9 1025 56 10000 1.89 154 18:26 01.03.2022
2300 Clear 11 1025 48 10000 4.12 140 17:55 01.03.2022
2301 Clouds 11 1026 50 10000 5.14 130 16:50 01.03.2022
2302 Clouds 12 1026 48 10000 7.2 120 15:51 01.03.2022
2303 Clouds 12 1027 46 10000 7.72 110 14:55 01.03.2022
2304 Clouds 13 1028 47 10000 7.72 120 14:34 01.03.2022
2305 Clouds 13 1028 43 10000 5.14 90 13:27 01.03.2022
2306 Clouds 12 1029 49 10000 5.66 100 12:39 01.03.2022
2307 Clouds 12 1028 49 10000 3.6 90 11:58 01.03.2022
2308 Clouds 10 1028 58 10000 2.57 330 10:26 01.03.2022
2309 Clouds 9 1028 65 10000 10.29 100 08:41 01.03.2022
2310 Clouds 9 1027 65 10000 13.89 100 07:36 01.03.2022
2311 Clouds 10 1024 67 10000 11.32 90 04:28 01.03.2022
2312 Clouds 8 1023 65 10000 2.57 10 01:43 01.03.2022
2313 Clear 8 1021 67 10000 3.6 330 23:48 28.02.2022
2314 Clear 9 1021 67 10000 3.6 340 22:58 28.02.2022
2315 Clear 9 1021 68 10000 3.6 340 21:50 28.02.2022
2316 Clear 9 1021 70 10000 3.09 350 21:24 28.02.2022
2317 Clear 10 1020 77 10000 5.66 30 19:52 28.02.2022
2318 Clear 10 1020 79 10000 4.12 30 19:26 28.02.2022
2319 Clear 12 1021 72 10000 2.06 210 18:38 28.02.2022
2320 Clear 14 1021 66 10000 5.14 220 17:24 28.02.2022
2321 Clear 14 1022 57 10000 6.69 210 16:33 28.02.2022
2322 Clear 15 1023 54 10000 5.66 200 15:23 28.02.2022
2323 Clear 14 1023 60 10000 4.12 200 14:31 28.02.2022
2324 Clear 14 1024 61 10000 4.12 200 13:47 28.02.2022
2325 Clear 13 1025 50 10000 3.09 170 12:41 28.02.2022
2326 Clear 12 1025 39 10000 2.06 230 11:55 28.02.2022
2327 Clear 10 1025 38 10000 4.63 330 10:48 28.02.2022
2328 Clear 10 1025 39 10000 4.63 330 10:20 28.02.2022
2329 Clear 8 1025 39 10000 5.66 340 09:32 28.02.2022
2330 Clear 6 1025 45 10000 5.14 340 08:29 28.02.2022
2331 Clear 4 1026 52 10000 5.14 340 07:28 28.02.2022
2332 Clear 5 1026 49 10000 3.6 340 04:55 28.02.2022
2333 Clear 5 1026 49 10000 4.63 340 04:26 28.02.2022
2334 Clear 6 1027 52 10000 6.17 330 23:44 27.02.2022
2335 Clear 6 1026 56 10000 4.63 330 22:35 27.02.2022
2336 Clear 7 1026 58 10000 5.14 330 21:51 27.02.2022
2337 Clear 7 1026 62 10000 5.14 330 21:21 27.02.2022
2338 Clear 7 1025 59 10000 3.6 320 20:32 27.02.2022
2339 Clear 8 1025 56 10000 3.09 320 19:58 27.02.2022
2340 Clear 9 1025 55 10000 2.57 340 19:27 27.02.2022
2341 Clouds 9 1025 49 10000 3.09 310 18:47 27.02.2022
2342 Clouds 10 1024 45 10000 0.51 0 17:56 27.02.2022
2343 Clouds 10 1024 44 10000 2.57 150 17:18 27.02.2022
2344 Clouds 10 1024 47 10000 0.89 150 16:21 27.02.2022
2345 Clouds 12 1024 40 10000 4.63 100 13:40 27.02.2022
2346 Clouds 11 1025 44 10000 5.66 100 12:33 27.02.2022
2347 Clouds 10 1025 49 10000 4.12 330 11:27 27.02.2022
2348 Clouds 9 1025 52 10000 4.63 330 10:20 27.02.2022
2349 Clouds 9 1025 52 10000 4.12 330 09:50 27.02.2022
2350 Clouds 8 1024 54 10000 5.14 330 09:20 27.02.2022
2351 Clouds 7 1024 55 10000 5.66 330 08:31 27.02.2022
2352 Clear 5 1024 56 10000 6.17 330 05:39 27.02.2022
2353 Clear 7 1023 51 10000 4.63 330 02:45 27.02.2022
2354 Clear 8 1023 43 10000 5.66 330 23:34 26.02.2022
2355 Clear 9 1023 44 10000 5.14 330 22:31 26.02.2022
2356 Clear 9 1023 40 10000 3.09 310 21:19 26.02.2022
2357 Clouds 10 1023 42 10000 4.12 300 20:33 26.02.2022
2358 Clouds 10 1023 41 10000 4.63 300 19:52 26.02.2022
2359 Clouds 11 1022 41 10000 5.14 290 19:33 26.02.2022
2360 Clear 13 1022 39 10000 3.09 210 17:58 26.02.2022
2361 Clear 14 1022 40 10000 5.14 210 17:31 26.02.2022
2362 Clear 15 1022 34 10000 6.69 230 16:36 26.02.2022
2363 Clear 15 1023 36 10000 7.2 140 15:27 26.02.2022
2364 Clear 15 1022 36 10000 7.2 170 14:59 26.02.2022
2365 Clear 15 1022 34 10000 7.2 170 14:41 26.02.2022
2366 Clear 15 1022 34 10000 6.17 160 13:46 26.02.2022
2367 Clear 15 1023 33 10000 6.17 150 12:53 26.02.2022
2368 Clear 14 1024 24 10000 2.57 90 11:45 26.02.2022
2369 Clear 14 1024 24 10000 2.57 90 11:24 26.02.2022
2370 Clear 10 1024 34 10000 5.14 330 09:28 26.02.2022
2371 Clear 8 1023 37 10000 6.69 330 08:26 26.02.2022
2372 Clouds 10 1021 47 10000 3.6 50 04:22 26.02.2022
2373 Clouds 11 1019 81 10000 4.12 320 23:50 25.02.2022
2374 Clouds 11 1019 84 10000 3.09 320 22:31 25.02.2022
2375 Clouds 11 1018 84 10000 1.54 320 21:31 25.02.2022
2376 Clouds 11 1018 84 10000 1.03 230 20:51 25.02.2022
2377 Clouds 11 1017 81 10000 0.51 70 20:25 25.02.2022
2378 Clouds 14 1015 73 10000 1.03 200 17:57 25.02.2022
2379 Clouds 15 1015 69 10000 1.54 180 16:54 25.02.2022
2380 Clouds 15 1015 69 10000 2.06 200 15:55 25.02.2022
2381 Clouds 15 1015 68 10000 1.54 180 15:23 25.02.2022
2382 Clouds 15 1015 69 10000 2.06 190 14:56 25.02.2022
2383 Clouds 15 1016 71 10000 2.57 210 14:27 25.02.2022
2384 Clouds 15 1016 72 10000 3.09 220 13:30 25.02.2022
2385 Clouds 14 1016 71 10000 1.54 0 12:33 25.02.2022
2386 Clouds 14 1016 65 10000 1.54 0 11:22 25.02.2022
2387 Clouds 12 1016 67 10000 4.63 330 10:23 25.02.2022
2388 Clear 10 1016 70 10000 5.14 330 09:51 25.02.2022
2389 Clouds 8 1016 72 10000 6.17 330 08:42 25.02.2022
2390 Clouds 7 1017 76 10000 5.14 330 07:35 25.02.2022
2391 Clear 6 1017 76 10000 3.6 350 05:43 25.02.2022
2392 Clear 9 1017 81 10000 5.14 330 02:48 25.02.2022
2393 Clear 9 1017 86 10000 2.57 280 22:55 24.02.2022
2394 Clear 10 1018 84 10000 2.06 320 21:51 24.02.2022
2395 Clear 10 1018 86 10000 3.6 320 21:31 24.02.2022
2396 Clear 11 1018 84 10000 1.54 0 20:53 24.02.2022
2397 Clouds 12 1018 84 10000 1.03 0 19:38 24.02.2022
2398 Clouds 13 1018 79 10000 5.14 220 18:37 24.02.2022
2399 Clouds 13 1018 79 10000 5.14 220 18:18 24.02.2022
2400 Clouds 14 1018 80 10000 7.72 210 17:33 24.02.2022
2401 Clouds 14 1019 78 10000 5.14 200 16:29 24.02.2022
2402 Clouds 14 1019 77 10000 4.12 190 15:46 24.02.2022
2403 Clouds 13 1020 79 10000 2.06 130 14:52 24.02.2022
2404 Clouds 14 1020 79 10000 2.57 110 14:24 24.02.2022
2405 Clouds 12 1022 84 10000 2.06 320 13:39 24.02.2022
2406 Clouds 13 1022 81 10000 0 0 12:33 24.02.2022
2407 Clouds 12 1023 61 10000 4.12 330 10:40 24.02.2022
2408 Clouds 9 1023 67 10000 4.63 330 08:58 24.02.2022
2409 Clear 9 1023 68 10000 4.63 340 08:39 24.02.2022
2410 Clear 8 1024 49 10000 4.63 330 05:52 24.02.2022
2411 Clouds 9 1025 68 10000 2.57 330 01:56 24.02.2022
2412 Clouds 9 1025 68 10000 2.57 330 01:56 24.02.2022
2413 Clear 10 1024 79 10000 4.63 330 22:38 23.02.2022
2414 Clear 10 1024 81 10000 3.6 330 21:40 23.02.2022
2415 Clear 10 1024 86 10000 2.06 320 20:31 23.02.2022
2416 Clear 11 1024 84 10000 1.03 270 19:46 23.02.2022
2417 Clear 13 1024 84 10000 2.57 190 18:32 23.02.2022
2418 Clear 14 1024 76 10000 2.57 190 17:36 23.02.2022
2419 Clear 15 1024 69 10000 2.57 170 14:44 23.02.2022
2420 Clear 16 1024 71 10000 2.57 120 12:45 23.02.2022
2421 Clear 15 1024 75 10000 3.09 110 11:59 23.02.2022
2422 Clear 13 1024 62 10000 2.06 350 10:31 23.02.2022
2423 Clouds 9 1023 66 10000 6.17 330 08:59 23.02.2022
2424 Clouds 9 1023 66 10000 6.17 330 08:59 23.02.2022
2425 Clouds 9 1023 66 10000 6.17 330 08:59 23.02.2022
2426 Clouds 8 1023 53 10000 5.14 330 08:23 23.02.2022
2427 Clear 8 1021 65 10000 4.63 340 05:49 23.02.2022
2428 Clear 10 1019 67 10000 2.57 340 00:40 23.02.2022
2429 Clear 10 1019 68 10000 3.6 330 23:38 22.02.2022
2430 Clear 10 1018 71 10000 3.6 340 22:41 22.02.2022
2431 Clear 10 1018 69 10000 2.57 350 21:49 22.02.2022
2432 Clear 10 1018 72 10000 3.6 20 21:31 22.02.2022
2433 Clear 10 1017 73 10000 3.6 20 20:57 22.02.2022
2434 Clear 11 1017 73 10000 4.12 40 20:30 22.02.2022
2435 Clear 11 1017 77 10000 4.63 50 19:47 22.02.2022
2436 Clear 12 1017 73 10000 4.63 70 19:28 22.02.2022
2437 Clear 13 1016 71 10000 2.06 100 18:21 22.02.2022
2438 Clear 15 1016 64 10000 1.03 0 17:24 22.02.2022
2439 Clear 16 1016 52 10000 2.06 170 16:41 22.02.2022
2440 Clear 16 1016 60 10000 2.57 180 15:56 22.02.2022
2441 Clear 16 1016 58 10000 3.6 170 14:45 22.02.2022
2442 Clear 16 1017 56 10000 2.57 200 12:48 22.02.2022
2443 Clear 15 1018 50 10000 2.06 70 10:53 22.02.2022
2444 Clear 11 1017 49 10000 4.12 340 08:53 22.02.2022
2445 Clear 9 1015 34 10000 4.63 320 07:27 22.02.2022
2446 Clear 10 1015 35 10000 2.57 280 06:30 22.02.2022
2447 Clear 13 1012 32 10000 13.38 340 02:45 22.02.2022
2448 Clear 13 1011 35 10000 8.75 320 22:53 21.02.2022
2449 Clear 13 1011 30 10000 4.12 320 21:56 21.02.2022
2450 Clear 13 1010 36 10000 7.72 270 20:37 21.02.2022
2451 Clear 14 1008 25 10000 2.24 201 18:47 21.02.2022
2452 Clear 15 1007 24 10000 8.75 290 17:39 21.02.2022
2453 Clouds 17 1004 21 10000 12.35 310 15:26 21.02.2022
2454 Clouds 17 1005 27 10000 11.83 280 14:22 21.02.2022
2455 Clouds 18 1006 30 10000 9.26 300 13:30 21.02.2022
2456 Clouds 17 1007 34 10000 14.92 290 12:24 21.02.2022
2457 Clouds 16 1007 46 10000 13.38 260 11:20 21.02.2022
2458 Clouds 15 1008 64 10000 5.14 290 09:54 21.02.2022
2459 Clear 9 1011 81 10000 3.6 320 05:35 21.02.2022
2460 Clear 10 1015 79 10000 3.6 330 00:19 21.02.2022
2461 Clear 11 1017 86 10000 2.06 330 22:28 20.02.2022
2462 Clear 10 1017 87 10000 2.06 330 21:43 20.02.2022
2463 Clear 11 1017 80 10000 1.54 0 21:19 20.02.2022
2464 Clear 11 1017 81 10000 2.57 20 20:41 20.02.2022
2465 Clear 12 1018 79 10000 1.54 0 19:42 20.02.2022
2466 Clear 13 1018 79 10000 4.12 230 18:54 20.02.2022
2467 Clear 14 1017 76 10000 4.63 220 18:34 20.02.2022
2468 Clear 15 1017 73 10000 4.63 220 17:53 20.02.2022
2469 Clear 17 1017 63 10000 5.66 220 16:18 20.02.2022
2470 Clear 17 1018 63 10000 6.69 200 14:52 20.02.2022
2471 Clear 17 1019 64 10000 5.66 200 13:53 20.02.2022
2472 Clouds 16 1019 64 10000 3.09 200 12:35 20.02.2022
2473 Clouds 14 1019 65 10000 3.6 320 10:47 20.02.2022
2474 Clouds 13 1019 66 10000 4.63 330 10:20 20.02.2022
2475 Clouds 11 1018 76 10000 5.14 330 08:58 20.02.2022
2476 Clouds 10 1016 90 10000 3.6 330 01:19 20.02.2022
2477 Clouds 11 1016 88 10000 3.09 320 00:30 20.02.2022
2478 Clouds 11 1016 87 10000 2.57 320 23:19 19.02.2022
2479 Clouds 12 1016 87 10000 2.57 320 22:23 19.02.2022
2480 Clouds 12 1015 87 10000 0 0 21:39 19.02.2022
2481 Clouds 13 1015 86 10000 1.03 50 19:58 19.02.2022
2482 Clouds 13 1015 85 10000 2.06 100 19:33 19.02.2022
2483 Clouds 13 1014 86 10000 2.57 70 18:38 19.02.2022
2484 Clouds 14 1014 85 10000 1.54 100 17:37 19.02.2022
2485 Clouds 14 1013 84 10000 1.03 0 16:44 19.02.2022
2486 Clouds 14 1013 81 10000 1.03 0 15:20 19.02.2022
2487 Clouds 14 1013 83 10000 2.06 140 14:52 19.02.2022
2488 Clouds 15 1013 78 10000 1.03 0 13:47 19.02.2022
2489 Clouds 14 1014 79 10000 1.03 0 11:40 19.02.2022
2490 Clouds 13 1013 82 10000 2.57 330 10:30 19.02.2022
2491 Clouds 10 1012 86 10000 3.09 330 08:31 19.02.2022
2492 Clouds 10 1012 87 10000 3.09 330 06:30 19.02.2022
2493 Clouds 12 1014 85 10000 0 0 23:55 18.02.2022
2494 Clouds 12 1014 87 10000 1.54 90 22:24 18.02.2022
2495 Clouds 13 1014 88 10000 1.54 80 20:57 18.02.2022
2496 Clouds 13 1014 88 10000 2.06 90 19:55 18.02.2022
2497 Clouds 13 1014 88 10000 1.54 130 18:50 18.02.2022
2498 Clouds 13 1014 85 10000 2.06 130 18:24 18.02.2022
2499 Clouds 14 1014 83 10000 2.06 150 17:55 18.02.2022
2500 Clouds 15 1014 81 10000 3.6 190 15:35 18.02.2022
2501 Clouds 16 1015 75 10000 3.09 180 13:56 18.02.2022
2502 Clouds 16 1015 75 10000 2.57 180 13:25 18.02.2022
2503 Clouds 15 1016 73 10000 1.54 190 12:40 18.02.2022
2504 Clouds 14 1017 73 10000 1.03 0 11:55 18.02.2022
2505 Clouds 12 1016 79 10000 4.12 330 10:24 18.02.2022
2506 Clear 8 1015 88 10000 3.6 330 06:58 18.02.2022
2507 Clear 9 1015 86 10000 4.12 330 05:41 18.02.2022
2508 Clear 10 1015 84 10000 3.6 330 23:53 17.02.2022
2509 Clear 10 1014 85 10000 2.06 320 21:50 17.02.2022
2510 Clear 10 1014 85 10000 2.06 340 21:26 17.02.2022
2511 Clear 11 1013 83 10000 1.54 330 20:40 17.02.2022
2512 Clear 11 1014 84 10000 2.06 330 19:52 17.02.2022
2513 Clear 12 1013 84 10000 1.03 270 18:57 17.02.2022
2514 Clear 14 1013 78 10000 1.54 0 17:59 17.02.2022
2515 Clear 15 1013 74 10000 1.54 0 16:43 17.02.2022
2516 Clear 15 1013 69 10000 1.03 0 15:40 17.02.2022
2517 Clear 15 1013 66 10000 0 0 14:28 17.02.2022
2518 Clear 15 1014 64 10000 1.54 0 12:51 17.02.2022
2519 Clouds 13 1014 75 10000 1.03 0 11:30 17.02.2022
2520 Clouds 10 1013 79 10000 5.14 330 09:38 17.02.2022
2521 Clouds 8 1012 81 10000 4.12 340 06:37 17.02.2022
2522 Clear 9 1015 78 10000 4.63 330 23:21 16.02.2022
2523 Clear 9 1015 74 10000 4.12 330 22:27 16.02.2022
2524 Clear 9 1014 81 10000 3.09 20 20:21 16.02.2022
2525 Clouds 10 1014 79 10000 0.82 22 18:50 16.02.2022
2526 Clear 12 1013 70 10000 6.69 90 17:56 16.02.2022
2527 Clear 14 1013 58 10000 4.12 100 16:44 16.02.2022
2528 Clear 14 1014 52 10000 3.09 140 15:21 16.02.2022
2529 Clear 14 1015 49 10000 2.06 190 13:38 16.02.2022
2530 Clear 13 1016 55 10000 2.57 230 12:21 16.02.2022
2531 Clear 12 1016 57 10000 2.57 300 11:45 16.02.2022
2532 Clear 11 1016 54 10000 4.63 330 10:34 16.02.2022
2533 Clear 10 1016 58 10000 4.12 340 09:34 16.02.2022
2534 Clear 8 1016 61 10000 4.63 340 06:43 16.02.2022
2535 Clear 8 1015 54 10000 3.6 350 00:37 16.02.2022
2536 Clear 8 1015 66 10000 4.63 320 22:34 15.02.2022
2537 Clear 8 1014 75 10000 3.6 320 21:50 15.02.2022
2538 Clear 8 1014 85 10000 4.12 320 21:29 15.02.2022
2539 Clear 8 1014 84 10000 3.09 330 20:58 15.02.2022
2540 Clear 8 1014 84 10000 2.57 340 20:22 15.02.2022
2541 Clear 10 1014 81 10000 0.51 0 19:43 15.02.2022
2542 Clouds 11 1013 77 10000 1.03 200 18:25 15.02.2022
2543 Clouds 11 1012 77 10000 2.06 100 17:53 15.02.2022
2544 Clouds 12 1012 76 10000 2.57 90 17:28 15.02.2022
2545 Clouds 13 1011 73 10000 2.06 150 15:43 15.02.2022
2546 Clouds 12 1011 76 10000 2.06 140 13:57 15.02.2022
2547 Clouds 12 1011 79 10000 2.06 120 13:25 15.02.2022
2548 Clouds 11 1011 74 10000 0.51 0 11:41 15.02.2022
2549 Clouds 8 1011 79 10000 4.12 320 10:19 15.02.2022
2550 Clouds 7 1010 85 10000 3.09 350 08:42 15.02.2022
2551 Clouds 6 1009 85 10000 4.63 330 06:45 15.02.2022
2552 Clouds 8 1011 80 10000 5.14 330 23:35 14.02.2022
2553 Clouds 8 1011 78 10000 3.6 360 21:56 14.02.2022
2554 Clouds 8 1010 85 10000 5.14 360 20:53 14.02.2022
2555 Clouds 8 1011 85 10000 4.63 360 19:49 14.02.2022
2556 Drizzle 8 1011 87 10000 4.12 360 19:29 14.02.2022
2557 Rain 9 1011 87 3900 8.23 70 18:23 14.02.2022
2558 Rain 9 1011 85 4500 10.29 80 17:28 14.02.2022
2559 Rain 9 1011 86 3000 10.8 80 16:33 14.02.2022
2560 Rain 9 1012 86 10000 8.23 70 15:22 14.02.2022
2561 Rain 9 1014 85 10000 7.72 80 13:34 14.02.2022
2562 Clouds 8 1015 86 10000 3.6 40 12:58 14.02.2022
2563 Clouds 8 1016 86 10000 2.57 10 12:32 14.02.2022
2564 Clouds 8 1016 89 10000 3.09 340 11:38 14.02.2022
2565 Clouds 8 1017 89 10000 3.6 340 10:21 14.02.2022
2566 Rain 7 1017 87 10000 3.09 340 08:18 14.02.2022
2567 Clouds 7 1017 87 10000 3.6 340 07:26 14.02.2022
2568 Clouds 8 1021 75 10000 2.57 340 22:49 13.02.2022
2569 Clouds 8 1021 73 10000 3.09 330 22:30 13.02.2022
2570 Rain 9 1021 65 10000 2.57 330 21:59 13.02.2022
2571 Clouds 9 1021 61 10000 2.57 340 21:24 13.02.2022
2572 Clouds 10 1021 61 10000 3.09 90 20:28 13.02.2022
2573 Clouds 10 1021 59 10000 3.09 110 19:23 13.02.2022
2574 Clouds 10 1021 58 10000 3.09 110 18:41 13.02.2022
2575 Clouds 11 1021 48 10000 3.6 110 17:32 13.02.2022
2576 Clouds 12 1022 48 10000 4.12 120 15:53 13.02.2022
2577 Clouds 13 1022 46 10000 4.12 110 14:50 13.02.2022
2578 Clear 13 1024 45 10000 2.06 130 13:39 13.02.2022
2579 Clear 13 1024 48 10000 2.06 130 12:44 13.02.2022
2580 Clear 11 1025 53 10000 4.12 330 10:46 13.02.2022
2581 Clear 10 1025 57 10000 3.6 350 10:27 13.02.2022
2582 Clear 7 1025 63 10000 4.12 340 08:59 13.02.2022
2583 Clear 7 1025 65 10000 4.12 330 05:27 13.02.2022
2584 Clouds 8 1026 62 10000 3.09 330 00:34 13.02.2022
2585 Clouds 9 1026 61 10000 3.6 320 22:58 12.02.2022
2586 Clouds 9 1026 62 10000 3.6 330 22:33 12.02.2022
2587 Clouds 10 1026 59 10000 1.54 0 21:18 12.02.2022
2588 Clouds 10 1025 59 10000 1.54 340 20:25 12.02.2022
2589 Clear 11 1025 60 10000 7.2 90 19:18 12.02.2022
2590 Clear 11 1025 61 10000 6.69 100 18:41 12.02.2022
2591 Clear 12 1025 62 10000 6.69 90 18:23 12.02.2022
2592 Clouds 14 1024 58 10000 8.23 80 16:55 12.02.2022
2593 Clouds 14 1024 57 10000 9.77 90 16:25 12.02.2022
2594 Clear 14 1024 54 10000 10.29 110 15:32 12.02.2022
2595 Clear 15 1025 51 10000 8.75 100 14:30 12.02.2022
2596 Clear 15 1026 53 10000 8.23 100 12:55 12.02.2022
2597 Clear 12 1026 61 10000 3.09 330 10:35 12.02.2022
2598 Clear 10 1026 64 10000 4.63 330 09:38 12.02.2022
2599 Clear 8 1025 75 10000 4.12 330 08:48 12.02.2022
2600 Clear 8 1024 78 10000 4.63 330 07:50 12.02.2022
2601 Clear 8 1024 85 10000 5.66 330 05:33 12.02.2022
2602 Clear 9 1024 86 10000 4.12 330 02:20 12.02.2022
2603 Clear 9 1024 84 10000 3.6 330 01:44 12.02.2022
2604 Clouds 11 1023 85 10000 3.09 50 22:28 11.02.2022
2605 Clouds 11 1023 83 10000 5.14 70 21:47 11.02.2022
2606 Clouds 12 1022 82 10000 8.23 90 20:39 11.02.2022
2607 Clouds 12 1022 84 10000 7.72 90 19:35 11.02.2022
2608 Clouds 12 1021 82 10000 7.2 90 18:59 11.02.2022
2609 Clouds 13 1021 81 10000 5.66 90 17:48 11.02.2022
2610 Clouds 13 1021 79 10000 6.17 90 17:22 11.02.2022
2611 Clouds 14 1020 76 10000 3.6 110 15:56 11.02.2022
2612 Clouds 14 1020 76 10000 2.57 120 14:43 11.02.2022
2613 Clouds 14 1020 77 10000 2.57 140 14:21 11.02.2022
2614 Clouds 14 1020 77 10000 2.57 130 13:57 11.02.2022
2615 Clouds 14 1021 74 10000 2.57 140 13:39 11.02.2022
2616 Clouds 14 1022 71 10000 1.03 0 11:41 11.02.2022
2617 Clouds 11 1022 74 10000 5.66 330 09:57 11.02.2022
2618 Clouds 9 1022 78 10000 6.17 330 08:49 11.02.2022
2619 Clouds 9 1023 76 10000 5.66 340 08:26 11.02.2022
2620 Clouds 9 1022 82 10000 5.14 330 07:18 11.02.2022
2621 Clouds 9 1022 82 10000 4.63 330 02:26 11.02.2022
2622 Clear 9 1023 81 10000 4.63 330 00:52 11.02.2022
2623 Clear 9 1023 83 10000 4.63 330 22:51 10.02.2022
2624 Clear 10 1023 82 10000 4.12 30 21:46 10.02.2022
2625 Clear 10 1023 82 10000 4.12 30 21:18 10.02.2022
2626 Clouds 11 1023 84 10000 5.66 60 20:38 10.02.2022
2627 Clouds 12 1023 83 10000 5.14 70 19:26 10.02.2022
2628 Clouds 13 1023 81 10000 2.06 110 18:46 10.02.2022
2629 Clouds 15 1023 77 10000 6.69 210 17:27 10.02.2022
2630 Clouds 16 1023 73 10000 7.2 210 16:55 10.02.2022
2631 Clouds 16 1023 69 10000 9.26 200 15:51 10.02.2022
2632 Clouds 17 1023 68 10000 9.26 200 15:31 10.02.2022
2633 Clear 17 1023 66 10000 6.69 200 14:49 10.02.2022
2634 Clear 17 1023 57 10000 2.06 80 14:26 10.02.2022
2635 Clear 16 1024 59 10000 3.09 80 13:30 10.02.2022
2636 Clear 14 1025 60 10000 2.06 100 12:51 10.02.2022
2637 Clear 12 1026 58 10000 2.57 270 11:34 10.02.2022
2638 Clear 12 1027 51 10000 1.54 310 10:56 10.02.2022
2639 Clear 10 1027 55 10000 3.6 320 10:18 10.02.2022
2640 Clear 9 1026 67 10000 4.12 320 09:25 10.02.2022
2641 Clear 7 1026 78 10000 3.09 320 07:36 10.02.2022
2642 Clear 7 1026 74 10000 3.09 320 05:51 10.02.2022
2643 Clear 8 1027 81 10000 4.12 330 01:52 10.02.2022
2644 Clear 8 1028 82 10000 3.6 310 00:50 10.02.2022
2645 Clear 8 1028 83 10000 3.09 300 00:28 10.02.2022
2646 Clear 9 1028 85 10000 3.09 300 23:24 09.02.2022
2647 Clear 9 1028 83 10000 3.09 320 22:36 09.02.2022
2648 Clear 10 1028 84 10000 1.54 310 21:52 09.02.2022
2649 Clear 10 1028 84 10000 2.57 330 21:30 09.02.2022
2650 Clear 11 1028 84 10000 1.54 310 20:48 09.02.2022
2651 Clear 11 1028 85 10000 1.54 310 20:29 09.02.2022
2652 Clear 11 1028 84 10000 2.57 10 19:56 09.02.2022
2653 Clear 13 1028 81 10000 2.06 310 19:32 09.02.2022
2654 Clouds 14 1028 81 10000 8.23 210 17:38 09.02.2022
2655 Clouds 15 1028 79 10000 8.75 210 16:52 09.02.2022
2656 Clouds 16 1028 76 10000 8.75 200 15:51 09.02.2022
2657 Clear 16 1029 76 10000 8.23 200 14:42 09.02.2022
2658 Clear 13 1031 64 10000 1.54 0 12:28 09.02.2022
2659 Clear 11 1031 56 10000 2.57 320 10:55 09.02.2022
2660 Clear 11 1031 56 10000 2.57 320 10:55 09.02.2022
2661 Clear 10 1032 46 10000 4.12 320 10:30 09.02.2022
2662 Clear 8 1032 53 10000 4.12 320 09:40 09.02.2022
2663 Clear 8 1031 62 10000 4.12 330 09:19 09.02.2022
2664 Clear 7 1031 62 10000 4.63 320 07:55 09.02.2022
2665 Clear 8 1031 61 10000 5.14 320 05:30 09.02.2022
2666 Clear 8 1031 66 10000 5.14 330 03:50 09.02.2022
2667 Clear 9 1031 68 10000 5.14 330 00:53 09.02.2022
2668 Clear 9 1031 67 10000 5.14 330 23:33 08.02.2022
2669 Clear 9 1031 73 10000 5.14 330 22:47 08.02.2022
2670 Clear 10 1031 71 10000 4.63 330 22:22 08.02.2022
2671 Clear 10 1031 74 10000 4.63 330 21:49 08.02.2022
2672 Clear 10 1030 75 10000 3.6 320 21:21 08.02.2022
2673 Clear 10 1030 76 10000 3.6 320 20:45 08.02.2022
2674 Clear 11 1030 81 10000 2.57 310 19:46 08.02.2022
2675 Clear 13 1029 82 10000 5.14 220 18:48 08.02.2022
2676 Clear 14 1029 77 10000 3.6 220 17:43 08.02.2022
2677 Clear 15 1029 70 10000 6.69 220 16:30 08.02.2022
2678 Clear 15 1029 59 10000 6.17 220 15:30 08.02.2022
2679 Clear 15 1030 53 10000 5.14 200 14:38 08.02.2022
2680 Clear 15 1030 56 10000 2.06 190 13:29 08.02.2022
2681 Clear 15 1031 44 10000 1.54 0 11:55 08.02.2022
2682 Clear 11 1030 57 10000 4.12 330 10:23 08.02.2022
2683 Clear 11 1030 57 10000 4.12 330 10:23 08.02.2022
2684 Clear 10 1030 60 10000 4.63 340 09:45 08.02.2022
2685 Clear 8 1028 59 10000 5.66 330 07:55 08.02.2022
2686 Clear 8 1027 49 10000 4.63 340 05:41 08.02.2022
2687 Clear 9 1027 49 10000 5.14 340 04:39 08.02.2022
2688 Clear 9 1027 49 10000 5.14 340 04:21 08.02.2022
2689 Clear 9 1027 50 10000 4.63 340 03:36 08.02.2022
2690 Clear 9 1027 51 10000 4.63 340 03:18 08.02.2022
2691 Clear 9 1027 51 10000 4.63 340 02:59 08.02.2022
2692 Clear 9 1026 52 10000 4.12 340 02:36 08.02.2022
2693 Clear 9 1026 55 10000 5.14 330 02:18 08.02.2022
2694 Clear 9 1026 56 10000 5.14 330 01:44 08.02.2022
2695 Clear 9 1026 57 10000 4.63 330 01:24 08.02.2022
2696 Clear 9 1026 56 10000 5.14 330 00:55 08.02.2022
2697 Clear 10 1026 65 10000 2.57 340 23:58 07.02.2022
2698 Clear 10 1025 65 10000 4.12 330 23:40 07.02.2022
2699 Clear 10 1025 64 10000 4.12 330 23:18 07.02.2022
2700 Clear 11 1025 61 10000 3.09 330 22:54 07.02.2022
2701 Clear 11 1024 57 10000 3.09 320 22:18 07.02.2022
2702 Clear 11 1024 55 10000 3.09 320 21:44 07.02.2022
2703 Clear 11 1023 52 10000 2.57 50 21:25 07.02.2022
2704 Clear 12 1023 45 10000 2.57 10 20:41 07.02.2022
2705 Clear 12 1021 45 10000 5.66 310 19:56 07.02.2022
2706 Clear 12 1021 43 10000 6.17 300 19:38 07.02.2022
2707 Clear 14 1019 53 10000 1.03 0 18:21 07.02.2022
2708 Clouds 15 1017 63 10000 2.06 240 16:53 07.02.2022
2709 Clouds 15 1017 70 10000 2.06 250 16:20 07.02.2022
2710 Clouds 15 1016 70 10000 2.06 240 15:48 07.02.2022
2711 Clouds 15 1013 73 10000 2.66 110 13:36 07.02.2022
2712 Clear 15 1013 69 10000 4.63 100 13:18 07.02.2022
2713 Clear 14 1011 75 10000 4.12 90 11:58 07.02.2022
2714 Clear 14 1011 75 10000 4.12 90 11:58 07.02.2022
2715 Clear 14 1011 68 10000 1.54 0 11:37 07.02.2022
2716 Clear 14 1010 64 10000 3.09 330 10:52 07.02.2022
2717 Clear 13 1010 65 10000 4.12 330 10:32 07.02.2022
2718 Clear 11 1009 69 10000 4.63 330 09:53 07.02.2022
2719 Clear 8 1009 76 10000 5.66 330 09:18 07.02.2022
2720 Clear 8 1009 76 10000 5.66 330 08:43 07.02.2022
2721 Clouds 8 1008 76 10000 6.17 330 07:26 07.02.2022
2722 Clouds 8 1008 76 10000 4.63 330 06:34 07.02.2022
2723 Clouds 8 1010 79 10000 5.66 330 03:48 07.02.2022
2724 Clouds 9 1013 82 10000 3.6 330 00:46 07.02.2022
2725 Clouds 10 1014 84 10000 3.09 330 23:49 06.02.2022
2726 Clear 10 1014 82 10000 3.09 330 22:55 06.02.2022
2727 Clear 9 1014 82 10000 3.6 330 22:34 06.02.2022
2728 Clear 10 1014 81 10000 2.57 320 21:36 06.02.2022
2729 Clear 10 1014 82 10000 2.06 320 20:56 06.02.2022
2730 Clear 10 1015 82 10000 2.57 320 20:36 06.02.2022
2731 Clear 11 1015 82 10000 0.51 0 19:45 06.02.2022
2732 Clear 12 1015 79 10000 4.63 60 18:49 06.02.2022
2733 Clear 12 1015 81 10000 5.66 50 18:24 06.02.2022
2734 Clear 14 1016 77 10000 1.54 180 17:26 06.02.2022
2735 Clear 14 1017 75 10000 3.6 200 16:48 06.02.2022
2736 Clouds 16 1017 70 10000 4.63 200 15:50 06.02.2022
2737 Clouds 16 1018 77 10000 6.17 190 15:27 06.02.2022
2738 Clouds 15 1018 80 10000 5.66 200 14:50 06.02.2022
2739 Clear 15 1019 66 10000 5.14 210 13:51 06.02.2022
2740 Clear 14 1020 66 10000 4.12 210 13:20 06.02.2022
2741 Clear 13 1021 60 10000 3.09 320 11:39 06.02.2022
2742 Clear 11 1022 50 10000 4.63 330 10:31 06.02.2022
2743 Clear 10 1021 72 10000 5.14 330 09:26 06.02.2022
2744 Clear 9 1021 74 10000 6.17 330 08:41 06.02.2022
2745 Clear 9 1021 74 10000 3.6 350 06:19 06.02.2022
2746 Clear 9 1021 74 10000 4.63 340 04:51 06.02.2022
2747 Clear 9 1022 77 10000 4.63 330 02:25 06.02.2022
2748 Clear 9 1022 81 10000 4.12 330 00:30 06.02.2022
2749 Clear 9 1021 84 10000 4.63 320 23:27 05.02.2022
2750 Clear 10 1021 84 10000 4.63 320 21:43 05.02.2022
2751 Clear 11 1020 85 10000 1.54 310 20:26 05.02.2022
2752 Clear 10 1020 85 10000 1.54 310 19:51 05.02.2022
2753 Clear 11 1020 85 10000 0 0 19:33 05.02.2022
2754 Clear 12 1019 80 10000 0.51 0 18:26 05.02.2022
2755 Clear 14 1019 76 10000 1.54 0 17:34 05.02.2022
2756 Clear 15 1018 72 10000 2.57 180 15:43 05.02.2022
2757 Clear 15 1017 73 10000 2.57 180 15:25 05.02.2022
2758 Clear 15 1018 70 10000 3.6 150 13:24 05.02.2022
2759 Clear 15 1018 67 10000 2.57 160 12:42 05.02.2022
2760 Clear 13 1018 67 10000 2.57 340 11:29 05.02.2022
2761 Clear 12 1017 69 10000 3.09 340 10:43 05.02.2022
2762 Clouds 11 1017 70 10000 4.12 340 09:49 05.02.2022
2763 Clouds 10 1016 73 10000 3.09 340 08:34 05.02.2022
2764 Clouds 9 1015 76 10000 4.12 330 06:58 05.02.2022
2765 Clouds 10 1015 77 10000 3.6 330 05:44 05.02.2022
2766 Clouds 10 1015 79 10000 3.09 330 02:31 05.02.2022
2767 Clouds 10 1015 79 10000 3.09 330 01:18 05.02.2022
2768 Clouds 10 1014 79 10000 2.57 330 00:36 05.02.2022
2769 Clouds 10 1014 82 10000 2.57 340 23:33 04.02.2022
2770 Clouds 11 1014 81 10000 2.06 330 22:37 04.02.2022
2771 Clouds 11 1015 78 10000 2.06 330 21:36 04.02.2022
2772 Clouds 11 1015 85 10000 1.7 34 21:18 04.02.2022
2773 Clouds 12 1015 81 10000 1.03 0 20:29 04.02.2022
2774 Clouds 12 1014 84 10000 1.27 92 18:35 04.02.2022
2775 Clouds 13 1015 75 10000 2.57 180 16:22 04.02.2022
2776 Clouds 14 1015 68 10000 3.6 190 15:18 04.02.2022
2777 Clouds 14 1015 71 10000 2.06 160 14:40 04.02.2022
2778 Clouds 14 1017 69 10000 2.06 180 12:43 04.02.2022
2779 Clouds 14 1017 67 10000 2.06 320 11:45 04.02.2022
2780 Clouds 13 1017 69 10000 2.57 330 10:55 04.02.2022
2781 Clouds 12 1017 72 10000 2.57 330 09:56 04.02.2022
2782 Clouds 11 1016 76 10000 4.12 330 07:56 04.02.2022
2783 Clouds 11 1018 81 10000 2.57 330 03:31 04.02.2022
2784 Clouds 11 1018 84 10000 3.6 320 02:34 04.02.2022
2785 Clouds 12 1019 84 10000 3.09 60 23:40 03.02.2022
2786 Clouds 12 1019 89 10000 2.57 70 22:50 03.02.2022
2787 Clouds 12 1020 85 10000 3.09 140 21:52 03.02.2022
2788 Clouds 12 1020 89 10000 3.6 140 21:22 03.02.2022
2789 Clouds 12 1020 83 10000 3.6 110 20:22 03.02.2022
2790 Clouds 12 1020 83 10000 3.6 110 20:22 03.02.2022
2791 Clouds 12 1019 83 10000 3.09 80 19:42 03.02.2022
2792 Clouds 13 1020 83 10000 3.09 90 18:56 03.02.2022
2793 Clouds 13 1020 82 10000 3.09 100 17:59 03.02.2022
2794 Clouds 14 1020 83 10000 3.6 90 16:55 03.02.2022
2795 Clouds 14 1020 80 10000 3.6 100 15:34 03.02.2022
2796 Clouds 16 1020 76 10000 3.6 110 13:50 03.02.2022
2797 Clouds 15 1021 75 10000 4.63 110 12:22 03.02.2022
2798 Clouds 11 1019 65 10000 3.6 340 08:56 03.02.2022
2799 Clear 11 1018 58 10000 5.66 340 07:43 03.02.2022
2800 Clear 12 1017 58 10000 2.57 320 00:49 03.02.2022
2801 Clear 11 1016 67 10000 3.6 330 00:22 03.02.2022
2802 Clear 11 1016 62 10000 3.09 330 22:39 02.02.2022
2803 Clear 11 1015 63 10000 1.03 0 21:51 02.02.2022
2804 Clear 11 1015 63 10000 2.06 350 21:29 02.02.2022
2805 Clear 12 1014 67 10000 1.03 0 20:27 02.02.2022
2806 Clear 12 1014 67 10000 1.54 350 19:46 02.02.2022
2807 Clear 13 1013 67 10000 0 0 18:56 02.02.2022
2808 Clear 13 1013 65 10000 1.03 250 18:24 02.02.2022
2809 Clear 15 1012 70 10000 2.57 210 17:20 02.02.2022
2810 Clear 16 1012 60 10000 2.06 200 16:56 02.02.2022
2811 Clear 17 1012 47 10000 2.06 120 15:29 02.02.2022
2812 Clear 15 1012 53 10000 1.54 0 12:31 02.02.2022
2813 Clear 15 1012 49 10000 1.03 0 11:49 02.02.2022
2814 Clear 14 1012 47 10000 3.09 340 11:30 02.02.2022
2815 Clear 9 1011 53 10000 6.17 330 08:48 02.02.2022
2816 Clear 9 1011 57 10000 4.12 330 02:44 02.02.2022
2817 Clear 8 1014 58 10000 3.6 330 22:33 01.02.2022
2818 Clear 9 1014 58 10000 3.6 340 20:55 01.02.2022
2819 Clear 9 1014 60 10000 2.57 330 19:29 01.02.2022
2820 Clear 13 1014 49 10000 1.54 120 17:34 01.02.2022
2821 Clear 14 1014 48 10000 2.57 190 16:21 01.02.2022
2822 Clear 14 1014 45 10000 1.03 0 13:27 01.02.2022
2823 Clear 14 1014 42 10000 3.09 340 12:28 01.02.2022
2824 Clear 9 1013 30 10000 3.09 360 08:52 01.02.2022
2825 Clear 7 1010 66 10000 5.14 330 02:21 01.02.2022
2826 Clear 8 1009 73 10000 7.2 320 23:38 31.01.2022
2827 Clear 9 1008 78 10000 3.58 280 22:42 31.01.2022
2828 Clouds 9 1008 84 10000 3.6 320 21:36 31.01.2022
2829 Clouds 9 1006 85 10000 3.09 350 20:35 31.01.2022
2830 Clear 8 1006 84 10000 2.06 360 19:59 31.01.2022
2831 Clear 9 1004 82 10000 1.03 330 18:54 31.01.2022
2832 Clouds 10 1003 77 10000 1.54 0 18:18 31.01.2022
2833 Clouds 11 1003 74 10000 1.54 110 17:24 31.01.2022
2834 Clouds 12 1003 72 10000 2.06 110 16:25 31.01.2022
2835 Clouds 13 1005 69 10000 1.03 0 14:54 31.01.2022
2836 Clouds 12 1006 71 10000 0 0 13:43 31.01.2022
2837 Clouds 11 1008 70 10000 3.6 330 12:38 31.01.2022
2838 Clouds 10 1009 71 10000 4.12 330 11:34 31.01.2022
2839 Clouds 10 1010 77 10000 0.7 163 10:49 31.01.2022
2840 Clouds 9 1012 77 10000 5.66 330 09:38 31.01.2022
2841 Clouds 8 1012 78 10000 6.17 320 08:57 31.01.2022
2842 Clouds 8 1013 78 10000 5.66 330 08:38 31.01.2022
2843 Clouds 8 1013 79 10000 5.66 330 08:19 31.01.2022
2844 Clouds 8 1015 78 10000 5.66 330 06:18 31.01.2022
2845 Clouds 10 1018 81 10000 4.12 330 00:44 31.01.2022
2846 Clouds 10 1019 81 10000 4.12 330 22:34 30.01.2022
2847 Clouds 10 1019 83 10000 4.12 330 21:56 30.01.2022
2848 Clouds 10 1019 83 10000 3.6 320 21:37 30.01.2022
2849 Clouds 10 1019 83 10000 3.6 320 21:18 30.01.2022
2850 Clouds 10 1019 82 10000 3.6 320 20:43 30.01.2022
2851 Clouds 10 1019 82 10000 3.09 320 20:25 30.01.2022
2852 Clouds 11 1018 78 10000 2.06 60 19:24 30.01.2022
2853 Clouds 11 1018 78 10000 3.09 100 18:35 30.01.2022
2854 Clouds 12 1018 75 10000 3.09 80 17:53 30.01.2022
2855 Clouds 13 1018 74 10000 2.06 100 17:20 30.01.2022
2856 Clouds 13 1018 72 10000 2.57 110 16:37 30.01.2022
2857 Clouds 13 1018 72 10000 2.57 110 16:19 30.01.2022
2858 Clouds 13 1018 71 10000 2.57 120 15:49 30.01.2022
2859 Clouds 14 1018 70 10000 3.6 120 15:30 30.01.2022
2860 Clouds 14 1018 70 10000 3.6 110 14:45 30.01.2022
2861 Clouds 14 1020 68 10000 1.54 80 12:46 30.01.2022
2862 Clouds 13 1021 66 10000 3.09 330 11:53 30.01.2022
2863 Clouds 10 1021 69 10000 5.14 330 10:29 30.01.2022
2864 Clouds 9 1021 71 10000 5.66 330 09:50 30.01.2022
2865 Clouds 8 1021 74 10000 5.14 330 08:52 30.01.2022
2866 Clouds 8 1021 77 10000 5.14 330 07:28 30.01.2022
2867 Clouds 9 1024 80 10000 5.14 330 01:56 30.01.2022
2868 Clouds 9 1024 80 10000 5.14 330 01:56 30.01.2022
2869 Clear 9 1025 79 10000 4.12 330 00:22 30.01.2022
2870 Clear 8 1025 85 10000 4.12 330 22:58 29.01.2022
2871 Clear 9 1025 85 10000 4.63 330 21:49 29.01.2022
2872 Clear 9 1025 85 10000 4.12 330 21:24 29.01.2022
2873 Clouds 10 1026 84 10000 2.57 340 20:28 29.01.2022
2874 Clouds 11 1026 84 10000 2.57 270 19:34 29.01.2022
2875 Clouds 11 1026 84 10000 3.09 250 18:52 29.01.2022
2876 Clouds 12 1026 83 10000 4.12 250 18:23 29.01.2022
2877 Clouds 13 1027 78 10000 7.2 230 17:29 29.01.2022
2878 Clouds 14 1027 72 10000 6.17 220 15:57 29.01.2022
2879 Clouds 15 1028 67 10000 6.17 200 14:23 29.01.2022
2880 Clear 14 1029 63 10000 2.06 170 13:44 29.01.2022
2881 Clear 14 1029 64 10000 2.06 170 13:24 29.01.2022
2882 Clear 13 1030 47 10000 3.6 320 11:49 29.01.2022
2883 Clear 12 1029 52 10000 5.66 320 11:24 29.01.2022
2884 Clear 9 1029 65 10000 7.2 330 08:57 29.01.2022
2885 Clear 8 1028 68 10000 6.17 330 06:55 29.01.2022
2886 Clear 10 1027 60 10000 6.17 330 00:36 29.01.2022
2887 Clear 9 1027 70 10000 5.66 330 23:52 28.01.2022
2888 Clear 9 1027 74 10000 4.63 330 22:51 28.01.2022
2889 Clear 9 1027 73 10000 4.12 330 22:22 28.01.2022
2890 Clear 10 1026 74 10000 3.6 340 21:37 28.01.2022
2891 Clear 10 1026 74 10000 4.12 330 20:30 28.01.2022
2892 Clear 10 1026 76 10000 3.09 320 19:31 28.01.2022
2893 Clear 10 1025 79 10000 0.51 280 18:43 28.01.2022
2894 Clear 13 1025 72 10000 1.54 0 16:54 28.01.2022
2895 Clear 14 1025 68 10000 3.09 110 15:20 28.01.2022
2896 Clear 14 1025 66 10000 3.09 100 13:52 28.01.2022
2897 Clear 13 1025 61 10000 2.57 330 12:30 28.01.2022
2898 Clear 12 1025 65 10000 4.63 330 11:25 28.01.2022
2899 Clouds 9 1025 70 10000 5.66 340 09:52 28.01.2022
2900 Clouds 8 1025 78 10000 6.17 340 08:22 28.01.2022
2901 Clouds 8 1024 78 10000 4.63 340 07:34 28.01.2022
2902 Clouds 7 1024 83 10000 5.14 330 05:23 28.01.2022
2903 Clouds 8 1024 83 10000 3.6 330 03:44 28.01.2022
2904 Clouds 8 1025 82 10000 3.6 340 02:22 28.01.2022
2905 Clouds 8 1025 82 10000 4.63 330 01:32 28.01.2022
2906 Clouds 8 1025 82 10000 3.6 330 22:52 27.01.2022
2907 Clouds 9 1025 82 10000 3.6 320 21:49 27.01.2022
2908 Clouds 9 1025 83 10000 3.09 320 21:29 27.01.2022
2909 Clouds 10 1025 78 10000 1.54 280 20:26 27.01.2022
2910 Clouds 11 1025 79 10000 2.06 240 18:40 27.01.2022
2911 Clouds 11 1025 78 10000 1.03 0 17:56 27.01.2022
2912 Clouds 13 1026 67 10000 1.54 160 14:42 27.01.2022
2913 Clouds 13 1026 66 10000 1.03 0 13:35 27.01.2022
2914 Clouds 12 1027 65 10000 2.06 320 12:40 27.01.2022
2915 Clouds 9 1027 72 10000 6.17 330 10:23 27.01.2022
2916 Clouds 7 1026 78 10000 6.69 330 08:56 27.01.2022
2917 Clouds 7 1026 78 10000 6.69 330 08:31 27.01.2022
2918 Clouds 7 1026 80 10000 6.17 330 05:59 27.01.2022
2919 Clear 8 1026 81 10000 5.66 330 02:43 27.01.2022
2920 Clear 7 1027 81 10000 5.14 330 23:32 26.01.2022
2921 Clear 8 1026 82 10000 4.12 330 21:59 26.01.2022
2922 Clear 8 1026 81 10000 4.12 330 21:35 26.01.2022
2923 Clear 8 1026 81 10000 4.63 330 20:36 26.01.2022
2924 Clear 8 1026 81 10000 4.63 330 20:36 26.01.2022
2925 Clear 8 1026 83 10000 3.09 330 19:59 26.01.2022
2926 Clear 8 1026 81 10000 2.06 340 19:20 26.01.2022
2927 Clear 9 1026 81 10000 1.03 0 18:45 26.01.2022
2928 Clear 10 1026 74 10000 0 0 17:50 26.01.2022
2929 Clear 12 1026 70 10000 0 0 17:23 26.01.2022
2930 Clear 13 1026 68 10000 1.03 0 16:31 26.01.2022
2931 Clear 13 1026 68 10000 2.06 140 15:49 26.01.2022
2932 Clear 13 1027 66 10000 1.54 160 13:58 26.01.2022
2933 Clear 12 1028 62 10000 2.57 330 11:48 26.01.2022
2934 Clear 9 1027 72 10000 5.66 330 10:28 26.01.2022
2935 Clear 8 1027 75 10000 6.69 330 09:46 26.01.2022
2936 Clear 6 1027 80 10000 6.17 330 07:44 26.01.2022
2937 Clear 8 1028 80 10000 6.17 330 03:31 26.01.2022
2938 Clear 8 1029 84 10000 3.6 340 23:57 25.01.2022
2939 Clear 8 1029 83 10000 2.06 340 22:57 25.01.2022
2940 Clear 8 1029 83 10000 3.6 330 22:21 25.01.2022
2941 Clear 9 1029 83 10000 3.6 330 21:58 25.01.2022
2942 Clouds 9 1029 84 10000 2.57 330 20:46 25.01.2022
2943 Clouds 9 1030 84 10000 2.57 330 20:28 25.01.2022
2944 Clouds 9 1030 84 10000 2.57 330 20:28 25.01.2022
2945 Clouds 9 1030 84 10000 2.57 330 20:28 25.01.2022
2946 Clouds 9 1030 84 10000 2.06 330 19:52 25.01.2022
2947 Clouds 11 1029 79 10000 2.57 250 18:37 25.01.2022
2948 Clouds 11 1029 78 10000 3.09 230 17:44 25.01.2022
2949 Clouds 12 1029 74 10000 2.57 200 16:45 25.01.2022
2950 Clouds 12 1029 74 10000 2.57 200 16:21 25.01.2022
2951 Clouds 13 1029 74 10000 2.57 180 15:38 25.01.2022
2952 Clouds 13 1029 73 10000 3.09 180 14:57 25.01.2022
2953 Clouds 13 1030 70 10000 2.06 180 13:42 25.01.2022
2954 Clouds 11 1032 72 10000 4.12 340 10:51 25.01.2022
2955 Clouds 9 1031 72 10000 4.63 330 08:37 25.01.2022
2956 Clouds 9 1031 74 10000 5.14 330 07:29 25.01.2022
2957 Clouds 9 1031 73 10000 5.14 330 06:49 25.01.2022
2958 Clouds 9 1031 71 10000 3.09 330 05:22 25.01.2022
2959 Clouds 9 1031 77 10000 4.63 330 23:37 24.01.2022
2960 Clouds 9 1031 77 10000 4.63 330 23:18 24.01.2022
2961 Clouds 9 1031 77 10000 5.14 320 22:59 24.01.2022
2962 Clouds 9 1031 78 10000 5.14 320 22:41 24.01.2022
2963 Clouds 9 1031 80 10000 4.12 330 21:53 24.01.2022
2964 Clouds 8 1030 81 10000 3.6 330 21:29 24.01.2022
2965 Clouds 8 1030 83 10000 3.09 330 20:30 24.01.2022
2966 Clouds 8 1030 84 10000 3.09 330 19:50 24.01.2022
2967 Clouds 9 1030 81 10000 1.03 0 19:24 24.01.2022
2968 Clear 10 1029 76 10000 1.03 0 18:18 24.01.2022
2969 Clear 12 1028 71 10000 1.03 0 17:24 24.01.2022
2970 Clear 13 1028 69 10000 1.03 0 16:55 24.01.2022
2971 Clear 13 1028 68 10000 1.54 180 16:19 24.01.2022
2972 Clear 13 1028 65 10000 2.57 180 14:43 24.01.2022
2973 Clear 13 1028 63 10000 2.06 200 13:26 24.01.2022
2974 Clear 13 1028 58 10000 3.6 320 12:30 24.01.2022
2975 Clear 10 1028 64 10000 6.69 330 10:46 24.01.2022
2976 Clear 8 1028 68 10000 5.66 330 09:48 24.01.2022
2977 Clear 7 1028 76 10000 6.69 330 08:54 24.01.2022
2978 Clear 7 1028 79 10000 6.17 330 06:41 24.01.2022
2979 Clear 8 1028 81 10000 5.14 330 01:31 24.01.2022
2980 Clear 7 1028 81 10000 5.14 330 00:45 24.01.2022
2981 Clear 7 1028 84 10000 4.63 330 00:26 24.01.2022
2982 Clear 7 1028 84 10000 4.12 330 22:43 23.01.2022
2983 Clear 8 1028 83 10000 3.6 330 21:50 23.01.2022
2984 Clear 7 1028 84 10000 4.12 330 21:26 23.01.2022
2985 Clouds 8 1028 84 10000 4.12 330 20:48 23.01.2022
2986 Clear 8 1028 84 10000 4.12 320 19:55 23.01.2022
2987 Clear 9 1028 88 10000 0.51 280 18:52 23.01.2022
2988 Clouds 10 1027 77 10000 1.03 190 17:52 23.01.2022
2989 Clouds 12 1027 73 10000 2.06 180 16:48 23.01.2022
2990 Clouds 13 1027 70 10000 2.06 180 15:18 23.01.2022
2991 Clouds 13 1028 69 10000 2.57 180 14:33 23.01.2022
2992 Clear 13 1028 69 10000 3.09 160 13:27 23.01.2022
2993 Clear 13 1029 65 10000 3.6 80 12:36 23.01.2022
2994 Clear 12 1029 63 10000 2.06 340 12:18 23.01.2022
2995 Clear 11 1029 63 10000 4.12 330 11:24 23.01.2022
2996 Clear 10 1029 61 10000 4.12 330 10:57 23.01.2022
2997 Clear 9 1028 64 10000 5.14 330 10:23 23.01.2022
2998 Clear 8 1028 69 10000 5.66 330 09:25 23.01.2022
2999 Clear 7 1026 67 10000 5.14 330 05:59 23.01.2022
3000 Clear 8 1026 65 10000 4.12 330 03:20 23.01.2022
3001 Clear 8 1026 69 10000 4.12 330 01:36 23.01.2022
3002 Clear 8 1026 68 10000 4.63 320 00:42 23.01.2022
3003 Clear 8 1026 69 10000 3.09 340 23:58 22.01.2022
3004 Clear 7 1026 74 10000 5.14 320 22:48 22.01.2022
3005 Clear 8 1026 74 10000 5.14 320 22:19 22.01.2022
3006 Clear 8 1026 77 10000 5.14 330 20:29 22.01.2022
3007 Clear 8 1026 79 10000 4.63 320 19:41 22.01.2022
3008 Clear 10 1026 76 10000 3.6 230 18:37 22.01.2022
3009 Clear 10 1026 76 10000 3.6 230 18:37 22.01.2022
3010 Clear 10 1025 73 10000 1.21 244 17:45 22.01.2022
3011 Clear 11 1025 67 10000 2.06 220 17:19 22.01.2022
3012 Clear 12 1025 65 10000 3.09 200 16:54 22.01.2022
3013 Clear 13 1025 61 10000 2.57 200 15:45 22.01.2022
3014 Clear 13 1025 59 10000 2.57 170 14:52 22.01.2022
3015 Clear 13 1026 56 10000 1.03 0 13:30 22.01.2022
3016 Clear 12 1026 55 10000 3.6 330 12:37 22.01.2022
3017 Clear 12 1026 55 10000 3.6 330 12:19 22.01.2022
3018 Clear 10 1026 62 10000 5.14 330 10:54 22.01.2022
3019 Clear 9 1026 63 10000 5.14 340 10:23 22.01.2022
3020 Clear 6 1026 70 10000 5.14 340 08:59 22.01.2022
3021 Clear 6 1026 70 10000 4.63 340 08:39 22.01.2022
3022 Clear 6 1025 70 10000 4.12 350 06:46 22.01.2022
3023 Clear 7 1025 68 10000 2.54 348 02:40 22.01.2022
3024 Clear 7 1024 66 10000 5.14 330 23:52 21.01.2022
3025 Clear 7 1024 68 10000 4.63 340 23:21 21.01.2022
3026 Clear 7 1024 72 10000 4.63 330 21:45 21.01.2022
3027 Clear 9 1022 68 10000 2.57 280 19:48 21.01.2022
3028 Clear 10 1021 65 10000 1.3 240 17:53 21.01.2022
3029 Clear 13 1021 56 10000 5.66 210 16:54 21.01.2022
3030 Clear 13 1020 57 10000 6.17 210 15:24 21.01.2022
3031 Clear 13 1022 38 10000 2.57 320 12:51 21.01.2022
3032 Clear 11 1021 52 10000 5.14 330 11:42 21.01.2022
3033 Clear 10 1021 57 10000 6.17 330 11:23 21.01.2022
3034 Clear 7 1019 67 10000 6.17 330 09:26 21.01.2022
3035 Clear 6 1019 69 10000 4.63 340 08:21 21.01.2022
3036 Clear 6 1017 75 10000 4.63 330 04:37 21.01.2022
3037 Clear 7 1018 79 10000 4.12 330 22:53 20.01.2022
3038 Clear 7 1017 81 10000 4.12 330 21:49 20.01.2022
3039 Clear 7 1017 80 10000 3.6 340 21:31 20.01.2022
3040 Clear 8 1017 81 10000 3.09 330 20:21 20.01.2022
3041 Clear 9 1017 82 10000 0.85 20 19:19 20.01.2022
3042 Clear 10 1017 79 10000 1.05 155 17:46 20.01.2022
3043 Clear 12 1017 69 10000 2.57 200 16:40 20.01.2022
3044 Clear 13 1018 67 10000 2.57 180 15:40 20.01.2022
3045 Clear 13 1019 63 10000 1.54 180 14:40 20.01.2022
3046 Clear 13 1019 61 10000 2.57 130 13:32 20.01.2022
3047 Clear 13 1020 56 10000 4.12 330 12:31 20.01.2022
3048 Clouds 11 1020 61 10000 5.14 330 11:36 20.01.2022
3049 Clear 9 1020 66 10000 5.14 340 10:38 20.01.2022
3050 Clouds 8 1020 72 10000 6.17 330 09:34 20.01.2022
3051 Clear 6 1019 75 10000 5.66 330 07:33 20.01.2022
3052 Clear 7 1021 84 10000 4.12 300 00:44 20.01.2022
3053 Clouds 8 1022 85 10000 2.57 330 22:54 19.01.2022
3054 Clouds 9 1023 87 10000 2.06 320 21:48 19.01.2022
3055 Clouds 10 1023 85 10000 2.06 320 21:23 19.01.2022
3056 Clouds 9 1024 87 10000 2.57 310 20:46 19.01.2022
3057 Clouds 10 1024 84 10000 2.57 280 19:42 19.01.2022
3058 Clouds 11 1025 81 10000 4.12 220 18:18 19.01.2022
3059 Clouds 12 1025 76 10000 2.57 190 17:44 19.01.2022
3060 Clouds 12 1026 74 10000 3.09 190 16:47 19.01.2022
3061 Clouds 13 1027 68 10000 2.06 130 14:42 19.01.2022
3062 Clouds 13 1029 59 10000 3.6 320 12:42 19.01.2022
3063 Clear 12 1030 71 10000 1.07 150 11:41 19.01.2022
3064 Clear 10 1030 70 10000 5.66 340 10:23 19.01.2022
3065 Clouds 8 1030 76 10000 5.66 340 09:34 19.01.2022
3066 Clouds 7 1030 78 10000 6.69 330 06:45 19.01.2022
3067 Clouds 8 1031 80 10000 5.66 330 02:38 19.01.2022
3068 Clouds 8 1032 80 10000 4.63 330 23:19 18.01.2022
3069 Clouds 9 1032 81 10000 4.12 330 22:19 18.01.2022
3070 Clouds 9 1031 85 10000 4.63 320 20:59 18.01.2022
3071 Clear 9 1031 83 10000 4.12 320 19:55 18.01.2022
3072 Clouds 9 1031 83 10000 3.09 320 19:36 18.01.2022
3073 Clouds 10 1031 81 10000 1.54 330 18:51 18.01.2022
3074 Clouds 11 1030 79 10000 1.03 0 17:58 18.01.2022
3075 Clouds 12 1030 73 10000 1.03 0 16:58 18.01.2022
3076 Clouds 13 1030 73 10000 1.54 0 15:47 18.01.2022
3077 Clouds 13 1030 71 10000 2.06 160 15:22 18.01.2022
3078 Clouds 14 1030 69 10000 2.57 90 12:49 18.01.2022
3079 Clear 12 1030 79 10000 1.21 60 10:47 18.01.2022
3080 Clouds 9 1029 69 10000 7.2 330 09:21 18.01.2022
3081 Clouds 8 1028 67 10000 6.17 330 07:55 18.01.2022
3082 Clear 8 1026 68 10000 5.14 330 02:35 18.01.2022
3083 Clear 8 1025 68 10000 4.63 330 23:47 17.01.2022
3084 Clear 9 1025 71 10000 5.66 330 22:27 17.01.2022
3085 Clear 8 1025 75 10000 5.14 330 21:35 17.01.2022
3086 Clear 9 1025 76 10000 4.12 330 20:27 17.01.2022
3087 Clear 10 1025 80 10000 3.09 230 18:31 17.01.2022
3088 Clear 12 1025 77 10000 2.06 230 17:44 17.01.2022
3089 Clear 13 1025 76 10000 2.57 200 16:44 17.01.2022
3090 Clear 14 1025 66 10000 3.6 200 15:23 17.01.2022
3091 Clear 14 1025 72 10000 3.09 190 14:57 17.01.2022
3092 Clear 14 1027 53 10000 2.06 320 13:27 17.01.2022
3093 Clear 14 1027 55 10000 3.6 320 12:56 17.01.2022
3094 Clear 12 1027 58 10000 4.63 330 11:49 17.01.2022
3095 Clear 9 1027 64 10000 6.17 330 10:25 17.01.2022
3096 Clear 9 1027 64 10000 6.17 330 10:25 17.01.2022
3097 Clear 9 1027 63 10000 5.66 340 09:35 17.01.2022
3098 Clear 7 1025 70 10000 4.63 340 07:43 17.01.2022
3099 Clear 7 1025 71 10000 6.69 330 07:18 17.01.2022
3100 Clear 8 1025 81 10000 5.66 330 00:56 17.01.2022
3101 Clear 8 1024 82 10000 4.63 330 22:30 16.01.2022
3102 Clear 8 1023 80 10000 4.12 330 20:38 16.01.2022
3103 Clear 8 1023 78 10000 3.09 10 18:53 16.01.2022
3104 Clear 9 1022 70 10000 2.06 70 17:59 16.01.2022
3105 Clear 11 1022 66 10000 1.54 90 17:25 16.01.2022
3106 Clear 12 1022 63 10000 1.03 0 16:45 16.01.2022
3107 Clear 13 1023 63 10000 1.54 190 14:50 16.01.2022
3108 Clear 13 1023 68 10000 2.57 180 14:27 16.01.2022
3109 Clear 13 1024 69 10000 1.54 0 12:49 16.01.2022
3110 Clouds 11 1024 66 10000 4.12 320 11:47 16.01.2022
3111 Clouds 10 1025 69 10000 5.66 330 10:55 16.01.2022
3112 Clouds 9 1024 73 10000 5.66 330 10:26 16.01.2022
3113 Clouds 9 1024 76 10000 6.17 330 09:54 16.01.2022
3114 Clouds 8 1024 77 10000 5.66 340 09:22 16.01.2022
3115 Clouds 8 1024 78 10000 6.69 330 08:38 16.01.2022
3116 Clouds 8 1024 79 10000 5.66 330 03:21 16.01.2022
3117 Clouds 9 1024 82 10000 5.14 330 23:50 15.01.2022
3118 Clouds 10 1024 81 10000 4.12 330 22:19 15.01.2022
3119 Clouds 11 1025 79 10000 3.6 330 21:19 15.01.2022
3120 Clouds 11 1024 81 10000 2.57 330 20:40 15.01.2022
3121 Clouds 12 1023 79 10000 2.06 90 19:30 15.01.2022
3122 Clouds 12 1023 81 10000 2.57 100 18:47 15.01.2022
3123 Clouds 12 1023 81 10000 2.57 110 17:30 15.01.2022
3124 Clouds 14 1023 75 10000 2.57 110 15:59 15.01.2022
3125 Clouds 15 1023 82 10000 2.57 120 13:56 15.01.2022
3126 Clouds 14 1024 56 10000 2.57 320 12:20 15.01.2022
3127 Clear 11 1025 57 10000 5.14 330 10:43 15.01.2022
3128 Clear 8 1024 60 10000 5.14 330 08:32 15.01.2022
3129 Clear 9 1026 57 10000 4.12 340 00:35 15.01.2022
3130 Clear 9 1026 71 10000 3.09 340 21:52 14.01.2022
3131 Clear 10 1027 54 10000 5.14 330 20:41 14.01.2022
3132 Clear 10 1027 50 10000 5.14 330 20:21 14.01.2022
3133 Clear 10 1027 53 10000 4.12 320 18:49 14.01.2022
3134 Clear 11 1027 63 10000 2.06 250 18:20 14.01.2022
3135 Clear 13 1028 52 10000 2.57 230 16:50 14.01.2022
3136 Clear 14 1028 47 10000 3.09 230 15:48 14.01.2022
3137 Clear 15 1029 48 10000 2.57 220 14:42 14.01.2022
3138 Clear 14 1030 50 10000 2.57 200 13:36 14.01.2022
3139 Clear 13 1031 38 10000 3.6 310 12:29 14.01.2022
3140 Clear 9 1032 34 10000 6.69 320 10:57 14.01.2022
3141 Clear 8 1031 38 10000 7.2 320 09:44 14.01.2022
3142 Clear 7 1032 45 10000 6.69 330 08:44 14.01.2022
3143 Clear 7 1032 52 10000 7.2 330 06:45 14.01.2022
3144 Clear 8 1033 44 10000 6.69 330 01:20 14.01.2022
3145 Clear 7 1034 50 10000 0.45 211 23:19 13.01.2022
3146 Clear 8 1034 54 10000 6.69 330 21:38 13.01.2022
3147 Clear 8 1034 54 10000 0.89 242 21:19 13.01.2022
3148 Clear 8 1033 57 10000 5.66 320 19:40 13.01.2022
3149 Clear 8 1033 60 10000 5.14 320 19:22 13.01.2022
3150 Clear 10 1033 53 10000 0 0 17:52 13.01.2022
3151 Clear 13 1033 47 10000 1.54 0 16:21 13.01.2022
3152 Clear 13 1033 46 10000 2.57 140 15:37 13.01.2022
3153 Clear 14 1032 42 10000 1.54 0 14:47 13.01.2022
3154 Clear 13 1033 39 10000 3.6 320 12:45 13.01.2022
3155 Clear 8 1033 39 10000 6.69 330 10:25 13.01.2022
3156 Clear 7 1032 41 10000 7.2 330 09:20 13.01.2022
3157 Clear 6 1032 39 10000 7.72 330 08:27 13.01.2022
3158 Clear 6 1031 37 10000 7.2 330 07:24 13.01.2022
3159 Clear 6 1031 37 10000 7.72 330 05:59 13.01.2022
3160 Clear 6 1031 42 10000 8.23 330 05:19 13.01.2022
3161 Clear 7 1030 43 10000 7.2 330 02:33 13.01.2022
3162 Clear 8 1030 43 10000 5.66 340 00:56 13.01.2022
3163 Clear 8 1030 44 10000 6.69 330 23:49 12.01.2022
3164 Clear 8 1029 40 10000 5.14 340 23:24 12.01.2022
3165 Clear 8 1029 43 10000 5.14 340 21:58 12.01.2022
3166 Clear 8 1028 44 10000 5.14 340 21:23 12.01.2022
3167 Clear 8 1028 40 10000 5.14 340 20:57 12.01.2022
3168 Clear 9 1028 43 10000 4.63 330 19:57 12.01.2022
3169 Clear 10 1027 46 10000 4.12 330 18:43 12.01.2022
3170 Clear 10 1027 50 10000 2.06 280 17:50 12.01.2022
3171 Clear 13 1026 40 10000 2.57 210 16:39 12.01.2022
3172 Clear 14 1026 47 10000 3.09 210 14:49 12.01.2022
3173 Clear 14 1027 36 10000 3.09 320 13:34 12.01.2022
3174 Clear 12 1027 36 10000 4.63 320 12:35 12.01.2022
3175 Clear 6 1026 45 10000 8.23 330 08:50 12.01.2022
3176 Clear 5 1025 48 10000 6.69 330 07:52 12.01.2022
3177 Clear 5 1025 46 10000 8.23 330 07:32 12.01.2022
3178 Clear 7 1023 42 10000 4.63 340 01:26 12.01.2022
3179 Clear 8 1022 36 10000 5.66 340 23:25 11.01.2022
3180 Clear 8 1022 39 10000 5.66 340 22:24 11.01.2022
3181 Clear 8 1021 42 10000 4.63 330 21:28 11.01.2022
3182 Clear 8 1021 44 10000 5.14 340 20:35 11.01.2022
3183 Clear 8 1021 45 10000 4.63 330 19:23 11.01.2022
3184 Clear 12 1020 39 10000 4.63 230 17:46 11.01.2022
3185 Clear 14 1019 37 10000 4.12 220 16:39 11.01.2022
3186 Clear 14 1019 51 10000 0.45 222 16:18 11.01.2022
3187 Clear 14 1019 30 10000 2.57 250 14:48 11.01.2022
3188 Clear 15 1019 26 10000 2.06 310 14:30 11.01.2022
3189 Clear 14 1019 28 10000 4.63 330 13:46 11.01.2022
3190 Clear 14 1019 29 10000 4.63 330 13:25 11.01.2022
3191 Clear 14 1019 36 10000 0.1 261 12:25 11.01.2022
3192 Clear 9 1019 30 10000 7.72 330 10:31 11.01.2022
3193 Clear 7 1018 32 10000 4.63 340 07:50 11.01.2022
3194 Clear 6 1017 33 10000 5.66 340 03:51 11.01.2022
3195 Clear 7 1016 37 10000 7.2 330 00:27 11.01.2022
3196 Clear 6 1015 44 10000 5.66 340 23:39 10.01.2022
3197 Clear 7 1015 51 10000 5.14 330 22:20 10.01.2022
3198 Clear 7 1015 54 10000 5.14 330 21:57 10.01.2022
3199 Clear 7 1015 57 10000 4.12 340 21:33 10.01.2022
3200 Clear 7 1014 54 10000 5.14 330 20:59 10.01.2022
3201 Clear 7 1014 55 10000 4.63 330 20:41 10.01.2022
3202 Clear 7 1014 57 10000 4.63 330 20:19 10.01.2022
3203 Clouds 8 1013 63 10000 3.09 350 19:38 10.01.2022
3204 Clouds 8 1013 64 10000 3.09 350 19:19 10.01.2022
3205 Clouds 8 1012 66 10000 4.63 320 18:46 10.01.2022
3206 Clouds 12 1011 52 10000 3.09 230 16:48 10.01.2022
3207 Clouds 12 1010 51 10000 3.09 230 16:27 10.01.2022
3208 Clouds 12 1009 54 10000 3.6 220 14:44 10.01.2022
3209 Clouds 12 1009 58 10000 2.12 241 13:35 10.01.2022
3210 Clouds 11 1009 51 10000 5.14 330 11:56 10.01.2022
3211 Clouds 10 1008 50 10000 5.66 330 10:49 10.01.2022
3212 Clouds 8 1007 55 10000 6.69 330 09:40 10.01.2022
3213 Clear 7 1005 53 10000 6.69 330 05:52 10.01.2022
3214 Clear 8 1004 44 10000 3.6 350 02:38 10.01.2022
3215 Clear 8 1004 44 10000 4.12 330 01:21 10.01.2022
3216 Clear 9 1004 41 10000 2.57 280 00:21 10.01.2022
3217 Clear 9 1004 39 10000 2.57 250 22:48 09.01.2022
3218 Clear 9 1003 40 10000 2.57 340 22:21 09.01.2022
3219 Clear 10 1003 39 10000 0.45 39 21:42 09.01.2022
3220 Clear 10 1003 36 10000 0.89 110 21:22 09.01.2022
3221 Clear 10 1003 37 10000 0.45 271 20:47 09.01.2022
3222 Clear 10 1003 38 10000 0.89 300 20:29 09.01.2022
3223 Clear 10 1003 37 10000 1.34 217 19:42 09.01.2022
3224 Clear 10 1003 38 10000 0.45 315 19:21 09.01.2022
3225 Clear 11 1003 39 10000 0.89 298 18:49 09.01.2022
3226 Clear 11 1002 41 10000 0.89 250 18:30 09.01.2022
3227 Clear 11 1002 38 10000 1.34 294 17:30 09.01.2022
3228 Clear 12 1002 35 10000 9.26 280 16:51 09.01.2022
3229 Clear 13 1001 35 10000 0.45 227 15:56 09.01.2022
3230 Clear 14 1001 33 10000 0.45 227 15:34 09.01.2022
3231 Clear 14 1002 28 10000 1.34 262 14:40 09.01.2022
3232 Clear 14 1002 29 10000 0.45 226 13:50 09.01.2022
3233 Clear 13 1003 31 10000 1.34 207 12:44 09.01.2022
3234 Clear 13 1003 29 10000 1.34 246 11:48 09.01.2022
3235 Clear 11 1003 38 10000 2.06 60 09:59 09.01.2022
3236 Clear 11 1002 40 10000 2.06 60 09:41 09.01.2022
3237 Clear 8 1002 62 10000 3.09 290 08:31 09.01.2022
3238 Clouds 8 1005 69 10000 3.6 330 02:48 09.01.2022
3239 Clouds 8 1007 73 10000 3.6 330 01:21 09.01.2022
3240 Clouds 8 1009 83 10000 2.06 20 23:38 08.01.2022
3241 Clear 9 1009 77 10000 4.63 330 22:59 08.01.2022
3242 Clear 8 1010 81 10000 4.12 320 21:33 08.01.2022
3243 Clear 9 1010 81 10000 3.6 330 20:58 08.01.2022
3244 Clear 9 1010 81 10000 3.09 340 20:39 08.01.2022
3245 Clear 8 1010 81 10000 3.09 340 20:19 08.01.2022
3246 Clear 9 1011 78 10000 0 0 18:21 08.01.2022
3247 Clouds 10 1012 74 10000 1.03 0 17:22 08.01.2022
3248 Clouds 12 1012 70 10000 3.09 120 15:51 08.01.2022
3249 Clear 13 1012 66 10000 3.09 90 14:43 08.01.2022
3250 Clear 13 1012 62 10000 2.57 100 13:25 08.01.2022
3251 Clear 10 1013 61 10000 0.51 0 11:25 08.01.2022
3252 Clear 8 1013 60 10000 2.57 330 10:25 08.01.2022
3253 Clear 8 1013 62 10000 3.09 330 09:47 08.01.2022
3254 Clear 7 1012 61 10000 1.03 0 07:50 08.01.2022
3255 Clear 6 1015 70 10000 6.69 330 02:50 08.01.2022
3256 Clear 6 1015 68 10000 5.66 330 00:41 08.01.2022
3257 Clear 6 1014 61 10000 4.63 340 22:47 07.01.2022
3258 Clear 7 1013 59 10000 5.14 330 21:18 07.01.2022
3259 Clear 7 1013 59 10000 3.6 340 20:19 07.01.2022
3260 Clouds 8 1013 56 10000 3.6 330 19:23 07.01.2022
3261 Clouds 9 1014 52 10000 3.6 250 18:44 07.01.2022
3262 Clouds 11 1014 48 10000 5.66 230 17:28 07.01.2022
3263 Clouds 12 1014 48 10000 0.45 263 16:41 07.01.2022
3264 Clouds 13 1015 48 10000 2.57 280 14:29 07.01.2022
3265 Clear 12 1016 42 10000 2.06 320 13:41 07.01.2022
3266 Clear 11 1017 41 10000 4.63 330 12:49 07.01.2022
3267 Clear 6 1018 52 10000 5.14 330 09:46 07.01.2022
3268 Clear 6 1017 51 10000 5.66 340 02:57 07.01.2022
3269 Clear 6 1016 49 10000 7.72 330 01:56 07.01.2022
3270 Clear 6 1016 53 10000 6.17 330 01:28 07.01.2022
3271 Clear 7 1016 51 10000 5.66 340 00:59 07.01.2022
3272 Clear 7 1016 52 10000 5.14 330 00:28 07.01.2022
3273 Clear 7 1014 57 10000 5.14 330 21:39 06.01.2022
3274 Clear 8 1014 59 10000 4.63 330 20:36 06.01.2022
3275 Clear 8 1013 58 10000 4.12 330 19:54 06.01.2022
3276 Clear 8 1013 58 10000 3.6 330 19:28 06.01.2022
3277 Clear 10 1012 59 10000 4.12 300 17:51 06.01.2022
3278 Clear 11 1012 54 10000 3.6 290 17:19 06.01.2022
3279 Clear 12 1011 46 10000 4.12 280 16:21 06.01.2022
3280 Clear 14 1010 40 10000 1.54 220 15:40 06.01.2022
3281 Clear 14 1010 40 10000 1.54 220 15:19 06.01.2022
3282 Clear 13 1009 43 10000 2.57 260 14:19 06.01.2022
3283 Clouds 11 1009 47 10000 3.6 330 12:59 06.01.2022
3284 Clouds 10 1010 55 10000 5.14 330 11:58 06.01.2022
3285 Clouds 10 1009 56 10000 4.63 330 11:29 06.01.2022
3286 Clear 7 1008 64 10000 4.12 340 09:33 06.01.2022
3287 Rain 8 1003 90 10000 4.12 340 01:57 06.01.2022
3288 Clouds 9 1001 82 10000 5.14 330 23:56 05.01.2022
3289 Clouds 9 1000 85 10000 6.69 330 23:21 05.01.2022
3290 Rain 9 1000 86 10000 6.17 310 22:41 05.01.2022
3291 Rain 9 1000 85 10000 5.14 330 22:18 05.01.2022
3292 Rain 10 1000 87 5000 2.57 360 21:23 05.01.2022
3293 Clouds 12 999 75 10000 6.69 120 20:30 05.01.2022
3294 Clouds 12 998 78 10000 10.29 110 19:29 05.01.2022
3295 Clouds 12 996 82 10000 6.65 96 18:20 05.01.2022
3296 Clouds 13 995 81 10000 2.57 60 16:56 05.01.2022
3297 Clouds 14 995 82 10000 1.03 0 16:18 05.01.2022
3298 Clouds 14 996 83 10000 2.57 150 14:56 05.01.2022
3299 Clouds 15 997 81 10000 2.06 110 13:34 05.01.2022
3300 Clouds 14 998 77 10000 1.03 0 12:20 05.01.2022
3301 Clouds 11 1000 78 10000 4.63 330 08:35 05.01.2022
3302 Clouds 12 1000 77 10000 4.12 330 06:46 05.01.2022
3303 Clouds 12 1005 81 10000 2.06 340 01:46 05.01.2022
3304 Clouds 12 1006 86 10000 4.12 320 23:43 04.01.2022
3305 Clouds 12 1006 86 10000 4.12 320 23:21 04.01.2022
3306 Clouds 12 1007 83 10000 2.57 330 21:41 04.01.2022
3307 Clouds 12 1007 82 10000 3.09 330 20:42 04.01.2022
3308 Clouds 12 1008 83 10000 1.54 330 18:41 04.01.2022
3309 Clouds 12 1008 81 10000 2.06 330 17:33 04.01.2022
3310 Clouds 13 1008 83 10000 1.54 320 16:38 04.01.2022
3311 Clouds 13 1009 81 10000 2.06 330 15:25 04.01.2022
3312 Clouds 12 1010 83 10000 2.06 340 14:38 04.01.2022
3313 Clouds 12 1010 81 10000 1.54 330 13:57 04.01.2022
3314 Clouds 12 1011 80 10000 3.09 320 12:24 04.01.2022
3315 Clouds 10 1012 86 10000 0.89 224 10:24 04.01.2022
3316 Clouds 8 1012 87 10000 5.66 330 08:57 04.01.2022
3317 Clear 9 1012 86 10000 5.66 330 06:46 04.01.2022
3318 Clouds 10 1015 87 10000 4.12 340 00:44 04.01.2022
3319 Clouds 10 1015 88 10000 5.66 330 23:56 03.01.2022
3320 Clouds 10 1016 85 10000 5.14 330 22:28 03.01.2022
3321 Clouds 10 1016 84 10000 5.14 320 21:41 03.01.2022
3322 Clouds 10 1016 86 10000 3.09 340 20:42 03.01.2022
3323 Clouds 10 1016 84 10000 4.63 320 19:44 03.01.2022
3324 Clouds 11 1016 84 10000 3.6 60 18:32 03.01.2022
3325 Clouds 12 1016 84 10000 4.63 80 17:34 03.01.2022
3326 Clouds 13 1016 84 10000 3.6 90 16:56 03.01.2022
3327 Clouds 14 1016 77 10000 1.54 100 14:54 03.01.2022
3328 Clouds 14 1018 76 10000 1.03 310 13:25 03.01.2022
3329 Clouds 14 1019 74 10000 4.12 320 12:33 03.01.2022
3330 Clear 12 1020 78 10000 4.63 330 11:31 03.01.2022
3331 Clouds 10 1020 85 10000 6.69 330 09:42 03.01.2022
3332 Clouds 9 1020 87 10000 4.63 340 08:28 03.01.2022
3333 Clouds 9 1020 85 10000 5.14 330 06:47 03.01.2022
3334 Clouds 9 1023 85 10000 4.63 330 23:47 02.01.2022
3335 Clouds 9 1023 88 10000 4.63 330 23:18 02.01.2022
3336 Clouds 9 1023 88 10000 4.63 330 22:42 02.01.2022
3337 Clouds 10 1023 84 10000 4.12 330 21:32 02.01.2022
3338 Clouds 9 1023 87 10000 3.6 330 20:31 02.01.2022
3339 Clouds 10 1023 85 10000 4.12 320 19:52 02.01.2022
3340 Clouds 10 1023 84 10000 2.57 320 19:25 02.01.2022
3341 Clouds 11 1023 84 10000 1.54 310 18:33 02.01.2022
3342 Clouds 11 1024 84 10000 1.54 310 17:43 02.01.2022
3343 Clouds 12 1024 79 10000 2.06 330 17:21 02.01.2022
3344 Clouds 12 1024 77 10000 2.06 250 16:33 02.01.2022
3345 Clouds 13 1024 78 10000 3.09 240 15:51 02.01.2022
3346 Clouds 12 1025 75 10000 2.57 320 13:58 02.01.2022
3347 Clouds 12 1026 77 10000 4.12 330 12:34 02.01.2022
3348 Clouds 12 1026 77 10000 4.63 320 11:56 02.01.2022
3349 Clouds 12 1026 81 10000 0.08 33 10:59 02.01.2022
3350 Clouds 12 1026 78 10000 5.14 330 10:26 02.01.2022
3351 Clouds 10 1027 79 10000 5.14 330 08:27 02.01.2022
3352 Clouds 11 1028 82 10000 3.6 330 03:22 02.01.2022
3353 Clouds 12 1027 82 10000 3.6 330 23:56 01.01.2022
3354 Clouds 12 1027 84 10000 3.09 330 23:36 01.01.2022
3355 Clouds 12 1027 83 10000 3.09 330 22:44 01.01.2022
3356 Clouds 12 1027 80 10000 3.09 330 22:18 01.01.2022
3357 Clouds 12 1027 80 10000 3.09 320 21:43 01.01.2022
3358 Clouds 12 1026 83 10000 2.57 320 20:52 01.01.2022
3359 Clouds 12 1026 80 10000 0.51 0 19:55 01.01.2022
3360 Clouds 12 1026 80 10000 1.54 340 18:58 01.01.2022
3361 Clouds 13 1026 80 10000 1.03 330 17:56 01.01.2022
3362 Clouds 13 1025 76 10000 1.03 330 16:35 01.01.2022
3363 Clouds 13 1025 77 10000 0 0 15:57 01.01.2022
3364 Clouds 13 1025 76 10000 1.54 330 14:57 01.01.2022
3365 Clouds 13 1026 76 10000 1.54 330 13:42 01.01.2022
3366 Clouds 13 1026 73 10000 3.6 330 12:49 01.01.2022
3367 Clouds 12 1026 78 10000 4.12 330 11:47 01.01.2022
3368 Clouds 12 1027 76 10000 5.14 330 11:21 01.01.2022
3369 Clouds 11 1026 80 10000 5.14 330 10:26 01.01.2022
3370 Clouds 11 1026 80 10000 5.66 330 09:41 01.01.2022
3371 Clouds 9 1027 76 10000 4.63 330 08:25 01.01.2022
3372 Clouds 10 1025 81 10000 3.6 350 07:43 01.01.2022
3373 Clouds 10 1025 84 10000 4.12 330 06:46 01.01.2022
3374 Clouds 11 1025 83 10000 4.63 330 05:26 01.01.2022
3375 Clouds 10 1026 81 10000 4.63 330 04:37 01.01.2022
3376 Clouds 11 1025 81 10000 3.6 330 01:28 01.01.2022
3377 Clouds 12 1026 81 10000 1.54 340 23:35 31.12.2021
3378 Clouds 12 1026 84 10000 2.57 340 21:53 31.12.2021
3379 Clouds 12 1026 84 10000 2.57 340 20:37 31.12.2021
3380 Clouds 12 1025 87 10000 2.57 340 19:30 31.12.2021
3381 Clouds 12 1026 94 10000 2.57 330 18:35 31.12.2021
3382 Clouds 13 1025 84 10000 2.06 320 17:38 31.12.2021
3383 Clouds 13 1025 84 10000 2.06 320 17:18 31.12.2021
3384 Clouds 13 1025 84 10000 0.51 0 16:25 31.12.2021
3385 Clouds 13 1024 84 10000 1.03 0 15:57 31.12.2021
3386 Clouds 13 1025 94 10000 1.03 90 15:28 31.12.2021
3387 Clouds 13 1025 87 10000 1.03 0 14:56 31.12.2021
3388 Clouds 13 1025 87 10000 2.06 150 14:30 31.12.2021
3389 Clouds 15 1026 94 10000 0.51 0 13:36 31.12.2021
3390 Clouds 14 1026 100 10000 0 0 12:45 31.12.2021
3391 Clouds 13 1026 100 10000 0 0 11:51 31.12.2021
3392 Fog 13 1026 100 500 1.03 210 11:30 31.12.2021
3393 Fog 10 1026 100 350 1.03 0 10:38 31.12.2021
3394 Fog 10 1026 100 350 1.03 0 10:20 31.12.2021
3395 Fog 9 1025 100 350 2.06 280 09:33 31.12.2021
3396 Fog 9 1025 100 500 2.57 260 08:43 31.12.2021
3397 Fog 8 1024 100 10000 3.09 260 07:31 31.12.2021
3398 Clear 12 1022 84 10000 1.03 290 23:35 30.12.2021
3399 Clear 12 1022 84 10000 2.57 30 22:38 30.12.2021
3400 Clear 13 1022 84 10000 2.57 30 22:20 30.12.2021
3401 Clear 12 1022 84 10000 1.03 0 21:37 30.12.2021
3402 Clear 12 1021 84 10000 2.06 320 20:48 30.12.2021
3403 Clear 13 1021 82 10000 2.57 330 20:28 30.12.2021
3404 Clouds 13 1021 81 10000 2.57 320 19:48 30.12.2021
3405 Clouds 13 1021 85 10000 3.09 330 19:18 30.12.2021
3406 Clouds 14 1020 86 10000 0.51 60 18:21 30.12.2021
3407 Clouds 15 1020 86 10000 1.54 150 16:37 30.12.2021
3408 Clear 16 1019 84 10000 2.57 120 15:53 30.12.2021
3409 Clear 17 1018 81 10000 4.63 110 14:49 30.12.2021
3410 Clear 17 1018 81 10000 3.09 100 14:30 30.12.2021
3411 Clear 16 1018 81 10000 1.54 100 13:24 30.12.2021
3412 Clear 14 1018 78 10000 1.03 0 11:35 30.12.2021
3413 Clear 12 1017 80 10000 4.12 320 10:27 30.12.2021
3414 Clear 11 1016 84 10000 4.63 330 09:27 30.12.2021
3415 Clear 11 1015 83 10000 5.14 320 06:56 30.12.2021
3416 Clear 10 1015 93 10000 3.6 320 04:56 30.12.2021
3417 Clear 10 1014 93 10000 2.57 330 03:40 30.12.2021
3418 Clear 10 1013 81 10000 2.06 340 02:19 30.12.2021
3419 Clear 11 1012 82 10000 2.57 330 23:37 29.12.2021
3420 Clear 11 1012 86 10000 3.09 330 22:35 29.12.2021
3421 Clouds 11 1012 82 10000 3.6 320 21:55 29.12.2021
3422 Clouds 11 1012 85 10000 2.57 300 20:57 29.12.2021
3423 Clear 11 1011 82 10000 1.54 20 20:29 29.12.2021
3424 Clear 12 1010 83 10000 2.06 340 19:31 29.12.2021
3425 Clear 12 1010 82 10000 2.06 20 18:36 29.12.2021
3426 Clear 13 1010 83 10000 3.6 70 17:49 29.12.2021
3427 Clear 13 1010 84 10000 4.63 70 17:26 29.12.2021
3428 Clear 15 1009 81 10000 4.63 100 16:21 29.12.2021
3429 Clear 16 1008 80 10000 4.12 110 15:21 29.12.2021
3430 Clear 15 1009 78 10000 1.03 0 12:57 29.12.2021
3431 Clear 15 1009 76 10000 1.03 0 12:35 29.12.2021
3432 Clear 13 1009 78 10000 3.09 330 11:23 29.12.2021
3433 Clear 10 1009 84 10000 4.12 330 09:35 29.12.2021
3434 Clear 9 1008 86 10000 4.12 330 07:47 29.12.2021
3435 Clear 9 1008 85 10000 4.12 330 06:36 29.12.2021
3436 Clear 9 1007 85 10000 4.63 330 05:57 29.12.2021
3437 Clear 9 1007 85 10000 4.63 330 05:27 29.12.2021
3438 Clear 9 1006 87 10000 3.6 330 01:27 29.12.2021
3439 Clear 9 1006 83 10000 3.09 340 23:59 28.12.2021
3440 Clear 9 1005 84 10000 2.06 350 22:57 28.12.2021
3441 Clear 9 1005 88 10000 3.6 330 22:25 28.12.2021
3442 Clear 10 1006 85 10000 3.6 340 21:56 28.12.2021
3443 Clear 10 1006 85 10000 3.09 320 21:35 28.12.2021
3444 Clouds 10 1006 86 10000 2.57 330 20:32 28.12.2021
3445 Clouds 11 1006 84 10000 1.54 0 18:56 28.12.2021
3446 Clouds 11 1007 81 10000 0.51 0 18:28 28.12.2021
3447 Clouds 12 1006 81 10000 2.57 80 17:42 28.12.2021
3448 Clouds 13 1007 81 10000 1.54 0 16:25 28.12.2021
3449 Clouds 14 1006 78 10000 3.09 100 15:41 28.12.2021
3450 Clouds 14 1006 78 10000 3.09 100 15:19 28.12.2021
3451 Clouds 13 1006 80 10000 4.12 90 14:45 28.12.2021
3452 Clouds 13 1006 83 10000 5.66 80 14:20 28.12.2021
3453 Clouds 13 1006 81 10000 5.14 90 13:42 28.12.2021
3454 Clouds 13 1006 81 10000 4.12 80 13:24 28.12.2021
3455 Clouds 12 1007 81 10000 3.09 330 12:39 28.12.2021
3456 Clouds 11 1007 81 10000 2.57 340 11:27 28.12.2021
3457 Clouds 8 1006 84 10000 5.66 320 07:40 28.12.2021
3458 Rain 8 1007 81 10000 5.66 320 06:40 28.12.2021
3459 Clouds 9 1008 82 10000 4.12 340 23:42 27.12.2021
3460 Clouds 9 1007 84 10000 3.6 340 22:58 27.12.2021
3461 Clouds 9 1007 82 10000 3.09 330 21:33 27.12.2021
3462 Clouds 9 1007 83 10000 3.6 340 20:46 27.12.2021
3463 Clouds 9 1006 84 10000 4.12 330 19:58 27.12.2021
3464 Clouds 9 1006 83 10000 3.09 350 19:39 27.12.2021
3465 Clouds 10 1006 79 10000 4.63 320 18:23 27.12.2021
3466 Clouds 10 1005 78 10000 3.6 330 17:46 27.12.2021
3467 Rain 11 1004 79 10000 3.6 10 16:38 27.12.2021
3468 Rain 11 1005 78 10000 3.09 10 15:51 27.12.2021
3469 Rain 10 1005 85 10000 4.12 360 14:32 27.12.2021
3470 Rain 10 1006 83 6000 5.66 330 13:39 27.12.2021
3471 Rain 10 1006 85 10000 5.14 330 12:19 27.12.2021
3472 Clouds 10 1008 71 10000 4.63 330 10:31 27.12.2021
3473 Rain 9 1007 71 10000 5.14 340 09:47 27.12.2021
3474 Clouds 10 1006 80 10000 5.66 330 07:38 27.12.2021
3475 Clouds 10 1006 80 10000 5.66 330 07:20 27.12.2021
3476 Clouds 10 1007 80 10000 4.12 340 02:19 27.12.2021
3477 Clouds 9 1008 81 10000 4.12 330 23:58 26.12.2021
3478 Clouds 9 1008 87 10000 3.09 340 23:36 26.12.2021
3479 Clouds 11 1007 86 10000 4.12 330 22:23 26.12.2021
3480 Clouds 11 1006 86 10000 3.09 320 20:59 26.12.2021
3481 Clouds 12 1006 85 10000 2.57 350 19:47 26.12.2021
3482 Clouds 12 1006 84 10000 0.93 88 18:24 26.12.2021
3483 Clouds 13 1005 84 10000 5.14 90 16:55 26.12.2021
3484 Clouds 14 1005 84 10000 3.09 90 14:29 26.12.2021
3485 Clouds 14 1004 81 10000 0.51 0 13:40 26.12.2021
3486 Clouds 14 1004 79 10000 1.03 0 13:20 26.12.2021
3487 Clouds 13 1005 76 10000 3.6 330 12:33 26.12.2021
3488 Clouds 13 1005 76 10000 3.6 330 12:33 26.12.2021
3489 Clouds 11 1005 76 10000 4.12 330 10:42 26.12.2021
3490 Clouds 9 1006 76 10000 4.12 330 09:28 26.12.2021
3491 Clouds 9 1006 76 10000 4.12 330 08:44 26.12.2021
3492 Clouds 10 1005 77 10000 3.09 340 07:59 26.12.2021
3493 Clouds 11 1005 75 10000 3.6 330 01:30 26.12.2021
3494 Clouds 11 1005 78 10000 3.09 330 23:58 25.12.2021
3495 Clouds 11 1005 78 10000 3.09 340 23:27 25.12.2021
3496 Clouds 11 1005 78 10000 1.54 10 22:28 25.12.2021
3497 Clouds 11 1005 78 10000 4.12 340 21:18 25.12.2021
3498 Clouds 12 1005 78 10000 2.57 340 19:28 25.12.2021
3499 Clouds 12 1005 81 10000 3.09 90 18:57 25.12.2021
3500 Clouds 12 1005 81 10000 4.12 90 18:21 25.12.2021
3501 Clouds 13 1004 73 10000 2.06 340 16:42 25.12.2021
3502 Clouds 13 1004 75 10000 3.6 320 15:26 25.12.2021
3503 Clouds 11 1004 81 4000 5.66 340 13:43 25.12.2021
3504 Rain 12 1005 74 10000 0.78 346 11:54 25.12.2021
3505 Rain 12 1006 75 10000 1.62 343 10:32 25.12.2021
3506 Rain 12 1006 76 10000 2.3 359 09:48 25.12.2021
3507 Clouds 11 1008 71 10000 4.63 320 05:39 25.12.2021
3508 Clouds 11 1009 80 10000 4.63 330 01:31 25.12.2021
3509 Clouds 11 1009 82 6000 5.14 330 00:18 25.12.2021
3510 Clouds 11 1010 74 10000 4.12 330 21:46 24.12.2021
3511 Clouds 12 1011 76 10000 4.63 330 19:26 24.12.2021
3512 Clouds 12 1011 74 10000 4.12 320 18:34 24.12.2021
3513 Clouds 12 1011 72 10000 4.12 330 16:43 24.12.2021
3514 Clouds 12 1012 76 10000 3.09 320 15:50 24.12.2021
3515 Rain 13 1012 81 10000 2.57 310 15:20 24.12.2021
3516 Clouds 12 1012 74 10000 4.12 330 14:33 24.12.2021
3517 Clouds 13 1012 84 10000 2.96 250 13:50 24.12.2021
3518 Clouds 13 1013 84 10000 2.96 250 13:32 24.12.2021
3519 Clouds 12 1013 83 10000 3.35 251 12:39 24.12.2021
3520 Clouds 12 1014 65 10000 4.63 330 11:43 24.12.2021
3521 Clouds 12 1014 65 10000 0.45 226 11:24 24.12.2021
3522 Clouds 11 1015 65 10000 0.45 212 10:35 24.12.2021
3523 Clouds 11 1015 61 10000 0.45 219 08:48 24.12.2021
3524 Clouds 10 1015 62 10000 0.45 240 07:58 24.12.2021
3525 Clouds 10 1015 63 10000 6.17 330 07:31 24.12.2021
3526 Clouds 10 1017 56 10000 6.17 330 00:47 24.12.2021
3527 Clouds 9 1018 58 10000 6.69 330 23:50 23.12.2021
3528 Clouds 8 1019 53 10000 6.17 330 22:53 23.12.2021
3529 Clouds 8 1019 57 10000 5.66 330 22:24 23.12.2021
3530 Clouds 8 1019 57 10000 6.69 330 21:47 23.12.2021
3531 Clouds 9 1018 70 10000 3.6 340 20:31 23.12.2021
3532 Clouds 9 1018 70 10000 4.63 330 19:30 23.12.2021
3533 Clouds 9 1018 75 10000 4.63 320 18:28 23.12.2021
3534 Clouds 11 1018 78 10000 3.09 230 17:46 23.12.2021
3535 Clouds 12 1018 72 10000 4.12 220 16:27 23.12.2021
3536 Clouds 13 1018 71 10000 4.12 220 15:54 23.12.2021
3537 Clouds 13 1018 71 10000 0.51 0 15:30 23.12.2021
3538 Clouds 13 1018 67 10000 0 0 14:42 23.12.2021
3539 Clouds 12 1019 66 10000 2.06 320 13:49 23.12.2021
3540 Clouds 12 1020 67 10000 0.42 194 12:39 23.12.2021
3541 Clouds 8 1022 65 10000 5.66 340 10:36 23.12.2021
3542 Clouds 7 1021 69 10000 5.14 340 09:34 23.12.2021
3543 Clouds 6 1022 71 10000 5.14 340 08:58 23.12.2021
3544 Clear 7 1022 69 10000 6.17 330 06:23 23.12.2021
3545 Clear 6 1024 73 10000 5.66 340 03:28 23.12.2021
3546 Clouds 7 1023 75 10000 5.14 340 22:55 22.12.2021
3547 Clouds 7 1024 77 10000 4.63 340 22:23 22.12.2021
3548 Clouds 7 1024 77 10000 4.12 340 21:53 22.12.2021
3549 Clear 7 1024 76 10000 5.14 330 21:27 22.12.2021
3550 Clear 7 1024 80 10000 5.14 330 20:41 22.12.2021
3551 Clear 7 1024 77 10000 4.12 330 19:59 22.12.2021
3552 Clouds 7 1024 80 10000 4.12 330 19:19 22.12.2021
3553 Clear 9 1022 77 10000 2.87 80 17:39 22.12.2021
3554 Clouds 11 1022 65 10000 2.06 110 16:36 22.12.2021
3555 Clouds 13 1021 62 10000 2.06 150 15:36 22.12.2021
3556 Clouds 13 1022 59 10000 2.57 320 13:23 22.12.2021
3557 Clouds 12 1022 59 10000 4.12 330 12:31 22.12.2021
3558 Clouds 10 1022 65 10000 4.12 350 09:53 22.12.2021
3559 Clouds 10 1021 65 10000 4.12 340 09:33 22.12.2021
3560 Clouds 9 1020 69 10000 3.6 340 07:22 22.12.2021
3561 Clouds 9 1020 74 10000 4.63 330 05:41 22.12.2021
3562 Clouds 9 1020 73 10000 5.14 330 05:22 22.12.2021
3563 Clouds 9 1020 75 10000 5.14 330 04:45 22.12.2021
3564 Clouds 9 1020 75 10000 4.63 330 04:22 22.12.2021
3565 Clouds 10 1020 74 10000 4.63 330 03:32 22.12.2021
3566 Clouds 9 1020 75 10000 5.14 330 00:29 22.12.2021
3567 Clouds 9 1020 76 10000 4.12 340 22:51 21.12.2021
3568 Clouds 9 1020 76 10000 3.6 330 22:27 21.12.2021
3569 Clouds 9 1020 76 10000 3.6 340 21:43 21.12.2021
3570 Clouds 9 1020 76 10000 3.6 340 20:54 21.12.2021
3571 Clouds 9 1020 76 10000 4.63 330 20:20 21.12.2021
3572 Clouds 9 1020 72 10000 4.12 330 19:41 21.12.2021
3573 Clouds 10 1020 73 10000 4.12 330 18:43 21.12.2021
3574 Clouds 10 1020 73 10000 3.6 330 18:21 21.12.2021
3575 Clouds 10 1020 73 10000 4.12 330 17:40 21.12.2021
3576 Clouds 11 1020 69 10000 4.63 330 15:55 21.12.2021
3577 Clouds 11 1020 68 10000 5.14 330 15:20 21.12.2021
3578 Clouds 11 1020 68 10000 5.14 330 13:50 21.12.2021
3579 Clouds 11 1020 78 10000 1.85 99 13:29 21.12.2021
3580 Clouds 10 1021 71 10000 5.66 330 11:36 21.12.2021
3581 Clouds 10 1021 73 10000 6.17 330 10:21 21.12.2021
3582 Clouds 9 1021 75 10000 6.17 330 09:19 21.12.2021
3583 Clouds 9 1020 75 10000 6.69 330 07:55 21.12.2021
3584 Clouds 8 1020 76 10000 6.69 330 07:26 21.12.2021
3585 Clouds 8 1019 75 10000 6.69 330 05:31 21.12.2021
3586 Clouds 9 1019 75 10000 6.17 330 02:40 21.12.2021
3587 Clouds 7 1019 79 10000 5.14 330 23:58 20.12.2021
3588 Clouds 7 1018 80 10000 5.66 330 23:27 20.12.2021
3589 Clear 8 1018 80 10000 5.14 330 22:28 20.12.2021
3590 Clear 8 1018 80 10000 5.14 330 22:28 20.12.2021
3591 Clear 8 1017 78 10000 4.63 330 21:47 20.12.2021
3592 Clear 8 1017 78 10000 4.63 330 21:23 20.12.2021
3593 Clear 8 1017 78 10000 4.63 330 20:44 20.12.2021
3594 Clear 8 1017 79 10000 4.63 330 19:53 20.12.2021
3595 Clear 8 1016 81 10000 4.12 330 19:31 20.12.2021
3596 Clear 9 1016 78 10000 4.12 30 18:54 20.12.2021
3597 Clear 10 1016 72 10000 5.14 90 17:52 20.12.2021
3598 Clear 10 1016 69 10000 4.63 90 17:25 20.12.2021
3599 Clear 11 1016 67 10000 5.14 90 16:40 20.12.2021
3600 Clear 13 1015 63 10000 1.54 90 15:51 20.12.2021
3601 Clear 13 1015 61 10000 1.54 120 14:51 20.12.2021
3602 Clear 13 1016 64 10000 2.57 220 12:53 20.12.2021
3603 Clear 10 1017 60 10000 5.14 330 11:19 20.12.2021
3604 Clear 8 1017 65 10000 5.66 330 09:48 20.12.2021
3605 Clear 7 1017 64 10000 4.63 330 09:29 20.12.2021
3606 Clear 7 1017 64 10000 5.66 330 08:42 20.12.2021
3607 Clear 7 1017 64 10000 5.66 330 07:50 20.12.2021
3608 Clear 7 1017 62 10000 4.63 330 07:30 20.12.2021
3609 Clear 7 1018 66 10000 6.17 330 04:24 20.12.2021
3610 Clear 8 1019 68 10000 5.66 330 23:58 19.12.2021
3611 Clear 8 1020 70 10000 5.66 330 22:45 19.12.2021
3612 Clear 8 1020 73 10000 5.14 330 21:50 19.12.2021
3613 Clear 8 1020 73 10000 4.63 330 21:30 19.12.2021
3614 Clear 8 1020 73 10000 4.63 330 20:32 19.12.2021
3615 Clear 9 1020 74 10000 4.12 330 19:51 19.12.2021
3616 Clear 9 1020 75 10000 4.63 330 19:22 19.12.2021
3617 Clear 9 1020 72 10000 3.6 330 18:29 19.12.2021
3618 Clear 10 1020 72 10000 2.06 360 17:53 19.12.2021
3619 Clear 11 1021 67 10000 1.54 30 17:19 19.12.2021
3620 Clear 13 1021 63 10000 0 0 16:26 19.12.2021
3621 Clear 13 1021 63 10000 0 0 16:26 19.12.2021
3622 Clear 14 1021 61 10000 1.54 200 15:43 19.12.2021
3623 Clear 14 1021 59 10000 2.57 200 15:20 19.12.2021
3624 Clear 14 1021 59 10000 3.09 200 14:42 19.12.2021
3625 Clear 14 1023 60 10000 2.06 260 13:22 19.12.2021
3626 Clear 14 1024 54 10000 1.54 280 12:42 19.12.2021
3627 Clear 13 1024 53 10000 3.09 320 12:18 19.12.2021
3628 Clear 12 1025 58 10000 5.14 330 11:19 19.12.2021
3629 Clear 10 1025 64 10000 6.17 330 10:26 19.12.2021
3630 Clear 9 1025 68 10000 6.17 330 09:42 19.12.2021
3631 Clear 8 1025 69 10000 6.17 330 08:35 19.12.2021
3632 Clear 8 1027 71 10000 6.69 330 04:45 19.12.2021
3633 Clear 9 1029 70 10000 6.17 330 01:33 19.12.2021
3634 Clear 9 1029 69 10000 5.14 330 00:52 19.12.2021
3635 Clear 9 1029 68 10000 5.14 330 22:37 18.12.2021
3636 Clear 10 1029 68 10000 5.14 330 21:58 18.12.2021
3637 Clear 9 1029 69 10000 5.66 330 21:35 18.12.2021
3638 Clear 10 1030 71 10000 5.14 330 20:44 18.12.2021
3639 Clear 9 1030 74 10000 5.14 340 20:18 18.12.2021
3640 Clear 10 1029 74 10000 4.63 330 19:25 18.12.2021
3641 Clear 10 1029 75 10000 4.12 320 18:22 18.12.2021
3642 Clear 11 1029 80 10000 0 0 17:48 18.12.2021
3643 Clear 14 1029 71 10000 2.57 180 16:26 18.12.2021
3644 Clear 15 1029 67 10000 1.54 180 15:27 18.12.2021
3645 Clear 15 1029 63 10000 2.06 190 14:51 18.12.2021
3646 Clear 15 1029 62 10000 3.09 330 13:28 18.12.2021
3647 Clouds 12 1029 65 10000 5.66 330 11:23 18.12.2021
3648 Clouds 9 1029 70 10000 6.17 330 09:40 18.12.2021
3649 Clouds 8 1028 72 10000 6.69 330 08:47 18.12.2021
3650 Clouds 8 1028 72 10000 6.69 330 08:24 18.12.2021
3651 Clear 9 1027 68 10000 4.63 330 03:58 18.12.2021
3652 Clear 10 1026 65 10000 3.6 310 00:30 18.12.2021
3653 Clear 11 1026 64 10000 3.6 330 23:46 17.12.2021
3654 Clear 11 1027 64 10000 4.63 320 21:58 17.12.2021
3655 Clear 11 1027 66 10000 3.09 340 21:20 17.12.2021
3656 Clear 11 1027 67 10000 5.66 340 20:41 17.12.2021
3657 Clear 11 1027 62 10000 4.63 330 19:45 17.12.2021
3658 Clear 11 1028 69 10000 4.63 320 18:39 17.12.2021
3659 Clear 12 1028 76 10000 1.54 240 17:40 17.12.2021
3660 Clear 14 1028 73 10000 2.57 210 16:50 17.12.2021
3661 Clear 15 1028 70 10000 3.09 200 16:25 17.12.2021
3662 Clear 16 1028 65 10000 3.6 190 15:25 17.12.2021
3663 Clear 16 1028 65 10000 3.09 200 14:41 17.12.2021
3664 Clear 16 1029 61 10000 2.06 210 13:30 17.12.2021
3665 Clear 15 1030 51 10000 3.6 320 12:21 17.12.2021
3666 Clear 12 1031 44 10000 5.66 330 10:39 17.12.2021
3667 Clear 10 1030 62 10000 6.69 330 09:44 17.12.2021
3668 Clear 9 1030 63 10000 6.69 330 08:31 17.12.2021
3669 Clear 9 1030 63 10000 5.66 330 07:20 17.12.2021
3670 Clear 10 1029 65 10000 5.66 330 04:40 17.12.2021
3671 Clear 9 1029 73 10000 5.66 330 23:58 16.12.2021
3672 Clear 10 1028 72 10000 4.63 330 22:24 16.12.2021
3673 Clear 10 1028 71 10000 3.6 330 21:51 16.12.2021
3674 Clear 10 1028 68 10000 4.12 330 21:30 16.12.2021
3675 Clear 11 1027 65 10000 3.09 340 20:31 16.12.2021
3676 Clear 10 1026 67 10000 4.12 330 19:51 16.12.2021
3677 Clear 12 1026 66 10000 3.6 330 18:41 16.12.2021
3678 Clear 13 1026 65 10000 2.57 310 17:57 16.12.2021
3679 Clear 13 1026 68 10000 3.6 210 17:31 16.12.2021
3680 Clear 15 1025 67 10000 2.57 210 16:23 16.12.2021
3681 Clear 16 1025 59 10000 2.57 260 14:54 16.12.2021
3682 Clear 16 1026 49 10000 2.06 290 13:43 16.12.2021
3683 Clear 14 1028 50 10000 5.14 330 11:46 16.12.2021
3684 Clear 14 1028 53 10000 5.14 330 11:18 16.12.2021
3685 Clear 12 1028 61 10000 6.69 330 10:27 16.12.2021
3686 Clear 10 1027 58 10000 7.2 330 08:37 16.12.2021
3687 Clear 9 1027 55 10000 7.2 330 06:22 16.12.2021
3688 Clear 10 1027 66 10000 5.66 340 02:54 16.12.2021
3689 Clear 10 1027 69 10000 5.14 330 23:35 15.12.2021
3690 Clear 10 1027 70 10000 5.14 330 22:48 15.12.2021
3691 Clear 10 1027 73 10000 6.17 330 21:58 15.12.2021
3692 Clear 10 1027 76 10000 5.66 330 21:28 15.12.2021
3693 Clear 10 1027 81 10000 5.66 330 20:31 15.12.2021
3694 Clear 10 1027 82 10000 5.14 320 19:52 15.12.2021
3695 Clouds 11 1027 84 10000 2.06 330 18:39 15.12.2021
3696 Clouds 12 1026 84 10000 2.06 80 17:57 15.12.2021
3697 Clouds 12 1026 83 10000 1.54 100 17:39 15.12.2021
3698 Clouds 13 1026 82 10000 1.03 110 16:35 15.12.2021
3699 Clouds 14 1025 82 10000 1.54 110 15:47 15.12.2021
3700 Clouds 14 1025 82 10000 1.54 110 15:47 15.12.2021
3701 Clouds 14 1025 82 10000 2.57 130 15:29 15.12.2021
3702 Clouds 15 1025 79 10000 3.6 130 14:43 15.12.2021
3703 Clouds 15 1025 75 10000 5.14 90 12:52 15.12.2021
3704 Clear 13 1026 61 10000 3.09 330 10:49 15.12.2021
3705 Clear 11 1025 63 10000 3.6 330 09:28 15.12.2021
3706 Clear 10 1024 64 10000 4.63 330 07:47 15.12.2021
3707 Clear 10 1023 66 10000 5.14 320 02:40 15.12.2021
3708 Clear 10 1023 69 10000 6.17 330 23:44 14.12.2021
3709 Clear 10 1023 70 10000 5.14 330 22:49 14.12.2021
3710 Clear 10 1023 70 10000 5.14 330 22:49 14.12.2021
3711 Clear 10 1023 70 10000 5.14 330 22:49 14.12.2021
3712 Clear 10 1023 75 10000 5.14 320 22:30 14.12.2021
3713 Clear 10 1023 74 10000 4.63 330 21:24 14.12.2021
3714 Clear 10 1024 80 10000 5.66 320 19:44 14.12.2021
3715 Clear 11 1024 79 10000 4.12 320 19:21 14.12.2021
3716 Clear 10 1024 80 10000 4.63 320 19:21 14.12.2021
3717 Clear 10 1023 81 10000 3.6 320 18:34 14.12.2021
3718 Clear 11 1023 84 10000 1.03 250 17:50 14.12.2021
3719 Clear 13 1023 74 10000 1.03 230 16:43 14.12.2021
3720 Clear 15 1023 71 10000 1.54 0 15:52 14.12.2021
3721 Clear 15 1024 66 10000 1.03 0 13:33 14.12.2021
3722 Clear 15 1024 67 10000 2.06 330 12:41 14.12.2021
3723 Clear 12 1025 67 10000 3.09 330 11:24 14.12.2021
3724 Clear 11 1025 69 10000 4.63 330 10:28 14.12.2021
3725 Clouds 10 1025 74 10000 5.14 330 09:53 14.12.2021
3726 Clouds 8 1025 76 10000 5.66 330 08:40 14.12.2021
3727 Clouds 8 1025 78 10000 5.66 330 08:20 14.12.2021
3728 Clear 8 1024 80 10000 5.66 330 06:27 14.12.2021
3729 Clouds 8 1025 76 10000 5.14 330 23:42 13.12.2021
3730 Clear 8 1025 75 10000 5.14 330 22:18 13.12.2021
3731 Clear 8 1025 77 10000 4.63 330 21:34 13.12.2021
3732 Clear 9 1025 77 10000 4.12 330 20:51 13.12.2021
3733 Clear 9 1025 77 10000 3.6 340 20:20 13.12.2021
3734 Clouds 9 1024 79 10000 5.14 330 19:49 13.12.2021
3735 Clouds 11 1024 79 10000 1.03 0 17:27 13.12.2021
3736 Clear 13 1023 73 10000 2.57 210 16:24 13.12.2021
3737 Clear 14 1023 70 10000 2.06 200 15:43 13.12.2021
3738 Clear 15 1023 58 10000 2.57 200 14:30 13.12.2021
3739 Clear 15 1024 46 10000 1.54 180 13:36 13.12.2021
3740 Clear 14 1024 45 10000 1.03 0 12:39 13.12.2021
3741 Clear 13 1024 45 10000 2.57 330 11:50 13.12.2021
3742 Clear 12 1025 45 10000 3.09 330 11:29 13.12.2021
3743 Clear 10 1025 49 10000 5.14 330 10:21 13.12.2021
3744 Clear 9 1024 49 10000 6.69 330 08:43 13.12.2021
3745 Clear 8 1023 47 10000 5.66 330 06:54 13.12.2021
3746 Clear 8 1023 50 10000 6.69 330 04:52 13.12.2021
3747 Clear 9 1024 51 10000 6.17 330 23:55 12.12.2021
3748 Clear 9 1024 55 10000 5.66 320 21:57 12.12.2021
3749 Clear 9 1024 56 10000 5.14 330 20:50 12.12.2021
3750 Clear 9 1023 55 10000 5.14 330 19:35 12.12.2021
3751 Clear 10 1023 55 10000 4.12 320 17:58 12.12.2021
3752 Clear 13 1022 57 10000 1.54 230 16:29 12.12.2021
3753 Clear 14 1022 52 10000 1.03 170 15:55 12.12.2021
3754 Clear 14 1022 48 10000 1.03 0 15:28 12.12.2021
3755 Clear 14 1022 47 10000 0.51 0 14:46 12.12.2021
3756 Clear 14 1022 43 10000 3.6 330 13:56 12.12.2021
3757 Clear 14 1022 42 10000 4.63 330 12:48 12.12.2021
3758 Clear 12 1022 51 10000 5.14 330 11:45 12.12.2021
3759 Clear 11 1022 52 10000 5.14 330 11:27 12.12.2021
3760 Clear 11 1022 45 10000 5.14 320 10:44 12.12.2021
3761 Clear 9 1021 49 10000 5.14 340 09:58 12.12.2021
3762 Clear 7 1020 52 10000 5.14 340 08:44 12.12.2021
3763 Clear 7 1019 52 10000 5.14 340 07:25 12.12.2021
3764 Clear 7 1018 51 10000 4.63 340 05:29 12.12.2021
3765 Clear 7 1017 49 10000 4.63 340 04:19 12.12.2021
3766 Clear 7 1016 56 10000 7.72 340 00:57 12.12.2021
3767 Clear 7 1015 53 10000 5.14 330 22:56 11.12.2021
3768 Clear 6 1016 54 10000 5.66 340 22:20 11.12.2021
3769 Clear 6 1015 53 10000 4.63 340 21:35 11.12.2021
3770 Clear 8 1013 51 10000 4.12 340 20:18 11.12.2021
3771 Clear 7 1013 57 10000 4.63 330 19:21 11.12.2021
3772 Clear 8 1013 58 10000 4.63 330 18:45 11.12.2021
3773 Clear 9 1012 54 10000 2.57 330 17:54 11.12.2021
3774 Clear 12 1010 42 10000 2.57 220 16:37 11.12.2021
3775 Clear 13 1009 45 10000 3.09 210 15:41 11.12.2021
3776 Clear 14 1008 41 10000 3.09 220 14:36 11.12.2021
3777 Clear 13 1008 44 10000 3.6 280 12:41 11.12.2021
3778 Clear 10 1007 48 10000 4.12 330 10:58 11.12.2021
3779 Clear 8 1006 56 10000 4.63 340 09:44 11.12.2021
3780 Clear 5 1002 74 10000 4.63 330 03:58 11.12.2021
3781 Clouds 7 999 69 10000 4.12 330 00:50 11.12.2021
3782 Clouds 7 999 77 10000 4.12 330 23:44 10.12.2021
3783 Clouds 7 998 76 10000 3.6 330 22:50 10.12.2021
3784 Clouds 6 998 80 10000 2.57 320 21:51 10.12.2021
3785 Rain 8 997 72 10000 1.54 0 20:35 10.12.2021
3786 Clouds 9 997 66 10000 3.6 170 19:19 10.12.2021
3787 Clouds 9 997 62 10000 2.57 170 17:54 10.12.2021
3788 Clouds 10 996 62 10000 5.66 110 16:55 10.12.2021
3789 Clouds 11 995 67 10000 8.23 100 15:47 10.12.2021
3790 Clouds 11 995 67 10000 7.72 110 15:29 10.12.2021
3791 Clouds 11 994 68 10000 5.66 90 14:57 10.12.2021
3792 Clouds 11 994 64 10000 2.57 360 13:50 10.12.2021
3793 Clouds 10 995 72 10000 1.54 240 13:20 10.12.2021
3794 Clouds 8 997 72 10000 0.51 0 12:23 10.12.2021
3795 Clouds 7 1000 74 10000 1.54 310 11:28 10.12.2021
3796 Clouds 6 1001 78 10000 3.6 310 09:54 10.12.2021
3797 Rain 7 1001 54 10000 5.66 330 08:30 10.12.2021
3798 Rain 7 1003 52 10000 6.69 330 05:57 10.12.2021
3799 Clear 7 1004 56 10000 5.14 340 02:48 10.12.2021
3800 Clear 7 1005 56 10000 5.66 360 23:46 09.12.2021
3801 Clear 7 1005 55 10000 5.14 350 23:20 09.12.2021
3802 Clear 7 1005 58 10000 4.63 340 22:24 09.12.2021
3803 Clear 7 1005 56 10000 3.6 340 21:50 09.12.2021
3804 Clear 8 1004 52 10000 5.14 360 20:41 09.12.2021
3805 Clear 8 1004 52 10000 4.63 340 20:41 09.12.2021
3806 Clear 8 1004 51 10000 5.14 360 20:21 09.12.2021
3807 Clear 9 1004 53 10000 3.6 340 19:21 09.12.2021
3808 Clear 9 1003 57 10000 2.57 330 18:36 09.12.2021
3809 Clear 9 1003 58 10000 3.09 10 17:51 09.12.2021
3810 Clear 10 1002 53 10000 1.54 300 17:25 09.12.2021
3811 Clear 11 1002 53 10000 0.51 280 16:53 09.12.2021
3812 Clear 13 1001 53 10000 2.57 240 15:34 09.12.2021
3813 Clear 13 1001 54 10000 4.12 220 14:46 09.12.2021
3814 Clear 13 1001 49 10000 2.57 240 13:20 09.12.2021
3815 Clear 12 1001 46 10000 3.6 330 12:40 09.12.2021
3816 Clear 10 1001 51 10000 3.09 320 11:24 09.12.2021
3817 Clear 7 1000 68 10000 6.17 330 09:21 09.12.2021
3818 Clear 6 999 78 10000 6.17 330 06:44 09.12.2021
3819 Clouds 6 999 86 10000 4.63 330 03:40 09.12.2021
3820 Clouds 7 998 86 10000 3.6 340 23:44 08.12.2021
3821 Clouds 7 998 85 10000 3.6 330 23:21 08.12.2021
3822 Rain 7 998 87 10000 2.57 330 22:48 08.12.2021
3823 Clouds 7 998 86 10000 4.12 320 21:42 08.12.2021
3824 Clouds 7 998 86 10000 4.12 320 21:24 08.12.2021
3825 Clouds 8 998 84 10000 3.6 320 19:58 08.12.2021
3826 Clouds 8 997 84 10000 3.09 330 19:34 08.12.2021
3827 Clouds 8 997 80 10000 2.06 300 18:46 08.12.2021
3828 Clouds 9 997 78 10000 5.14 280 17:37 08.12.2021
3829 Clouds 11 996 69 10000 2.57 300 15:57 08.12.2021
3830 Clouds 12 996 69 10000 3.6 240 15:29 08.12.2021
3831 Clouds 11 996 75 10000 3.6 240 14:40 08.12.2021
3832 Rain 9 999 84 10000 5.14 350 11:36 08.12.2021
3833 Clouds 9 999 87 6000 5.14 330 10:32 08.12.2021
3834 Rain 9 1000 84 10000 2.57 0 09:25 08.12.2021
3835 Rain 8 1001 85 4000 3.09 20 07:26 08.12.2021
3836 Rain 8 1004 84 10000 5.14 20 04:57 08.12.2021
3837 Rain 9 1009 68 10000 2.57 330 23:34 07.12.2021
3838 Clear 10 1010 68 10000 1.54 30 21:55 07.12.2021
3839 Clear 10 1010 67 10000 1.54 330 21:23 07.12.2021
3840 Clear 10 1010 67 10000 1.54 330 21:23 07.12.2021
3841 Clear 9 1010 71 10000 3.09 320 20:24 07.12.2021
3842 Clear 10 1010 69 10000 2.57 270 18:47 07.12.2021
3843 Rain 11 1010 67 10000 3.09 330 17:53 07.12.2021
3844 Rain 11 1011 67 10000 2.06 320 17:20 07.12.2021
3845 Rain 11 1011 65 10000 1.03 250 16:34 07.12.2021
3846 Clouds 12 1012 62 10000 0 0 15:34 07.12.2021
3847 Clouds 13 1012 59 10000 2.06 110 14:36 07.12.2021
3848 Clouds 14 1012 54 10000 3.09 80 13:18 07.12.2021
3849 Clouds 13 1012 54 10000 1.54 70 12:21 07.12.2021
3850 Clear 10 1012 54 10000 4.63 330 10:43 07.12.2021
3851 Clear 6 1011 56 10000 5.14 320 08:46 07.12.2021
3852 Clear 6 1009 46 10000 7.2 320 06:22 07.12.2021
3853 Clear 6 1008 46 10000 6.17 330 05:42 07.12.2021
3854 Clear 7 1011 41 10000 4.63 330 00:54 07.12.2021
3855 Clear 7 1011 41 10000 3.6 350 23:18 06.12.2021
3856 Clear 8 1012 37 10000 3.6 330 22:39 06.12.2021
3857 Clear 8 1012 37 10000 1.54 310 21:58 06.12.2021
3858 Clear 8 1012 41 10000 5.66 330 21:20 06.12.2021
3859 Clear 8 1011 42 10000 3.09 350 20:30 06.12.2021
3860 Clear 8 1011 45 10000 4.12 340 19:24 06.12.2021
3861 Clear 9 1010 47 10000 4.12 330 18:29 06.12.2021
3862 Clear 10 1010 44 10000 1.03 0 17:52 06.12.2021
3863 Clear 10 1010 44 10000 0.45 259 17:20 06.12.2021
3864 Clear 13 1009 40 10000 4.63 210 15:49 06.12.2021
3865 Clear 13 1009 34 10000 2.06 230 13:47 06.12.2021
3866 Clear 13 1008 32 10000 5.14 330 12:40 06.12.2021
3867 Clear 12 1009 35 10000 5.66 330 11:54 06.12.2021
3868 Clouds 8 1007 40 10000 4.63 340 09:37 06.12.2021
3869 Clear 7 1004 32 10000 5.66 330 06:59 06.12.2021
3870 Clear 8 1003 40 10000 4.63 340 00:38 06.12.2021
3871 Clouds 8 1002 42 10000 3.6 340 21:54 05.12.2021
3872 Clouds 8 1002 41 10000 3.09 350 21:25 05.12.2021
3873 Clouds 9 1001 42 10000 3.6 340 20:20 05.12.2021
3874 Clouds 9 1001 46 10000 5.66 330 19:58 05.12.2021
3875 Clouds 9 1001 56 10000 4.63 330 19:23 05.12.2021
3876 Clear 10 1000 53 10000 5.14 60 18:26 05.12.2021
3877 Clear 11 1000 53 10000 6.17 70 17:49 05.12.2021
3878 Clear 12 999 57 10000 7.2 80 16:58 05.12.2021
3879 Clear 12 999 48 10000 7.2 80 16:28 05.12.2021
3880 Clear 13 998 46 10000 2.57 60 15:58 05.12.2021
3881 Clear 14 998 38 10000 3.6 260 14:47 05.12.2021
3882 Clear 13 999 48 10000 2.57 250 14:29 05.12.2021
3883 Clear 13 1000 38 10000 1.54 0 13:32 05.12.2021
3884 Clear 12 1001 39 10000 1.03 0 12:42 05.12.2021
3885 Clear 12 1001 41 10000 0.45 212 12:23 05.12.2021
3886 Clear 12 1001 38 10000 0.45 231 11:41 05.12.2021
3887 Clear 11 1002 32 10000 1.34 271 10:21 05.12.2021
3888 Clear 10 1002 35 10000 1.34 262 09:35 05.12.2021
3889 Clear 9 1001 41 10000 6.17 290 04:57 05.12.2021
3890 Clear 11 1002 50 10000 2.24 281 01:23 05.12.2021
3891 Clear 12 1003 66 10000 2.68 225 22:44 04.12.2021
3892 Clear 13 1003 75 10000 2.24 267 21:37 04.12.2021
3893 Clear 13 1002 68 10000 3.58 233 20:46 04.12.2021
3894 Clouds 13 1002 76 10000 2.68 222 19:54 04.12.2021
3895 Clouds 13 1002 71 10000 1.34 236 19:24 04.12.2021
3896 Clouds 14 1002 65 10000 1.34 197 17:52 04.12.2021
3897 Clouds 14 1002 67 10000 1.34 198 17:32 04.12.2021
3898 Rain 14 1002 67 10000 2.24 219 16:47 04.12.2021
3899 Clouds 14 1003 70 10000 2.68 233 16:27 04.12.2021
3900 Clouds 13 1007 62 10000 1.03 0 12:57 04.12.2021
3901 Clouds 13 1008 53 10000 1.54 0 11:40 04.12.2021
3902 Clouds 12 1009 53 10000 3.6 320 11:18 04.12.2021
3903 Clear 9 1009 59 10000 4.12 330 09:44 04.12.2021
3904 Clear 8 1009 56 10000 4.12 330 08:38 04.12.2021
3905 Clear 7 1010 54 10000 6.17 330 05:18 04.12.2021
3906 Clear 7 1011 53 10000 4.63 340 04:39 04.12.2021
3907 Clear 8 1014 48 10000 4.12 340 23:48 03.12.2021
3908 Clear 7 1014 51 10000 3.6 330 22:54 03.12.2021
3909 Clear 8 1013 48 10000 4.12 330 21:58 03.12.2021
3910 Clear 8 1013 49 10000 3.6 330 21:24 03.12.2021
3911 Clear 7 1013 50 10000 4.12 330 20:43 03.12.2021
3912 Clear 8 1012 49 10000 2.06 330 19:29 03.12.2021
3913 Clear 9 1012 51 10000 2.57 270 18:25 03.12.2021
3914 Clear 9 1011 48 10000 2.57 260 17:42 03.12.2021
3915 Clear 15 1009 37 10000 3.09 220 13:48 03.12.2021
3916 Clear 14 1009 32 10000 2.06 300 12:51 03.12.2021
3917 Clear 12 1009 34 10000 2.06 340 11:24 03.12.2021
3918 Clear 9 1008 35 10000 3.6 340 09:55 03.12.2021
3919 Clear 7 1006 40 10000 5.66 330 08:23 03.12.2021
3920 Clear 8 1004 37 10000 4.12 340 07:29 03.12.2021
3921 Clouds 9 998 50 10000 6.69 360 01:56 03.12.2021
3922 Clouds 10 998 60 10000 5.66 20 00:47 03.12.2021
3923 Clouds 10 997 59 10000 2.57 340 23:44 02.12.2021
3924 Clouds 9 996 69 10000 5.14 330 21:42 02.12.2021
3925 Clouds 9 996 73 10000 4.12 330 20:57 02.12.2021
3926 Clouds 9 996 73 10000 4.12 330 20:37 02.12.2021
3927 Clouds 9 996 80 10000 4.63 330 19:25 02.12.2021
3928 Clouds 11 995 74 10000 1.03 0 17:43 02.12.2021
3929 Clouds 14 995 63 10000 1.54 200 15:42 02.12.2021
3930 Clouds 14 995 63 10000 1.03 0 14:59 02.12.2021
3931 Clouds 14 996 64 10000 1.03 0 13:58 02.12.2021
3932 Clouds 13 997 65 10000 3.09 330 12:52 02.12.2021
3933 Clouds 13 997 73 10000 0.85 208 12:18 02.12.2021
3934 Clouds 9 998 77 10000 5.66 330 09:34 02.12.2021
3935 Clouds 8 998 77 10000 5.66 330 08:52 02.12.2021
3936 Clear 8 999 80 10000 3.09 310 04:54 02.12.2021
3937 Clear 10 1002 78 10000 2.57 310 00:53 02.12.2021
3938 Clouds 11 1002 78 10000 0.45 231 23:19 01.12.2021
3939 Clouds 11 1003 79 10000 0.45 217 22:23 01.12.2021
3940 Clouds 12 1005 77 10000 2.68 274 20:39 01.12.2021
3941 Rain 12 1005 76 10000 3.13 217 19:57 01.12.2021
3942 Clouds 12 1005 72 10000 4.02 224 19:28 01.12.2021
3943 Clouds 13 1005 63 10000 9.26 260 17:45 01.12.2021
3944 Clear 13 1005 59 10000 5.66 250 16:50 01.12.2021
3945 Clear 14 1006 55 10000 1.54 60 14:54 01.12.2021
3946 Clear 13 1008 54 10000 1.03 0 13:46 01.12.2021
3947 Clear 13 1009 50 10000 1.03 0 12:51 01.12.2021
3948 Clouds 9 1011 57 10000 5.14 330 10:43 01.12.2021
3949 Clouds 8 1012 59 10000 6.17 320 09:25 01.12.2021
3950 Clouds 6 1012 64 10000 6.17 330 08:30 01.12.2021
3951 Clear 6 1013 62 10000 5.14 340 07:34 01.12.2021
3952 Clear 6 1013 61 10000 6.17 330 06:59 01.12.2021
3953 Clear 6 1014 60 10000 5.66 340 03:47 01.12.2021
3954 Clear 6 1015 59 10000 6.69 330 01:59 01.12.2021
3955 Clear 7 1016 59 10000 5.66 330 23:55 30.11.2021
3956 Clear 7 1016 57 10000 5.14 340 23:26 30.11.2021
3957 Clear 7 1016 56 10000 4.63 330 21:40 30.11.2021
3958 Clear 7 1016 55 10000 4.12 330 20:46 30.11.2021
3959 Clear 7 1016 55 10000 4.12 330 20:19 30.11.2021
3960 Clear 8 1016 55 10000 3.09 350 19:38 30.11.2021
3961 Clear 9 1016 52 10000 1.54 320 18:37 30.11.2021
3962 Clear 12 1016 41 10000 3.6 250 16:50 30.11.2021
3963 Clear 12 1017 44 10000 0.45 292 15:44 30.11.2021
3964 Clear 13 1017 48 10000 1.34 212 14:23 30.11.2021
3965 Clear 13 1018 47 10000 0.45 233 13:28 30.11.2021
3966 Clear 12 1018 42 10000 0.45 225 12:52 30.11.2021
3967 Clear 11 1019 38 10000 5.66 330 11:50 30.11.2021
3968 Clear 11 1019 35 10000 0.45 229 11:25 30.11.2021
3969 Clear 8 1018 37 10000 6.17 330 10:34 30.11.2021
3970 Clear 6 1018 44 10000 6.69 330 08:53 30.11.2021
3971 Clear 6 1017 45 10000 5.66 340 08:31 30.11.2021
3972 Clear 5 1017 46 10000 4.63 340 07:48 30.11.2021
3973 Clear 6 1015 42 10000 7.2 330 04:59 30.11.2021
3974 Clear 7 1014 40 10000 6.17 330 01:45 30.11.2021
3975 Clear 7 1013 31 10000 4.12 340 00:33 30.11.2021
3976 Clear 7 1012 28 10000 4.63 330 23:25 29.11.2021
3977 Clouds 7 1011 25 10000 4.63 330 22:58 29.11.2021
3978 Clouds 8 1010 25 10000 0.45 253 22:34 29.11.2021
3979 Clouds 8 1009 25 10000 5.66 330 21:44 29.11.2021
3980 Clouds 8 1009 26 10000 0.45 345 21:18 29.11.2021
3981 Clouds 9 1008 25 10000 0.89 307 20:41 29.11.2021
3982 Clouds 10 1007 25 10000 0.45 278 19:57 29.11.2021
3983 Clouds 11 1007 31 10000 5.66 360 19:37 29.11.2021
3984 Clouds 10 1006 32 10000 4.63 360 18:56 29.11.2021
3985 Rain 8 1008 39 10000 2.88 340 18:37 29.11.2021
3986 Clear 10 1004 40 10000 0.23 348 17:21 29.11.2021
3987 Clear 10 1004 40 10000 0.23 348 16:33 29.11.2021
3988 Clear 11 1003 38 10000 1.36 186 15:55 29.11.2021
3989 Clear 12 1002 30 10000 2.47 189 14:45 29.11.2021
3990 Clear 12 1002 24 10000 2.43 191 13:52 29.11.2021
3991 Clear 12 1001 21 10000 1.24 210 12:56 29.11.2021
3992 Clear 12 1000 20 10000 1.41 303 11:51 29.11.2021
3993 Clear 11 1000 23 10000 2.33 318 10:59 29.11.2021
3994 Clouds 7 998 36 10000 5.66 340 09:57 29.11.2021
3995 Clear 6 996 39 10000 4.63 340 06:44 29.11.2021
3996 Clear 6 994 39 10000 2.57 320 04:53 29.11.2021
3997 Clear 8 994 36 10000 5.66 10 00:46 29.11.2021
3998 Clear 8 994 36 10000 4.12 10 23:47 28.11.2021
3999 Clear 9 994 34 10000 3.6 360 23:29 28.11.2021
4000 Clear 9 993 37 10000 7.2 20 21:53 28.11.2021
4001 Clear 9 993 37 10000 7.2 20 21:53 28.11.2021
4002 Clear 10 993 32 10000 5.66 10 21:34 28.11.2021
4003 Clear 9 993 37 10000 2.57 350 20:36 28.11.2021
4004 Clear 9 993 43 10000 3.09 300 19:37 28.11.2021
4005 Clear 9 993 49 10000 5.14 270 18:40 28.11.2021
4006 Clear 10 993 43 10000 8.23 290 17:57 28.11.2021
4007 Clouds 11 993 40 10000 9.77 270 17:32 28.11.2021
4008 Clouds 11 993 40 10000 9.26 260 16:45 28.11.2021
4009 Clouds 12 993 37 10000 10.29 250 16:27 28.11.2021
4010 Clouds 12 993 40 10000 8.75 240 15:45 28.11.2021
4011 Clouds 13 993 33 10000 6.17 240 14:51 28.11.2021
4012 Clouds 12 993 35 10000 8.75 290 13:53 28.11.2021
4013 Clouds 12 993 35 10000 8.23 270 12:54 28.11.2021
4014 Clouds 11 994 32 10000 2.06 220 11:30 28.11.2021
4015 Clouds 10 994 32 10000 0.51 290 10:23 28.11.2021
4016 Clouds 8 994 46 10000 0.51 270 09:46 28.11.2021
4017 Clouds 8 994 46 10000 1.03 0 09:27 28.11.2021
4018 Clear 8 993 49 10000 3.09 310 00:50 28.11.2021
4019 Clear 8 993 71 10000 1.54 0 21:49 27.11.2021
4020 Clouds 10 993 62 10000 4.12 270 19:50 27.11.2021
4021 Rain 11 993 62 10000 7.2 250 18:26 27.11.2021
4022 Clear 13 993 58 10000 4.63 230 16:00 27.11.2021
4023 Clear 13 993 58 10000 6.17 260 14:44 27.11.2021
4024 Clear 12 994 58 10000 6.69 240 13:38 27.11.2021
4025 Clouds 11 995 62 10000 8.23 250 11:28 27.11.2021
4026 Clouds 12 995 54 10000 6.69 250 10:19 27.11.2021
4027 Clouds 9 994 57 10000 7.2 290 08:54 27.11.2021
4028 Clear 9 993 57 10000 7.2 270 06:59 27.11.2021
4029 Clear 11 993 50 10000 11.32 270 04:53 27.11.2021
4030 Clear 9 991 49 10000 4.63 260 00:25 27.11.2021
4031 Clear 9 991 57 10000 3.09 260 22:51 26.11.2021
4032 Clear 9 992 57 10000 2.57 270 22:24 26.11.2021
4033 Clear 9 992 61 10000 5.14 270 21:31 26.11.2021
4034 Clear 9 993 66 10000 5.66 270 20:42 26.11.2021
4035 Clear 10 993 66 10000 5.14 280 19:56 26.11.2021
4036 Clear 10 993 71 10000 4.12 280 19:18 26.11.2021
4037 Clear 12 993 66 10000 2.57 270 17:46 26.11.2021
4038 Clouds 12 993 71 10000 2.57 280 17:21 26.11.2021
4039 Clouds 14 994 62 10000 3.09 230 15:23 26.11.2021
4040 Clouds 14 996 55 10000 2.06 190 13:35 26.11.2021
4041 Clouds 14 996 55 10000 2.06 190 13:35 26.11.2021
4042 Clear 13 997 66 10000 3.6 320 11:30 26.11.2021
4043 Clear 11 997 70 10000 4.12 330 10:35 26.11.2021
4044 Clouds 10 998 75 10000 5.14 330 08:56 26.11.2021
4045 Clouds 9 998 77 10000 3.09 320 08:21 26.11.2021
4046 Clouds 9 998 82 10000 3.6 330 07:24 26.11.2021
4047 Clouds 10 999 77 10000 3.6 290 06:25 26.11.2021
4048 Rain 10 1000 82 10000 5.66 330 03:56 26.11.2021
4049 Clouds 10 1001 81 10000 4.63 330 01:53 26.11.2021
4050 Rain 11 1003 77 10000 4.12 330 22:46 25.11.2021
4051 Clouds 11 1004 77 10000 4.63 330 21:24 25.11.2021
4052 Clouds 11 1004 72 10000 3.6 330 20:27 25.11.2021
4053 Clouds 12 1004 72 10000 3.6 330 18:46 25.11.2021
4054 Clouds 12 1004 72 10000 2.57 330 17:47 25.11.2021
4055 Clouds 12 1004 73 10000 2.06 330 17:25 25.11.2021
4056 Clouds 13 1004 69 10000 2.57 30 16:32 25.11.2021
4057 Clouds 13 1004 70 10000 4.12 30 14:59 25.11.2021
4058 Rain 12 1006 75 10000 4.63 30 13:37 25.11.2021
4059 Rain 12 1006 73 10000 5.66 20 12:25 25.11.2021
4060 Clouds 12 1006 74 10000 8.75 20 11:49 25.11.2021
4061 Rain 10 1007 79 10000 7.72 20 09:26 25.11.2021
4062 Rain 10 1008 84 8000 4.63 360 06:18 25.11.2021
4063 Rain 11 1009 85 6000 4.63 30 02:49 25.11.2021
4064 Clouds 15 1010 52 10000 12.35 90 22:57 24.11.2021
4065 Rain 14 1011 58 10000 4.63 50 22:25 24.11.2021
4066 Clouds 13 1011 67 10000 2.57 360 21:37 24.11.2021
4067 Clouds 13 1012 69 10000 3.09 340 20:52 24.11.2021
4068 Clouds 13 1012 70 10000 2.57 340 20:26 24.11.2021
4069 Clouds 15 1013 66 10000 11.83 80 18:31 24.11.2021
4070 Clouds 15 1013 65 10000 11.83 90 17:58 24.11.2021
4071 Clouds 15 1014 62 10000 10.8 80 15:47 24.11.2021
4072 Clouds 15 1014 63 10000 10.8 90 14:53 24.11.2021
4073 Clouds 16 1015 60 10000 9.77 90 14:20 24.11.2021
4074 Clouds 15 1017 55 10000 3.09 350 12:47 24.11.2021
4075 Clouds 14 1018 59 10000 5.14 330 11:21 24.11.2021
4076 Clouds 13 1018 64 10000 4.63 330 10:49 24.11.2021
4077 Clouds 12 1018 64 10000 4.63 330 10:26 24.11.2021
4078 Clear 10 1018 64 10000 6.69 330 07:55 24.11.2021
4079 Clear 10 1017 64 10000 6.17 330 06:55 24.11.2021
4080 Clear 10 1018 69 10000 5.66 330 03:57 24.11.2021
4081 Clouds 11 1019 69 10000 5.14 330 00:58 24.11.2021
4082 Clouds 12 1019 69 10000 5.14 320 22:58 23.11.2021
4083 Clouds 12 1018 72 10000 5.14 330 22:34 23.11.2021
4084 Clouds 12 1018 71 10000 5.14 330 22:34 23.11.2021
4085 Clouds 12 1018 70 10000 4.63 330 21:45 23.11.2021
4086 Clouds 13 1018 79 10000 3.6 320 20:21 23.11.2021
4087 Clouds 15 1017 66 10000 4.63 50 18:44 23.11.2021
4088 Clouds 15 1017 68 10000 8.23 90 18:24 23.11.2021
4089 Clouds 16 1017 66 10000 8.23 100 17:23 23.11.2021
4090 Clouds 17 1016 65 10000 10.29 90 16:35 23.11.2021
4091 Clouds 17 1016 64 10000 10.29 90 15:23 23.11.2021
4092 Clouds 18 1016 64 10000 8.75 100 14:32 23.11.2021
4093 Clouds 18 1016 62 10000 1.03 0 12:50 23.11.2021
4094 Clouds 14 1016 64 10000 5.14 330 10:26 23.11.2021
4095 Clouds 14 1016 64 10000 5.14 330 09:43 23.11.2021
4096 Clouds 13 1014 69 10000 4.63 330 07:42 23.11.2021
4097 Clouds 13 1013 69 10000 3.6 340 03:58 23.11.2021
4098 Clouds 13 1013 70 10000 4.12 340 03:27 23.11.2021
4099 Clouds 12 1012 83 10000 4.12 330 23:26 22.11.2021
4100 Clouds 12 1012 81 10000 3.6 340 22:56 22.11.2021
4101 Clouds 12 1012 80 10000 3.6 330 22:29 22.11.2021
4102 Clouds 12 1012 81 10000 4.12 330 21:44 22.11.2021
4103 Clouds 12 1011 82 10000 4.12 330 20:56 22.11.2021
4104 Clouds 12 1011 82 10000 3.6 320 20:23 22.11.2021
4105 Clouds 13 1011 79 10000 2.06 320 19:20 22.11.2021
4106 Clouds 13 1010 79 10000 2.06 320 18:40 22.11.2021
4107 Clouds 14 1010 77 10000 2.57 240 17:46 22.11.2021
4108 Clouds 15 1009 74 10000 3.09 220 16:30 22.11.2021
4109 Clear 16 1008 72 10000 3.09 210 14:28 22.11.2021
4110 Clear 16 1009 70 10000 1.03 0 12:48 22.11.2021
4111 Clouds 15 1009 74 10000 3.09 330 11:27 22.11.2021
4112 Clouds 12 1009 80 10000 4.63 330 09:56 22.11.2021
4113 Clouds 11 1008 83 10000 3.6 330 08:42 22.11.2021
4114 Rain 11 1007 83 10000 3.6 330 07:24 22.11.2021
4115 Clouds 12 1007 83 10000 3.6 330 00:50 22.11.2021
4116 Rain 12 1008 83 10000 3.09 330 23:19 21.11.2021
4117 Clouds 12 1008 83 10000 3.09 330 22:42 21.11.2021
4118 Clouds 13 1008 83 10000 2.57 330 20:44 21.11.2021
4119 Clouds 13 1008 83 10000 3.6 330 20:26 21.11.2021
4120 Rain 13 1008 81 10000 2.57 330 18:53 21.11.2021
4121 Clouds 13 1008 79 10000 3.6 330 17:52 21.11.2021
4122 Clouds 13 1008 78 10000 2.06 340 17:29 21.11.2021
4123 Clouds 14 1009 78 10000 0.51 0 14:49 21.11.2021
4124 Clouds 14 1010 75 10000 1.54 310 14:18 21.11.2021
4125 Clouds 14 1011 72 10000 4.12 330 12:55 21.11.2021
4126 Clouds 13 1011 73 10000 3.6 310 12:20 21.11.2021
4127 Clouds 12 1012 76 10000 5.14 320 11:37 21.11.2021
4128 Clouds 12 1012 80 10000 6.17 330 10:19 21.11.2021
4129 Clouds 11 1012 81 10000 6.17 330 09:45 21.11.2021
4130 Clouds 10 1013 82 10000 4.63 340 08:31 21.11.2021
4131 Clouds 10 1013 83 10000 4.63 340 07:52 21.11.2021
4132 Clouds 9 1015 83 10000 6.17 330 06:26 21.11.2021
4133 Clouds 9 1015 83 10000 6.17 330 05:41 21.11.2021
4134 Clouds 11 1016 83 10000 5.66 330 03:22 21.11.2021
4135 Clouds 11 1016 83 10000 4.63 330 02:55 21.11.2021
4136 Clouds 11 1017 83 10000 4.63 330 01:28 21.11.2021
4137 Clouds 11 1017 86 10000 4.12 330 00:42 21.11.2021
4138 Clear 12 1018 86 10000 4.63 330 22:35 20.11.2021
4139 Clear 12 1018 85 10000 3.09 340 21:32 20.11.2021
4140 Clouds 13 1019 87 10000 2.57 320 19:58 20.11.2021
4141 Clouds 14 1019 83 10000 0 0 18:45 20.11.2021
4142 Clouds 14 1019 83 10000 0 0 18:23 20.11.2021
4143 Clouds 15 1020 80 10000 0.51 0 17:22 20.11.2021
4144 Clouds 17 1021 75 10000 2.06 190 15:23 20.11.2021
4145 Clouds 17 1021 74 10000 2.06 200 14:39 20.11.2021
4146 Clouds 17 1021 74 10000 2.06 200 14:20 20.11.2021
4147 Clouds 17 1023 66 10000 3.09 330 11:56 20.11.2021
4148 Clouds 17 1023 66 10000 3.09 330 11:56 20.11.2021
4149 Clouds 14 1024 73 10000 5.66 330 09:58 20.11.2021
4150 Clouds 13 1024 78 10000 6.17 330 08:44 20.11.2021
4151 Clouds 11 1025 80 10000 5.14 330 06:57 20.11.2021
4152 Clouds 11 1025 80 10000 6.17 330 05:21 20.11.2021
4153 Clouds 11 1025 79 10000 6.17 330 04:50 20.11.2021
4154 Clouds 12 1026 81 10000 3.6 340 00:45 20.11.2021
4155 Clear 12 1026 81 10000 3.6 330 00:27 20.11.2021
4156 Clear 12 1026 83 10000 4.12 340 22:54 19.11.2021
4157 Clear 12 1026 84 10000 3.6 330 21:44 19.11.2021
4158 Clouds 13 1026 84 10000 3.6 330 20:54 19.11.2021
4159 Clouds 13 1026 82 10000 4.12 330 20:35 19.11.2021
4160 Clouds 13 1026 84 10000 4.12 330 19:49 19.11.2021
4161 Clear 14 1026 84 10000 1.54 240 18:50 19.11.2021
4162 Clear 14 1026 84 10000 1.2 284 18:18 19.11.2021
4163 Clear 17 1026 74 10000 1.54 190 16:47 19.11.2021
4164 Clear 18 1026 67 10000 3.09 200 15:31 19.11.2021
4165 Rain 19 1027 62 10000 1.54 0 12:53 19.11.2021
4166 Clear 15 1027 69 10000 5.14 330 10:27 19.11.2021
4167 Clear 13 1027 76 10000 6.17 340 08:47 19.11.2021
4168 Clear 12 1026 78 10000 5.66 340 07:34 19.11.2021
4169 Clear 12 1026 74 10000 5.66 340 04:28 19.11.2021
4170 Clear 13 1026 79 10000 3.6 340 01:32 19.11.2021
4171 Clear 13 1026 80 10000 5.14 330 23:50 18.11.2021
4172 Clear 13 1026 88 10000 4.12 330 21:48 18.11.2021
4173 Clear 13 1025 88 10000 3.6 320 20:48 18.11.2021
4174 Clear 13 1025 87 10000 3.6 320 20:29 18.11.2021
4175 Clear 14 1025 87 10000 3.09 320 19:44 18.11.2021
4176 Clouds 15 1024 84 10000 1.54 260 18:55 18.11.2021
4177 Clouds 15 1024 83 10000 1.54 250 18:27 18.11.2021
4178 Clouds 15 1024 82 10000 1.03 240 17:49 18.11.2021
4179 Clouds 17 1023 78 10000 1.54 160 16:44 18.11.2021
4180 Clouds 18 1023 76 10000 2.06 150 15:25 18.11.2021
4181 Clouds 18 1023 77 10000 2.57 180 13:29 18.11.2021
4182 Clear 18 1023 71 10000 1.03 0 12:33 18.11.2021
4183 Clear 17 1023 66 10000 3.09 330 11:42 18.11.2021
4184 Clear 17 1023 66 10000 3.09 330 11:24 18.11.2021
4185 Clear 14 1022 71 10000 4.63 330 09:34 18.11.2021
4186 Clear 12 1022 69 10000 5.14 340 07:35 18.11.2021
4187 Clear 12 1021 71 10000 4.63 340 05:55 18.11.2021
4188 Clear 12 1021 71 10000 5.14 340 05:36 18.11.2021
4189 Clear 13 1019 74 10000 3.09 350 01:23 18.11.2021
4190 Clear 13 1018 75 10000 3.6 340 22:49 17.11.2021
4191 Clear 14 1018 74 10000 3.6 350 22:21 17.11.2021
4192 Clouds 14 1018 74 10000 3.6 340 21:39 17.11.2021
4193 Clouds 14 1017 72 10000 4.12 330 20:58 17.11.2021
4194 Clouds 15 1016 73 10000 1.54 0 18:34 17.11.2021
4195 Clouds 16 1016 71 10000 1.54 240 17:28 17.11.2021
4196 Clouds 18 1015 67 10000 2.06 230 14:52 17.11.2021
4197 Clouds 16 1016 76 10000 2.57 320 12:42 17.11.2021
4198 Clouds 15 1016 81 10000 3.09 330 11:49 17.11.2021
4199 Clouds 14 1016 83 10000 3.6 330 10:32 17.11.2021
4200 Clouds 13 1015 85 10000 4.63 330 09:26 17.11.2021
4201 Clouds 12 1015 86 10000 4.12 320 07:45 17.11.2021
4202 Rain 12 1015 91 10000 4.12 330 04:47 17.11.2021
4203 Rain 13 1014 81 10000 3.09 330 02:37 17.11.2021
4204 Clear 13 1014 75 10000 5.14 320 23:27 16.11.2021
4205 Clear 14 1014 76 10000 4.63 320 21:48 16.11.2021
4206 Clear 15 1014 76 10000 3.09 290 20:18 16.11.2021
4207 Clear 16 1014 71 10000 5.66 80 18:54 16.11.2021
4208 Clouds 16 1014 69 10000 6.69 90 18:36 16.11.2021
4209 Clouds 16 1014 69 10000 6.69 90 18:36 16.11.2021
4210 Clouds 17 1013 70 10000 6.69 90 17:43 16.11.2021
4211 Clear 17 1013 73 10000 4.12 100 16:58 16.11.2021
4212 Clouds 18 1013 68 10000 1.88 105 16:18 16.11.2021
4213 Clear 19 1013 63 10000 2.57 230 15:41 16.11.2021
4214 Clear 19 1015 57 10000 1.54 310 12:40 16.11.2021
4215 Clouds 15 1015 62 10000 4.63 330 09:49 16.11.2021
4216 Clear 14 1015 67 10000 7.2 330 08:50 16.11.2021
4217 Clear 12 1015 68 10000 5.66 330 07:34 16.11.2021
4218 Clear 12 1015 68 10000 5.66 330 05:27 16.11.2021
4219 Clear 14 1015 71 10000 4.63 330 23:24 15.11.2021
4220 Clear 14 1015 72 10000 4.12 330 22:40 15.11.2021
4221 Clouds 14 1015 73 10000 4.12 330 21:56 15.11.2021
4222 Clouds 14 1015 76 10000 4.12 330 21:30 15.11.2021
4223 Clouds 14 1015 70 10000 4.63 20 20:32 15.11.2021
4224 Clouds 14 1015 74 10000 4.12 20 18:53 15.11.2021
4225 Clouds 14 1014 78 10000 4.63 20 16:59 15.11.2021
4226 Rain 15 1013 77 10000 10.29 70 15:50 15.11.2021
4227 Rain 15 1013 78 10000 14.92 80 15:32 15.11.2021
4228 Mist 13 1011 86 3000 4.12 270 14:18 15.11.2021
4229 Rain 12 1012 86 8000 5.66 10 12:21 15.11.2021
4230 Rain 12 1012 86 10000 6.11 338 09:31 15.11.2021
4231 Rain 12 1012 85 10000 3.09 360 08:57 15.11.2021
4232 Rain 12 1010 89 10000 3.09 30 06:32 15.11.2021
4233 Rain 13 1012 80 10000 3.09 330 00:37 15.11.2021
4234 Clouds 13 1012 81 10000 2.06 340 22:44 14.11.2021
4235 Clouds 14 1012 82 10000 3.09 20 21:18 14.11.2021
4236 Clouds 15 1011 82 10000 8.23 70 19:18 14.11.2021
4237 Clouds 15 1011 82 10000 8.23 70 18:54 14.11.2021
4238 Clouds 15 1011 82 10000 9.77 80 18:36 14.11.2021
4239 Clouds 15 1011 82 10000 9.77 80 18:18 14.11.2021
4240 Clouds 15 1011 82 10000 11.83 90 17:57 14.11.2021
4241 Clouds 15 1010 82 10000 12.35 80 17:39 14.11.2021
4242 Clouds 15 1010 82 10000 12.35 80 17:21 14.11.2021
4243 Clouds 15 1010 81 10000 13.38 90 16:57 14.11.2021
4244 Clouds 15 1010 81 10000 12.86 90 16:39 14.11.2021
4245 Clouds 15 1010 81 10000 12.86 90 16:18 14.11.2021
4246 Clouds 15 1010 80 10000 13.38 80 15:19 14.11.2021
4247 Clouds 15 1010 79 10000 13.89 90 14:43 14.11.2021
4248 Clouds 16 1010 81 10000 13.89 90 14:20 14.11.2021
4249 Clouds 16 1010 80 10000 13.38 90 13:51 14.11.2021
4250 Clouds 17 1010 79 10000 13.89 90 13:26 14.11.2021
4251 Clouds 17 1010 71 10000 11.32 80 12:22 14.11.2021
4252 Clouds 16 1010 75 10000 5.66 60 10:54 14.11.2021
4253 Clouds 15 1010 73 10000 3.6 0 10:31 14.11.2021
4254 Clouds 14 1010 77 10000 4.12 330 09:22 14.11.2021
4255 Clouds 14 1010 80 10000 3.09 340 08:46 14.11.2021
4256 Clouds 12 1010 84 10000 4.63 330 04:46 14.11.2021
4257 Clear 13 1011 87 10000 3.6 330 22:31 13.11.2021
4258 Clear 14 1011 86 10000 3.09 320 21:59 13.11.2021
4259 Clear 14 1011 83 10000 2.57 330 21:32 13.11.2021
4260 Clear 15 1011 85 10000 2.06 300 20:43 13.11.2021
4261 Clouds 15 1012 87 10000 3.6 10 18:54 13.11.2021
4262 Clouds 16 1012 85 10000 4.63 50 18:32 13.11.2021
4263 Clouds 17 1012 87 10000 1.54 130 17:38 13.11.2021
4264 Clouds 17 1013 82 10000 3.6 190 15:53 13.11.2021
4265 Clouds 18 1014 81 10000 4.12 170 14:43 13.11.2021
4266 Clouds 18 1014 78 10000 5.14 180 13:47 13.11.2021
4267 Clouds 18 1015 77 10000 3.6 190 12:43 13.11.2021
4268 Clouds 18 1016 71 10000 3.09 320 11:48 13.11.2021
4269 Clouds 17 1016 71 10000 3.09 320 11:21 13.11.2021
4270 Clouds 16 1016 74 10000 4.12 320 10:33 13.11.2021
4271 Clouds 15 1016 78 10000 5.66 330 09:47 13.11.2021
4272 Clouds 15 1016 78 10000 5.14 330 09:22 13.11.2021
4273 Clouds 14 1016 81 10000 4.63 330 08:49 13.11.2021
4274 Clouds 12 1017 84 10000 5.14 330 07:51 13.11.2021
4275 Clouds 13 1017 83 10000 4.12 340 04:43 13.11.2021
4276 Clouds 13 1018 83 10000 4.63 330 04:20 13.11.2021
4277 Clouds 15 1017 82 10000 4.63 330 00:18 13.11.2021
4278 Clouds 15 1017 83 10000 4.12 330 22:34 12.11.2021
4279 Clouds 16 1016 84 10000 7.2 70 20:49 12.11.2021
4280 Clouds 16 1016 82 10000 6.17 70 19:40 12.11.2021
4281 Clouds 16 1016 82 10000 6.17 70 19:22 12.11.2021
4282 Clouds 16 1015 81 10000 7.2 80 18:20 12.11.2021
4283 Clouds 18 1014 78 10000 8.23 90 16:18 12.11.2021
4284 Clouds 18 1014 79 10000 7.72 80 14:46 12.11.2021
4285 Clouds 17 1016 78 10000 6.17 70 11:31 12.11.2021
4286 Clouds 17 1016 80 10000 8.23 80 10:43 12.11.2021
4287 Clouds 17 1015 82 10000 7.2 70 09:27 12.11.2021
4288 Clouds 16 1015 81 10000 4.12 320 08:35 12.11.2021
4289 Clouds 16 1015 74 10000 3.6 340 02:19 12.11.2021
4290 Rain 16 1017 75 10000 5.14 330 23:31 11.11.2021
4291 Clouds 16 1017 75 10000 4.12 330 22:27 11.11.2021
4292 Clouds 16 1017 74 10000 5.14 330 21:26 11.11.2021
4293 Clear 16 1017 73 10000 4.63 330 20:26 11.11.2021
4294 Clouds 16 1017 72 10000 4.12 330 18:54 11.11.2021
4295 Clouds 17 1017 73 10000 4.12 320 17:42 11.11.2021
4296 Clouds 18 1017 77 10000 3.6 330 16:38 11.11.2021
4297 Rain 19 1018 68 10000 3.09 330 14:44 11.11.2021
4298 Clouds 19 1018 67 10000 2.57 330 14:26 11.11.2021
4299 Clouds 19 1019 66 10000 4.63 340 13:36 11.11.2021
4300 Clouds 19 1019 64 10000 4.63 340 12:48 11.11.2021
4301 Clouds 18 1020 67 10000 5.66 330 10:34 11.11.2021
4302 Clouds 16 1020 70 10000 5.14 330 09:33 11.11.2021
4303 Clouds 15 1020 65 10000 5.66 330 07:36 11.11.2021
4304 Clouds 17 1020 74 10000 10.29 80 02:35 11.11.2021
4305 Clouds 17 1019 77 10000 10.29 70 22:59 10.11.2021
4306 Clouds 17 1019 80 10000 12.35 80 22:22 10.11.2021
4307 Rain 17 1018 79 10000 8.75 60 21:18 10.11.2021
4308 Rain 17 1019 83 9000 8.23 50 20:45 10.11.2021
4309 Rain 16 1018 80 10000 6.17 30 19:46 10.11.2021
4310 Rain 17 1018 75 10000 5.66 30 17:50 10.11.2021
4311 Rain 18 1017 77 10000 9.26 80 16:33 10.11.2021
4312 Clouds 19 1018 71 10000 9.26 80 14:44 10.11.2021
4313 Clouds 19 1018 68 10000 10.8 80 13:40 10.11.2021
4314 Clouds 20 1018 67 10000 12.35 80 12:47 10.11.2021
4315 Rain 20 1018 69 10000 12.35 80 10:39 10.11.2021
4316 Rain 16 1018 72 10000 5.14 20 08:45 10.11.2021
4317 Rain 17 1019 59 10000 5.66 30 07:32 10.11.2021
4318 Rain 17 1019 59 10000 5.66 30 07:32 10.11.2021
4319 Clouds 16 1018 59 10000 6.69 30 06:26 10.11.2021
4320 Rain 17 1019 52 10000 7.2 30 05:51 10.11.2021
4321 Rain 16 1019 78 10000 11.32 80 23:53 09.11.2021
4322 Rain 17 1019 51 10000 4.63 40 21:48 09.11.2021
4323 Clouds 16 1018 53 10000 5.14 20 20:32 09.11.2021
4324 Clouds 17 1019 49 10000 5.66 30 19:25 09.11.2021
4325 Clouds 18 1019 64 10000 5.14 70 17:44 09.11.2021
4326 Clear 20 1018 61 10000 8.75 100 15:45 09.11.2021
4327 Clouds 20 1018 55 10000 11.32 90 14:43 09.11.2021
4328 Clouds 19 1017 56 10000 6.69 90 12:53 09.11.2021
4329 Clouds 19 1017 56 10000 6.69 90 12:53 09.11.2021
4330 Clouds 18 1017 59 10000 10.8 90 11:56 09.11.2021
4331 Clouds 16 1017 58 10000 4.12 320 10:45 09.11.2021
4332 Clouds 15 1017 59 10000 4.12 330 09:34 09.11.2021
4333 Clouds 14 1016 51 10000 5.14 330 08:27 09.11.2021
4334 Clear 13 1015 54 10000 6.17 330 05:56 09.11.2021
4335 Clouds 13 1014 56 10000 6.17 330 02:23 09.11.2021
4336 Clouds 13 1014 56 10000 6.69 330 01:46 09.11.2021
4337 Clouds 14 1014 58 10000 5.66 330 23:59 08.11.2021
4338 Clouds 14 1013 56 10000 4.12 340 22:51 08.11.2021
4339 Clouds 14 1013 55 10000 5.14 330 22:28 08.11.2021
4340 Clouds 15 1013 53 10000 3.09 330 20:56 08.11.2021
4341 Clouds 15 1012 52 10000 4.12 340 19:53 08.11.2021
4342 Clouds 16 1011 52 10000 3.09 350 18:57 08.11.2021
4343 Clouds 16 1011 60 10000 3.6 330 17:22 08.11.2021
4344 Rain 17 1011 73 10000 3.09 40 15:27 08.11.2021
4345 Clouds 17 1011 70 10000 6.17 80 14:43 08.11.2021
4346 Clouds 18 1011 65 10000 4.63 100 13:55 08.11.2021
4347 Clouds 19 1011 66 10000 5.66 100 12:35 08.11.2021
4348 Clouds 18 1011 65 10000 3.09 70 11:26 08.11.2021
4349 Clouds 16 1010 69 10000 4.63 330 09:59 08.11.2021
4350 Clouds 15 1009 66 10000 5.14 330 08:55 08.11.2021
4351 Clouds 13 1010 74 10000 5.14 330 07:36 08.11.2021
4352 Clouds 13 1010 72 10000 4.63 330 06:20 08.11.2021
4353 Clouds 14 1011 73 10000 5.14 320 03:33 08.11.2021
4354 Clouds 16 1011 63 10000 5.14 330 23:51 07.11.2021
4355 Clouds 15 1011 66 10000 5.14 320 22:30 07.11.2021
4356 Clouds 16 1010 67 10000 4.63 310 21:22 07.11.2021
4357 Clouds 16 1010 67 10000 5.14 330 19:55 07.11.2021
4358 Clouds 16 1010 63 10000 4.12 330 18:26 07.11.2021
4359 Clouds 16 1010 64 10000 5.14 330 17:38 07.11.2021
4360 Clouds 18 1010 51 10000 5.66 330 15:55 07.11.2021
4361 Clouds 18 1010 51 10000 5.14 320 14:42 07.11.2021
4362 Clouds 18 1011 56 10000 4.12 330 13:55 07.11.2021
4363 Clouds 16 1013 42 10000 6.17 330 11:53 07.11.2021
4364 Clouds 14 1014 45 10000 7.72 330 10:19 07.11.2021
4365 Clouds 12 1015 49 10000 7.2 330 08:48 07.11.2021
4366 Clear 10 1016 52 10000 7.2 330 02:49 07.11.2021
4367 Clear 11 1018 54 10000 5.66 330 23:42 06.11.2021
4368 Clear 11 1018 56 10000 5.14 330 22:52 06.11.2021
4369 Clear 12 1018 46 10000 4.12 330 21:43 06.11.2021
4370 Clear 12 1018 49 10000 5.14 330 20:52 06.11.2021
4371 Clear 12 1019 51 10000 5.14 330 19:39 06.11.2021
4372 Clouds 15 1019 49 10000 2.57 270 17:25 06.11.2021
4373 Clouds 19 1019 37 10000 1.54 0 15:46 06.11.2021
4374 Clouds 18 1020 31 10000 1.03 0 13:39 06.11.2021
4375 Clouds 18 1020 31 10000 1.03 0 13:39 06.11.2021
4376 Clouds 18 1020 32 10000 1.54 0 12:52 06.11.2021
4377 Clear 13 1021 41 10000 5.14 340 09:55 06.11.2021
4378 Clear 10 1021 44 10000 6.17 340 08:33 06.11.2021
4379 Clear 9 1020 46 10000 7.2 340 04:50 06.11.2021
4380 Clear 11 1019 51 10000 6.17 330 23:41 05.11.2021
4381 Clear 11 1019 55 10000 4.12 340 23:19 05.11.2021
4382 Clear 11 1019 58 10000 4.12 330 22:32 05.11.2021
4383 Clear 12 1018 54 10000 4.12 340 20:26 05.11.2021
4384 Clear 12 1018 54 10000 4.63 330 19:51 05.11.2021
4385 Clear 13 1017 57 10000 3.16 13 18:43 05.11.2021
4386 Clear 14 1016 51 10000 5.66 90 17:45 05.11.2021
4387 Clear 17 1016 46 10000 7.2 100 16:37 05.11.2021
4388 Clear 18 1015 41 10000 8.23 100 14:21 05.11.2021
4389 Clear 18 1016 43 10000 7.72 90 12:26 05.11.2021
4390 Clear 11 1015 56 10000 4.63 330 09:27 05.11.2021
4391 Clouds 10 1013 57 10000 4.63 340 07:48 05.11.2021
4392 Clear 9 1012 64 10000 4.63 340 05:36 05.11.2021
4393 Clear 10 1012 69 10000 5.66 340 02:37 05.11.2021
4394 Clear 10 1012 69 10000 5.66 340 02:18 05.11.2021
4395 Clear 10 1011 71 10000 6.17 330 23:56 04.11.2021
4396 Clear 11 1011 73 10000 5.66 330 22:21 04.11.2021
4397 Clear 11 1010 72 10000 5.14 330 21:56 04.11.2021
4398 Clear 11 1010 80 10000 4.63 330 21:27 04.11.2021
4399 Clear 11 1009 73 10000 4.63 330 20:28 04.11.2021
4400 Clear 12 1009 70 10000 4.63 330 19:49 04.11.2021
4401 Clear 12 1009 71 10000 3.6 330 19:25 04.11.2021
4402 Clear 12 1008 65 10000 3.09 20 18:23 04.11.2021
4403 Clear 14 1007 60 10000 3.09 80 17:26 04.11.2021
4404 Clear 14 1007 60 10000 3.09 80 17:26 04.11.2021
4405 Clear 17 1006 50 10000 1.54 180 15:42 04.11.2021
4406 Clear 16 1005 54 10000 3.09 220 13:45 04.11.2021
4407 Clouds 13 1004 60 10000 2.57 310 10:22 04.11.2021
4408 Clouds 10 1002 70 10000 3.6 260 08:31 04.11.2021
4409 Clear 9 1001 71 10000 2.06 280 07:36 04.11.2021
4410 Clear 9 1000 69 10000 3.6 260 06:59 04.11.2021
4411 Clouds 11 997 84 10000 4.63 330 23:18 03.11.2021
4412 Clouds 11 997 84 10000 3.09 320 22:22 03.11.2021
4413 Clouds 12 996 85 10000 2.57 320 21:37 03.11.2021
4414 Clouds 12 996 84 10000 3.09 350 20:44 03.11.2021
4415 Clouds 12 996 84 10000 2.57 350 20:25 03.11.2021
4416 Clouds 12 998 88 10000 3.09 340 19:29 03.11.2021
4417 Rain 13 998 88 10000 2.57 350 18:27 03.11.2021
4418 Clouds 13 998 87 10000 4.63 320 17:42 03.11.2021
4419 Rain 13 997 88 2000 7.2 330 16:48 03.11.2021
4420 Clouds 14 996 86 10000 3.6 30 15:49 03.11.2021
4421 Clouds 15 996 86 10000 5.14 80 15:29 03.11.2021
4422 Clouds 17 998 80 10000 8.23 80 13:41 03.11.2021
4423 Clouds 15 999 77 10000 3.09 360 11:35 03.11.2021
4424 Clouds 14 1001 77 10000 4.12 360 10:50 03.11.2021
4425 Clouds 13 1001 77 10000 3.09 340 09:46 03.11.2021
4426 Clouds 13 1001 80 10000 4.12 30 08:53 03.11.2021
4427 Clouds 13 1000 77 10000 3.09 10 07:55 03.11.2021
4428 Clouds 13 1000 75 8000 2.57 330 07:32 03.11.2021
4429 Clouds 13 1001 73 10000 4.12 340 04:23 03.11.2021
4430 Clouds 14 1004 60 10000 5.14 320 00:58 03.11.2021
4431 Clear 13 1005 64 10000 3.09 310 23:24 02.11.2021
4432 Clear 14 1004 61 10000 4.63 250 21:57 02.11.2021
4433 Clear 14 1004 65 10000 0.45 252 20:43 02.11.2021
4434 Clear 15 1004 59 10000 0.45 218 19:58 02.11.2021
4435 Clear 15 1004 60 10000 1.79 248 19:27 02.11.2021
4436 Clear 16 1003 55 10000 2.24 198 18:35 02.11.2021
4437 Clear 17 1003 55 10000 2.24 233 17:46 02.11.2021
4438 Clear 17 1002 54 10000 3.13 246 17:21 02.11.2021
4439 Clear 19 1002 48 10000 3.58 238 16:19 02.11.2021
4440 Clear 19 1002 49 10000 3.58 217 14:57 02.11.2021
4441 Clear 19 1002 54 10000 4.02 275 13:31 02.11.2021
4442 Clear 18 1002 57 10000 4.47 172 12:59 02.11.2021
4443 Clear 18 1002 57 10000 4.47 200 12:18 02.11.2021
4444 Clear 17 1003 60 10000 2.24 233 11:26 02.11.2021
4445 Clear 17 1003 59 10000 1.79 229 10:38 02.11.2021
4446 Clear 16 1003 63 10000 2.24 243 10:18 02.11.2021
4447 Clear 14 1002 60 10000 1.79 255 08:22 02.11.2021
4448 Clear 15 1002 54 10000 9.26 260 06:29 02.11.2021
4449 Clear 13 1002 71 10000 3.6 300 03:30 02.11.2021
4450 Clouds 13 1001 79 10000 4.12 320 00:25 02.11.2021
4451 Clouds 14 1000 85 10000 2.06 310 22:19 01.11.2021
4452 Clouds 14 1000 86 10000 3.09 70 20:46 01.11.2021
4453 Clouds 15 1000 86 10000 3.09 70 20:26 01.11.2021
4454 Clouds 15 1000 82 10000 1.68 16 19:43 01.11.2021
4455 Clouds 16 999 84 10000 5.14 90 18:54 01.11.2021
4456 Clouds 16 999 86 10000 6.69 130 17:56 01.11.2021
4457 Clouds 17 998 83 10000 2.57 150 16:58 01.11.2021
4458 Clouds 17 998 83 10000 2.06 190 16:32 01.11.2021
4459 Clouds 17 998 85 10000 4.12 250 15:40 01.11.2021
4460 Clouds 17 998 85 10000 4.12 250 15:19 01.11.2021
4461 Clouds 17 997 86 10000 1.54 360 14:39 01.11.2021
4462 Clouds 17 997 87 10000 1.54 360 14:19 01.11.2021
4463 Rain 16 1000 88 1300 5.14 330 12:50 01.11.2021
4464 Rain 16 1001 86 10000 7.2 80 11:39 01.11.2021
4465 Mist 16 1002 86 2000 7.2 80 10:20 01.11.2021
4466 Mist 15 1005 93 4000 2.06 330 08:23 01.11.2021
4467 Mist 15 1006 93 4000 2.06 330 07:47 01.11.2021
4468 Clouds 15 1008 92 10000 1.54 350 03:55 01.11.2021
4469 Clouds 15 1008 92 10000 3.09 330 03:33 01.11.2021
4470 Clouds 16 1009 85 10000 2.57 0 23:52 31.10.2021
4471 Clouds 16 1011 86 10000 3.09 330 20:58 31.10.2021
4472 Clouds 16 1011 86 10000 2.57 350 19:54 31.10.2021
4473 Clouds 16 1011 87 10000 0.45 128 18:43 31.10.2021
4474 Clouds 16 1011 87 10000 4.63 20 18:21 31.10.2021
4475 Clouds 16 1011 87 10000 3.09 360 16:48 31.10.2021
4476 Clouds 16 1011 85 10000 4.63 30 14:53 31.10.2021
4477 Clouds 16 1012 83 10000 0.45 193 12:57 31.10.2021
4478 Clouds 16 1013 82 10000 4.63 20 11:56 31.10.2021
4479 Clouds 16 1013 84 10000 3.6 30 10:51 31.10.2021
4480 Rain 15 1013 85 10000 5.66 20 09:26 31.10.2021
4481 Rain 15 1014 86 10000 4.12 20 08:46 31.10.2021
4482 Clouds 15 1016 84 10000 4.12 10 02:54 31.10.2021
4483 Clouds 15 1015 87 10000 1.54 320 23:43 30.10.2021
4484 Clouds 15 1015 86 9000 4.12 330 21:46 30.10.2021
4485 Clouds 15 1015 86 10000 4.12 330 21:25 30.10.2021
4486 Clouds 14 1014 84 10000 4.12 340 19:35 30.10.2021
4487 Clouds 14 1014 87 8000 3.09 360 17:43 30.10.2021
4488 Rain 14 1014 88 6000 4.63 20 15:34 30.10.2021
4489 Clouds 14 1015 83 10000 5.14 360 13:58 30.10.2021
4490 Clouds 14 1015 82 10000 4.63 10 13:38 30.10.2021
4491 Clouds 14 1015 82 10000 4.63 10 13:19 30.10.2021
4492 Clouds 13 1015 82 10000 4.12 330 11:49 30.10.2021
4493 Clouds 14 1015 71 10000 4.12 340 10:34 30.10.2021
4494 Clouds 15 1014 67 10000 4.12 330 08:55 30.10.2021
4495 Clouds 15 1014 69 10000 4.63 330 07:55 30.10.2021
4496 Clouds 14 1014 70 10000 5.14 340 05:46 30.10.2021
4497 Clouds 13 1015 74 10000 3.6 340 02:26 30.10.2021
4498 Clouds 14 1016 71 10000 3.6 340 23:20 29.10.2021
4499 Clouds 15 1016 71 10000 4.12 330 22:33 29.10.2021
4500 Clouds 15 1016 72 10000 3.09 330 20:55 29.10.2021
4501 Clouds 15 1015 69 10000 2.57 350 20:31 29.10.2021
4502 Clear 16 1015 65 10000 3.6 110 19:18 29.10.2021
4503 Clouds 19 1015 59 10000 3.6 120 17:28 29.10.2021
4504 Clouds 19 1015 59 10000 3.6 120 17:28 29.10.2021
4505 Clear 20 1015 55 10000 5.14 150 15:26 29.10.2021
4506 Clouds 18 1017 58 10000 2.57 330 12:30 29.10.2021
4507 Clouds 16 1017 66 10000 3.09 330 10:46 29.10.2021
4508 Clouds 15 1016 68 10000 3.09 330 09:27 29.10.2021
4509 Clouds 16 1017 69 10000 3.6 340 02:22 29.10.2021
4510 Clouds 16 1018 67 10000 3.09 340 23:47 28.10.2021
4511 Clouds 16 1018 66 10000 2.57 320 22:21 28.10.2021
4512 Clouds 16 1018 69 10000 1.54 320 20:59 28.10.2021
4513 Clouds 17 1018 65 10000 2.57 30 19:52 28.10.2021
4514 Clouds 17 1018 65 10000 2.57 30 19:52 28.10.2021
4515 Clouds 18 1018 62 10000 4.12 100 18:36 28.10.2021
4516 Clouds 18 1019 59 10000 5.66 100 17:38 28.10.2021
4517 Clear 18 1019 58 10000 4.63 90 16:38 28.10.2021
4518 Clear 19 1019 53 10000 5.14 100 14:40 28.10.2021
4519 Clear 19 1020 55 10000 1.54 0 13:33 28.10.2021
4520 Clear 19 1020 52 10000 2.57 330 12:49 28.10.2021
4521 Clear 17 1020 56 10000 5.66 330 11:37 28.10.2021
4522 Clear 16 1020 58 10000 4.63 350 10:23 28.10.2021
4523 Clear 14 1020 62 10000 6.17 330 09:37 28.10.2021
4524 Clear 14 1020 57 10000 6.17 330 08:36 28.10.2021
4525 Clear 14 1020 58 10000 5.14 340 07:41 28.10.2021
4526 Clear 14 1021 58 10000 4.12 330 01:48 28.10.2021
4527 Clear 15 1021 65 10000 4.12 340 22:49 27.10.2021
4528 Clear 16 1021 64 10000 3.09 350 21:57 27.10.2021
4529 Clear 16 1021 67 10000 0.45 41 21:28 27.10.2021
4530 Clear 15 1021 67 10000 3.09 340 20:43 27.10.2021
4531 Clear 17 1021 63 10000 2.06 320 19:47 27.10.2021
4532 Clouds 18 1021 60 10000 1.54 320 18:56 27.10.2021
4533 Clouds 19 1021 57 10000 1.54 50 17:49 27.10.2021
4534 Clouds 20 1021 58 10000 1.03 0 16:25 27.10.2021
4535 Clouds 20 1022 59 10000 1.54 0 15:25 27.10.2021
4536 Clouds 20 1022 57 10000 1.03 0 14:24 27.10.2021
4537 Clear 17 1022 60 10000 5.14 330 11:18 27.10.2021
4538 Clear 17 1022 62 10000 5.66 330 10:56 27.10.2021
4539 Clear 14 1022 71 10000 5.66 340 09:28 27.10.2021
4540 Clear 12 1021 77 10000 6.69 330 07:46 27.10.2021
4541 Clear 13 1021 78 10000 5.14 340 05:49 27.10.2021
4542 Clear 14 1020 82 10000 3.6 340 01:26 27.10.2021
4543 Clear 14 1020 82 10000 4.12 340 00:54 27.10.2021
4544 Clear 14 1021 83 10000 3.09 330 23:55 26.10.2021
4545 Clear 14 1020 81 10000 4.12 330 22:50 26.10.2021
4546 Clear 14 1020 80 10000 2.57 330 22:27 26.10.2021
4547 Clear 14 1020 77 10000 2.57 320 21:51 26.10.2021
4548 Clear 16 1019 78 10000 0.45 195 19:59 26.10.2021
4549 Clouds 16 1019 81 10000 0.51 204 19:22 26.10.2021
4550 Clouds 18 1018 72 10000 2.57 190 18:25 26.10.2021
4551 Clouds 20 1018 70 10000 0.45 239 15:51 26.10.2021
4552 Clouds 19 1018 65 10000 0.45 266 13:45 26.10.2021
4553 Clouds 17 1020 68 10000 5.14 330 11:23 26.10.2021
4554 Clouds 14 1019 72 10000 5.14 340 09:27 26.10.2021
4555 Clouds 13 1020 67 10000 4.12 330 07:23 26.10.2021
4556 Clouds 14 1021 72 10000 3.6 320 00:29 26.10.2021
4557 Clouds 14 1021 72 10000 3.6 320 00:29 26.10.2021
4558 Clouds 16 1020 75 10000 2.06 300 23:37 25.10.2021
4559 Clouds 16 1020 75 10000 2.57 300 22:34 25.10.2021
4560 Clouds 16 1020 74 10000 2.06 290 21:47 25.10.2021
4561 Clear 16 1019 76 10000 1.12 315 20:48 25.10.2021
4562 Clouds 17 1019 72 10000 3.09 190 19:44 25.10.2021
4563 Clear 17 1019 76 10000 0.8 171 19:23 25.10.2021
4564 Clouds 18 1019 72 10000 2.06 150 18:40 25.10.2021
4565 Clouds 19 1019 69 10000 3.09 140 17:42 25.10.2021
4566 Clouds 20 1019 69 10000 0.89 269 15:24 25.10.2021
4567 Clear 19 1020 65 10000 1.54 0 12:39 25.10.2021
4568 Clear 17 1020 61 10000 4.63 330 11:25 25.10.2021
4569 Clear 13 1020 67 10000 6.17 330 09:22 25.10.2021
4570 Clear 13 1019 69 10000 6.69 330 07:26 25.10.2021
4571 Clear 13 1020 69 10000 5.14 330 05:24 25.10.2021
4572 Clear 15 1021 69 10000 3.09 350 00:52 25.10.2021
4573 Clear 15 1021 69 10000 3.09 310 00:34 25.10.2021
4574 Clear 15 1021 69 10000 3.09 310 00:34 25.10.2021
4575 Clear 15 1021 64 10000 0.45 46 23:42 24.10.2021
4576 Clear 15 1021 68 10000 4.12 330 22:39 24.10.2021
4577 Clear 16 1021 69 10000 4.12 330 22:20 24.10.2021
4578 Clear 16 1020 65 10000 3.6 330 21:33 24.10.2021
4579 Clear 17 1020 67 10000 0.45 221 20:39 24.10.2021
4580 Clear 18 1020 68 10000 5.14 90 19:47 24.10.2021
4581 Clear 19 1020 66 10000 7.2 100 18:29 24.10.2021
4582 Clear 21 1021 60 10000 6.69 90 17:46 24.10.2021
4583 Clear 22 1021 59 10000 6.69 90 15:57 24.10.2021
4584 Clear 22 1021 58 10000 7.72 100 15:19 24.10.2021
4585 Clear 21 1022 50 10000 0.51 0 13:19 24.10.2021
4586 Clear 21 1023 37 10000 1.03 0 12:23 24.10.2021
4587 Clear 18 1023 51 10000 4.63 330 11:34 24.10.2021
4588 Clear 16 1024 51 10000 4.12 330 10:38 24.10.2021
4589 Clear 13 1021 63 10000 5.66 340 08:39 24.10.2021
4590 Clear 14 1022 63 10000 5.14 330 01:53 24.10.2021
4591 Clear 16 1021 58 10000 4.12 340 23:51 23.10.2021
4592 Clear 16 1021 60 10000 4.63 330 22:40 23.10.2021
4593 Clear 18 1020 67 10000 2.06 60 20:42 23.10.2021
4594 Clear 18 1020 70 10000 4.63 90 19:26 23.10.2021
4595 Clear 19 1019 66 10000 3.6 80 18:41 23.10.2021
4596 Clear 21 1019 60 10000 4.63 90 17:44 23.10.2021
4597 Clear 22 1019 57 10000 5.14 70 16:53 23.10.2021
4598 Clouds 22 1019 60 10000 3.09 100 15:20 23.10.2021
4599 Clear 22 1019 54 10000 1.03 0 13:18 23.10.2021
4600 Clouds 15 1016 81 10000 4.12 340 00:36 23.10.2021
4601 Clouds 16 1016 79 10000 4.63 330 23:35 22.10.2021
4602 Clouds 16 1015 79 10000 2.06 320 21:27 22.10.2021
4603 Clouds 18 1014 74 10000 1.03 210 19:24 22.10.2021
4604 Clouds 20 1014 70 10000 1.54 160 18:21 22.10.2021
4605 Clouds 21 1013 65 10000 2.06 160 16:18 22.10.2021
4606 Clouds 21 1013 63 10000 0.45 286 14:35 22.10.2021
4607 Clouds 21 1014 62 10000 0.45 257 12:41 22.10.2021
4608 Clouds 20 1014 59 10000 0.89 256 12:41 22.10.2021
4609 Clouds 18 1014 59 10000 5.14 330 10:52 22.10.2021
4610 Clouds 17 1013 59 10000 6.17 330 09:57 22.10.2021
4611 Clouds 16 1012 61 10000 7.2 330 09:32 22.10.2021
4612 Clouds 15 1012 65 10000 6.69 330 07:29 22.10.2021
4613 Clouds 15 1011 67 10000 7.2 330 06:20 22.10.2021
4614 Clear 16 1011 73 10000 2.57 330 00:37 22.10.2021
4615 Clear 17 1011 73 10000 1.54 330 23:48 21.10.2021
4616 Clear 17 1010 74 10000 2.06 300 22:40 21.10.2021
4617 Clear 17 1010 74 10000 4.12 300 21:23 21.10.2021
4618 Clear 18 1010 68 10000 3.09 250 20:21 21.10.2021
4619 Clear 19 1010 64 10000 4.12 270 19:49 21.10.2021
4620 Clear 19 1010 67 10000 2.57 280 19:20 21.10.2021
4621 Clear 20 1010 70 10000 2.06 200 18:30 21.10.2021
4622 Clear 22 1010 64 10000 3.09 230 17:50 21.10.2021
4623 Clear 22 1010 66 10000 0.89 238 16:47 21.10.2021
4624 Clouds 22 1011 75 10000 1.34 233 15:28 21.10.2021
4625 Clouds 21 1011 74 10000 1.34 267 14:50 21.10.2021
4626 Clear 21 1013 71 10000 0.89 250 13:42 21.10.2021
4627 Clouds 17 1016 77 10000 4.12 320 11:47 21.10.2021
4628 Clouds 17 1015 76 10000 3.09 320 09:32 21.10.2021
4629 Clouds 17 1015 77 10000 1.03 340 07:46 21.10.2021
4630 Clouds 17 1015 76 10000 3.09 330 06:28 21.10.2021
4631 Clouds 16 1019 78 10000 2.57 330 00:32 21.10.2021
4632 Clouds 16 1020 79 10000 1.54 310 22:29 20.10.2021
4633 Clouds 17 1020 77 10000 0.45 231 21:47 20.10.2021
4634 Clouds 17 1020 75 10000 0.45 241 20:58 20.10.2021
4635 Clouds 18 1020 74 10000 2.57 250 20:38 20.10.2021
4636 Clouds 18 1020 74 10000 0.45 218 20:18 20.10.2021
4637 Clouds 19 1021 73 10000 0.89 246 19:20 20.10.2021
4638 Clouds 19 1021 71 10000 0.89 253 18:29 20.10.2021
4639 Clouds 20 1022 68 10000 0.89 259 16:27 20.10.2021
4640 Clouds 21 1023 73 10000 0.89 231 13:54 20.10.2021
4641 Clouds 16 1025 73 10000 5.14 330 09:53 20.10.2021
4642 Clouds 14 1025 83 10000 3.09 330 05:30 20.10.2021
4643 Clear 15 1026 86 10000 2.06 290 01:48 20.10.2021
4644 Clear 15 1026 83 10000 2.57 330 00:33 20.10.2021
4645 Clouds 16 1026 83 10000 2.06 330 22:37 19.10.2021
4646 Clouds 17 1026 67 10000 1.54 0 21:37 19.10.2021
4647 Clouds 18 1026 79 10000 2.06 280 20:26 19.10.2021
4648 Clouds 18 1026 78 10000 3.09 260 19:58 19.10.2021
4649 Clouds 18 1026 79 10000 4.63 220 19:34 19.10.2021
4650 Clouds 19 1026 74 10000 0.45 222 18:33 19.10.2021
4651 Clouds 20 1026 73 10000 4.12 210 17:47 19.10.2021
4652 Clouds 21 1026 70 10000 0.45 245 15:29 19.10.2021
4653 Clouds 21 1027 68 10000 0.89 239 14:37 19.10.2021
4654 Clouds 21 1027 66 10000 0.89 260 13:52 19.10.2021
4655 Clouds 20 1028 63 10000 1.03 0 12:23 19.10.2021
4656 Clouds 18 1028 67 10000 4.63 330 11:24 19.10.2021
4657 Clear 16 1027 72 10000 5.14 330 09:55 19.10.2021
4658 Clear 15 1026 80 10000 5.14 340 08:56 19.10.2021
4659 Clear 15 1026 79 10000 4.63 340 02:18 19.10.2021
4660 Clear 15 1025 79 10000 3.6 330 23:58 18.10.2021
4661 Clear 15 1025 78 10000 3.6 330 23:39 18.10.2021
4662 Clear 16 1025 77 10000 3.09 340 22:56 18.10.2021
4663 Clear 16 1025 78 10000 2.57 330 22:18 18.10.2021
4664 Clear 16 1024 76 10000 2.57 330 20:50 18.10.2021
4665 Clear 16 1024 75 10000 1.03 0 20:30 18.10.2021
4666 Clear 17 1023 75 10000 2.06 240 19:32 18.10.2021
4667 Clear 18 1023 72 10000 2.57 220 18:59 18.10.2021
4668 Clouds 21 1022 64 10000 0.45 229 16:48 18.10.2021
4669 Clouds 21 1022 66 10000 0.45 231 14:47 18.10.2021
4670 Clouds 20 1023 63 10000 2.06 330 12:20 18.10.2021
4671 Clouds 16 1023 73 10000 5.66 330 10:25 18.10.2021
4672 Clouds 15 1022 79 10000 5.14 340 09:25 18.10.2021
4673 Clouds 15 1021 79 10000 4.63 340 01:23 18.10.2021
4674 Clouds 15 1020 78 10000 4.12 330 23:20 17.10.2021
4675 Clouds 16 1020 76 10000 2.57 320 21:45 17.10.2021
4676 Clouds 16 1019 73 10000 2.06 320 20:58 17.10.2021
4677 Clouds 17 1019 73 10000 1.54 280 20:26 17.10.2021
4678 Clouds 17 1019 74 10000 0.63 255 19:38 17.10.2021
4679 Clouds 18 1018 64 10000 1.09 179 18:44 17.10.2021
4680 Clouds 20 1018 62 10000 3.09 160 16:57 17.10.2021
4681 Clouds 21 1018 73 10000 0.45 255 14:47 17.10.2021
4682 Clouds 20 1019 63 10000 0.45 257 14:24 17.10.2021
4683 Clouds 20 1019 63 10000 0.45 259 13:34 17.10.2021
4684 Clear 19 1019 73 10000 0.45 250 11:54 17.10.2021
4685 Clear 17 1019 63 10000 5.66 330 10:20 17.10.2021
4686 Clear 15 1018 66 10000 5.66 330 09:23 17.10.2021
4687 Clear 13 1017 68 10000 3.6 330 06:56 17.10.2021
4688 Clear 15 1018 70 10000 4.12 330 00:50 17.10.2021
4689 Clear 15 1018 70 10000 3.6 330 00:21 17.10.2021
4690 Clear 16 1017 70 10000 2.57 330 21:30 16.10.2021
4691 Clear 16 1017 68 10000 1.54 240 20:31 16.10.2021
4692 Clear 17 1016 68 10000 1.54 0 19:44 16.10.2021
4693 Clear 17 1016 65 10000 1.54 220 19:21 16.10.2021
4694 Clear 19 1016 60 10000 2.57 190 18:53 16.10.2021
4695 Clear 19 1016 58 10000 2.57 190 18:29 16.10.2021
4696 Clear 20 1016 56 10000 0.89 247 17:54 16.10.2021
4697 Clear 20 1016 53 10000 2.57 180 17:22 16.10.2021
4698 Clear 21 1016 47 10000 0.45 266 14:52 16.10.2021
4699 Clear 18 1017 58 10000 4.63 330 11:52 16.10.2021
4700 Clear 16 1016 62 10000 5.66 330 10:36 16.10.2021
4701 Clear 13 1015 69 10000 5.66 330 07:50 16.10.2021
4702 Clear 14 1015 80 10000 4.12 330 01:25 16.10.2021
4703 Clear 14 1014 81 10000 4.12 330 23:53 15.10.2021
4704 Clear 14 1014 81 10000 3.09 330 23:20 15.10.2021
4705 Clear 14 1014 80 10000 3.09 330 22:19 15.10.2021
4706 Clear 15 1014 75 10000 3.6 20 21:26 15.10.2021
4707 Clear 16 1014 77 10000 5.14 70 20:47 15.10.2021
4708 Clouds 17 1014 74 10000 4.63 80 19:31 15.10.2021
4709 Clouds 18 1014 69 10000 4.12 90 18:40 15.10.2021
4710 Clouds 20 1014 67 10000 5.14 90 16:29 15.10.2021
4711 Clouds 20 1015 70 10000 3.09 110 15:36 15.10.2021
4712 Clouds 20 1016 64 10000 2.06 110 13:29 15.10.2021
4713 Clouds 17 1017 63 10000 1.54 330 11:36 15.10.2021
4714 Clouds 16 1017 70 10000 3.6 320 10:57 15.10.2021
4715 Clouds 14 1017 71 10000 5.66 330 09:49 15.10.2021
4716 Clear 13 1019 78 10000 6.17 330 05:32 15.10.2021
4717 Clear 13 1021 76 10000 3.6 340 01:47 15.10.2021
4718 Clear 14 1022 74 10000 3.6 340 00:22 15.10.2021
4719 Clear 14 1022 73 10000 3.6 340 22:52 14.10.2021
4720 Clear 14 1022 71 10000 3.09 330 21:45 14.10.2021
4721 Clouds 15 1021 67 10000 2.06 300 20:49 14.10.2021
4722 Clouds 16 1021 68 10000 2.57 270 20:19 14.10.2021
4723 Clouds 16 1021 70 10000 1.55 218 19:35 14.10.2021
4724 Clouds 19 1021 58 10000 0.45 214 17:37 14.10.2021
4725 Clouds 19 1021 56 10000 0.45 195 16:51 14.10.2021
4726 Clouds 19 1021 56 10000 0.45 255 16:20 14.10.2021
4727 Clouds 19 1022 55 10000 0.45 250 14:43 14.10.2021
4728 Clouds 19 1023 52 10000 3.09 180 14:21 14.10.2021
4729 Clouds 18 1023 58 10000 1.54 0 11:44 14.10.2021
4730 Clouds 16 1022 64 10000 4.12 330 09:57 14.10.2021
4731 Clouds 15 1021 68 10000 2.73 30 07:32 14.10.2021
4732 Clouds 16 1019 64 10000 3.3 16 01:29 14.10.2021
4733 Clouds 16 1019 65 10000 3.36 10 00:29 14.10.2021
4734 Clouds 17 1018 73 10000 3.09 320 22:29 13.10.2021
4735 Clouds 18 1017 60 10000 1.54 330 21:33 13.10.2021
4736 Clouds 18 1017 58 10000 0 0 20:22 13.10.2021
4737 Clouds 19 1016 56 10000 1.54 140 18:59 13.10.2021
4738 Clouds 19 1015 55 10000 1.54 140 18:36 13.10.2021
4739 Clouds 21 1014 52 10000 0.45 293 15:53 13.10.2021
4740 Clouds 22 1014 49 10000 4.12 160 14:46 13.10.2021
4741 Clouds 22 1014 49 10000 0.45 264 14:22 13.10.2021
4742 Clouds 21 1014 56 10000 0.45 252 12:23 13.10.2021
4743 Clouds 20 1014 59 10000 2.06 320 11:35 13.10.2021
4744 Clear 16 1013 70 10000 5.14 340 08:57 13.10.2021
4745 Clear 15 1012 72 10000 4.12 340 07:43 13.10.2021
4746 Clouds 16 1012 74 10000 2.57 330 02:51 13.10.2021
4747 Clouds 16 1012 75 10000 3.09 330 02:19 13.10.2021
4748 Clouds 17 1012 76 10000 2.06 330 23:31 12.10.2021
4749 Clouds 17 1012 75 10000 1.54 10 22:48 12.10.2021
4750 Clouds 17 1012 74 10000 1.54 30 22:23 12.10.2021
4751 Clouds 17 1012 75 10000 1.54 0 20:48 12.10.2021
4752 Clouds 17 1012 75 10000 1.54 110 20:19 12.10.2021
4753 Clouds 19 1011 70 10000 0.51 0 18:58 12.10.2021
4754 Clouds 20 1011 69 10000 1.54 180 18:23 12.10.2021
4755 Clouds 21 1011 66 10000 3.09 170 16:47 12.10.2021
4756 Clouds 21 1011 66 10000 3.09 140 16:19 12.10.2021
4757 Clouds 22 1012 66 10000 2.57 130 14:51 12.10.2021
4758 Clouds 21 1013 65 10000 1.54 110 13:45 12.10.2021
4759 Clouds 21 1014 66 10000 2.06 120 12:44 12.10.2021
4760 Clouds 17 1015 73 10000 4.63 330 10:45 12.10.2021
4761 Clouds 15 1014 77 10000 5.66 330 09:20 12.10.2021
4762 Clouds 14 1014 79 10000 5.14 330 08:01 12.10.2021
4763 Clear 14 1015 79 10000 4.12 340 06:43 12.10.2021
4764 Clouds 15 1016 82 10000 4.12 340 04:35 12.10.2021
4765 Clouds 15 1017 83 10000 3.09 340 01:31 12.10.2021
4766 Clouds 16 1017 83 10000 3.09 20 23:42 11.10.2021
4767 Clouds 16 1017 84 10000 3.09 20 23:19 11.10.2021
4768 Clouds 17 1017 84 10000 3.6 20 22:31 11.10.2021
4769 Clouds 17 1017 84 10000 1.54 10 21:20 11.10.2021
4770 Clouds 18 1017 83 10000 2.57 210 19:46 11.10.2021
4771 Clouds 19 1017 82 10000 2.57 220 19:22 11.10.2021
4772 Clouds 20 1017 74 10000 3.6 210 18:20 11.10.2021
4773 Clear 21 1017 70 10000 0.45 253 16:40 11.10.2021
4774 Clear 21 1017 67 10000 3.09 170 16:19 11.10.2021
4775 Clear 21 1018 65 10000 0.89 250 15:40 11.10.2021
4776 Clear 22 1018 65 10000 3.6 180 14:53 11.10.2021
4777 Clear 21 1018 65 10000 0.89 263 13:55 11.10.2021
4778 Clear 21 1018 65 10000 0.89 270 13:32 11.10.2021
4779 Clear 18 1018 67 10000 5.14 330 10:49 11.10.2021
4780 Clear 16 1018 73 10000 4.63 340 09:45 11.10.2021
4781 Clear 14 1017 77 10000 3.6 350 07:56 11.10.2021
4782 Clouds 16 1018 80 10000 1.54 0 01:43 11.10.2021
4783 Clouds 17 1018 77 10000 2.06 340 00:55 11.10.2021
4784 Clouds 16 1018 77 10000 2.06 340 00:36 11.10.2021
4785 Clouds 17 1017 77 10000 3.09 20 22:25 10.10.2021
4786 Clouds 18 1017 76 10000 1.54 0 21:36 10.10.2021
4787 Clouds 18 1017 75 10000 3.09 220 20:57 10.10.2021
4788 Clouds 18 1017 75 10000 3.6 200 20:38 10.10.2021
4789 Clouds 18 1017 75 10000 3.6 200 20:19 10.10.2021
4790 Clouds 18 1017 74 10000 5.14 200 19:40 10.10.2021
4791 Clouds 18 1017 73 10000 5.66 200 18:55 10.10.2021
4792 Clouds 19 1017 68 10000 5.66 210 17:58 10.10.2021
4793 Clouds 20 1018 66 10000 0.89 277 15:48 10.10.2021
4794 Clouds 20 1018 66 10000 1.79 264 14:45 10.10.2021
4795 Clouds 20 1019 64 10000 2.24 230 13:39 10.10.2021
4796 Clouds 20 1019 64 10000 1.34 278 12:43 10.10.2021
4797 Clouds 18 1019 64 10000 0.89 242 11:30 10.10.2021
4798 Clouds 17 1019 63 10000 2.06 320 10:25 10.10.2021
4799 Clouds 16 1019 66 10000 2.06 330 09:18 10.10.2021
4800 Clouds 15 1019 66 10000 0.45 226 08:50 10.10.2021
4801 Clouds 16 1019 77 10000 3.09 300 04:31 10.10.2021
4802 Clouds 16 1020 79 10000 3.6 300 02:19 10.10.2021
4803 Clouds 17 1020 72 10000 4.12 260 00:41 10.10.2021
4804 Clouds 18 1020 67 10000 2.06 0 23:26 09.10.2021
4805 Clouds 18 1020 75 10000 2.57 310 21:55 09.10.2021
4806 Clouds 18 1019 69 10000 2.57 310 21:30 09.10.2021
4807 Clouds 19 1019 66 10000 3.09 290 20:19 09.10.2021
4808 Clouds 19 1018 66 10000 3.6 280 19:41 09.10.2021
4809 Clouds 19 1018 64 10000 2.06 280 18:45 09.10.2021
4810 Clouds 20 1018 61 10000 2.06 260 17:57 09.10.2021
4811 Clouds 20 1018 60 10000 1.54 0 16:20 09.10.2021
4812 Clouds 21 1019 61 10000 4.12 160 14:28 09.10.2021
4813 Clouds 21 1019 65 10000 0.45 175 13:38 09.10.2021
4814 Clouds 21 1019 61 10000 0.45 231 12:27 09.10.2021
4815 Clouds 18 1019 63 10000 0.45 243 10:45 09.10.2021
4816 Clouds 18 1019 63 10000 5.14 330 10:19 09.10.2021
4817 Clouds 16 1018 64 10000 5.66 330 08:45 09.10.2021
4818 Clouds 14 1019 72 10000 5.66 330 08:20 09.10.2021
4819 Clouds 15 1019 67 10000 6.17 330 06:37 09.10.2021
4820 Clouds 16 1018 67 10000 5.14 330 04:55 09.10.2021
4821 Clouds 16 1018 71 10000 3.6 330 02:46 09.10.2021
4822 Clear 18 1018 60 10000 0.45 43 00:30 09.10.2021
4823 Clear 18 1018 62 10000 3.6 320 23:33 08.10.2021
4824 Clear 18 1018 61 10000 4.12 340 22:46 08.10.2021
4825 Clear 19 1018 61 10000 0.89 200 21:45 08.10.2021
4826 Clouds 20 1017 62 10000 0.45 243 20:30 08.10.2021
4827 Clouds 21 1016 57 10000 3.6 140 18:23 08.10.2021
4828 Clouds 22 1017 52 10000 2.06 180 17:18 08.10.2021
4829 Clouds 22 1017 50 10000 0.45 271 17:18 08.10.2021
4830 Clouds 22 1017 51 10000 2.57 210 16:43 08.10.2021
4831 Clouds 22 1017 54 10000 2.06 180 16:21 08.10.2021
4832 Clouds 22 1017 52 10000 1.03 0 13:48 08.10.2021
4833 Clouds 21 1017 52 10000 3.09 320 11:56 08.10.2021
4834 Clouds 19 1017 56 10000 5.66 320 10:47 08.10.2021
4835 Clouds 18 1017 57 10000 4.63 330 09:48 08.10.2021
4836 Clear 17 1016 45 10000 5.14 330 05:56 08.10.2021
4837 Clear 17 1016 52 10000 4.12 330 23:28 07.10.2021
4838 Clear 17 1015 53 10000 4.12 330 22:55 07.10.2021
4839 Clear 17 1015 58 10000 3.09 330 21:29 07.10.2021
4840 Clear 18 1014 67 10000 2.57 320 20:42 07.10.2021
4841 Clouds 19 1014 63 10000 2.57 220 19:38 07.10.2021
4842 Clouds 21 1014 57 10000 3.09 200 18:54 07.10.2021
4843 Clouds 22 1013 57 10000 5.14 200 17:35 07.10.2021
4844 Clouds 22 1013 53 10000 0.45 228 16:42 07.10.2021
4845 Clouds 21 1013 57 10000 0.89 257 14:56 07.10.2021
4846 Clear 21 1013 49 10000 0.89 160 13:44 07.10.2021
4847 Clear 21 1013 48 10000 0.45 250 13:20 07.10.2021
4848 Clear 20 1014 41 10000 0.45 236 11:48 07.10.2021
4849 Clear 18 1014 46 10000 4.63 330 10:48 07.10.2021
4850 Clear 17 1014 48 10000 5.14 330 09:51 07.10.2021
4851 Clear 15 1013 48 10000 0.45 46 08:55 07.10.2021
4852 Clear 12 1015 54 10000 7.2 330 08:20 07.10.2021
4853 Clear 12 1015 54 10000 5.14 340 07:39 07.10.2021
4854 Clear 13 1014 47 10000 3.6 350 06:47 07.10.2021
4855 Clear 16 1014 63 10000 5.14 340 00:59 07.10.2021
4856 Clear 17 1014 66 10000 3.6 340 23:30 06.10.2021
4857 Clear 17 1013 68 10000 2.57 330 22:40 06.10.2021
4858 Clear 17 1013 71 10000 2.57 350 21:41 06.10.2021
4859 Clear 19 1012 63 10000 3.09 60 20:34 06.10.2021
4860 Clouds 20 1012 58 10000 4.12 110 19:26 06.10.2021
4861 Clouds 22 1011 56 10000 5.14 120 17:56 06.10.2021
4862 Clouds 22 1012 56 10000 5.14 120 16:40 06.10.2021
4863 Clouds 22 1010 59 10000 3.6 150 15:24 06.10.2021
4864 Clouds 22 1010 58 10000 4.12 190 13:31 06.10.2021
4865 Clouds 21 1010 59 10000 3.6 200 12:53 06.10.2021
4866 Clouds 21 1010 58 10000 2.06 230 12:29 06.10.2021
4867 Clouds 20 1010 54 10000 3.6 270 11:39 06.10.2021
4868 Clouds 18 1010 53 10000 1.03 0 09:57 06.10.2021
4869 Clouds 17 1010 56 10000 0.89 345 09:37 06.10.2021
4870 Clear 16 1010 58 10000 0.45 26 08:39 06.10.2021
4871 Clear 14 1012 77 10000 2.06 210 06:19 06.10.2021
4872 Clear 15 1011 72 10000 3.09 300 04:56 06.10.2021
4873 Clear 17 1012 68 10000 0.89 221 00:25 06.10.2021
4874 Clear 17 1012 66 10000 1.54 330 23:52 05.10.2021
4875 Clear 17 1012 65 10000 3.09 310 23:32 05.10.2021
4876 Clouds 18 1012 74 10000 0.45 225 22:38 05.10.2021
4877 Clouds 18 1012 74 10000 0.45 243 21:58 05.10.2021
4878 Clouds 18 1011 64 10000 6.17 290 21:32 05.10.2021
4879 Clouds 18 1012 63 10000 1.34 246 20:38 05.10.2021
4880 Clouds 19 1012 61 10000 2.24 159 20:19 05.10.2021
4881 Clear 19 1012 59 10000 1.79 242 19:26 05.10.2021
4882 Clouds 20 1012 57 10000 1.79 235 18:45 05.10.2021
4883 Clear 22 1011 51 10000 4.47 230 16:18 05.10.2021
4884 Clear 21 1011 57 10000 12.86 240 14:29 05.10.2021
4885 Clear 21 1011 64 10000 6.17 250 13:29 05.10.2021
4886 Clouds 20 1012 76 10000 5.66 260 12:36 05.10.2021
4887 Clouds 19 1013 77 10000 5.66 240 11:59 05.10.2021
4888 Clouds 17 1011 81 10000 2.06 260 10:39 05.10.2021
4889 Clouds 16 1010 84 10000 3.09 260 08:39 05.10.2021
4890 Clouds 18 1009 85 10000 6.69 90 03:55 05.10.2021
4891 Clouds 18 1010 83 10000 5.66 170 23:53 04.10.2021
4892 Clouds 20 1009 81 10000 6.69 150 21:58 04.10.2021
4893 Rain 21 1007 80 10000 0.45 221 18:55 04.10.2021
4894 Thunderstorm 23 1008 80 10000 0.45 281 17:59 04.10.2021
4895 Clouds 24 1010 79 10000 7.2 70 16:22 04.10.2021
4896 Clouds 23 1011 86 10000 6.69 80 15:31 04.10.2021
4897 Clouds 23 1012 82 10000 7.2 110 14:42 04.10.2021
4898 Clouds 24 1012 76 10000 7.2 90 13:48 04.10.2021
4899 Clouds 24 1012 73 10000 7.2 90 13:24 04.10.2021
4900 Clouds 23 1013 72 10000 5.14 70 11:35 04.10.2021
4901 Clouds 22 1013 74 10000 3.6 30 10:48 04.10.2021
4902 Clouds 21 1013 73 10000 3.6 340 09:58 04.10.2021
4903 Clouds 20 1013 78 10000 3.09 340 08:39 04.10.2021
4904 Clouds 19 1014 72 10000 3.6 340 06:56 04.10.2021
4905 Clouds 19 1014 82 10000 3.6 330 00:28 04.10.2021
4906 Clouds 19 1014 84 10000 3.6 340 22:34 03.10.2021
4907 Clouds 19 1014 86 10000 3.09 340 21:38 03.10.2021
4908 Clouds 19 1014 82 10000 4.63 330 20:55 03.10.2021
4909 Clouds 19 1015 83 10000 3.09 20 19:57 03.10.2021
4910 Clouds 20 1014 82 10000 3.09 360 18:33 03.10.2021
4911 Clouds 21 1014 82 10000 3.6 60 17:48 03.10.2021
4912 Clouds 20 1016 88 10000 4.12 90 15:57 03.10.2021
4913 Rain 22 1015 83 10000 5.66 80 14:45 03.10.2021
4914 Clouds 22 1016 88 10000 4.12 60 13:58 03.10.2021
4915 Clouds 22 1016 88 10000 3.6 70 13:21 03.10.2021
4916 Clouds 22 1016 82 10000 3.6 100 12:28 03.10.2021
4917 Clouds 22 1015 68 10000 3.6 330 10:37 03.10.2021
4918 Clouds 18 1014 76 10000 4.12 330 08:36 03.10.2021
4919 Clouds 19 1015 79 10000 2.57 340 01:30 03.10.2021
4920 Clouds 19 1016 82 10000 2.49 29 22:40 02.10.2021
4921 Clouds 21 1016 83 10000 5.14 90 20:56 02.10.2021
4922 Clouds 22 1015 79 10000 3.6 100 19:40 02.10.2021
4923 Clouds 23 1015 78 10000 4.12 110 18:51 02.10.2021
4924 Clouds 24 1016 69 10000 3.09 130 17:41 02.10.2021
4925 Clouds 24 1016 67 10000 3.6 110 17:19 02.10.2021
4926 Clouds 25 1016 56 10000 2.57 130 14:58 02.10.2021
4927 Clouds 27 1019 45 10000 1.26 130 16:34 30.09.2021
4928 Clouds 25 1020 62 10000 1.54 160 14:57 30.09.2021
4929 Clouds 25 1021 67 10000 2.57 160 12:56 30.09.2021
4930 Clear 24 1020 59 10000 1.03 0 11:35 30.09.2021
4931 Clouds 23 1020 58 10000 4.12 330 10:42 30.09.2021
4932 Clouds 20 1019 67 10000 4.12 340 09:31 30.09.2021
4933 Clear 18 1019 71 10000 4.12 330 08:28 30.09.2021
4934 Clear 18 1019 61 10000 4.12 330 06:59 30.09.2021
4935 Clear 19 1018 70 10000 4.63 340 04:42 30.09.2021
4936 Clear 19 1018 75 10000 2.57 340 00:46 30.09.2021
4937 Clear 20 1017 73 10000 3.09 330 23:30 29.09.2021
4938 Clear 20 1017 73 10000 3.09 320 21:58 29.09.2021
4939 Clear 20 1017 75 10000 1.8 22 20:57 29.09.2021
4940 Clear 21 1016 72 10000 3.09 90 20:24 29.09.2021
4941 Clouds 22 1016 71 10000 4.12 90 19:43 29.09.2021
4942 Clouds 24 1015 66 10000 5.66 100 18:25 29.09.2021
4943 Clouds 25 1015 66 10000 5.66 100 17:33 29.09.2021
4944 Clouds 25 1015 65 10000 6.17 100 16:46 29.09.2021
4945 Clouds 25 1016 66 10000 4.63 100 15:48 29.09.2021
4946 Clouds 25 1016 67 10000 2.57 130 14:38 29.09.2021
4947 Clear 25 1016 65 10000 3.09 150 13:40 29.09.2021
4948 Clear 25 1017 63 10000 1.54 0 12:47 29.09.2021
4949 Clear 24 1017 64 10000 1.03 0 11:39 29.09.2021
4950 Clear 22 1017 66 10000 3.6 340 10:39 29.09.2021
4951 Clear 20 1016 74 10000 3.6 340 09:48 29.09.2021
4952 Clear 19 1016 75 10000 4.63 330 08:45 29.09.2021
4953 Clear 18 1016 69 10000 4.12 330 07:31 29.09.2021
4954 Clear 19 1016 78 10000 2.57 330 03:29 29.09.2021
4955 Clear 21 1017 80 10000 3.09 320 23:23 28.09.2021
4956 Clear 21 1017 79 10000 1.54 320 22:22 28.09.2021
4957 Clear 21 1017 79 10000 1.54 280 21:33 28.09.2021
4958 Clear 21 1017 81 10000 0 0 20:35 28.09.2021
4959 Clear 22 1017 79 10000 1.54 220 19:42 28.09.2021
4960 Clear 23 1017 76 10000 1.54 170 18:44 28.09.2021
4961 Clear 24 1017 71 10000 1.54 0 17:53 28.09.2021
4962 Clear 25 1017 67 10000 2.06 140 15:44 28.09.2021
4963 Clear 25 1018 66 10000 2.57 140 13:38 28.09.2021
4964 Clear 24 1018 62 10000 2.06 120 12:30 28.09.2021
4965 Clear 24 1018 62 10000 2.06 120 12:30 28.09.2021
4966 Clear 25 1019 55 10000 1.03 0 11:59 28.09.2021
4967 Clear 25 1019 55 10000 1.03 0 11:40 28.09.2021
4968 Clear 23 1019 58 10000 2.57 330 10:49 28.09.2021
4969 Clear 21 1018 68 10000 4.12 340 09:45 28.09.2021
4970 Clear 19 1018 77 10000 4.12 340 08:57 28.09.2021
4971 Clear 18 1018 81 10000 5.14 330 08:34 28.09.2021
4972 Clear 18 1018 77 10000 4.12 330 06:51 28.09.2021
4973 Clear 18 1017 81 10000 3.09 330 05:27 28.09.2021
4974 Clear 19 1017 84 10000 3.09 340 01:22 28.09.2021
4975 Clear 19 1017 83 10000 2.57 330 00:25 28.09.2021
4976 Clear 20 1017 85 10000 2.57 330 23:32 27.09.2021
4977 Clear 19 1017 85 10000 2.57 330 22:55 27.09.2021
4978 Clear 20 1017 83 10000 1.03 0 21:44 27.09.2021
4979 Clear 20 1016 84 10000 1.03 40 20:44 27.09.2021
4980 Clouds 21 1016 82 10000 0 0 19:53 27.09.2021
4981 Clouds 22 1016 81 10000 1.03 0 19:27 27.09.2021
4982 Clouds 22 1016 80 10000 2.06 110 18:48 27.09.2021
4983 Clouds 23 1016 75 10000 0.45 257 17:29 27.09.2021
4984 Clouds 23 1016 76 10000 1.54 130 16:48 27.09.2021
4985 Clouds 23 1016 76 10000 2.06 140 15:44 27.09.2021
4986 Clouds 23 1016 74 10000 3.09 160 15:18 27.09.2021
4987 Clouds 24 1016 72 10000 2.57 170 13:32 27.09.2021
4988 Clouds 22 1017 70 10000 2.57 330 11:31 27.09.2021
4989 Clouds 21 1017 75 10000 5.14 330 10:36 27.09.2021
4990 Clouds 19 1016 81 10000 4.63 330 08:51 27.09.2021
4991 Clear 18 1016 81 10000 3.6 330 05:22 27.09.2021
4992 Clear 18 1016 81 10000 4.63 330 03:18 27.09.2021
4993 Clouds 20 1017 88 10000 0.45 226 22:38 26.09.2021
4994 Clear 20 1017 86 10000 1.03 0 21:53 26.09.2021
4995 Clouds 20 1017 87 10000 1.54 280 21:25 26.09.2021
4996 Clouds 20 1017 87 10000 1.54 290 20:22 26.09.2021
4997 Clouds 21 1016 83 10000 1.03 260 19:52 26.09.2021
4998 Clouds 22 1016 82 10000 1.03 0 18:46 26.09.2021
4999 Clouds 23 1016 82 10000 4.63 100 17:57 26.09.2021
5000 Clouds 23 1016 84 10000 7.2 90 17:23 26.09.2021
5001 Clouds 23 1016 90 10000 7.72 90 16:57 26.09.2021
5002 Clouds 23 1015 78 10000 9.26 80 16:20 26.09.2021
5003 Clouds 22 1016 64 10000 5.14 70 15:22 26.09.2021
5004 Thunderstorm 24 1016 61 10000 2.68 205 13:57 26.09.2021
5005 Clouds 24 1016 67 10000 2.06 340 13:21 26.09.2021
5006 Clouds 24 1017 70 10000 1.54 0 12:25 26.09.2021
5007 Clouds 23 1017 71 10000 0.51 70 11:42 26.09.2021
5008 Clouds 23 1017 71 10000 0.51 70 11:42 26.09.2021
5009 Clouds 23 1017 75 10000 1.03 0 10:37 26.09.2021
5010 Clouds 22 1017 74 10000 2.57 10 09:21 26.09.2021
5011 Clear 21 1018 78 10000 4.63 320 07:57 26.09.2021
5012 Clouds 22 1019 77 10000 3.09 330 00:28 26.09.2021
5013 Clouds 21 1018 80 10000 2.57 340 23:40 25.09.2021
5014 Rain 22 1019 81 10000 2.06 320 22:38 25.09.2021
5015 Clouds 22 1019 82 10000 2.06 320 22:18 25.09.2021
5016 Clouds 22 1018 81 10000 2.57 40 21:33 25.09.2021
5017 Clouds 22 1019 79 10000 2.57 40 21:33 25.09.2021
5018 Clouds 22 1018 83 10000 5.14 80 20:51 25.09.2021
5019 Clouds 23 1019 84 10000 5.14 90 19:32 25.09.2021
5020 Clouds 24 1018 80 10000 6.69 80 18:26 25.09.2021
5021 Clouds 24 1018 79 10000 7.72 80 16:51 25.09.2021
5022 Clouds 25 1019 75 10000 7.72 90 14:25 25.09.2021
5023 Clouds 26 1019 73 10000 0.45 225 13:54 25.09.2021
5024 Clouds 25 1019 74 10000 8.23 90 12:36 25.09.2021
5025 Clouds 23 1018 71 10000 3.09 340 10:36 25.09.2021
5026 Clouds 22 1018 72 10000 4.12 330 09:59 25.09.2021
5027 Clouds 21 1018 77 10000 5.14 330 08:52 25.09.2021
5028 Clouds 19 1018 75 10000 4.12 330 07:46 25.09.2021
5029 Clear 20 1017 78 10000 3.6 330 00:52 25.09.2021
5030 Clear 20 1017 77 10000 1.03 50 21:58 24.09.2021
5031 Clear 21 1017 73 10000 0 0 21:25 24.09.2021
5032 Clear 21 1017 74 10000 1.54 0 20:31 24.09.2021
5033 Clear 22 1016 71 10000 0.51 0 19:29 24.09.2021
5034 Clear 23 1016 66 10000 0 0 18:18 24.09.2021
5035 Clear 24 1016 64 10000 2.57 160 17:42 24.09.2021
5036 Clear 24 1016 64 10000 2.57 160 17:23 24.09.2021
5037 Clear 24 1017 64 10000 0.45 255 15:38 24.09.2021
5038 Clear 24 1017 65 10000 3.6 160 13:21 24.09.2021
5039 Clear 24 1017 65 10000 3.09 140 12:43 24.09.2021
5040 Clear 24 1017 65 10000 3.09 140 12:25 24.09.2021
5041 Clear 21 1017 72 10000 1.54 360 10:49 24.09.2021
5042 Clear 19 1017 80 10000 4.63 330 08:59 24.09.2021
5043 Clear 18 1018 72 10000 4.12 330 07:55 24.09.2021
5044 Clear 17 1018 72 10000 3.6 340 06:59 24.09.2021
5045 Clear 19 1017 75 10000 3.6 340 05:57 24.09.2021
5046 Clear 19 1018 75 10000 4.12 330 02:29 24.09.2021
5047 Clear 20 1018 70 10000 3.09 310 22:37 23.09.2021
5048 Clear 21 1018 65 10000 1.54 0 21:58 23.09.2021
5049 Clear 20 1018 69 10000 1.03 0 20:52 23.09.2021
5050 Clear 21 1018 64 10000 0 0 20:27 23.09.2021
5051 Clear 23 1020 56 10000 2.06 120 18:32 23.09.2021
5052 Clouds 25 1020 61 10000 4.12 110 15:53 23.09.2021
5053 Clouds 25 1020 61 10000 0.45 264 15:19 23.09.2021
5054 Clouds 25 1021 61 10000 0.45 253 14:25 23.09.2021
5055 Clouds 24 1021 66 10000 0.45 270 13:27 23.09.2021
5056 Clouds 24 1021 71 10000 0.45 253 12:55 23.09.2021
5057 Clouds 24 1021 67 10000 0.45 252 12:26 23.09.2021
5058 Clouds 23 1021 62 10000 0.45 239 11:57 23.09.2021
5059 Clouds 21 1021 68 10000 2.57 350 10:31 23.09.2021
5060 Clear 20 1021 70 10000 3.09 330 09:54 23.09.2021
5061 Clear 19 1020 74 10000 3.09 340 08:56 23.09.2021
5062 Clear 18 1020 72 10000 3.6 330 06:24 23.09.2021
5063 Clear 19 1019 79 10000 2.57 340 00:21 23.09.2021
5064 Clear 20 1019 74 10000 2.57 330 22:52 22.09.2021
5065 Clear 20 1019 73 10000 2.06 330 22:20 22.09.2021
5066 Clear 20 1019 77 10000 1.03 0 21:44 22.09.2021
5067 Clear 20 1019 76 10000 1.54 240 20:58 22.09.2021
5068 Clear 22 1018 74 10000 2.06 210 19:53 22.09.2021
5069 Clear 23 1018 70 10000 1.54 200 19:27 22.09.2021
5070 Clouds 24 1018 67 10000 1.54 160 18:34 22.09.2021
5071 Clear 25 1019 62 10000 1.27 140 17:33 22.09.2021
5072 Clear 25 1019 64 10000 2.95 172 15:51 22.09.2021
5073 Clear 25 1020 63 10000 4.12 110 14:29 22.09.2021
5074 Clear 25 1020 61 10000 4.63 110 13:19 22.09.2021
5075 Clear 23 1021 63 10000 2.06 130 11:20 22.09.2021
5076 Clear 19 1021 60 10000 3.6 350 09:32 22.09.2021
5077 Clear 19 1020 67 10000 3.6 330 08:45 22.09.2021
5078 Clear 19 1020 67 10000 3.6 330 08:45 22.09.2021
5079 Clear 19 1020 71 10000 4.63 340 07:35 22.09.2021
5080 Clear 20 1020 66 10000 4.12 340 06:51 22.09.2021
5081 Clear 20 1021 67 10000 4.12 340 05:48 22.09.2021
5082 Clear 19 1021 70 10000 4.12 350 04:54 22.09.2021
5083 Clear 19 1021 71 10000 3.6 340 03:23 22.09.2021
5084 Clear 20 1022 70 10000 3.09 350 00:18 22.09.2021
5085 Clear 21 1021 70 10000 3.09 330 22:27 21.09.2021
5086 Clear 21 1021 70 10000 2.06 280 20:58 21.09.2021
5087 Clear 23 1021 67 10000 1.46 79 19:38 21.09.2021
5088 Clouds 24 1021 63 10000 4.12 120 19:19 21.09.2021
5089 Clouds 24 1021 57 10000 4.12 90 16:58 21.09.2021
5090 Clouds 24 1021 60 10000 3.6 90 15:57 21.09.2021
5091 Clouds 24 1020 60 10000 2.06 190 15:25 21.09.2021
5092 Clouds 24 1021 62 10000 0.45 283 14:49 21.09.2021
5093 Clouds 24 1021 57 10000 3.09 190 13:40 21.09.2021
5094 Clouds 24 1020 60 10000 0.45 245 12:58 21.09.2021
5095 Clear 23 1020 46 10000 1.43 112 11:19 21.09.2021
5096 Clear 20 1020 56 10000 2.57 320 09:54 21.09.2021
5097 Clear 17 1019 67 10000 3.6 340 07:47 21.09.2021
5098 Clear 17 1018 72 10000 4.12 340 06:18 21.09.2021
5099 Clear 19 1017 68 10000 4.12 330 23:58 20.09.2021
5100 Clouds 20 1016 73 10000 4.12 280 21:58 20.09.2021
5101 Clouds 20 1015 88 10000 3.6 10 21:32 20.09.2021
5102 Thunderstorm 20 1015 83 4000 2.06 360 20:27 20.09.2021
5103 Rain 22 1013 74 10000 5.66 100 19:24 20.09.2021
5104 Clouds 24 1013 64 10000 4.12 130 17:39 20.09.2021
5105 Clouds 24 1011 58 10000 0.45 273 16:27 20.09.2021
5106 Clouds 24 1012 53 10000 0.45 277 15:47 20.09.2021
5107 Clouds 24 1013 53 10000 3.6 190 15:18 20.09.2021
5108 Clouds 24 1012 53 10000 2.57 190 13:42 20.09.2021
5109 Clear 24 1012 63 10000 0.45 231 12:34 20.09.2021
5110 Clear 23 1012 55 10000 2.57 330 11:19 20.09.2021
5111 Clear 21 1011 52 10000 3.6 340 09:55 20.09.2021
5112 Clear 20 1011 57 10000 4.12 340 09:34 20.09.2021
5113 Clear 19 1011 51 10000 4.12 340 08:56 20.09.2021
5114 Clear 18 1010 50 10000 3.09 340 06:51 20.09.2021
5115 Clear 21 1009 41 10000 2.57 310 23:45 19.09.2021
5116 Clear 23 1009 39 10000 0.45 314 22:21 19.09.2021
5117 Clear 23 1008 39 10000 0.89 65 21:39 19.09.2021
5118 Clouds 23 1007 39 10000 0.89 26 20:34 19.09.2021
5119 Clouds 24 1006 37 10000 2.68 246 19:18 19.09.2021
5120 Clouds 26 1005 36 10000 2.24 224 18:26 19.09.2021
5121 Clouds 26 1005 37 10000 3.58 218 17:22 19.09.2021
5122 Clouds 27 1005 37 10000 3.58 224 15:55 19.09.2021
5123 Clouds 27 1005 37 10000 3.58 224 15:55 19.09.2021
5124 Clouds 27 1006 41 10000 2.24 217 15:29 19.09.2021
5125 Clouds 26 1006 42 10000 3.58 269 14:46 19.09.2021
5126 Clouds 25 1007 55 10000 3.58 198 13:21 19.09.2021
5127 Clear 25 1008 52 10000 2.68 279 12:50 19.09.2021
5128 Clouds 23 1009 59 10000 0.89 266 11:27 19.09.2021
5129 Clear 21 1009 64 10000 0.89 215 10:35 19.09.2021
5130 Clear 21 1009 74 10000 0.45 226 09:39 19.09.2021
5131 Clear 20 1009 84 10000 0.45 246 08:31 19.09.2021
5132 Clear 20 1009 83 10000 2.06 290 06:41 19.09.2021
5133 Clear 21 1010 81 10000 3.09 340 23:38 18.09.2021
5134 Clouds 22 1011 84 10000 1.54 110 21:59 18.09.2021
5135 Clear 22 1010 81 10000 0 0 20:52 18.09.2021
5136 Clear 22 1010 84 10000 1.03 170 20:31 18.09.2021
5137 Clouds 23 1010 79 10000 2.57 190 19:39 18.09.2021
5138 Clouds 24 1010 77 10000 2.57 190 19:20 18.09.2021
5139 Clouds 25 1010 72 10000 0.45 250 18:32 18.09.2021
5140 Clouds 25 1011 74 10000 0.45 240 17:31 18.09.2021
5141 Clouds 25 1011 76 10000 0.45 232 16:18 18.09.2021
5142 Clouds 25 1012 77 10000 0.89 239 13:49 18.09.2021
5143 Clouds 25 1012 74 10000 2.57 170 13:29 18.09.2021
5144 Clouds 25 1012 75 10000 0.45 239 12:49 18.09.2021
5145 Clouds 24 1012 74 10000 1.54 280 11:41 18.09.2021
5146 Clouds 23 1011 73 10000 3.6 330 10:32 18.09.2021
5147 Clouds 21 1011 78 10000 4.63 330 09:28 18.09.2021
5148 Clouds 20 1011 80 10000 3.6 330 08:57 18.09.2021
5149 Clouds 20 1010 82 10000 3.6 340 05:49 18.09.2021
5150 Clear 20 1010 84 10000 1.99 305 00:41 18.09.2021
5151 Clear 20 1010 84 10000 1.59 309 23:49 17.09.2021
5152 Clear 21 1010 84 10000 1.31 328 22:38 17.09.2021
5153 Clear 21 1010 84 10000 0.99 343 22:19 17.09.2021
5154 Clouds 22 1009 78 10000 5.66 80 20:51 17.09.2021
5155 Clouds 24 1008 76 10000 5.66 80 19:22 17.09.2021
5156 Clouds 26 1009 65 10000 1.54 100 17:25 17.09.2021
5157 Clouds 26 1009 68 10000 3.09 170 16:27 17.09.2021
5158 Clouds 25 1010 74 10000 3.6 190 13:29 17.09.2021
5159 Clear 22 1010 74 10000 3.6 330 10:53 17.09.2021
5160 Clear 20 1010 76 10000 2.06 340 08:52 17.09.2021
5161 Clear 19 1009 78 10000 2.57 350 07:19 17.09.2021
5162 Clear 19 1011 80 10000 2.06 340 03:54 17.09.2021
5163 Clear 20 1012 89 10000 2.06 320 23:35 16.09.2021
5164 Clouds 20 1012 83 10000 1.54 290 22:28 16.09.2021
5165 Clouds 21 1012 83 10000 1.54 320 21:52 16.09.2021
5166 Clouds 21 1012 82 10000 3.09 330 21:26 16.09.2021
5167 Clouds 21 1012 85 10000 2.06 320 20:19 16.09.2021
5168 Rain 23 1012 83 10000 0.45 257 18:21 16.09.2021
5169 Rain 24 1013 84 10000 0.45 236 17:54 16.09.2021
5170 Clouds 24 1014 77 10000 2.57 200 14:59 16.09.2021
5171 Clouds 24 1014 76 10000 3.09 210 14:26 16.09.2021
5172 Clouds 23 1014 80 10000 5.14 210 12:51 16.09.2021
5173 Clouds 24 1014 70 10000 2.57 340 12:29 16.09.2021
5174 Clouds 23 1014 71 10000 2.57 320 11:28 16.09.2021
5175 Clouds 22 1014 74 10000 5.66 320 10:34 16.09.2021
5176 Clouds 22 1014 74 10000 3.6 340 09:58 16.09.2021
5177 Clouds 20 1014 77 10000 3.09 350 08:42 16.09.2021
5178 Rain 20 1014 80 10000 2.06 360 07:36 16.09.2021
5179 Rain 20 1014 80 10000 4.12 330 06:47 16.09.2021
5180 Rain 20 1014 78 10000 2.06 340 05:57 16.09.2021
5181 Clouds 21 1015 81 10000 3.6 340 01:56 16.09.2021
5182 Clouds 21 1016 85 10000 2.06 20 00:37 16.09.2021
5183 Rain 22 1015 82 10000 3.09 350 22:47 15.09.2021
5184 Rain 22 1015 82 10000 3.09 350 22:47 15.09.2021
5185 Clouds 23 1015 79 10000 2.57 20 21:56 15.09.2021
5186 Clouds 23 1015 82 10000 1.54 0 21:30 15.09.2021
5187 Clouds 23 1015 82 10000 1.54 0 21:30 15.09.2021
5188 Clouds 23 1015 80 10000 3.09 340 20:23 15.09.2021
5189 Clouds 23 1015 78 10000 3.09 350 19:29 15.09.2021
5190 Rain 25 1015 81 10000 3.09 80 18:25 15.09.2021
5191 Clouds 25 1015 84 10000 2.57 70 17:26 15.09.2021
5192 Clouds 26 1016 80 10000 4.63 100 16:20 15.09.2021
5193 Clouds 25 1016 79 10000 4.63 100 14:46 15.09.2021
5194 Clouds 25 1016 79 10000 4.12 100 14:24 15.09.2021
5195 Clouds 25 1016 74 10000 3.09 60 13:39 15.09.2021
5196 Rain 25 1016 73 10000 3.09 60 13:21 15.09.2021
5197 Clouds 24 1017 76 10000 2.06 20 12:21 15.09.2021
5198 Clouds 23 1017 82 10000 4.63 50 11:47 15.09.2021
5199 Rain 23 1017 81 10000 4.63 90 10:56 15.09.2021
5200 Clear 22 1016 79 10000 2.57 30 09:31 15.09.2021
5201 Clear 21 1016 77 10000 2.06 340 08:41 15.09.2021
5202 Clouds 21 1016 77 10000 2.06 30 05:55 15.09.2021
5203 Clear 22 1017 85 10000 0 0 23:56 14.09.2021
5204 Clear 23 1017 86 10000 0.51 130 21:58 14.09.2021
5205 Clear 23 1017 86 10000 0 0 20:56 14.09.2021
5206 Clear 24 1017 84 10000 1.54 200 19:54 14.09.2021
5207 Clear 25 1016 77 10000 2.57 170 18:24 14.09.2021
5208 Clear 25 1016 76 10000 0.89 245 17:28 14.09.2021
5209 Clouds 25 1017 81 10000 1.54 0 15:58 14.09.2021
5210 Rain 24 1017 81 10000 1.03 0 14:32 14.09.2021
5211 Rain 24 1017 82 10000 1.03 0 14:32 14.09.2021
5212 Rain 24 1017 81 10000 1.54 0 13:26 14.09.2021
5213 Clouds 24 1017 79 10000 1.03 0 10:57 14.09.2021
5214 Clear 23 1016 72 10000 2.57 330 09:51 14.09.2021
5215 Clear 22 1016 75 10000 1.54 330 09:18 14.09.2021
5216 Clouds 21 1015 77 10000 3.6 340 07:25 14.09.2021
5217 Clouds 22 1016 80 10000 2.57 320 00:53 14.09.2021
5218 Clouds 23 1015 84 10000 3.09 60 22:58 13.09.2021
5219 Clouds 23 1015 84 10000 3.6 70 22:26 13.09.2021
5220 Clouds 23 1015 84 10000 3.09 60 21:54 13.09.2021
5221 Clouds 23 1015 86 10000 3.09 60 20:58 13.09.2021
5222 Clouds 25 1015 84 10000 1.54 130 19:34 13.09.2021
5223 Clouds 25 1015 81 10000 1.54 130 18:43 13.09.2021
5224 Clouds 27 1015 68 10000 2.57 160 16:58 13.09.2021
5225 Clouds 27 1016 68 10000 0.45 242 15:50 13.09.2021
5226 Clouds 27 1016 76 10000 2.57 150 14:19 13.09.2021
5227 Clear 25 1016 70 10000 2.06 140 11:21 13.09.2021
5228 Clear 23 1016 65 10000 3.6 340 09:54 13.09.2021
5229 Clear 20 1015 71 10000 4.63 330 07:31 13.09.2021
5230 Clouds 22 1014 66 10000 0.45 56 23:50 12.09.2021
5231 Clear 23 1014 77 10000 0.51 0 22:26 12.09.2021
5232 Clear 23 1014 80 10000 1.54 230 21:51 12.09.2021
5233 Clear 23 1014 78 10000 2.57 220 20:41 12.09.2021
5234 Clear 24 1013 76 10000 3.09 210 19:54 12.09.2021
5235 Clear 25 1014 77 10000 2.06 200 19:28 12.09.2021
5236 Clouds 26 1014 76 10000 2.06 190 18:32 12.09.2021
5237 Clouds 27 1014 70 10000 2.57 170 16:42 12.09.2021
5238 Clouds 26 1015 64 10000 2.57 170 15:29 12.09.2021
5239 Clouds 25 1015 72 10000 2.06 170 13:55 12.09.2021
5240 Clouds 25 1015 65 10000 2.57 140 11:49 12.09.2021
5241 Clouds 24 1015 67 10000 1.54 110 10:18 12.09.2021
5242 Clouds 21 1014 84 10000 1.16 34 08:38 12.09.2021
5243 Clear 21 1015 68 10000 2.06 330 02:56 12.09.2021
5244 Clear 22 1015 69 10000 2.57 330 00:46 12.09.2021
5245 Clear 22 1015 75 10000 0 0 22:29 11.09.2021
5246 Clear 23 1015 76 10000 2.57 220 21:37 11.09.2021
5247 Clear 25 1014 72 10000 2.57 190 19:34 11.09.2021
5248 Clear 26 1014 67 10000 2.06 170 17:56 11.09.2021
5249 Clear 26 1015 62 10000 3.09 190 16:41 11.09.2021
5250 Clear 26 1015 58 10000 3.6 170 14:45 11.09.2021
5251 Clear 27 1016 53 10000 0.45 240 13:22 11.09.2021
5252 Clear 25 1016 63 10000 2.06 120 11:35 11.09.2021
5253 Clear 24 1016 50 10000 4.63 340 09:42 11.09.2021
5254 Clear 20 1015 67 10000 3.6 340 08:21 11.09.2021
5255 Clear 20 1015 61 10000 4.12 340 07:34 11.09.2021
5256 Clear 22 1016 61 10000 2.57 330 01:23 11.09.2021
5257 Clear 23 1015 68 10000 1.54 0 22:27 10.09.2021
5258 Clear 23 1015 65 10000 2.06 90 21:56 10.09.2021
5259 Clear 23 1015 65 10000 2.06 90 21:56 10.09.2021
5260 Clear 24 1015 62 10000 2.06 40 21:25 10.09.2021
5261 Clear 25 1014 67 10000 1.54 80 18:43 10.09.2021
5262 Clouds 26 1014 64 10000 3.6 60 17:33 10.09.2021
5263 Clouds 27 1014 60 10000 7.72 90 15:37 10.09.2021
5264 Clouds 27 1015 67 10000 8.75 100 13:18 10.09.2021
5265 Clouds 25 1014 60 10000 3.09 60 10:32 10.09.2021
5266 Clear 21 1014 68 10000 3.6 320 07:51 10.09.2021
5267 Clear 21 1014 66 10000 2.06 340 04:33 10.09.2021
5268 Clear 22 1014 74 10000 1.03 90 23:24 09.09.2021
5269 Clear 23 1014 75 10000 4.12 80 21:47 09.09.2021
5270 Clear 24 1014 75 10000 5.14 80 20:47 09.09.2021
5271 Clear 24 1014 74 10000 5.14 80 20:23 09.09.2021
5272 Clear 24 1014 76 10000 5.66 100 20:23 09.09.2021
5273 Clouds 26 1014 72 10000 5.14 90 18:37 09.09.2021
5274 Clouds 26 1015 69 10000 5.66 90 16:45 09.09.2021
5275 Clouds 26 1015 73 10000 5.14 90 16:26 09.09.2021
5276 Clear 26 1015 70 10000 8.75 80 13:35 09.09.2021
5277 Clear 26 1015 64 10000 6.17 80 11:50 09.09.2021
5278 Clear 25 1015 57 10000 2.06 60 10:48 09.09.2021
5279 Clouds 23 1014 61 10000 3.09 340 09:27 09.09.2021
5280 Clouds 22 1015 56 10000 2.57 330 06:55 09.09.2021
5281 Clouds 23 1015 52 10000 2.06 330 04:18 09.09.2021
5282 Clear 23 1015 47 10000 3.09 320 22:58 08.09.2021
5283 Clouds 23 1015 53 10000 0 0 21:47 08.09.2021
5284 Clear 23 1015 62 10000 1.03 90 20:21 08.09.2021
5285 Clear 25 1015 60 10000 2.06 90 19:43 08.09.2021
5286 Clear 26 1016 59 10000 5.14 90 18:34 08.09.2021
5287 Clear 27 1016 63 10000 5.66 90 17:58 08.09.2021
5288 Clear 27 1016 63 10000 5.14 90 17:39 08.09.2021
5289 Clouds 28 1017 56 10000 5.14 90 14:50 08.09.2021
5290 Clouds 26 1018 70 10000 3.09 80 13:25 08.09.2021
5291 Clouds 26 1018 72 10000 3.09 80 12:41 08.09.2021
5292 Clouds 26 1018 72 10000 3.09 80 12:21 08.09.2021
5293 Clouds 25 1018 71 10000 4.63 80 10:59 08.09.2021
5294 Clouds 25 1018 69 10000 3.6 70 10:27 08.09.2021
5295 Clouds 23 1017 63 10000 2.57 340 09:36 08.09.2021
5296 Clouds 21 1018 53 10000 2.57 330 07:43 08.09.2021
5297 Clouds 21 1017 62 10000 3.09 350 05:46 08.09.2021
5298 Clear 23 1018 47 10000 3.6 330 23:18 07.09.2021
5299 Clear 23 1018 45 10000 1.54 320 22:19 07.09.2021
5300 Clear 23 1018 47 10000 1.03 290 22:19 07.09.2021
5301 Clear 24 1018 51 10000 0.51 100 20:40 07.09.2021
5302 Clear 27 1018 51 10000 1.54 140 18:52 07.09.2021
5303 Clear 27 1018 51 10000 1.03 130 18:24 07.09.2021
5304 Clouds 28 1019 52 10000 1.54 130 16:59 07.09.2021
5305 Clouds 27 1020 53 10000 0.45 233 15:55 07.09.2021
5306 Clouds 27 1021 57 10000 0.45 245 14:47 07.09.2021
5307 Clouds 27 1021 63 10000 3.09 110 13:29 07.09.2021
5308 Clouds 26 1021 70 10000 2.57 100 11:58 07.09.2021
5309 Clouds 25 1021 64 10000 2.06 50 10:45 07.09.2021
5310 Clouds 22 1021 64 10000 3.6 330 08:47 07.09.2021
5311 Clouds 21 1021 68 10000 4.63 340 07:46 07.09.2021
5312 Clear 21 1021 68 10000 3.09 340 06:19 07.09.2021
5313 Clear 22 1020 71 10000 3.09 330 02:38 07.09.2021
5314 Clear 23 1021 69 10000 5.14 340 00:55 07.09.2021
5315 Clear 23 1020 62 10000 3.6 350 23:46 06.09.2021
5316 Clear 23 1020 63 10000 4.12 340 23:28 06.09.2021
5317 Clear 23 1020 63 10000 6.17 340 22:49 06.09.2021
5318 Clear 24 1020 60 10000 6.17 330 21:52 06.09.2021
5319 Clouds 25 1019 61 10000 0 0 19:44 06.09.2021
5320 Rain 25 1020 56 10000 0 0 19:18 06.09.2021
5321 Rain 26 1020 65 10000 1.54 0 18:33 06.09.2021
5322 Clouds 26 1020 58 10000 2.57 130 17:50 06.09.2021
5323 Clouds 27 1021 61 10000 1.54 140 16:20 06.09.2021
5324 Clouds 27 1021 61 10000 1.54 140 16:20 06.09.2021
5325 Clouds 27 1021 61 10000 1.54 140 16:20 06.09.2021
5326 Clouds 27 1021 64 10000 0.45 208 14:37 06.09.2021
5327 Clouds 27 1021 67 10000 0.45 210 12:49 06.09.2021
5328 Clouds 26 1021 68 10000 3.6 110 11:52 06.09.2021
5329 Clouds 25 1020 69 10000 2.06 50 10:19 06.09.2021
5330 Clouds 21 1019 68 10000 3.09 340 07:35 06.09.2021
5331 Clear 23 1018 63 10000 4.12 360 03:34 06.09.2021
5332 Clear 24 1018 60 10000 0.45 321 23:22 05.09.2021
5333 Clear 24 1018 63 10000 2.06 320 22:32 05.09.2021
5334 Clear 23 1017 74 10000 2.06 270 21:55 05.09.2021
5335 Clear 24 1017 77 10000 2.06 210 21:20 05.09.2021
5336 Clouds 24 1017 76 10000 2.06 230 19:45 05.09.2021
5337 Clouds 26 1016 67 10000 1.54 0 17:52 05.09.2021
5338 Clouds 27 1017 61 10000 0.45 224 15:58 05.09.2021
5339 Clouds 27 1017 59 10000 0.45 314 15:19 05.09.2021
5340 Clouds 26 1017 66 10000 2.57 140 12:44 05.09.2021
5341 Clouds 26 1017 71 10000 2.57 130 11:31 05.09.2021
5342 Clear 24 1016 68 10000 2.06 80 10:39 05.09.2021
5343 Clear 24 1017 53 10000 3.6 340 09:33 05.09.2021
5344 Clear 21 1015 71 10000 3.09 360 08:31 05.09.2021
5345 Clear 22 1015 68 10000 2.06 350 03:52 05.09.2021
5346 Clear 22 1015 70 10000 2.57 340 00:39 05.09.2021
5347 Clear 22 1014 68 10000 2.06 360 23:55 04.09.2021
5348 Clear 22 1014 68 10000 3.09 340 23:24 04.09.2021
5349 Clear 23 1014 67 10000 1.54 20 22:35 04.09.2021
5350 Clear 24 1013 75 10000 2.06 230 20:58 04.09.2021
5351 Clear 25 1013 67 10000 4.12 220 19:33 04.09.2021
5352 Clouds 27 1013 60 10000 4.63 220 17:25 04.09.2021
5353 Clouds 27 1014 63 10000 0.45 222 14:37 04.09.2021
5354 Clear 25 1014 68 10000 4.12 140 11:37 04.09.2021
5355 Clear 25 1014 62 10000 3.09 330 10:38 04.09.2021
5356 Clear 21 1014 60 10000 3.09 330 07:43 04.09.2021
5357 Clear 22 1014 70 10000 3.6 340 00:50 04.09.2021
5358 Clear 22 1014 70 10000 3.6 340 00:50 04.09.2021
5359 Clear 22 1014 70 10000 3.6 330 00:19 04.09.2021
5360 Clear 22 1014 63 10000 3.09 330 23:21 03.09.2021
5361 Clear 23 1014 65 10000 2.06 20 21:43 03.09.2021
5362 Clear 22 1014 78 10000 1.03 280 20:58 03.09.2021
5363 Clear 23 1014 77 10000 1.54 0 20:30 03.09.2021
5364 Clouds 24 1015 75 10000 1.03 190 19:38 03.09.2021
5365 Clouds 24 1016 75 10000 1.54 190 18:27 03.09.2021
5366 Clouds 24 1016 74 10000 1.03 0 17:21 03.09.2021
5367 Clouds 25 1017 67 10000 1.54 100 15:42 03.09.2021
5368 Clouds 25 1017 68 10000 3.6 120 14:40 03.09.2021
5369 Clouds 26 1018 68 10000 0.45 236 11:21 03.09.2021
5370 Clouds 24 1017 66 10000 2.57 350 09:55 03.09.2021
5371 Clear 22 1017 66 10000 4.12 330 08:22 03.09.2021
5372 Clear 21 1018 64 10000 4.12 330 06:50 03.09.2021
5373 Clear 23 1018 64 10000 1.54 340 23:58 02.09.2021
5374 Clear 23 1017 62 10000 4.63 20 22:21 02.09.2021
5375 Clear 24 1018 60 10000 4.12 20 20:51 02.09.2021
5376 Clear 25 1018 58 10000 5.14 30 18:52 02.09.2021
5377 Rain 25 1020 66 10000 3.6 70 16:39 02.09.2021
5378 Clear 25 1020 71 10000 3.6 90 15:31 02.09.2021
5379 Clear 26 1019 68 10000 0.45 217 13:34 02.09.2021
5380 Clear 26 1020 67 10000 6.17 80 11:44 02.09.2021
5381 Clear 26 1020 67 10000 6.17 80 11:24 02.09.2021
5382 Clear 23 1019 63 10000 2.57 20 09:20 02.09.2021
5383 Clear 20 1020 60 10000 3.09 330 07:36 02.09.2021
5384 Clear 21 1019 69 10000 3.09 340 05:53 02.09.2021
5385 Clear 21 1019 70 10000 2.06 350 02:38 02.09.2021
5386 Clear 21 1019 70 10000 3.6 340 01:50 02.09.2021
5387 Clear 22 1018 70 10000 2.57 340 23:41 01.09.2021
5388 Clear 22 1018 67 10000 2.57 340 23:23 01.09.2021
5389 Clear 23 1019 70 10000 2.57 320 22:30 01.09.2021
5390 Clear 23 1019 70 10000 2.57 320 22:30 01.09.2021
5391 Clear 23 1019 77 10000 1.54 210 21:32 01.09.2021
5392 Clear 25 1018 72 10000 1.03 0 19:37 01.09.2021
5393 Clouds 26 1018 67 10000 1.54 0 17:57 01.09.2021
5394 Clouds 26 1019 69 10000 1.03 0 17:18 01.09.2021
5395 Clouds 27 1018 67 10000 1.54 0 16:46 01.09.2021
5396 Clouds 26 1019 73 10000 2.06 160 15:18 01.09.2021
5397 Clouds 25 1019 71 10000 3.09 110 11:48 01.09.2021
5398 Clouds 24 1019 75 10000 1.03 0 10:39 01.09.2021
5399 Clouds 21 1018 76 10000 2.57 330 08:42 01.09.2021
5400 Clouds 19 1019 73 10000 2.57 340 07:50 01.09.2021
5401 Clouds 22 1016 81 10000 3.6 80 23:33 31.08.2021
5402 Clouds 22 1016 79 10000 2.57 100 22:24 31.08.2021
5403 Clouds 23 1015 78 10000 3.09 110 20:34 31.08.2021
5404 Clouds 24 1014 72 10000 3.6 110 19:43 31.08.2021
5405 Clouds 25 1014 67 10000 4.63 100 17:53 31.08.2021
5406 Clouds 26 1014 68 10000 0.45 229 17:27 31.08.2021
5407 Clouds 25 1016 65 10000 3.6 100 16:41 31.08.2021
5408 Clouds 26 1015 66 10000 0.45 240 15:56 31.08.2021
5409 Clouds 25 1015 70 10000 0.45 263 12:54 31.08.2021
5410 Clouds 24 1015 70 10000 0.45 230 11:20 31.08.2021
5411 Clouds 24 1015 70 10000 4.63 80 10:44 31.08.2021
5412 Clouds 21 1014 72 10000 3.09 340 09:42 31.08.2021
5413 Clouds 19 1014 77 10000 4.63 330 08:23 31.08.2021
5414 Clear 19 1013 78 10000 4.12 330 05:57 31.08.2021
5415 Clouds 21 1013 79 10000 4.12 80 23:37 30.08.2021
5416 Clouds 21 1012 81 10000 3.6 70 22:54 30.08.2021
5417 Clouds 21 1012 78 10000 1.03 100 21:41 30.08.2021
5418 Clouds 22 1011 73 10000 2.06 140 20:42 30.08.2021
5419 Clouds 23 1011 74 10000 3.09 150 19:55 30.08.2021
5420 Clouds 24 1011 71 10000 2.57 160 19:28 30.08.2021
5421 Clouds 25 1011 67 10000 3.09 130 18:18 30.08.2021
5422 Clouds 25 1011 69 10000 0.45 224 16:49 30.08.2021
5423 Clouds 25 1012 69 10000 3.6 120 15:50 30.08.2021
5424 Clouds 26 1011 69 10000 0.45 302 14:37 30.08.2021
5425 Clouds 26 1011 67 10000 4.12 120 13:22 30.08.2021
5426 Clouds 25 1012 68 10000 3.09 120 11:56 30.08.2021
5427 Clouds 20 1011 73 10000 4.12 340 08:23 30.08.2021
5428 Clear 23 1011 67 10000 1.54 0 22:18 29.08.2021
5429 Clouds 23 1010 67 10000 2.57 230 21:25 29.08.2021
5430 Clouds 25 1010 64 10000 2.57 170 19:32 29.08.2021
5431 Clouds 25 1011 61 10000 2.06 150 18:30 29.08.2021
5432 Clouds 26 1011 61 10000 2.06 160 16:25 29.08.2021
5433 Clouds 26 1012 57 10000 4.12 160 14:34 29.08.2021
5434 Clouds 25 1012 61 10000 3.09 160 13:57 29.08.2021
5435 Clouds 26 1011 55 10000 3.09 150 12:58 29.08.2021
5436 Clouds 25 1011 56 10000 3.09 150 12:19 29.08.2021
5437 Clouds 25 1011 55 10000 2.06 110 11:41 29.08.2021
5438 Clouds 25 1011 56 10000 1.54 110 10:49 29.08.2021
5439 Clouds 24 1011 57 10000 2.57 340 10:30 29.08.2021
5440 Clouds 23 1011 63 10000 3.09 340 09:44 29.08.2021
5441 Clouds 20 1010 72 10000 4.12 340 04:39 29.08.2021
5442 Clouds 22 1011 64 10000 1.54 280 23:33 28.08.2021
5443 Clouds 23 1010 64 10000 2.06 220 20:46 28.08.2021
5444 Clouds 23 1010 61 10000 1.54 260 19:36 28.08.2021
5445 Clouds 24 1010 62 10000 2.06 200 18:27 28.08.2021
5446 Clouds 25 1010 55 10000 3.09 140 17:47 28.08.2021
5447 Clouds 25 1010 57 10000 2.06 170 17:47 28.08.2021
5448 Clouds 25 1011 53 10000 5.14 140 16:57 28.08.2021
5449 Clouds 25 1011 50 10000 9.26 110 15:27 28.08.2021
5450 Clouds 25 1009 65 10000 0.45 276 13:59 28.08.2021
5451 Clouds 25 1009 67 10000 0.45 191 13:41 28.08.2021
5452 Clouds 25 1009 64 10000 0.89 239 12:35 28.08.2021
5453 Clouds 25 1009 67 10000 0.45 233 11:40 28.08.2021
5454 Clouds 23 1008 80 10000 7.2 120 10:18 28.08.2021
5455 Clouds 20 1008 68 10000 4.12 340 07:57 28.08.2021
5456 Clear 22 1008 76 10000 3.6 330 02:36 28.08.2021
5457 Clear 24 1008 73 10000 2.06 250 21:59 27.08.2021
5458 Clear 24 1008 72 10000 2.06 220 20:55 27.08.2021
5459 Clouds 26 1007 69 10000 1.54 200 19:57 27.08.2021
5460 Clouds 27 1007 66 10000 2.57 190 18:39 27.08.2021
5461 Clouds 26 1008 65 10000 3.09 200 17:54 27.08.2021
5462 Clouds 27 1008 61 10000 3.6 190 16:47 27.08.2021
5463 Clouds 26 1007 68 10000 0.89 229 15:21 27.08.2021
5464 Clouds 26 1007 68 10000 0.45 245 14:37 27.08.2021
5465 Clouds 26 1007 69 10000 0.45 238 12:28 27.08.2021
5466 Clouds 26 1006 71 10000 0.45 236 11:23 27.08.2021
5467 Clouds 25 1006 71 10000 0.45 252 10:41 27.08.2021
5468 Clouds 22 1005 67 10000 4.12 330 09:19 27.08.2021
5469 Clouds 22 1005 68 10000 0.45 221 08:38 27.08.2021
5470 Clear 20 1005 76 10000 5.14 330 05:52 27.08.2021
5471 Clear 22 1005 77 10000 2.57 50 00:50 27.08.2021
5472 Clear 22 1005 82 10000 4.12 60 00:28 27.08.2021
5473 Clear 24 1005 84 10000 6.17 90 22:28 26.08.2021
5474 Clear 24 1005 84 10000 6.17 80 21:57 26.08.2021
5475 Clear 26 1005 77 10000 7.2 90 19:54 26.08.2021
5476 Clear 27 1006 73 10000 7.2 90 18:42 26.08.2021
5477 Clear 28 1007 61 10000 7.72 90 17:28 26.08.2021
5478 Clear 28 1008 50 10000 6.17 70 16:31 26.08.2021
5479 Clear 27 1009 65 10000 4.12 120 15:37 26.08.2021
5480 Clear 27 1009 59 10000 0.45 229 13:28 26.08.2021
5481 Clear 26 1009 62 10000 0.89 245 12:49 26.08.2021
5482 Clear 26 1009 61 10000 3.6 200 11:51 26.08.2021
5483 Clear 23 1010 62 10000 3.6 330 09:40 26.08.2021
5484 Clear 21 1011 64 10000 3.09 330 08:27 26.08.2021
5485 Clear 23 1012 61 10000 4.12 330 00:46 26.08.2021
5486 Clear 23 1012 60 10000 4.12 330 22:47 25.08.2021
5487 Clear 23 1012 61 10000 3.6 330 22:28 25.08.2021
5488 Clouds 25 1011 57 10000 3.09 330 20:58 25.08.2021
5489 Clouds 25 1011 55 10000 0.45 257 20:31 25.08.2021
5490 Clouds 25 1012 66 10000 0 0 19:55 25.08.2021
5491 Clouds 27 1012 64 10000 2.57 180 18:18 25.08.2021
5492 Clouds 27 1013 62 10000 0.89 255 16:31 25.08.2021
5493 Clouds 27 1013 62 10000 0.89 233 15:42 25.08.2021
5494 Clouds 27 1013 63 10000 2.06 180 14:47 25.08.2021
5495 Clouds 28 1014 54 10000 1.54 170 13:58 25.08.2021
5496 Clouds 27 1013 56 10000 1.54 130 12:53 25.08.2021
5497 Clear 26 1013 55 10000 3.6 340 11:25 25.08.2021
5498 Clouds 24 1012 59 10000 5.14 340 10:26 25.08.2021
5499 Clouds 23 1012 61 10000 4.63 340 09:43 25.08.2021
5500 Clouds 22 1013 62 10000 4.63 340 08:40 25.08.2021
5501 Clouds 20 1013 73 10000 4.63 340 07:43 25.08.2021
5502 Clouds 22 1012 57 10000 6.17 350 01:26 25.08.2021
5503 Clouds 22 1012 58 10000 6.17 350 23:40 24.08.2021
5504 Clouds 22 1012 60 10000 1.54 0 21:48 24.08.2021
5505 Clouds 22 1012 63 10000 6.17 20 20:38 24.08.2021
5506 Clouds 22 1012 66 10000 0.45 41 19:44 24.08.2021
5507 Rain 19 1013 88 9000 4.63 310 17:57 24.08.2021
5508 Thunderstorm 20 1014 80 10000 1.34 356 17:22 24.08.2021
5509 Thunderstorm 20 1014 83 1400 1.79 307 16:38 24.08.2021
5510 Clouds 27 1012 67 10000 3.6 150 14:25 24.08.2021
5511 Clouds 27 1012 71 10000 3.6 190 13:23 24.08.2021
5512 Clouds 26 1013 74 10000 2.57 220 11:26 24.08.2021
5513 Clouds 25 1013 74 10000 2.57 220 10:48 24.08.2021
5514 Clouds 25 1013 75 10000 1.54 0 10:25 24.08.2021
5515 Clouds 23 1012 77 10000 3.6 330 08:47 24.08.2021
5516 Clouds 22 1012 76 10000 4.12 330 06:36 24.08.2021
5517 Clouds 22 1012 77 10000 2.57 330 04:40 24.08.2021
5518 Clouds 24 1012 70 10000 3.6 340 00:28 24.08.2021
5519 Clouds 24 1012 77 10000 1.54 0 22:52 23.08.2021
5520 Clouds 25 1011 80 10000 4.12 90 21:54 23.08.2021
5521 Clouds 26 1011 76 10000 2.06 90 20:27 23.08.2021
5522 Clouds 27 1011 71 10000 1.54 150 18:50 23.08.2021
5523 Clouds 27 1012 74 10000 2.57 150 16:35 23.08.2021
5524 Clouds 27 1011 76 10000 2.06 120 13:58 23.08.2021
5525 Clouds 27 1012 76 10000 2.06 90 12:56 23.08.2021
5526 Clouds 27 1012 76 10000 2.57 130 11:48 23.08.2021
5527 Clouds 26 1011 73 10000 1.54 50 10:37 23.08.2021
5528 Clouds 24 1012 77 10000 3.6 330 09:31 23.08.2021
5529 Clouds 22 1012 77 10000 3.09 340 08:20 23.08.2021
5530 Clouds 22 1012 80 10000 2.57 330 06:48 23.08.2021
5531 Clouds 22 1012 84 10000 2.57 330 05:40 23.08.2021
5532 Clouds 24 1013 84 10000 3.09 100 00:51 23.08.2021
5533 Clouds 24 1013 84 10000 2.06 100 22:44 22.08.2021
5534 Clouds 24 1014 84 10000 2.06 90 22:24 22.08.2021
5535 Clouds 25 1013 84 9000 2.57 120 20:21 22.08.2021
5536 Clouds 25 1014 84 9000 2.57 130 19:28 22.08.2021
5537 Clouds 27 1015 76 10000 4.63 200 16:33 22.08.2021
5538 Clouds 28 1016 74 10000 0.45 252 14:56 22.08.2021
5539 Clouds 28 1016 74 10000 0.45 259 14:37 22.08.2021
5540 Clouds 28 1016 75 10000 0.45 252 13:21 22.08.2021
5541 Clouds 27 1016 75 10000 0.45 240 12:51 22.08.2021
5542 Clouds 27 1017 76 10000 3.6 120 12:25 22.08.2021
5543 Clouds 27 1017 77 10000 3.09 100 11:42 22.08.2021
5544 Clouds 25 1017 81 10000 3.09 100 10:21 22.08.2021
5545 Clouds 22 1016 73 10000 2.57 340 08:19 22.08.2021
5546 Clear 22 1016 76 10000 2.57 330 04:55 22.08.2021
5547 Clouds 24 1017 84 10000 1.03 210 23:57 21.08.2021
5548 Clouds 24 1017 84 10000 1.03 210 23:57 21.08.2021
5549 Clouds 24 1017 86 10000 2.06 210 22:34 21.08.2021
5550 Clouds 26 1016 81 10000 2.57 200 20:24 21.08.2021
5551 Clouds 27 1017 75 10000 2.06 160 18:39 21.08.2021
5552 Clouds 28 1017 65 10000 0.45 248 17:48 21.08.2021
5553 Clouds 28 1017 63 10000 2.57 140 16:53 21.08.2021
5554 Clouds 28 1017 66 10000 0.45 239 16:25 21.08.2021
5555 Clouds 28 1018 72 10000 2.57 150 15:35 21.08.2021
5556 Clouds 28 1018 72 10000 3.09 160 14:38 21.08.2021
5557 Clouds 28 1018 76 10000 2.57 160 13:29 21.08.2021
5558 Clouds 27 1018 78 10000 3.09 140 12:24 21.08.2021
5559 Clouds 24 1017 70 10000 1.54 0 09:29 21.08.2021
5560 Clear 22 1016 72 10000 3.09 330 05:41 21.08.2021
5561 Clear 24 1015 66 10000 1.54 230 22:56 20.08.2021
5562 Clear 24 1015 65 10000 1.03 210 21:41 20.08.2021
5563 Clear 27 1014 68 10000 0.45 219 18:26 20.08.2021
5564 Clouds 28 1014 68 10000 2.57 170 15:57 20.08.2021
5565 Clouds 26 1014 74 10000 2.57 160 13:36 20.08.2021
5566 Clouds 27 1014 76 10000 0.45 299 11:38 20.08.2021
5567 Clouds 26 1014 76 10000 2.57 160 10:51 20.08.2021
5568 Clouds 25 1013 74 10000 1.54 0 09:42 20.08.2021
5569 Clouds 24 1013 69 10000 1.54 330 08:42 20.08.2021
5570 Clear 22 1013 69 10000 2.57 340 07:44 20.08.2021
5571 Clear 22 1012 72 10000 3.09 340 04:22 20.08.2021
5572 Clear 23 1012 71 10000 2.06 320 00:20 20.08.2021
5573 Clear 23 1012 74 10000 1.54 270 23:20 19.08.2021
5574 Clear 23 1012 75 10000 0 0 22:33 19.08.2021
5575 Clear 25 1012 65 10000 1.03 140 20:39 19.08.2021
5576 Clear 27 1012 63 10000 1.54 180 19:43 19.08.2021
5577 Clear 29 1012 57 10000 1.54 110 17:25 19.08.2021
5578 Clear 29 1012 59 10000 0.45 240 16:30 19.08.2021
5579 Clouds 28 1013 66 10000 0.45 246 13:47 19.08.2021
5580 Clouds 28 1013 73 10000 0.45 229 12:37 19.08.2021
5581 Clouds 27 1013 74 10000 0.45 228 11:30 19.08.2021
5582 Clear 27 1012 70 10000 2.06 100 10:23 19.08.2021
5583 Clear 25 1012 69 10000 2.06 70 09:47 19.08.2021
5584 Clear 25 1012 62 10000 2.57 20 09:19 19.08.2021
5585 Clear 22 1012 67 10000 3.09 360 06:53 19.08.2021
5586 Clear 24 1012 66 10000 4.12 340 02:25 19.08.2021
5587 Clear 24 1012 63 10000 3.09 340 01:51 19.08.2021
5588 Clear 25 1012 60 10000 0.51 0 22:56 18.08.2021
5589 Clear 26 1011 65 10000 0.45 240 21:40 18.08.2021
5590 Clear 25 1011 65 10000 0.45 240 21:40 18.08.2021
5591 Clear 26 1011 64 10000 0.45 236 20:32 18.08.2021
5592 Clear 27 1011 69 10000 4.12 200 19:34 18.08.2021
5593 Clouds 28 1011 67 10000 0.45 221 18:54 18.08.2021
5594 Clouds 28 1011 64 10000 0.45 214 17:57 18.08.2021
5595 Clouds 28 1013 61 10000 2.06 160 16:23 18.08.2021
5596 Clouds 27 1013 65 10000 2.57 160 15:38 18.08.2021
5597 Clouds 28 1012 62 10000 0.45 211 15:20 18.08.2021
5598 Clouds 28 1012 64 10000 0.45 12 12:43 18.08.2021
5599 Clouds 28 1012 66 10000 0.45 249 12:25 18.08.2021
5600 Clear 27 1011 64 10000 2.06 100 10:43 18.08.2021
5601 Clear 22 1010 66 10000 3.6 330 07:47 18.08.2021
5602 Clear 24 1010 41 10000 3.6 330 00:44 18.08.2021
5603 Clear 26 1010 40 10000 2.57 330 22:30 17.08.2021
5604 Clear 26 1010 46 10000 0 0 21:27 17.08.2021
5605 Clear 27 1010 49 10000 2.06 250 20:45 17.08.2021
5606 Clouds 29 1010 55 10000 0.45 229 19:18 17.08.2021
5607 Clouds 29 1011 54 10000 3.6 200 17:33 17.08.2021
5608 Clouds 29 1011 54 10000 3.6 200 17:33 17.08.2021
5609 Clouds 30 1012 48 10000 4.63 200 16:39 17.08.2021
5610 Clouds 29 1012 61 10000 5.14 190 15:37 17.08.2021
5611 Clouds 30 1012 65 10000 5.14 180 14:28 17.08.2021
5612 Clouds 28 1011 59 10000 2.57 160 12:23 17.08.2021
5613 Clouds 25 1010 53 10000 4.63 330 09:22 17.08.2021
5614 Clouds 24 1009 59 10000 4.63 330 07:48 17.08.2021
5615 Clouds 24 1009 80 10000 1.34 239 04:33 17.08.2021
5616 Clouds 26 1006 86 10000 6.17 90 23:18 16.08.2021
5617 Clouds 26 1006 86 10000 7.72 90 22:46 16.08.2021
5618 Clouds 26 1006 86 10000 8.23 90 22:27 16.08.2021
5619 Clouds 26 1005 86 10000 8.23 80 21:35 16.08.2021
5620 Clouds 26 1004 86 10000 8.23 80 20:49 16.08.2021
5621 Clouds 29 1004 75 10000 6.17 90 19:24 16.08.2021
5622 Clouds 30 1005 70 10000 4.12 110 18:25 16.08.2021
5623 Clouds 30 1005 71 10000 0.45 289 17:51 16.08.2021
5624 Clouds 30 1007 71 10000 4.12 100 15:50 16.08.2021
5625 Clouds 29 1008 74 10000 0.45 1 14:56 16.08.2021
5626 Clouds 29 1009 73 10000 0.45 266 13:39 16.08.2021
5627 Clouds 29 1010 74 10000 0.45 283 12:55 16.08.2021
5628 Clouds 28 1010 73 10000 4.12 120 11:29 16.08.2021
5629 Clouds 25 1010 75 10000 2.06 330 08:53 16.08.2021
5630 Clouds 25 1010 75 10000 2.06 330 08:53 16.08.2021
5631 Clouds 24 1010 79 10000 3.6 330 07:45 16.08.2021
5632 Clouds 23 1010 79 10000 3.6 330 07:26 16.08.2021
5633 Clear 25 1011 77 10000 4.63 70 02:45 16.08.2021
5634 Clear 26 1013 84 10000 0.45 235 23:32 15.08.2021
5635 Clear 26 1012 82 10000 1.54 190 20:51 15.08.2021
5636 Clear 29 1012 72 10000 4.63 190 18:48 15.08.2021
5637 Clear 29 1012 62 10000 0.89 252 18:20 15.08.2021
5638 Clear 30 1013 67 10000 3.09 180 17:42 15.08.2021
5639 Clear 30 1013 72 10000 2.57 150 16:28 15.08.2021
5640 Clear 30 1014 74 10000 3.09 120 15:28 15.08.2021
5641 Clear 30 1014 76 10000 0.45 234 14:30 15.08.2021
5642 Clear 29 1015 76 10000 2.06 110 11:54 15.08.2021
5643 Clear 28 1016 65 10000 0.51 0 09:41 15.08.2021
5644 Clear 24 1015 69 10000 2.06 340 06:31 15.08.2021
5645 Clear 26 1016 64 10000 2.06 270 00:43 15.08.2021
5646 Clear 26 1016 79 10000 2.06 270 23:25 14.08.2021
5647 Clear 28 1016 80 10000 2.06 220 21:21 14.08.2021
5648 Clear 30 1016 62 10000 2.06 190 19:44 14.08.2021
5649 Clear 30 1016 64 10000 2.06 190 19:25 14.08.2021
5650 Clear 31 1017 68 10000 2.57 190 17:32 14.08.2021
5651 Clear 32 1017 60 10000 1.54 170 16:35 14.08.2021
5652 Clear 32 1018 60 10000 2.06 100 14:58 14.08.2021
5653 Clear 32 1018 59 10000 0.45 231 12:49 14.08.2021
5654 Clear 31 1018 61 10000 3.6 110 10:55 14.08.2021
5655 Clear 28 1018 45 10000 4.12 340 08:28 14.08.2021
5656 Clear 28 1019 58 10000 3.09 330 23:56 13.08.2021
5657 Clear 28 1019 58 10000 2.06 320 23:38 13.08.2021
5658 Clear 28 1018 66 10000 1.54 230 21:49 13.08.2021
5659 Clouds 30 1018 66 10000 0.89 236 19:29 13.08.2021
5660 Clouds 31 1018 61 10000 0.45 228 18:45 13.08.2021
5661 Clouds 32 1019 54 10000 0.45 229 16:51 13.08.2021
5662 Clouds 31 1020 55 10000 1.54 0 15:41 13.08.2021
5663 Clear 30 1019 65 10000 2.06 100 11:43 13.08.2021
5664 Clear 31 1019 65 10000 2.06 100 11:18 13.08.2021
5665 Clear 27 1018 56 10000 3.6 350 08:39 13.08.2021
5666 Clear 27 1017 61 10000 0.45 37 07:48 13.08.2021
5667 Clear 26 1017 55 10000 0.45 52 06:31 13.08.2021
5668 Clear 27 1018 54 10000 4.63 340 00:18 13.08.2021
5669 Clear 27 1018 70 10000 1.03 0 21:48 12.08.2021
5670 Clear 28 1017 65 10000 1.03 0 20:27 12.08.2021
5671 Clear 29 1017 63 10000 0.45 240 19:50 12.08.2021
5672 Clear 30 1017 65 10000 3.09 200 18:29 12.08.2021
5673 Clear 29 1017 62 10000 1.03 0 16:50 12.08.2021
5674 Clear 29 1017 62 10000 1.03 0 16:50 12.08.2021
5675 Clouds 27 1018 70 10000 1.03 0 15:39 12.08.2021
5676 Rain 26 1019 83 10000 2.57 160 13:51 12.08.2021
5677 Clear 31 1018 54 10000 0.45 285 11:38 12.08.2021
5678 Clear 26 1017 68 10000 1.03 0 08:59 12.08.2021
5679 Clear 23 1016 69 10000 2.57 340 07:30 12.08.2021
5680 Clear 25 1015 64 10000 2.57 300 23:21 11.08.2021
5681 Clear 26 1015 65 10000 1.03 0 21:44 11.08.2021
5682 Clear 30 1014 55 10000 2.06 190 19:20 11.08.2021
5683 Clear 30 1015 61 10000 2.06 170 18:26 11.08.2021
5684 Clear 30 1016 53 10000 0.45 239 15:36 11.08.2021
5685 Clear 30 1016 54 10000 0.45 234 15:18 11.08.2021
5686 Clear 30 1017 60 10000 0.89 238 13:50 11.08.2021
5687 Clear 30 1016 63 10000 3.09 110 12:29 11.08.2021
5688 Clear 30 1015 62 10000 3.09 150 11:45 11.08.2021
5689 Clear 31 1015 53 10000 0.45 259 11:21 11.08.2021
5690 Clouds 26 1016 50 10000 4.12 330 08:54 11.08.2021
5691 Clear 24 1015 57 10000 2.57 350 06:58 11.08.2021
5692 Clear 26 1014 43 10000 2.06 330 22:46 10.08.2021
5693 Clear 27 1014 45 10000 2.06 40 22:20 10.08.2021
5694 Clear 27 1015 51 10000 1.54 210 20:55 10.08.2021
5695 Clear 28 1014 57 10000 0.51 0 19:29 10.08.2021
5696 Clear 29 1015 42 10000 1.03 0 18:29 10.08.2021
5697 Clear 29 1016 57 10000 1.03 0 15:47 10.08.2021
5698 Clear 29 1016 59 10000 0.45 228 14:41 10.08.2021
5699 Clear 28 1016 60 10000 1.03 0 10:58 10.08.2021
5700 Clouds 25 1016 71 10000 1.03 0 09:37 10.08.2021
5701 Clear 22 1016 74 10000 1.03 0 06:21 10.08.2021
5702 Clear 22 1017 79 10000 1.54 0 02:40 10.08.2021
5703 Clear 23 1017 82 10000 4.12 90 23:37 09.08.2021
5704 Clear 24 1017 81 10000 1.54 110 21:54 09.08.2021
5705 Clear 24 1016 80 10000 1.54 110 21:29 09.08.2021
5706 Clear 27 1017 73 10000 3.6 120 18:54 09.08.2021
5707 Clouds 27 1018 73 10000 3.09 170 16:57 09.08.2021
5708 Clear 28 1016 64 10000 0.45 300 15:27 09.08.2021
5709 Clear 27 1016 71 10000 2.06 130 13:32 09.08.2021
5710 Clear 27 1016 70 10000 0.45 114 12:40 09.08.2021
5711 Clouds 24 1015 54 10000 2.06 320 09:56 09.08.2021
5712 Clouds 21 1015 58 10000 4.12 330 08:25 09.08.2021
5713 Clear 27 1012 42 10000 0.89 26 22:40 08.08.2021
5714 Clear 27 1011 57 10000 0.89 269 21:25 08.08.2021
5715 Clear 30 1010 39 10000 1.34 233 18:50 08.08.2021
5716 Clear 33 1009 26 10000 2.68 235 16:39 08.08.2021
5717 Clear 34 1010 22 10000 11.32 290 15:30 08.08.2021
5718 Clouds 30 1009 46 10000 1.03 0 12:49 08.08.2021
5719 Clouds 26 1009 51 10000 2.57 180 10:44 08.08.2021
5720 Clear 21 1007 78 10000 2.57 330 06:43 08.08.2021
5721 Clear 21 1007 77 10000 2.57 330 05:35 08.08.2021
5722 Clear 23 1007 76 10000 1.03 0 00:29 08.08.2021
5723 Clear 23 1007 76 10000 2.57 210 22:19 07.08.2021
5724 Clear 23 1006 73 10000 1.54 210 21:40 07.08.2021
5725 Clouds 26 1006 70 10000 1.54 0 19:46 07.08.2021
5726 Clouds 27 1007 63 10000 2.57 110 17:27 07.08.2021
5727 Clouds 27 1007 68 10000 0.45 249 16:25 07.08.2021
5728 Clouds 26 1008 72 10000 0.45 253 14:25 07.08.2021
5729 Clouds 26 1008 77 10000 4.63 100 12:26 07.08.2021
5730 Clouds 24 1008 80 10000 4.63 80 09:56 07.08.2021
5731 Clear 21 1007 82 10000 2.57 340 04:56 07.08.2021
5732 Clear 22 1007 79 10000 2.06 0 23:54 06.08.2021
5733 Clear 24 1006 76 10000 8.23 90 21:23 06.08.2021
5734 Clear 25 1005 71 10000 7.72 90 20:27 06.08.2021
5735 Clear 27 1005 69 10000 0.45 236 19:55 06.08.2021
5736 Clear 28 1007 64 10000 8.23 80 18:28 06.08.2021
5737 Clouds 28 1007 65 10000 0.45 253 13:50 06.08.2021
5738 Clouds 25 1007 75 10000 4.63 100 10:31 06.08.2021
5739 Clouds 24 1007 76 10000 2.06 60 09:26 06.08.2021
5740 Clear 21 1006 81 10000 1.03 360 01:46 06.08.2021
5741 Clear 22 1006 76 10000 5.14 80 23:27 05.08.2021
5742 Clear 24 1005 72 10000 7.72 90 21:31 05.08.2021
5743 Clear 27 1005 64 10000 0.45 277 19:56 05.08.2021
5744 Clear 28 1005 60 10000 0.45 274 18:37 05.08.2021
5745 Clear 29 1006 50 10000 6.69 90 15:47 05.08.2021
5746 Clear 28 1007 53 10000 0.45 246 13:57 05.08.2021
5747 Clear 23 1008 62 10000 0.45 225 10:50 05.08.2021
5748 Clear 21 1008 74 10000 3.09 300 08:20 05.08.2021
5749 Clear 20 1007 71 10000 1.54 300 03:37 05.08.2021
5750 Clear 21 1008 79 10000 2.57 300 22:41 04.08.2021
5751 Clear 21 1008 81 10000 1.54 40 21:27 04.08.2021
5752 Clear 22 1009 82 10000 1.54 180 20:41 04.08.2021
5753 Clouds 22 1011 78 10000 3.6 260 17:24 04.08.2021
5754 Rain 22 1011 85 10000 3.6 330 14:59 04.08.2021
5755 Rain 22 1011 85 10000 3.6 330 14:41 04.08.2021
5756 Rain 22 1011 73 10000 2.57 330 09:30 04.08.2021
5757 Clear 22 1012 78 10000 4.12 80 22:32 03.08.2021
5758 Clear 24 1011 73 10000 6.69 80 20:32 03.08.2021
5759 Clouds 25 1012 68 10000 5.66 90 18:58 03.08.2021
5760 Clouds 27 1012 63 10000 0.45 229 17:31 03.08.2021
5761 Clouds 26 1014 74 10000 0.45 210 13:58 03.08.2021
5762 Clouds 24 1014 72 10000 0.45 300 10:58 03.08.2021
5763 Clouds 24 1014 71 10000 0.89 253 10:38 03.08.2021
5764 Clear 23 1012 73 10000 8.23 70 22:59 02.08.2021
5765 Clouds 28 1011 54 10000 3.09 100 17:28 02.08.2021
5766 Clouds 29 1012 48 10000 6.69 90 15:46 02.08.2021
5767 Clouds 26 1012 59 10000 3.6 180 12:47 02.08.2021
5768 Clouds 26 1012 61 10000 3.09 170 11:58 02.08.2021
5769 Clouds 25 1011 62 10000 2.57 90 10:58 02.08.2021
5770 Clouds 24 1011 58 10000 4.12 330 09:45 02.08.2021
5771 Clear 28 1003 38 10000 2.24 236 20:29 01.08.2021
5772 Clear 31 1003 35 10000 3.58 239 17:47 01.08.2021
5773 Clear 29 1003 49 10000 0.89 256 12:55 01.08.2021
5774 Clear 27 1004 55 10000 0.89 246 11:35 01.08.2021
5775 Clouds 22 1005 85 10000 3.09 330 04:53 01.08.2021
5776 Clouds 22 1005 82 10000 2.57 350 03:46 01.08.2021
5777 Clouds 25 1006 83 10000 1.03 140 22:41 31.07.2021
5778 Clouds 26 1006 79 10000 3.09 120 19:53 31.07.2021
5779 Clouds 28 1008 67 10000 4.12 110 16:38 31.07.2021
5780 Clouds 28 1008 70 10000 2.57 140 15:27 31.07.2021
5781 Clouds 28 1008 73 10000 4.63 130 11:49 31.07.2021
5782 Clear 22 1008 82 10000 2.57 320 06:18 31.07.2021
5783 Clear 24 1009 80 10000 1.17 288 22:43 30.07.2021
5784 Clear 26 1009 75 10000 4.63 210 20:25 30.07.2021
5785 Clouds 28 1011 73 10000 2.57 150 16:32 30.07.2021
5786 Clear 25 1012 83 10000 0 0 22:26 29.07.2021
5787 Clouds 23 1013 70 10000 4.12 330 08:43 29.07.2021
5788 Clouds 22 1012 82 10000 3.6 330 04:52 29.07.2021
5789 Clouds 22 1013 81 10000 3.6 330 04:28 29.07.2021
5790 Clear 28 1012 67 10000 2.57 100 19:55 28.07.2021
5791 Clear 29 1012 68 10000 3.09 190 17:18 28.07.2021
5792 Clouds 26 1013 70 10000 1.54 90 09:56 28.07.2021
5793 Clouds 23 1013 78 10000 2.06 30 01:53 28.07.2021
5794 Clear 25 1013 82 10000 1.03 160 21:37 27.07.2021
5795 Clouds 28 1013 70 10000 4.63 200 18:26 27.07.2021
5796 Clouds 29 1013 67 10000 0.45 246 14:51 27.07.2021
5797 Clear 27 1013 65 10000 1.54 50 10:36 27.07.2021
5798 Clouds 22 1012 78 10000 4.12 330 07:31 27.07.2021
5799 Clouds 29 1011 71 10000 5.14 100 15:35 26.07.2021
5800 Clouds 29 1011 69 10000 0.45 284 13:43 26.07.2021
5801 Clouds 25 1008 84 10000 1.54 110 21:44 25.07.2021
5802 Clouds 26 1007 84 10000 1.54 110 20:55 25.07.2021
5803 Clouds 28 1008 78 10000 2.06 150 17:45 25.07.2021
5804 Clear 29 1007 75 10000 0.45 273 15:27 25.07.2021
5805 Clear 28 1007 54 10000 0.45 221 10:30 25.07.2021
5806 Clear 24 1007 56 10000 3.6 330 08:18 25.07.2021
5807 Clouds 27 1010 57 10000 2.05 102 20:23 24.07.2021
5808 Clouds 27 1009 80 10000 7.2 90 19:37 24.07.2021
5809 Clouds 27 1012 75 10000 3.09 90 11:59 24.07.2021
5810 Clouds 28 1013 69 10000 2.06 140 17:36 23.07.2021
5811 Clouds 28 1014 73 10000 0.45 223 14:35 23.07.2021
5812 Clouds 28 1014 73 10000 3.09 140 12:40 23.07.2021
5813 Clouds 24 1015 82 10000 2.06 210 22:53 22.07.2021
5814 Clouds 29 1016 65 10000 0.45 231 15:27 22.07.2021
5815 Clouds 27 1017 72 10000 2.57 160 11:19 22.07.2021
5816 Clear 23 1017 72 10000 2.57 330 08:34 22.07.2021
5817 Clear 22 1016 78 10000 0 0 01:43 22.07.2021
5818 Clear 24 1016 78 10000 0 0 21:42 21.07.2021
5819 Clear 25 1016 78 10000 0.51 0 21:22 21.07.2021
5820 Clouds 27 1017 74 10000 0.45 222 11:52 21.07.2021
5821 Clouds 24 1016 82 10000 1.54 0 09:20 21.07.2021
5822 Clouds 23 1015 81 10000 2.06 330 06:42 21.07.2021
5823 Clear 25 1014 79 10000 2.57 200 21:54 20.07.2021
5824 Clear 29 1013 66 10000 3.09 160 16:36 20.07.2021
5825 Clear 28 1014 62 10000 3.09 100 15:28 20.07.2021
5826 Clear 30 1013 60 10000 2.75 154 12:36 20.07.2021
5827 Clear 24 1012 62 10000 3.6 340 08:27 20.07.2021
5828 Clear 23 1011 67 10000 6.17 330 03:20 20.07.2021
5829 Rain 25 1012 75 10000 4.63 350 19:21 19.07.2021
5830 Clouds 30 1012 46 10000 1.54 0 12:52 19.07.2021
5831 Clear 25 1010 56 10000 4.12 330 07:39 19.07.2021
5832 Clear 30 1009 34 10000 2.57 200 17:22 18.07.2021
5833 Clear 32 1009 29 10000 3.6 330 10:53 18.07.2021
5834 Clear 25 1010 51 10000 3.6 340 00:21 18.07.2021
5835 Clear 25 1010 63 10000 3.09 70 22:21 17.07.2021
5836 Clear 26 1010 57 10000 0.45 212 21:41 17.07.2021
5837 Clear 28 1011 59 10000 0.45 264 17:33 17.07.2021
5838 Clear 26 1012 57 10000 0.45 229 11:34 17.07.2021
5839 Clear 19 1012 71 10000 6.17 330 04:55 17.07.2021
5840 Clear 21 1012 83 10000 4.63 330 17:58 16.07.2021
5841 Clouds 25 1013 59 10000 2.06 150 13:20 16.07.2021
5842 Clear 20 1012 83 10000 2.06 310 07:26 16.07.2021
5843 Clouds 21 1013 83 10000 3.6 80 23:50 15.07.2021
5844 Clouds 24 1012 68 10000 0.45 236 13:52 15.07.2021
5845 Clouds 23 1012 69 10000 0.45 217 10:31 15.07.2021
5846 Clouds 20 1012 79 10000 0.48 320 00:33 15.07.2021
5847 Clouds 26 1011 44 10000 5.66 100 16:57 14.07.2021
5848 Clear 26 1010 44 10000 0.45 245 14:57 14.07.2021
5849 Clouds 19 1008 57 10000 3.09 310 06:32 14.07.2021
5850 Clouds 24 1003 36 10000 0.45 262 21:38 13.07.2021
5851 Clouds 26 1002 37 10000 4.02 230 19:55 13.07.2021
5852 Clouds 27 1001 36 10000 4.02 263 19:27 13.07.2021
5853 Clouds 28 1001 37 10000 3.58 259 18:45 13.07.2021
5854 Clouds 28 1001 36 10000 3.13 250 18:25 13.07.2021
5855 Clouds 29 1001 37 10000 2.68 210 17:56 13.07.2021
5856 Clouds 27 1004 50 10000 0.89 319 12:52 13.07.2021
5857 Clear 23 1005 64 10000 3.6 330 08:49 13.07.2021
5858 Clouds 25 1008 80 10000 8.75 80 20:00 12.07.2021
5859 Clouds 27 1011 74 10000 0.45 250 16:45 12.07.2021
5860 Clouds 25 1012 80 10000 2.06 70 09:59 12.07.2021
5861 Clear 23 1012 76 10000 2.06 70 21:59 11.07.2021
5862 Clear 26 1012 72 10000 1.54 0 19:53 11.07.2021
5863 Clouds 24 1012 79 10000 5.66 70 09:19 11.07.2021
5864 Clear 23 1014 74 10000 2.06 220 22:30 10.07.2021
5865 Clouds 26 1015 70 10000 3.6 170 11:37 10.07.2021
5866 Clouds 21 1016 74 10000 3.09 330 07:49 10.07.2021
5867 Clear 21 1016 85 10000 1.31 357 23:19 09.07.2021
5868 Clouds 26 1017 61 10000 2.06 190 18:20 09.07.2021
5869 Clouds 26 1016 61 10000 0.45 253 14:48 09.07.2021
5870 Clear 22 1016 54 10000 5.14 330 08:37 09.07.2021
5871 Clear 24 1015 42 10000 2.06 320 23:49 08.07.2021
5872 Clear 26 1014 40 10000 5.14 290 22:30 08.07.2021
5873 Clouds 30 1013 40 10000 2.68 284 18:56 08.07.2021
5874 Clouds 30 1013 38 10000 1.79 235 17:42 08.07.2021
5875 Clouds 28 1015 77 10000 5.14 180 13:31 08.07.2021
5876 Clouds 27 1014 79 10000 0.45 255 12:41 08.07.2021
5877 Clouds 27 1014 76 10000 2.06 170 11:32 08.07.2021
5878 Clouds 26 1015 77 10000 1.54 0 09:51 08.07.2021
5879 Clouds 23 1014 71 10000 4.12 330 04:42 08.07.2021
5880 Clouds 23 1014 84 10000 1.19 324 00:47 08.07.2021
5881 Clear 23 1014 86 10000 0.51 0 22:56 07.07.2021
5882 Clouds 23 1013 86 10000 1.03 90 22:18 07.07.2021
5883 Clouds 24 1013 86 10000 0.51 0 21:41 07.07.2021
5884 Clouds 24 1013 86 10000 1.03 100 21:22 07.07.2021
5885 Clear 27 1013 79 10000 3.09 110 19:56 07.07.2021
5886 Clear 27 1013 76 10000 2.57 110 19:28 07.07.2021
5887 Clear 28 1013 76 10000 2.06 120 17:36 07.07.2021
5888 Clear 28 1013 76 10000 2.06 120 17:36 07.07.2021
5889 Clear 28 1013 72 10000 0.45 267 15:30 07.07.2021
5890 Clear 28 1012 74 10000 2.06 140 12:25 07.07.2021
5891 Clouds 23 1012 75 10000 1.54 0 08:36 07.07.2021
5892 Clouds 21 1011 77 10000 3.09 340 06:43 07.07.2021
5893 Clear 21 1010 73 10000 3.6 330 05:42 07.07.2021
5894 Clear 24 1011 84 10000 3.09 90 21:32 06.07.2021
5895 Clouds 26 1011 77 10000 3.09 110 19:30 06.07.2021
5896 Clouds 26 1011 76 10000 3.09 120 18:47 06.07.2021
5897 Clouds 27 1013 73 10000 3.09 110 18:28 06.07.2021
5898 Clouds 28 1014 73 10000 4.63 110 13:46 06.07.2021
5899 Clouds 27 1013 74 10000 0.45 249 12:34 06.07.2021
5900 Clouds 24 1013 81 10000 1.54 160 09:41 06.07.2021
5901 Clouds 23 1012 81 10000 2.57 340 08:34 06.07.2021
5902 Clouds 21 1012 82 10000 2.06 330 06:45 06.07.2021
5903 Clear 22 1012 84 10000 2.57 330 01:43 06.07.2021
5904 Clouds 23 1011 84 10000 4.12 90 22:43 05.07.2021
5905 Clouds 25 1010 78 10000 3.6 110 20:27 05.07.2021
5906 Clouds 27 1012 78 10000 3.6 120 15:45 05.07.2021
5907 Clouds 20 1010 71 10000 4.12 320 07:26 05.07.2021
5908 Clear 19 1009 74 10000 3.09 300 05:46 05.07.2021
5909 Clear 20 1009 77 10000 3.6 330 04:40 05.07.2021
5910 Clear 22 1008 85 10000 4.12 90 23:19 04.07.2021
5911 Clouds 26 1007 72 10000 0.45 233 19:56 04.07.2021
5912 Clouds 25 1010 78 10000 0.89 239 16:57 04.07.2021
5913 Clouds 22 1011 72 10000 4.12 340 13:37 04.07.2021
5914 Clouds 22 1011 84 10000 1.54 90 09:28 04.07.2021
5915 Clouds 22 1012 82 10000 2.06 190 23:34 03.07.2021
5916 Clouds 23 1012 84 10000 1.54 200 22:44 03.07.2021
5917 Clouds 26 1015 78 10000 3.6 140 15:41 03.07.2021
5918 Clouds 26 1014 74 10000 0.45 243 12:39 03.07.2021
5919 Clouds 25 1014 72 10000 2.57 190 10:23 03.07.2021
5920 Clouds 23 1014 73 10000 2.57 330 09:26 03.07.2021
5921 Clouds 21 1014 77 10000 3.6 340 08:44 03.07.2021
5922 Clouds 26 1013 74 10000 3.6 110 18:50 02.07.2021
5923 Clouds 21 1013 72 10000 3.09 330 08:28 02.07.2021
5924 Clouds 19 1013 78 10000 3.6 340 07:28 02.07.2021
5925 Clear 21 1012 82 10000 1.54 60 23:45 01.07.2021
5926 Clear 21 1012 84 10000 0 0 22:30 01.07.2021
5927 Clear 21 1012 84 10000 0 0 22:30 01.07.2021
5928 Clear 21 1012 84 10000 0 0 22:30 01.07.2021
5929 Clear 22 1011 79 10000 1.03 0 21:34 01.07.2021
5930 Clear 24 1011 81 10000 3.6 110 19:38 01.07.2021
5931 Clear 24 1011 81 10000 3.6 110 19:19 01.07.2021
5932 Clear 24 1011 79 10000 4.63 80 18:46 01.07.2021
5933 Clouds 26 1011 73 10000 0.45 233 17:33 01.07.2021
5934 Clouds 26 1012 69 10000 4.63 110 15:51 01.07.2021
5935 Clouds 26 1012 72 10000 0.45 225 15:22 01.07.2021
5936 Clouds 25 1012 72 10000 0.45 246 11:56 01.07.2021
5937 Clouds 22 1012 78 10000 3.09 60 09:34 01.07.2021
5938 Clear 21 1012 83 10000 2.06 80 23:26 30.06.2021
5939 Clear 22 1010 82 10000 6.17 90 22:26 30.06.2021
5940 Clear 22 1010 81 10000 6.17 100 21:56 30.06.2021
5941 Clear 23 1010 78 10000 8.23 80 21:18 30.06.2021
5942 Clear 25 1009 71 10000 9.77 90 20:20 30.06.2021
5943 Clouds 27 1008 61 10000 0.45 214 16:45 30.06.2021
5944 Clear 29 1008 47 10000 0.45 260 13:25 30.06.2021
5945 Clear 24 1008 49 10000 0.45 214 10:27 30.06.2021
5946 Clear 24 1010 55 10000 2.24 238 00:31 30.06.2021
5947 Clear 29 1008 40 10000 3.13 246 19:47 29.06.2021
5948 Clouds 28 1009 72 10000 2.24 266 17:46 29.06.2021
5949 Clouds 28 1009 70 10000 1.79 281 17:28 29.06.2021
5950 Clouds 29 1010 64 10000 0.45 278 15:51 29.06.2021
5951 Clouds 29 1010 64 10000 0.45 278 15:51 29.06.2021
5952 Clouds 29 1010 64 10000 0.45 278 15:51 29.06.2021
5953 Clouds 29 1010 62 10000 4.12 180 14:55 29.06.2021
5954 Clouds 28 1011 63 10000 2.57 110 13:24 29.06.2021
5955 Clear 21 1011 72 10000 3.6 330 04:38 29.06.2021
5956 Clear 23 1012 79 10000 0.51 0 23:26 28.06.2021
5957 Clouds 26 1011 67 10000 1.54 90 20:59 28.06.2021
5958 Clouds 28 1013 61 10000 2.06 140 18:42 28.06.2021
5959 Clouds 29 1014 57 10000 1.03 0 16:58 28.06.2021
5960 Clear 30 1013 62 10000 1.54 0 14:31 28.06.2021
5961 Clear 29 1013 52 10000 0.45 235 12:24 28.06.2021
5962 Clear 23 1013 53 10000 0.51 110 23:48 27.06.2021
5963 Clear 24 1013 44 10000 0 0 22:32 27.06.2021
5964 Clouds 27 1013 65 10000 1.54 150 19:45 27.06.2021
5965 Clouds 27 1013 68 10000 1.03 0 18:56 27.06.2021
5966 Clouds 27 1014 63 10000 2.06 140 15:39 27.06.2021
5967 Clouds 26 1014 72 10000 2.57 140 11:23 27.06.2021
5968 Clear 21 1014 81 10000 3.09 330 01:38 27.06.2021
5969 Clear 22 1014 80 10000 1.54 230 22:30 26.06.2021
5970 Clear 24 1014 77 10000 2.57 210 20:54 26.06.2021
5971 Clear 24 1014 76 10000 2.06 210 20:35 26.06.2021
5972 Clear 26 1016 69 10000 4.12 120 16:22 26.06.2021
5973 Clouds 26 1016 69 10000 5.14 110 14:47 26.06.2021
5974 Clouds 26 1015 71 10000 3.6 120 12:25 26.06.2021
5975 Clear 20 1015 77 10000 3.6 340 07:33 26.06.2021
5976 Clear 21 1014 82 10000 2.06 47 23:24 25.06.2021
5977 Clouds 24 1014 69 10000 4.63 100 20:38 25.06.2021
5978 Clouds 25 1013 65 10000 3.09 90 19:28 25.06.2021
5979 Clouds 26 1014 62 10000 0.45 245 17:31 25.06.2021
5980 Clouds 26 1014 64 10000 0.45 251 16:43 25.06.2021
5981 Clouds 26 1014 66 10000 0.45 238 14:22 25.06.2021
5982 Clouds 24 1014 68 10000 3.09 190 10:46 25.06.2021
5983 Clouds 20 1014 68 10000 3.6 330 07:39 25.06.2021
5984 Clouds 19 1014 68 10000 3.6 330 07:18 25.06.2021
5985 Clear 21 1015 79 10000 2.57 70 01:40 25.06.2021
5986 Clear 25 1014 66 10000 1.54 30 21:49 24.06.2021
5987 Clouds 25 1013 72 10000 0.45 267 20:45 24.06.2021
5988 Clouds 25 1013 72 10000 0.89 246 20:22 24.06.2021
5989 Clouds 27 1014 70 10000 0.45 211 18:35 24.06.2021
5990 Clouds 27 1015 66 10000 1.34 221 15:25 24.06.2021
5991 Clouds 26 1015 65 10000 1.79 269 14:55 24.06.2021
5992 Clouds 27 1016 72 10000 1.34 246 13:57 24.06.2021
5993 Clear 25 1016 68 10000 3.6 190 10:37 24.06.2021
5994 Clear 22 1015 73 10000 2.57 320 08:53 24.06.2021
5995 Clear 21 1015 77 10000 4.63 320 07:38 24.06.2021
5996 Clear 21 1016 64 10000 3.6 340 02:21 24.06.2021
5997 Clear 23 1015 79 10000 1.54 200 22:36 23.06.2021
5998 Clear 23 1014 83 10000 2.06 200 21:35 23.06.2021
5999 Clear 25 1014 78 10000 2.57 190 20:21 23.06.2021
6000 Clear 26 1013 77 10000 2.57 190 18:32 23.06.2021
6001 Clear 26 1013 77 10000 2.06 170 17:21 23.06.2021
6002 Rain 25 1015 84 10000 3.6 90 14:58 23.06.2021
6003 Clear 26 1014 78 10000 0.45 252 12:51 23.06.2021
6004 Clear 26 1014 75 10000 3.6 110 11:53 23.06.2021
6005 Clear 25 1013 74 10000 3.09 100 09:55 23.06.2021
6006 Clear 22 1013 69 10000 2.57 360 08:42 23.06.2021
6007 Clear 21 1013 73 10000 4.63 350 07:50 23.06.2021
6008 Clear 20 1012 76 10000 3.6 360 06:43 23.06.2021
6009 Clear 21 1012 77 10000 2.57 330 02:29 23.06.2021
6010 Clear 21 1012 77 10000 2.57 330 02:29 23.06.2021
6011 Clear 22 1013 76 10000 3.09 330 00:22 23.06.2021
6012 Clouds 22 1013 82 10000 1.03 170 23:47 22.06.2021
6013 Clear 22 1012 85 10000 0.97 299 22:44 22.06.2021
6014 Clear 22 1012 85 10000 0.97 299 22:44 22.06.2021
6015 Clouds 23 1012 80 10000 0.51 0 21:56 22.06.2021
6016 Clouds 24 1012 81 10000 3.09 160 20:58 22.06.2021
6017 Clouds 26 1011 76 10000 2.57 180 19:32 22.06.2021
6018 Clouds 26 1011 75 10000 2.06 170 18:53 22.06.2021
6019 Clouds 26 1011 74 10000 0.45 184 18:21 22.06.2021
6020 Clouds 26 1011 73 10000 0.45 229 17:21 22.06.2021
6021 Clouds 27 1012 72 10000 1.54 70 16:20 22.06.2021
6022 Clouds 27 1011 74 10000 3.6 150 14:34 22.06.2021
6023 Clouds 26 1011 78 10000 3.6 140 13:47 22.06.2021
6024 Clouds 26 1011 79 10000 0.45 217 12:35 22.06.2021
6025 Clouds 25 1010 75 10000 3.6 170 10:58 22.06.2021
6026 Clouds 23 1010 71 10000 1.54 0 09:21 22.06.2021
6027 Clouds 20 1009 80 10000 4.12 320 06:37 22.06.2021
6028 Clear 22 1009 83 10000 2.57 360 00:37 22.06.2021
6029 Clouds 23 1009 84 10000 1.03 210 22:59 21.06.2021
6030 Clouds 24 1009 84 10000 3.09 210 21:48 21.06.2021
6031 Clouds 24 1009 83 10000 4.63 210 20:53 21.06.2021
6032 Clouds 25 1009 81 10000 5.14 200 20:21 21.06.2021
6033 Clouds 25 1009 82 10000 5.14 190 19:49 21.06.2021
6034 Clouds 27 1009 77 10000 0.45 234 18:25 21.06.2021
6035 Clouds 27 1009 75 10000 0.45 253 16:56 21.06.2021
6036 Clouds 27 1009 76 10000 0.45 232 16:38 21.06.2021
6037 Clouds 27 1009 76 10000 0.45 232 16:38 21.06.2021
6038 Clouds 27 1009 75 10000 0.89 260 16:19 21.06.2021
6039 Clouds 27 1009 76 10000 0.89 235 15:29 21.06.2021
6040 Clouds 26 1010 79 10000 1.34 253 13:52 21.06.2021
6041 Clouds 25 1010 81 10000 0.89 243 13:21 21.06.2021
6042 Clouds 25 1009 77 10000 0.45 236 12:35 21.06.2021
6043 Clouds 25 1009 77 10000 2.06 130 10:55 21.06.2021
6044 Clouds 25 1010 80 10000 1.54 160 10:23 21.06.2021
6045 Clouds 24 1009 78 10000 1.54 0 09:18 21.06.2021
6046 Clouds 23 1009 79 10000 2.57 320 08:19 21.06.2021
6047 Clouds 22 1009 82 10000 3.09 330 08:19 21.06.2021
6048 Clouds 21 1008 84 10000 3.6 330 06:24 21.06.2021
6049 Clouds 22 1009 85 10000 1.54 50 23:58 20.06.2021
6050 Clouds 22 1009 85 10000 1.54 30 23:34 20.06.2021
6051 Clouds 23 1009 86 10000 2.57 120 22:57 20.06.2021
6052 Clouds 23 1008 84 10000 3.6 80 21:55 20.06.2021
6053 Clouds 24 1009 83 10000 5.14 80 20:28 20.06.2021
6054 Clouds 25 1009 79 10000 5.66 90 19:40 20.06.2021
6055 Clouds 25 1009 80 10000 7.2 80 19:20 20.06.2021
6056 Clouds 25 1010 82 10000 7.72 140 17:47 20.06.2021
6057 Clouds 27 1008 77 10000 2.57 30 16:46 20.06.2021
6058 Rain 25 1010 84 10000 4.12 40 15:48 20.06.2021
6059 Rain 25 1011 83 10000 3.6 70 15:27 20.06.2021
6060 Rain 26 1010 80 10000 4.12 80 14:43 20.06.2021
6061 Clouds 25 1012 82 10000 3.09 80 13:35 20.06.2021
6062 Clouds 26 1011 80 10000 6.69 90 12:35 20.06.2021
6063 Clouds 26 1011 82 10000 7.72 100 11:45 20.06.2021
6064 Clouds 25 1011 84 10000 6.17 80 10:23 20.06.2021
6065 Clouds 25 1011 84 10000 5.66 80 09:43 20.06.2021
6066 Clear 22 1011 83 10000 3.6 80 06:56 20.06.2021
6067 Clouds 23 1014 85 10000 2.06 160 23:37 19.06.2021
6068 Clouds 23 1013 86 10000 3.09 120 22:58 19.06.2021
6069 Clouds 23 1015 86 10000 1.03 0 21:51 19.06.2021
6070 Clouds 24 1015 84 10000 1.54 0 21:19 19.06.2021
6071 Clouds 24 1015 83 10000 4.12 120 18:53 19.06.2021
6072 Clouds 25 1015 82 10000 4.12 110 18:21 19.06.2021
6073 Clouds 26 1014 81 10000 7.72 110 17:26 19.06.2021
6074 Clouds 27 1015 83 10000 7.72 90 16:40 19.06.2021
6075 Clouds 26 1016 79 10000 4.12 120 15:25 19.06.2021
6076 Clear 27 1016 73 10000 0.45 4 12:52 19.06.2021
6077 Clear 27 1016 71 10000 4.63 80 11:54 19.06.2021
6078 Clear 25 1016 67 10000 4.63 70 10:46 19.06.2021
6079 Clear 25 1016 62 10000 2.06 100 10:26 19.06.2021
6080 Clear 24 1015 63 10000 2.06 50 09:48 19.06.2021
6081 Clear 22 1016 70 10000 2.06 320 07:50 19.06.2021
6082 Clear 21 1016 81 10000 1.54 280 06:34 19.06.2021
6083 Clear 21 1016 75 10000 1.54 290 02:28 19.06.2021
6084 Clear 22 1016 73 10000 0.51 270 00:20 19.06.2021
6085 Clouds 22 1016 81 10000 1.42 356 23:34 18.06.2021
6086 Clear 23 1015 76 10000 2.57 50 22:55 18.06.2021
6087 Clear 24 1015 73 10000 3.6 100 22:27 18.06.2021
6088 Clear 24 1015 68 10000 1.03 0 21:47 18.06.2021
6089 Clear 25 1015 66 10000 1.03 0 21:23 18.06.2021
6090 Clear 26 1015 62 10000 1.54 140 20:23 18.06.2021
6091 Clear 26 1017 69 10000 5.66 100 18:33 18.06.2021
6092 Clouds 26 1017 69 10000 5.66 90 17:40 18.06.2021
6093 Clouds 27 1017 69 10000 5.66 90 16:37 18.06.2021
6094 Clouds 27 1017 69 10000 7.72 90 15:46 18.06.2021
6095 Clouds 27 1017 73 10000 7.72 80 14:36 18.06.2021
6096 Clear 27 1016 70 10000 0.45 251 13:43 18.06.2021
6097 Clear 27 1016 72 10000 0.45 228 12:52 18.06.2021
6098 Clear 27 1016 71 10000 0.45 224 12:33 18.06.2021
6099 Clouds 27 1016 70 10000 0.45 197 11:44 18.06.2021
6100 Clear 27 1015 70 10000 0.45 240 10:57 18.06.2021
6101 Clear 26 1015 70 10000 9.26 80 10:23 18.06.2021
6102 Clear 25 1015 72 10000 8.75 80 09:52 18.06.2021
6103 Clear 25 1015 71 10000 7.72 80 09:19 18.06.2021
6104 Clear 24 1015 65 10000 2.57 80 08:32 18.06.2021
6105 Clear 22 1015 69 10000 2.57 310 07:36 18.06.2021
6106 Clear 21 1015 72 10000 2.06 330 04:45 18.06.2021
6107 Clear 23 1015 70 10000 1.54 0 00:35 18.06.2021
6108 Clear 24 1015 59 10000 0.51 0 23:27 17.06.2021
6109 Clear 25 1014 64 10000 4.12 70 22:27 17.06.2021
6110 Rain 25 1014 64 10000 5.66 80 21:57 17.06.2021
6111 Rain 25 1014 62 10000 5.66 70 21:18 17.06.2021
6112 Clear 26 1014 57 10000 2.06 70 20:32 17.06.2021
6113 Clear 26 1014 56 10000 1.03 0 19:55 17.06.2021
6114 Clear 27 1014 58 10000 3.09 90 19:22 17.06.2021
6115 Clouds 27 1015 57 10000 5.14 70 17:50 17.06.2021
6116 Clouds 27 1014 57 10000 6.17 80 17:22 17.06.2021
6117 Clouds 28 1016 65 10000 5.66 80 16:30 17.06.2021
6118 Clouds 28 1016 61 10000 5.66 80 15:53 17.06.2021
6119 Clear 27 1015 72 10000 0.45 239 14:33 17.06.2021
6120 Clear 27 1015 73 10000 0.45 260 13:53 17.06.2021
6121 Clear 27 1015 74 10000 0.45 235 12:31 17.06.2021
6122 Clear 28 1015 70 10000 6.69 90 11:43 17.06.2021
6123 Clear 27 1015 64 10000 3.09 110 10:45 17.06.2021
6124 Clear 27 1015 64 10000 3.09 110 10:23 17.06.2021
6125 Clear 26 1015 67 10000 2.06 80 09:42 17.06.2021
6126 Clear 24 1015 75 10000 2.57 40 08:52 17.06.2021
6127 Clouds 22 1015 84 10000 1.65 37 07:55 17.06.2021
6128 Clear 21 1015 76 10000 1.03 0 06:27 17.06.2021
6129 Clear 22 1015 81 10000 1.54 350 02:42 17.06.2021
6130 Clouds 23 1014 86 10000 5.14 80 23:42 16.06.2021
6131 Clouds 23 1014 86 10000 3.6 90 23:21 16.06.2021
6132 Clouds 23 1014 86 10000 3.6 90 23:21 16.06.2021
6133 Clear 24 1013 86 10000 1.54 120 22:33 16.06.2021
6134 Clear 24 1014 84 10000 1.03 0 21:45 16.06.2021
6135 Clear 24 1014 86 10000 2.06 80 21:21 16.06.2021
6136 Clear 24 1014 86 10000 1.03 100 20:42 16.06.2021
6137 Clear 26 1014 77 10000 1.54 0 19:52 16.06.2021
6138 Clouds 26 1014 79 10000 1.54 110 19:33 16.06.2021
6139 Clouds 26 1014 80 10000 1.03 0 18:53 16.06.2021
6140 Clouds 26 1014 80 10000 0.45 222 18:26 16.06.2021
6141 Clouds 27 1014 76 10000 0.89 233 17:44 16.06.2021
6142 Clouds 27 1014 77 10000 1.54 130 17:26 16.06.2021
6143 Clouds 28 1014 76 10000 2.06 130 16:44 16.06.2021
6144 Clouds 28 1015 73 10000 3.6 110 15:57 16.06.2021
6145 Clouds 28 1015 75 10000 3.09 130 15:36 16.06.2021
6146 Clouds 27 1016 78 10000 4.63 110 14:50 16.06.2021
6147 Clouds 28 1015 76 10000 4.12 110 14:30 16.06.2021
6148 Clouds 28 1015 76 10000 0.89 256 13:56 16.06.2021
6149 Clouds 28 1015 77 10000 4.12 90 13:22 16.06.2021
6150 Clouds 27 1015 77 10000 0.45 235 12:54 16.06.2021
6151 Clouds 27 1015 77 10000 0.45 236 12:31 16.06.2021
6152 Clouds 27 1015 79 10000 4.12 110 11:46 16.06.2021
6153 Clouds 27 1015 76 10000 0.45 236 10:53 16.06.2021
6154 Clear 27 1014 77 10000 0.45 248 10:34 16.06.2021
6155 Clouds 25 1015 80 10000 3.09 110 09:38 16.06.2021
6156 Clouds 24 1014 79 10000 1.54 80 08:33 16.06.2021
6157 Clouds 23 1014 80 10000 1.03 0 07:48 16.06.2021
6158 Clouds 22 1014 80 10000 1.54 320 07:24 16.06.2021
6159 Clouds 22 1015 80 10000 1.54 80 02:48 16.06.2021
6160 Clouds 23 1015 84 10000 0 0 23:48 15.06.2021
6161 Clouds 23 1015 84 10000 1.03 200 23:23 15.06.2021
6162 Clouds 23 1015 84 10000 1.03 200 22:50 15.06.2021
6163 Clear 24 1015 84 10000 0 0 22:30 15.06.2021
6164 Clear 25 1015 80 10000 0 0 21:26 15.06.2021
6165 Clear 26 1015 80 10000 1.54 140 20:21 15.06.2021
6166 Clear 26 1015 77 10000 1.03 0 19:32 15.06.2021
6167 Clouds 27 1015 74 10000 1.54 0 18:24 15.06.2021
6168 Clear 28 1017 74 10000 2.06 180 16:51 15.06.2021
6169 Clouds 28 1017 74 10000 2.57 180 15:43 15.06.2021
6170 Clouds 28 1017 74 10000 2.57 190 15:19 15.06.2021
6171 Clouds 28 1017 74 10000 2.57 180 14:44 15.06.2021
6172 Clouds 27 1017 78 10000 2.57 110 13:39 15.06.2021
6173 Clouds 28 1017 78 10000 2.57 120 12:58 15.06.2021
6174 Clouds 28 1018 78 10000 2.06 120 12:38 15.06.2021
6175 Clouds 27 1017 79 10000 2.06 110 11:44 15.06.2021
6176 Clouds 26 1016 80 10000 2.06 110 11:18 15.06.2021
6177 Clouds 25 1017 80 10000 2.57 80 10:44 15.06.2021
6178 Clouds 25 1016 81 10000 4.63 100 10:21 15.06.2021
6179 Clouds 24 1016 79 10000 2.57 90 09:28 15.06.2021
6180 Clear 23 1016 71 10000 1.54 60 08:26 15.06.2021
6181 Clear 22 1015 70 10000 1.03 0 07:32 15.06.2021
6182 Clear 21 1015 75 10000 1.54 350 06:21 15.06.2021
6183 Clear 21 1014 76 10000 2.06 30 04:30 15.06.2021
6184 Clear 22 1014 85 10000 1.03 180 00:45 15.06.2021
6185 Clear 23 1014 84 10000 1.03 200 23:40 14.06.2021
6186 Clear 23 1014 86 10000 1.54 210 23:22 14.06.2021
6187 Clear 23 1014 86 10000 1.54 190 22:42 14.06.2021
6188 Clear 24 1014 84 10000 1.03 170 22:18 14.06.2021
6189 Clear 24 1013 83 10000 2.06 190 21:38 14.06.2021
6190 Clear 24 1013 83 10000 2.06 190 21:20 14.06.2021
6191 Clear 25 1013 82 10000 1.54 180 20:47 14.06.2021
6192 Clear 26 1013 79 10000 1.54 160 19:50 14.06.2021
6193 Clear 26 1014 79 10000 1.54 170 19:32 14.06.2021
6194 Clear 26 1014 80 10000 1.54 150 18:57 14.06.2021
6195 Clear 27 1014 76 10000 1.54 150 18:22 14.06.2021
6196 Clear 27 1014 76 10000 0.45 262 17:49 14.06.2021
6197 Clear 27 1015 77 10000 0.45 222 17:28 14.06.2021
6198 Clear 27 1015 75 10000 0.45 278 16:20 14.06.2021
6199 Clear 27 1015 76 10000 0.45 263 15:48 14.06.2021
6200 Clear 27 1016 75 10000 0.45 256 14:59 14.06.2021
6201 Clear 27 1016 75 10000 2.06 160 14:41 14.06.2021
6202 Clear 27 1016 76 10000 0.45 281 13:34 14.06.2021
6203 Clear 27 1016 76 10000 3.6 110 12:54 14.06.2021
6204 Clear 26 1016 78 10000 3.09 120 12:27 14.06.2021
6205 Clear 26 1016 79 10000 2.57 130 11:42 14.06.2021
6206 Clouds 25 1016 80 10000 2.57 110 10:54 14.06.2021
6207 Clouds 24 1016 82 10000 1.03 110 09:40 14.06.2021
6208 Clouds 24 1016 82 10000 1.03 110 09:21 14.06.2021
6209 Clouds 23 1017 73 10000 1.9 111 08:41 14.06.2021
6210 Clouds 22 1016 78 10000 1.03 0 07:43 14.06.2021
6211 Clouds 21 1016 83 10000 2.06 320 06:23 14.06.2021
6212 Clouds 21 1016 83 10000 2.57 60 04:51 14.06.2021
6213 Clouds 21 1017 85 10000 0 0 00:43 14.06.2021
6214 Clouds 22 1017 86 10000 0 0 23:40 13.06.2021
6215 Clouds 22 1017 84 10000 1.54 100 23:19 13.06.2021
6216 Clear 22 1016 85 10000 0 0 22:40 13.06.2021
6217 Clear 22 1016 86 10000 0 0 22:18 13.06.2021
6218 Clear 23 1016 86 10000 1.03 120 21:44 13.06.2021
6219 Clear 23 1016 86 10000 1.03 120 21:24 13.06.2021
6220 Clouds 24 1016 85 10000 1.54 70 20:45 13.06.2021
6221 Clouds 25 1016 82 10000 1.03 0 20:26 13.06.2021
6222 Clouds 26 1016 80 10000 1.54 110 19:43 13.06.2021
6223 Clouds 26 1016 81 10000 1.54 130 19:22 13.06.2021
6224 Clouds 26 1016 78 10000 2.06 100 18:39 13.06.2021
6225 Clouds 26 1016 78 10000 2.06 100 17:53 13.06.2021
6226 Clouds 26 1016 76 10000 0.45 232 17:22 13.06.2021
6227 Clouds 27 1017 75 10000 0.89 248 16:19 13.06.2021
6228 Clouds 27 1017 76 10000 3.09 90 15:24 13.06.2021
6229 Clouds 27 1017 79 10000 0.45 319 14:30 13.06.2021
6230 Clouds 27 1017 77 10000 3.6 120 13:43 13.06.2021
6231 Clouds 27 1017 81 10000 0.45 235 13:23 13.06.2021
6232 Clouds 27 1017 80 10000 0.45 274 12:48 13.06.2021
6233 Clouds 27 1017 80 10000 0.45 232 12:25 13.06.2021
6234 Clear 26 1017 80 10000 4.12 100 11:36 13.06.2021
6235 Clear 26 1017 80 10000 3.09 100 10:48 13.06.2021
6236 Clear 25 1017 82 10000 2.06 100 10:19 13.06.2021
6237 Clear 24 1017 82 10000 2.57 100 09:43 13.06.2021
6238 Clear 23 1017 81 10000 2.06 80 09:25 13.06.2021
6239 Clear 24 1018 69 10000 2.06 70 08:47 13.06.2021
6240 Clear 22 1018 73 10000 1.03 50 08:26 13.06.2021
6241 Clear 20 1017 79 10000 0.51 0 06:58 13.06.2021
6242 Clouds 21 1016 83 10000 5.14 70 02:57 13.06.2021
6243 Clear 22 1017 86 10000 1.54 160 23:28 12.06.2021
6244 Clear 22 1017 86 10000 1.03 140 22:40 12.06.2021
6245 Clear 23 1016 84 10000 0.51 150 21:56 12.06.2021
6246 Clear 23 1017 82 10000 1.03 0 21:35 12.06.2021
6247 Clouds 25 1017 72 10000 1.08 211 20:45 12.06.2021
6248 Clear 26 1017 74 10000 1.54 130 20:19 12.06.2021
6249 Clear 25 1017 73 10000 0.45 207 19:38 12.06.2021
6250 Clear 26 1017 67 10000 3.09 180 18:40 12.06.2021
6251 Clear 27 1017 73 10000 0.89 238 17:58 12.06.2021
6252 Clear 26 1017 74 10000 2.06 160 17:29 12.06.2021
6253 Clear 26 1017 71 10000 0.45 226 16:40 12.06.2021
6254 Clouds 26 1018 77 10000 0.45 232 15:38 12.06.2021
6255 Clouds 26 1018 76 10000 0.45 272 14:47 12.06.2021
6256 Clouds 26 1019 78 10000 2.57 180 14:25 12.06.2021
6257 Clouds 26 1018 73 10000 0.45 245 13:23 12.06.2021
6258 Clouds 25 1018 73 10000 2.06 130 12:39 12.06.2021
6259 Clouds 25 1018 73 10000 2.06 130 12:21 12.06.2021
6260 Clouds 26 1018 72 10000 2.06 130 11:23 12.06.2021
6261 Clouds 26 1018 73 10000 2.36 149 10:36 12.06.2021
6262 Clear 25 1018 67 10000 1.54 110 09:55 12.06.2021
6263 Clear 25 1019 57 10000 2.06 70 09:36 12.06.2021
6264 Clear 21 1018 60 10000 3.6 340 08:25 12.06.2021
6265 Clear 19 1017 80 10000 1.54 20 06:36 12.06.2021
6266 Clear 20 1017 85 10000 2.06 30 01:54 12.06.2021
6267 Clouds 20 1016 86 10000 1.15 319 23:23 11.06.2021
6268 Clear 22 1015 79 10000 2.57 220 22:22 11.06.2021
6269 Clear 22 1015 84 10000 3.6 230 21:49 11.06.2021
6270 Clear 22 1014 84 10000 0.89 238 21:28 11.06.2021
6271 Clear 23 1016 69 10000 4.12 250 20:37 11.06.2021
6272 Clear 24 1014 80 10000 0.45 243 19:56 11.06.2021
6273 Clear 24 1014 81 10000 2.06 190 18:49 11.06.2021
6274 Clear 24 1015 83 10000 2.06 120 18:24 11.06.2021
6275 Rain 25 1015 85 10000 1.54 120 16:48 11.06.2021
6276 Rain 25 1016 81 10000 2.57 100 16:29 11.06.2021
6277 Rain 25 1015 76 10000 0.45 238 15:23 11.06.2021
6278 Clouds 25 1017 83 10000 2.06 90 14:32 11.06.2021
6279 Clouds 25 1016 76 10000 2.06 120 13:27 11.06.2021
6280 Clouds 26 1016 77 10000 0.45 264 12:27 11.06.2021
6281 Clouds 26 1016 71 10000 3.09 110 11:33 11.06.2021
6282 Clouds 25 1015 71 10000 2.06 100 10:36 11.06.2021
6283 Clear 26 1016 50 10000 2.06 70 09:31 11.06.2021
6284 Clear 23 1016 50 10000 2.57 340 08:45 11.06.2021
6285 Clear 21 1015 72 10000 2.57 330 07:36 11.06.2021
6286 Clear 20 1015 71 10000 0.45 52 03:35 11.06.2021
6287 Clouds 21 1015 84 10000 2.54 327 23:33 10.06.2021
6288 Clear 22 1015 65 10000 0.45 41 22:42 10.06.2021
6289 Clouds 22 1015 69 10000 3.01 321 21:58 10.06.2021
6290 Clear 23 1015 71 10000 2.06 270 21:21 10.06.2021
6291 Clear 24 1015 71 10000 3.6 210 20:45 10.06.2021
6292 Clear 25 1015 68 10000 0.45 136 19:32 10.06.2021
6293 Clear 25 1015 72 10000 0.45 263 18:57 10.06.2021
6294 Clear 26 1015 66 10000 3.09 200 18:28 10.06.2021
6295 Clear 26 1015 72 10000 0.45 266 17:45 10.06.2021
6296 Clear 25 1015 70 10000 2.57 190 16:49 10.06.2021
6297 Clouds 25 1016 65 10000 2.06 190 16:31 10.06.2021
6298 Rain 26 1016 65 10000 0.45 243 15:19 10.06.2021
6299 Clouds 25 1016 67 10000 3.09 160 13:20 10.06.2021
6300 Clouds 26 1016 64 10000 2.06 170 12:26 10.06.2021
6301 Clear 26 1016 63 10000 0.45 278 11:25 10.06.2021
6302 Clear 25 1016 51 10000 3.09 340 09:43 10.06.2021
6303 Clear 19 1015 66 10000 0.45 50 05:59 10.06.2021
6304 Clear 22 1016 63 10000 6.17 340 00:25 10.06.2021
6305 Clear 22 1016 56 10000 0.45 49 23:43 09.06.2021
6306 Clear 23 1016 57 10000 5.14 330 22:28 09.06.2021
6307 Clear 23 1016 59 10000 3.6 340 21:43 09.06.2021
6308 Clear 23 1016 59 10000 3.09 330 21:23 09.06.2021
6309 Clear 24 1015 56 10000 0.45 295 20:35 09.06.2021
6310 Clear 25 1015 56 10000 4.63 330 19:48 09.06.2021
6311 Rain 25 1016 58 10000 3.6 330 18:47 09.06.2021
6312 Clouds 25 1017 66 10000 0.89 229 15:57 09.06.2021
6313 Clouds 25 1017 67 10000 0.89 253 15:32 09.06.2021
6314 Clouds 26 1017 70 10000 0.89 241 14:34 09.06.2021
6315 Clouds 26 1017 67 10000 0.45 233 13:33 09.06.2021
6316 Clouds 26 1017 62 10000 0.45 245 12:54 09.06.2021
6317 Clouds 26 1017 61 10000 0.45 236 12:34 09.06.2021
6318 Clouds 25 1017 56 10000 2.06 320 10:49 09.06.2021
6319 Clear 22 1016 68 10000 3.6 340 08:57 09.06.2021
6320 Clear 20 1016 69 10000 4.12 340 08:31 09.06.2021
6321 Clear 19 1016 76 10000 0.45 68 06:45 09.06.2021
6322 Rain 19 1017 83 10000 3.09 310 00:35 09.06.2021
6323 Rain 21 1017 80 10000 3.6 300 22:55 08.06.2021
6324 Rain 21 1017 73 10000 3.6 290 22:33 08.06.2021
6325 Clouds 21 1016 75 10000 2.06 210 21:18 08.06.2021
6326 Clouds 22 1016 77 10000 2.57 190 19:28 08.06.2021
6327 Clouds 22 1016 73 10000 3.09 180 17:52 08.06.2021
6328 Clouds 23 1016 70 10000 3.09 180 16:53 08.06.2021
6329 Clouds 22 1017 80 10000 3.09 190 15:27 08.06.2021
6330 Clouds 23 1017 75 10000 0.89 276 13:33 08.06.2021
6331 Clouds 23 1017 80 10000 3.09 180 11:40 08.06.2021
6332 Clouds 19 1016 81 10000 0 0 07:36 08.06.2021
6333 Clouds 19 1016 79 10000 0 0 04:26 08.06.2021
6334 Clouds 19 1016 85 10000 1.17 311 23:52 07.06.2021
6335 Clouds 21 1015 82 10000 3.09 220 20:40 07.06.2021
6336 Clouds 22 1015 80 10000 3.09 200 18:53 07.06.2021
6337 Clouds 24 1016 72 10000 0.45 222 16:25 07.06.2021
6338 Clouds 24 1017 71 10000 2.57 150 13:59 07.06.2021
6339 Clouds 23 1017 73 10000 0.45 162 11:47 07.06.2021
6340 Clouds 23 1017 74 10000 2.57 140 10:26 07.06.2021
6341 Clouds 22 1017 75 10000 1.54 110 09:58 07.06.2021
6342 Clouds 21 1016 75 10000 1.54 120 09:25 07.06.2021
6343 Clouds 19 1016 79 10000 2.57 330 07:40 07.06.2021
6344 Clouds 20 1015 86 10000 1.54 210 21:53 06.06.2021
6345 Clouds 20 1015 86 10000 1.54 120 20:43 06.06.2021
6346 Clouds 22 1015 86 10000 2.57 110 18:46 06.06.2021
6347 Clouds 22 1015 80 10000 3.6 110 17:29 06.06.2021
6348 Clouds 24 1016 77 10000 0.45 283 14:38 06.06.2021
6349 Clouds 22 1016 83 10000 0.45 232 12:33 06.06.2021
6350 Clouds 22 1016 81 10000 1.54 90 11:50 06.06.2021
6351 Clouds 21 1016 81 10000 0.45 253 10:25 06.06.2021
6352 Clouds 21 1016 79 10000 2.06 60 09:31 06.06.2021
6353 Clouds 20 1016 79 10000 1.54 0 08:57 06.06.2021
6354 Clouds 19 1016 77 10000 1.54 350 08:24 06.06.2021
6355 Clouds 17 1017 80 10000 2.57 330 05:23 06.06.2021
6356 Clouds 19 1018 86 10000 3.09 90 23:19 05.06.2021
6357 Clouds 19 1018 84 10000 2.06 100 22:25 05.06.2021
6358 Clouds 22 1017 77 10000 3.09 140 20:43 05.06.2021
6359 Clouds 23 1017 74 10000 2.57 140 19:38 05.06.2021
6360 Clouds 23 1018 71 10000 2.57 160 17:21 05.06.2021
6361 Clouds 23 1019 74 10000 0.45 229 15:57 05.06.2021
6362 Clouds 24 1020 67 10000 0.45 263 13:53 05.06.2021
6363 Clouds 24 1020 62 10000 2.57 160 11:55 05.06.2021
6364 Clear 23 1020 61 10000 2.57 170 11:29 05.06.2021
6365 Clouds 22 1020 59 10000 2.06 330 09:23 05.06.2021
6366 Clouds 19 1020 67 10000 3.6 330 07:46 05.06.2021
6367 Clear 19 1021 63 10000 1.54 300 23:42 04.06.2021
6368 Clear 20 1021 71 10000 1.03 0 22:22 04.06.2021
6369 Clouds 20 1021 66 10000 0.51 0 21:27 04.06.2021
6370 Clouds 22 1021 56 10000 2.57 40 20:21 04.06.2021
6371 Clear 23 1022 65 10000 2.57 230 18:27 04.06.2021
6372 Clear 23 1021 59 10000 1.03 0 17:20 04.06.2021
6373 Clear 24 1022 59 10000 4.63 90 15:40 04.06.2021
6374 Clear 24 1022 60 10000 6.69 90 12:34 04.06.2021
6375 Clear 24 1023 65 10000 0.45 239 11:23 04.06.2021
6376 Clouds 19 1022 65 10000 1.54 0 07:52 04.06.2021
6377 Clouds 18 1022 60 10000 3.09 350 06:25 04.06.2021
6378 Clear 18 1022 56 10000 2.57 330 23:51 03.06.2021
6379 Clear 20 1021 59 10000 1.03 0 21:53 03.06.2021
6380 Clear 23 1021 47 10000 1.54 60 20:29 03.06.2021
6381 Clouds 23 1021 50 10000 1.03 0 19:51 03.06.2021
6382 Clouds 24 1021 56 10000 0.45 264 18:22 03.06.2021
6383 Clouds 24 1022 57 10000 0.45 238 15:55 03.06.2021
6384 Clouds 24 1022 60 10000 2.57 120 14:52 03.06.2021
6385 Clouds 24 1022 61 10000 0.45 221 12:58 03.06.2021
6386 Clouds 23 1022 52 10000 1.54 0 10:18 03.06.2021
6387 Clear 22 1021 58 10000 1.03 0 09:40 03.06.2021
6388 Clear 19 1022 60 10000 4.12 330 08:19 03.06.2021
6389 Clear 17 1020 80 10000 1.03 0 00:23 03.06.2021
6390 Clear 18 1020 86 10000 4.12 70 22:32 02.06.2021
6391 Clear 19 1019 86 10000 3.6 100 21:31 02.06.2021
6392 Clear 20 1019 82 10000 4.12 100 20:50 02.06.2021
6393 Clouds 21 1019 80 10000 4.63 80 19:52 02.06.2021
6394 Clouds 21 1019 79 10000 0.45 243 16:59 02.06.2021
6395 Clouds 21 1018 75 10000 6.69 90 16:35 02.06.2021
6396 Clouds 21 1019 68 10000 3.09 140 13:58 02.06.2021
6397 Clouds 21 1019 68 10000 3.09 140 13:58 02.06.2021
6398 Clouds 21 1019 68 10000 3.09 140 13:58 02.06.2021
6399 Clouds 20 1018 63 10000 3.09 30 12:25 02.06.2021
6400 Clouds 18 1018 71 10000 4.63 30 10:42 02.06.2021
6401 Clouds 17 1018 74 10000 6.17 30 10:24 02.06.2021
6402 Clouds 17 1018 76 10000 2.06 40 09:41 02.06.2021
6403 Clouds 16 1018 76 10000 1.03 0 08:44 02.06.2021
6404 Rain 16 1017 81 10000 2.57 300 07:30 02.06.2021
6405 Clouds 17 1015 67 10000 1.54 30 04:23 02.06.2021
6406 Clouds 18 1015 64 10000 2.06 310 01:39 02.06.2021
6407 Clear 19 1015 72 10000 0.51 210 21:46 01.06.2021
6408 Clear 19 1014 71 10000 1.03 0 20:50 01.06.2021
6409 Clear 21 1014 66 10000 1.03 0 19:45 01.06.2021
6410 Clear 22 1015 60 10000 1.54 110 17:29 01.06.2021
6411 Clear 22 1015 56 10000 2.57 120 15:37 01.06.2021
6412 Clear 22 1016 53 10000 1.54 130 13:20 01.06.2021
6413 Clear 21 1016 54 10000 0.45 271 12:36 01.06.2021
6414 Clear 22 1016 53 10000 2.06 110 11:38 01.06.2021
6415 Clear 22 1016 53 10000 2.06 80 11:18 01.06.2021
6416 Clear 21 1016 60 10000 1.54 130 10:20 01.06.2021
6417 Clear 21 1017 60 10000 2.06 160 10:20 01.06.2021
6418 Clear 19 1017 63 10000 2.06 360 09:20 01.06.2021
6419 Clear 16 1017 67 10000 3.09 330 07:49 01.06.2021
6420 Clear 16 1016 65 10000 3.6 340 02:41 01.06.2021
6421 Clear 16 1016 73 10000 1.75 6 23:42 31.05.2021
6422 Clear 16 1016 70 10000 2.06 300 23:20 31.05.2021
6423 Clear 17 1016 59 10000 1.03 50 22:29 31.05.2021
6424 Clear 18 1017 68 10000 1.03 150 21:22 31.05.2021
6425 Clear 20 1016 67 10000 0.45 272 20:24 31.05.2021
6426 Clear 21 1016 55 10000 1.54 0 19:23 31.05.2021
6427 Clouds 22 1017 57 10000 1.54 90 17:56 31.05.2021
6428 Clouds 21 1018 64 10000 2.06 100 16:55 31.05.2021
6429 Clouds 22 1018 60 10000 4.63 100 15:58 31.05.2021
6430 Clouds 21 1018 56 10000 7.2 90 13:53 31.05.2021
6431 Clouds 22 1017 55 10000 0.45 238 13:22 31.05.2021
6432 Clouds 22 1017 54 10000 0.45 226 12:35 31.05.2021
6433 Clouds 22 1017 64 10000 6.69 80 11:48 31.05.2021
6434 Clear 22 1017 59 10000 3.09 100 10:41 31.05.2021
6435 Clouds 20 1017 63 10000 2.57 60 09:40 31.05.2021
6436 Clouds 18 1017 67 10000 3.6 340 08:25 31.05.2021
6437 Clouds 18 1017 68 10000 1.54 0 07:53 31.05.2021
6438 Clouds 18 1017 68 10000 2.06 340 07:34 31.05.2021
6439 Clouds 19 1016 71 10000 1.54 310 00:51 31.05.2021
6440 Clouds 19 1016 73 10000 2.06 250 23:23 30.05.2021
6441 Clouds 20 1016 68 10000 1.54 220 22:35 30.05.2021
6442 Clouds 20 1016 66 10000 1.03 190 21:48 30.05.2021
6443 Clouds 20 1016 67 10000 1.54 200 21:30 30.05.2021
6444 Clouds 20 1015 66 10000 1.03 180 20:56 30.05.2021
6445 Clouds 21 1016 66 10000 1.54 180 20:36 30.05.2021
6446 Clouds 22 1016 62 10000 1.54 170 19:51 30.05.2021
6447 Clouds 22 1015 59 10000 1.03 0 18:57 30.05.2021
6448 Clouds 23 1017 60 10000 1.03 0 18:20 30.05.2021
6449 Clouds 22 1017 60 10000 1.03 0 17:18 30.05.2021
6450 Clouds 23 1018 56 10000 1.03 0 16:34 30.05.2021
6451 Clouds 22 1018 64 10000 1.03 0 15:52 30.05.2021
6452 Clouds 22 1018 64 10000 2.06 160 14:59 30.05.2021
6453 Clouds 23 1018 60 10000 1.54 0 13:39 30.05.2021
6454 Clouds 21 1018 68 10000 2.06 180 12:19 30.05.2021
6455 Clouds 21 1017 75 10000 2.57 190 11:19 30.05.2021
6456 Clouds 20 1017 76 10000 2.06 120 10:39 30.05.2021
6457 Clouds 21 1017 73 10000 2.06 160 09:59 30.05.2021
6458 Clouds 20 1017 72 10000 2.06 160 09:40 30.05.2021
6459 Clouds 20 1017 70 10000 1.03 0 09:19 30.05.2021
6460 Clouds 18 1016 79 10000 3.6 320 07:54 30.05.2021
6461 Clouds 16 1015 83 10000 2.06 300 04:42 30.05.2021
6462 Clouds 17 1015 85 10000 1.54 110 00:53 30.05.2021
6463 Clouds 17 1016 86 10000 0.51 120 23:47 29.05.2021
6464 Clouds 17 1015 87 10000 1.54 110 22:25 29.05.2021
6465 Clouds 18 1015 87 10000 1.54 130 21:54 29.05.2021
6466 Clouds 18 1015 87 10000 2.06 120 21:21 29.05.2021
6467 Clouds 18 1015 84 10000 1.54 110 20:48 29.05.2021
6468 Clear 19 1015 81 10000 1.54 110 20:29 29.05.2021
6469 Clear 20 1014 81 10000 1.54 160 19:45 29.05.2021
6470 Clear 20 1015 83 10000 1.54 0 18:38 29.05.2021
6471 Clear 20 1015 83 10000 0.45 250 17:27 29.05.2021
6472 Clear 20 1015 83 10000 2.06 180 16:23 29.05.2021
6473 Clear 21 1016 83 10000 2.57 170 14:59 29.05.2021
6474 Clear 21 1016 83 10000 2.06 160 13:53 29.05.2021
6475 Clear 21 1016 83 10000 2.57 170 13:18 29.05.2021
6476 Clear 21 1016 81 10000 2.57 170 12:43 29.05.2021
6477 Clear 21 1016 80 10000 2.57 160 12:24 29.05.2021
6478 Clear 20 1016 84 10000 2.06 150 11:25 29.05.2021
6479 Clear 20 1016 81 10000 2.06 180 10:51 29.05.2021
6480 Clear 19 1016 81 10000 1.54 140 10:26 29.05.2021
6481 Clear 18 1016 72 10000 1.03 0 09:22 29.05.2021
6482 Clear 18 1016 72 10000 1.03 0 08:57 29.05.2021
6483 Clear 16 1016 76 10000 2.57 350 07:57 29.05.2021
6484 Clear 15 1015 76 10000 2.57 320 06:49 29.05.2021
6485 Clear 16 1017 87 10000 1.03 0 00:54 29.05.2021
6486 Clear 16 1017 85 10000 1.54 200 23:50 28.05.2021
6487 Clear 17 1016 87 10000 1.03 190 21:55 28.05.2021
6488 Clear 17 1016 84 10000 1.03 190 21:36 28.05.2021
6489 Clear 19 1017 82 10000 2.06 160 20:28 28.05.2021
6490 Clouds 19 1016 81 10000 2.06 140 19:58 28.05.2021
6491 Clouds 20 1016 76 10000 1.03 0 19:35 28.05.2021
6492 Clouds 20 1016 79 10000 2.06 150 18:49 28.05.2021
6493 Clouds 20 1016 78 10000 2.57 160 18:27 28.05.2021
6494 Clouds 20 1017 80 10000 0.45 290 17:32 28.05.2021
6495 Clouds 21 1017 76 10000 1.54 110 16:42 28.05.2021
6496 Clouds 21 1017 76 10000 0.89 257 15:58 28.05.2021
6497 Clouds 21 1017 75 10000 0.45 249 15:32 28.05.2021
6498 Clouds 21 1017 75 10000 3.09 110 14:37 28.05.2021
6499 Clouds 21 1017 73 10000 0.45 305 13:46 28.05.2021
6500 Clouds 21 1017 68 10000 0.45 233 12:59 28.05.2021
6501 Clouds 22 1017 71 10000 0.45 263 12:37 28.05.2021
6502 Clouds 20 1017 70 10000 3.6 60 11:39 28.05.2021
6503 Clouds 19 1018 72 10000 4.12 80 10:53 28.05.2021
6504 Clouds 19 1018 72 10000 4.63 80 10:30 28.05.2021
6505 Clouds 17 1018 78 10000 5.14 80 09:31 28.05.2021
6506 Clouds 17 1018 79 10000 4.12 80 08:48 28.05.2021
6507 Clouds 16 1017 82 10000 4.63 90 08:28 28.05.2021
6508 Clouds 16 1017 81 10000 5.14 90 07:50 28.05.2021
6509 Clouds 15 1017 81 10000 6.69 90 07:32 28.05.2021
6510 Clouds 15 1016 84 10000 5.66 90 06:43 28.05.2021
6511 Clouds 15 1016 84 10000 4.12 90 04:32 28.05.2021
6512 Clouds 17 1016 78 10000 3.6 90 23:56 27.05.2021
6513 Clouds 17 1016 83 10000 4.12 90 23:32 27.05.2021
6514 Clouds 16 1015 82 10000 4.63 90 22:21 27.05.2021
6515 Clouds 16 1015 81 10000 4.63 90 21:48 27.05.2021
6516 Clouds 16 1015 81 10000 4.63 90 21:48 27.05.2021
6517 Clouds 16 1014 81 10000 4.12 90 21:28 27.05.2021
6518 Clouds 17 1014 79 10000 3.6 100 20:48 27.05.2021
6519 Clouds 18 1014 74 10000 3.6 110 20:25 27.05.2021
6520 Clouds 19 1014 73 10000 0.45 250 19:32 27.05.2021
6521 Clouds 19 1014 73 10000 3.6 90 18:45 27.05.2021
6522 Clouds 19 1014 73 10000 3.6 80 18:26 27.05.2021
6523 Clouds 20 1015 73 10000 3.6 110 17:29 27.05.2021
6524 Clouds 20 1016 72 10000 3.09 120 16:58 27.05.2021
6525 Clouds 20 1015 70 10000 3.09 140 16:32 27.05.2021
6526 Clouds 20 1015 70 10000 3.09 120 15:44 27.05.2021
6527 Clouds 20 1015 74 10000 2.57 130 15:18 27.05.2021
6528 Clouds 20 1015 72 10000 2.57 130 14:35 27.05.2021
6529 Clouds 19 1015 73 10000 0.45 263 13:56 27.05.2021
6530 Clouds 20 1016 74 10000 3.09 120 13:37 27.05.2021
6531 Clouds 20 1016 74 10000 3.09 120 13:19 27.05.2021
6532 Clouds 19 1016 76 10000 3.6 130 12:42 27.05.2021
6533 Clouds 19 1016 76 10000 0.45 238 12:24 27.05.2021
6534 Clouds 19 1016 78 10000 2.57 140 11:52 27.05.2021
6535 Clouds 19 1016 79 10000 0.45 257 11:19 27.05.2021
6536 Clouds 19 1016 80 10000 2.06 140 10:45 27.05.2021
6537 Clouds 18 1015 79 10000 1.03 0 09:59 27.05.2021
6538 Clouds 17 1015 80 10000 1.03 0 09:34 27.05.2021
6539 Clouds 16 1015 81 10000 1.54 320 08:34 27.05.2021
6540 Clouds 15 1015 86 10000 2.06 320 07:35 27.05.2021
6541 Clear 14 1015 84 10000 2.57 320 04:21 27.05.2021
6542 Clear 15 1016 84 10000 1.03 320 01:22 27.05.2021
6543 Clouds 15 1017 83 10000 1.03 240 23:40 26.05.2021
6544 Clouds 16 1017 80 10000 2.06 190 23:21 26.05.2021
6545 Clouds 16 1016 82 10000 2.06 170 22:44 26.05.2021
6546 Clouds 16 1016 79 10000 1.03 160 22:21 26.05.2021
6547 Clouds 16 1016 78 10000 1.03 170 21:40 26.05.2021
6548 Clouds 17 1016 78 10000 1.03 180 21:21 26.05.2021
6549 Clouds 17 1016 78 10000 1.03 180 20:43 26.05.2021
6550 Clouds 18 1016 74 10000 0.45 236 20:23 26.05.2021
6551 Clouds 18 1016 71 10000 0.45 231 19:52 26.05.2021
6552 Clouds 18 1016 69 10000 2.57 200 19:29 26.05.2021
6553 Clouds 18 1017 68 10000 2.57 190 18:53 26.05.2021
6554 Clouds 18 1017 63 10000 2.57 140 18:19 26.05.2021
6555 Clouds 19 1018 63 10000 2.57 140 17:23 26.05.2021
6556 Clouds 19 1017 65 10000 0.45 241 16:43 26.05.2021
6557 Clouds 19 1017 70 10000 0.45 229 16:20 26.05.2021
6558 Clouds 19 1017 70 10000 0.45 236 15:47 26.05.2021
6559 Clouds 19 1017 71 10000 0.45 239 15:24 26.05.2021
6560 Clouds 19 1017 71 10000 0.45 243 14:47 26.05.2021
6561 Clouds 19 1018 74 10000 0.45 219 14:21 26.05.2021
6562 Clouds 20 1018 73 10000 0.45 246 13:51 26.05.2021
6563 Clouds 20 1018 71 10000 0.45 245 13:21 26.05.2021
6564 Clouds 19 1018 72 10000 0.45 243 12:30 26.05.2021
6565 Clouds 18 1018 75 10000 0.45 236 11:50 26.05.2021
6566 Clouds 19 1018 73 10000 0.45 278 11:25 26.05.2021
6567 Clouds 19 1018 71 10000 4.12 190 10:45 26.05.2021
6568 Clouds 18 1018 66 10000 2.57 190 10:27 26.05.2021
6569 Clouds 18 1018 63 10000 2.06 260 09:51 26.05.2021
6570 Clouds 17 1018 62 10000 1.54 340 09:31 26.05.2021
6571 Clear 15 1018 66 10000 2.57 330 08:54 26.05.2021
6572 Clear 13 1017 65 10000 5.14 320 07:39 26.05.2021
6573 Clear 13 1017 66 10000 0.45 354 06:49 26.05.2021
6574 Clear 12 1018 72 10000 4.63 330 05:28 26.05.2021
6575 Clouds 15 1019 86 10000 3.09 320 00:52 26.05.2021
6576 Clear 14 1018 85 10000 0.68 292 23:35 25.05.2021
6577 Clouds 16 1018 84 10000 6.17 80 22:51 25.05.2021
6578 Clouds 16 1018 86 10000 5.66 80 21:59 25.05.2021
6579 Clouds 17 1017 86 10000 4.12 70 21:37 25.05.2021
6580 Clouds 17 1017 86 10000 4.12 70 21:18 25.05.2021
6581 Clear 18 1017 79 10000 7.72 100 20:33 25.05.2021
6582 Clear 21 1016 73 10000 1.5 139 19:43 25.05.2021
6583 Clear 21 1016 67 10000 0.45 288 19:23 25.05.2021
6584 Clouds 21 1016 66 10000 0.45 358 18:48 25.05.2021
6585 Clouds 21 1016 66 10000 9.26 90 18:30 25.05.2021
6586 Clouds 22 1016 63 10000 0.45 235 17:37 25.05.2021
6587 Clouds 22 1017 61 10000 0.89 256 16:45 25.05.2021
6588 Clear 23 1017 58 10000 0.45 240 16:25 25.05.2021
6589 Clear 22 1017 60 10000 0.45 240 15:50 25.05.2021
6590 Clear 23 1016 58 10000 0.45 245 15:21 25.05.2021
6591 Clear 22 1016 60 10000 10.29 90 14:49 25.05.2021
6592 Clear 23 1016 50 10000 5.14 220 14:30 25.05.2021
6593 Clear 23 1016 46 10000 6.69 240 13:54 25.05.2021
6594 Clear 23 1016 49 10000 6.69 210 13:28 25.05.2021
6595 Clear 22 1016 48 10000 8.23 210 12:47 25.05.2021
6596 Clear 21 1016 49 10000 8.75 230 12:26 25.05.2021
6597 Clear 21 1016 51 10000 7.72 230 11:42 25.05.2021
6598 Clear 20 1016 54 10000 9.77 210 11:21 25.05.2021
6599 Clear 19 1016 55 10000 7.2 230 10:37 25.05.2021
6600 Clear 19 1017 52 10000 3.6 290 09:50 25.05.2021
6601 Clear 17 1017 59 10000 2.06 310 08:42 25.05.2021
6602 Clear 14 1016 80 10000 2.57 290 07:54 25.05.2021
6603 Clear 13 1015 81 10000 2.57 310 06:48 25.05.2021
6604 Clear 14 1015 87 10000 1.54 20 03:32 25.05.2021
6605 Clear 14 1015 85 10000 1.54 20 03:32 25.05.2021
6606 Clear 16 1014 87 10000 1.54 40 00:37 25.05.2021
6607 Clear 16 1014 83 10000 2.06 340 23:38 24.05.2021
6608 Clear 16 1014 87 10000 1.03 0 22:55 24.05.2021
6609 Clear 16 1014 84 10000 1.54 100 22:34 24.05.2021
6610 Clear 16 1013 81 10000 1.54 50 21:53 24.05.2021
6611 Clouds 17 1013 86 10000 2.06 70 21:21 24.05.2021
6612 Clouds 17 1013 82 10000 3.6 40 20:49 24.05.2021
6613 Clouds 18 1013 81 10000 5.14 30 20:21 24.05.2021
6614 Clouds 19 1012 84 10000 3.6 40 19:48 24.05.2021
6615 Clouds 18 1012 87 10000 2.57 230 19:29 24.05.2021
6616 Clouds 18 1013 84 10000 3.6 220 18:58 24.05.2021
6617 Clouds 19 1013 83 10000 7.2 220 18:31 24.05.2021
6618 Clouds 19 1013 82 10000 5.66 210 17:50 24.05.2021
6619 Clouds 18 1013 81 10000 6.17 210 17:23 24.05.2021
6620 Clouds 17 1013 83 10000 6.69 210 16:47 24.05.2021
6621 Clouds 16 1014 83 10000 5.14 200 15:54 24.05.2021
6622 Clouds 16 1014 84 10000 5.66 210 15:24 24.05.2021
6623 Clouds 16 1014 81 10000 4.63 220 14:41 24.05.2021
6624 Clouds 15 1014 81 10000 1.54 200 13:58 24.05.2021
6625 Clouds 15 1014 81 10000 1.54 200 13:40 24.05.2021
6626 Clouds 15 1014 84 4000 1.54 0 13:18 24.05.2021
6627 Clouds 14 1014 87 5000 3.09 250 12:29 24.05.2021
6628 Clouds 14 1015 85 7000 5.14 250 11:52 24.05.2021
6629 Clouds 14 1014 85 10000 2.06 170 11:25 24.05.2021
6630 Clouds 14 1014 85 10000 3.09 130 10:53 24.05.2021
6631 Clouds 14 1014 85 10000 1.03 0 10:20 24.05.2021
6632 Rain 14 1015 82 10000 1.03 280 09:42 24.05.2021
6633 Clouds 13 1016 85 6000 2.57 320 09:18 24.05.2021
6634 Rain 13 1016 85 6000 2.57 310 08:36 24.05.2021
6635 Rain 13 1014 79 10000 6.69 50 06:59 24.05.2021
6636 Rain 15 1015 84 10000 6.17 70 04:27 24.05.2021
6637 Rain 16 1015 82 10000 2.19 90 03:30 24.05.2021
6638 Clouds 17 1016 86 10000 6.17 80 00:44 24.05.2021
6639 Clouds 17 1016 86 10000 6.17 80 23:46 23.05.2021
6640 Clouds 17 1